<?xml version="1.0" encoding="UTF-8" standalone="no" ?>
<gpx xmlns="http://www.topografix.com/GPX/1/1" xmlns:xsi="http://www.w3.org/2001/XMLSchema-instance" xsi:schemaLocation="http://www.topografix.com/GPX/1/1 http://www.topografix.com/GPX/1/1/gpx.xsd" version="1.1" creator="VisuGPX - https://www.visugpx.com">
  <metadata>
    <name>Aiguillettes de Vaujany (7). Avec Marie....</name>
  </metadata>
  <trk>
    <name><![CDATA[Aiguillettes de Vaujany (7). Avec Marie...._1]]></name>
    <extensions>
      <line xmlns="http://www.topografix.com/GPX/gpx_style/0/2">
        <color>0000FF</color>
        <width>4</width>
      </line>
    </extensions>
    <trkseg>
      <trkpt lat="45.16862" lon="6.09433">
        <ele>1425</ele>
        <time>2025-02-09T07:45:05Z</time>
      </trkpt>
      <trkpt lat="45.16863" lon="6.09434">
        <ele>1425</ele>
        <time>2025-02-09T07:45:13Z</time>
      </trkpt>
      <trkpt lat="45.16865" lon="6.09434">
        <ele>1425</ele>
        <time>2025-02-09T07:45:15Z</time>
      </trkpt>
      <trkpt lat="45.16866" lon="6.09434">
        <ele>1425</ele>
        <time>2025-02-09T07:45:24Z</time>
      </trkpt>
      <trkpt lat="45.16867" lon="6.09435">
        <ele>1425</ele>
        <time>2025-02-09T07:45:29Z</time>
      </trkpt>
      <trkpt lat="45.16868" lon="6.09435">
        <ele>1425</ele>
        <time>2025-02-09T07:45:33Z</time>
      </trkpt>
      <trkpt lat="45.16869" lon="6.09435">
        <ele>1425</ele>
        <time>2025-02-09T07:45:36Z</time>
      </trkpt>
      <trkpt lat="45.1687" lon="6.09436">
        <ele>1425</ele>
        <time>2025-02-09T07:45:39Z</time>
      </trkpt>
      <trkpt lat="45.16871" lon="6.09436">
        <ele>1425</ele>
        <time>2025-02-09T07:45:42Z</time>
      </trkpt>
      <trkpt lat="45.16873" lon="6.09436">
        <ele>1426</ele>
        <time>2025-02-09T07:45:43Z</time>
      </trkpt>
      <trkpt lat="45.16875" lon="6.09437">
        <ele>1426</ele>
        <time>2025-02-09T07:45:45Z</time>
      </trkpt>
      <trkpt lat="45.16877" lon="6.09438">
        <ele>1426</ele>
        <time>2025-02-09T07:45:48Z</time>
      </trkpt>
      <trkpt lat="45.1688" lon="6.09439">
        <ele>1426</ele>
        <time>2025-02-09T07:45:51Z</time>
      </trkpt>
      <trkpt lat="45.16882" lon="6.0944">
        <ele>1426</ele>
        <time>2025-02-09T07:45:53Z</time>
      </trkpt>
      <trkpt lat="45.16885" lon="6.09441">
        <ele>1426</ele>
        <time>2025-02-09T07:45:56Z</time>
      </trkpt>
      <trkpt lat="45.16886" lon="6.09441">
        <ele>1426</ele>
        <time>2025-02-09T07:45:59Z</time>
      </trkpt>
      <trkpt lat="45.16887" lon="6.09442">
        <ele>1426</ele>
        <time>2025-02-09T07:46:02Z</time>
      </trkpt>
      <trkpt lat="45.16889" lon="6.09442">
        <ele>1427</ele>
        <time>2025-02-09T07:46:03Z</time>
      </trkpt>
      <trkpt lat="45.16891" lon="6.09443">
        <ele>1427</ele>
        <time>2025-02-09T07:46:05Z</time>
      </trkpt>
      <trkpt lat="45.16893" lon="6.09445">
        <ele>1427</ele>
        <time>2025-02-09T07:46:08Z</time>
      </trkpt>
      <trkpt lat="45.16896" lon="6.09446">
        <ele>1427</ele>
        <time>2025-02-09T07:46:11Z</time>
      </trkpt>
      <trkpt lat="45.16896" lon="6.09446">
        <ele>1428</ele>
        <time>2025-02-09T07:46:13Z</time>
      </trkpt>
      <trkpt lat="45.16898" lon="6.09447">
        <ele>1428</ele>
        <time>2025-02-09T07:46:14Z</time>
      </trkpt>
      <trkpt lat="45.169" lon="6.09448">
        <ele>1428</ele>
        <time>2025-02-09T07:46:17Z</time>
      </trkpt>
      <trkpt lat="45.16902" lon="6.09449">
        <ele>1428</ele>
        <time>2025-02-09T07:46:20Z</time>
      </trkpt>
      <trkpt lat="45.16905" lon="6.0945">
        <ele>1428</ele>
        <time>2025-02-09T07:46:23Z</time>
      </trkpt>
      <trkpt lat="45.16908" lon="6.09451">
        <ele>1428</ele>
        <time>2025-02-09T07:46:26Z</time>
      </trkpt>
      <trkpt lat="45.16909" lon="6.09452">
        <ele>1428</ele>
        <time>2025-02-09T07:46:29Z</time>
      </trkpt>
      <trkpt lat="45.1691" lon="6.09452">
        <ele>1428</ele>
        <time>2025-02-09T07:46:32Z</time>
      </trkpt>
      <trkpt lat="45.16911" lon="6.09452">
        <ele>1429</ele>
        <time>2025-02-09T07:46:33Z</time>
      </trkpt>
      <trkpt lat="45.16913" lon="6.09453">
        <ele>1429</ele>
        <time>2025-02-09T07:46:35Z</time>
      </trkpt>
      <trkpt lat="45.16915" lon="6.09454">
        <ele>1429</ele>
        <time>2025-02-09T07:46:38Z</time>
      </trkpt>
      <trkpt lat="45.16918" lon="6.09455">
        <ele>1429</ele>
        <time>2025-02-09T07:46:41Z</time>
      </trkpt>
      <trkpt lat="45.16918" lon="6.09455">
        <ele>1429</ele>
        <time>2025-02-09T07:46:43Z</time>
      </trkpt>
      <trkpt lat="45.1692" lon="6.09455">
        <ele>1429</ele>
        <time>2025-02-09T07:46:44Z</time>
      </trkpt>
      <trkpt lat="45.16922" lon="6.09456">
        <ele>1429</ele>
        <time>2025-02-09T07:46:47Z</time>
      </trkpt>
      <trkpt lat="45.16924" lon="6.09457">
        <ele>1429</ele>
        <time>2025-02-09T07:46:50Z</time>
      </trkpt>
      <trkpt lat="45.16926" lon="6.09458">
        <ele>1429</ele>
        <time>2025-02-09T07:46:53Z</time>
      </trkpt>
      <trkpt lat="45.16929" lon="6.09459">
        <ele>1429</ele>
        <time>2025-02-09T07:46:56Z</time>
      </trkpt>
      <trkpt lat="45.1693" lon="6.0946">
        <ele>1429</ele>
        <time>2025-02-09T07:46:59Z</time>
      </trkpt>
      <trkpt lat="45.16931" lon="6.0946">
        <ele>1429</ele>
        <time>2025-02-09T07:47:02Z</time>
      </trkpt>
      <trkpt lat="45.16932" lon="6.09461">
        <ele>1432</ele>
        <time>2025-02-09T07:47:03Z</time>
      </trkpt>
      <trkpt lat="45.16934" lon="6.09462">
        <ele>1432</ele>
        <time>2025-02-09T07:47:05Z</time>
      </trkpt>
      <trkpt lat="45.16937" lon="6.09463">
        <ele>1432</ele>
        <time>2025-02-09T07:47:08Z</time>
      </trkpt>
      <trkpt lat="45.16939" lon="6.09464">
        <ele>1432</ele>
        <time>2025-02-09T07:47:11Z</time>
      </trkpt>
      <trkpt lat="45.16939" lon="6.09464">
        <ele>1433</ele>
        <time>2025-02-09T07:47:13Z</time>
      </trkpt>
      <trkpt lat="45.16941" lon="6.09465">
        <ele>1433</ele>
        <time>2025-02-09T07:47:14Z</time>
      </trkpt>
      <trkpt lat="45.16943" lon="6.09466">
        <ele>1433</ele>
        <time>2025-02-09T07:47:17Z</time>
      </trkpt>
      <trkpt lat="45.16945" lon="6.09467">
        <ele>1433</ele>
        <time>2025-02-09T07:47:20Z</time>
      </trkpt>
      <trkpt lat="45.16948" lon="6.09468">
        <ele>1433</ele>
        <time>2025-02-09T07:47:23Z</time>
      </trkpt>
      <trkpt lat="45.16951" lon="6.0947">
        <ele>1433</ele>
        <time>2025-02-09T07:47:26Z</time>
      </trkpt>
      <trkpt lat="45.16952" lon="6.0947">
        <ele>1433</ele>
        <time>2025-02-09T07:47:29Z</time>
      </trkpt>
      <trkpt lat="45.16953" lon="6.09471">
        <ele>1433</ele>
        <time>2025-02-09T07:47:32Z</time>
      </trkpt>
      <trkpt lat="45.16954" lon="6.09472">
        <ele>1434</ele>
        <time>2025-02-09T07:47:33Z</time>
      </trkpt>
      <trkpt lat="45.16956" lon="6.09473">
        <ele>1434</ele>
        <time>2025-02-09T07:47:35Z</time>
      </trkpt>
      <trkpt lat="45.16958" lon="6.09474">
        <ele>1434</ele>
        <time>2025-02-09T07:47:38Z</time>
      </trkpt>
      <trkpt lat="45.1696" lon="6.09475">
        <ele>1434</ele>
        <time>2025-02-09T07:47:41Z</time>
      </trkpt>
      <trkpt lat="45.1696" lon="6.09475">
        <ele>1434</ele>
        <time>2025-02-09T07:47:43Z</time>
      </trkpt>
      <trkpt lat="45.1696" lon="6.09475">
        <ele>1436</ele>
        <time>2025-02-09T07:47:53Z</time>
      </trkpt>
      <trkpt lat="45.16969" lon="6.09481">
        <ele>1436</ele>
        <time>2025-02-09T07:47:54Z</time>
      </trkpt>
      <trkpt lat="45.16969" lon="6.09481">
        <ele>1437</ele>
        <time>2025-02-09T07:48:03Z</time>
      </trkpt>
      <trkpt lat="45.16978" lon="6.09485">
        <ele>1437</ele>
        <time>2025-02-09T07:48:05Z</time>
      </trkpt>
      <trkpt lat="45.16978" lon="6.09485">
        <ele>1437</ele>
        <time>2025-02-09T07:48:13Z</time>
      </trkpt>
      <trkpt lat="45.16986" lon="6.09492">
        <ele>1437</ele>
        <time>2025-02-09T07:48:18Z</time>
      </trkpt>
      <trkpt lat="45.16986" lon="6.09492">
        <ele>1438</ele>
        <time>2025-02-09T07:48:23Z</time>
      </trkpt>
      <trkpt lat="45.16995" lon="6.09495">
        <ele>1438</ele>
        <time>2025-02-09T07:48:32Z</time>
      </trkpt>
      <trkpt lat="45.16995" lon="6.09495">
        <ele>1440</ele>
        <time>2025-02-09T07:48:33Z</time>
      </trkpt>
      <trkpt lat="45.17004" lon="6.09494">
        <ele>1440</ele>
        <time>2025-02-09T07:48:42Z</time>
      </trkpt>
      <trkpt lat="45.17004" lon="6.09494">
        <ele>1441</ele>
        <time>2025-02-09T07:48:43Z</time>
      </trkpt>
      <trkpt lat="45.17004" lon="6.09494">
        <ele>1442</ele>
        <time>2025-02-09T07:48:53Z</time>
      </trkpt>
      <trkpt lat="45.17014" lon="6.09496">
        <ele>1442</ele>
        <time>2025-02-09T07:48:54Z</time>
      </trkpt>
      <trkpt lat="45.17014" lon="6.09496">
        <ele>1444</ele>
        <time>2025-02-09T07:49:03Z</time>
      </trkpt>
      <trkpt lat="45.17014" lon="6.09496">
        <ele>1445</ele>
        <time>2025-02-09T07:49:13Z</time>
      </trkpt>
      <trkpt lat="45.17024" lon="6.09497">
        <ele>1445</ele>
        <time>2025-02-09T07:49:19Z</time>
      </trkpt>
      <trkpt lat="45.17024" lon="6.09497">
        <ele>1446</ele>
        <time>2025-02-09T07:49:23Z</time>
      </trkpt>
      <trkpt lat="45.17024" lon="6.09497">
        <ele>1447</ele>
        <time>2025-02-09T07:49:33Z</time>
      </trkpt>
      <trkpt lat="45.17033" lon="6.09498">
        <ele>1447</ele>
        <time>2025-02-09T07:49:36Z</time>
      </trkpt>
      <trkpt lat="45.17033" lon="6.09498">
        <ele>1449</ele>
        <time>2025-02-09T07:49:43Z</time>
      </trkpt>
      <trkpt lat="45.17041" lon="6.09495">
        <ele>1449</ele>
        <time>2025-02-09T07:49:50Z</time>
      </trkpt>
      <trkpt lat="45.17041" lon="6.09495">
        <ele>1450</ele>
        <time>2025-02-09T07:49:53Z</time>
      </trkpt>
      <trkpt lat="45.17051" lon="6.09496">
        <ele>1452</ele>
        <time>2025-02-09T07:50:03Z</time>
      </trkpt>
      <trkpt lat="45.17051" lon="6.09496">
        <ele>1453</ele>
        <time>2025-02-09T07:50:13Z</time>
      </trkpt>
      <trkpt lat="45.1706" lon="6.09494">
        <ele>1453</ele>
        <time>2025-02-09T07:50:20Z</time>
      </trkpt>
      <trkpt lat="45.1706" lon="6.09494">
        <ele>1454</ele>
        <time>2025-02-09T07:50:23Z</time>
      </trkpt>
      <trkpt lat="45.17063" lon="6.09491">
        <ele>1456</ele>
        <time>2025-02-09T07:50:33Z</time>
      </trkpt>
      <trkpt lat="45.17065" lon="6.09489">
        <ele>1456</ele>
        <time>2025-02-09T07:50:37Z</time>
      </trkpt>
      <trkpt lat="45.17068" lon="6.09487">
        <ele>1458</ele>
        <time>2025-02-09T07:50:43Z</time>
      </trkpt>
      <trkpt lat="45.17071" lon="6.09485">
        <ele>1458</ele>
        <time>2025-02-09T07:50:52Z</time>
      </trkpt>
      <trkpt lat="45.17074" lon="6.09482">
        <ele>1458</ele>
        <time>2025-02-09T07:50:53Z</time>
      </trkpt>
      <trkpt lat="45.17075" lon="6.0948">
        <ele>1459</ele>
        <time>2025-02-09T07:51:03Z</time>
      </trkpt>
      <trkpt lat="45.17077" lon="6.09477">
        <ele>1459</ele>
        <time>2025-02-09T07:51:07Z</time>
      </trkpt>
      <trkpt lat="45.17079" lon="6.09475">
        <ele>1459</ele>
        <time>2025-02-09T07:51:13Z</time>
      </trkpt>
      <trkpt lat="45.1708" lon="6.09472">
        <ele>1461</ele>
        <time>2025-02-09T07:51:23Z</time>
      </trkpt>
      <trkpt lat="45.17082" lon="6.0947">
        <ele>1461</ele>
        <time>2025-02-09T07:51:32Z</time>
      </trkpt>
      <trkpt lat="45.17084" lon="6.09467">
        <ele>1462</ele>
        <time>2025-02-09T07:51:33Z</time>
      </trkpt>
      <trkpt lat="45.17084" lon="6.09467">
        <ele>1464</ele>
        <time>2025-02-09T07:51:43Z</time>
      </trkpt>
      <trkpt lat="45.17087" lon="6.09479">
        <ele>1464</ele>
        <time>2025-02-09T07:51:48Z</time>
      </trkpt>
      <trkpt lat="45.17087" lon="6.09479">
        <ele>1464</ele>
        <time>2025-02-09T07:51:53Z</time>
      </trkpt>
      <trkpt lat="45.17093" lon="6.0949">
        <ele>1465</ele>
        <time>2025-02-09T07:52:03Z</time>
      </trkpt>
      <trkpt lat="45.17093" lon="6.0949">
        <ele>1466</ele>
        <time>2025-02-09T07:52:13Z</time>
      </trkpt>
      <trkpt lat="45.17099" lon="6.095">
        <ele>1466</ele>
        <time>2025-02-09T07:52:17Z</time>
      </trkpt>
      <trkpt lat="45.17099" lon="6.095">
        <ele>1468</ele>
        <time>2025-02-09T07:52:23Z</time>
      </trkpt>
      <trkpt lat="45.17107" lon="6.09507">
        <ele>1470</ele>
        <time>2025-02-09T07:52:33Z</time>
      </trkpt>
      <trkpt lat="45.17107" lon="6.09507">
        <ele>1471</ele>
        <time>2025-02-09T07:52:43Z</time>
      </trkpt>
      <trkpt lat="45.17107" lon="6.09507">
        <ele>1472</ele>
        <time>2025-02-09T07:52:53Z</time>
      </trkpt>
      <trkpt lat="45.1711" lon="6.09495">
        <ele>1472</ele>
        <time>2025-02-09T07:52:57Z</time>
      </trkpt>
      <trkpt lat="45.1711" lon="6.09495">
        <ele>1474</ele>
        <time>2025-02-09T07:53:03Z</time>
      </trkpt>
      <trkpt lat="45.1711" lon="6.09495">
        <ele>1475</ele>
        <time>2025-02-09T07:53:13Z</time>
      </trkpt>
      <trkpt lat="45.17113" lon="6.09482">
        <ele>1475</ele>
        <time>2025-02-09T07:53:14Z</time>
      </trkpt>
      <trkpt lat="45.17113" lon="6.09482">
        <ele>1477</ele>
        <time>2025-02-09T07:53:23Z</time>
      </trkpt>
      <trkpt lat="45.17116" lon="6.0947">
        <ele>1478</ele>
        <time>2025-02-09T07:53:33Z</time>
      </trkpt>
      <trkpt lat="45.17116" lon="6.0947">
        <ele>1479</ele>
        <time>2025-02-09T07:53:43Z</time>
      </trkpt>
      <trkpt lat="45.17121" lon="6.09458">
        <ele>1479</ele>
        <time>2025-02-09T07:53:46Z</time>
      </trkpt>
      <trkpt lat="45.17121" lon="6.09458">
        <ele>1481</ele>
        <time>2025-02-09T07:53:53Z</time>
      </trkpt>
      <trkpt lat="45.17125" lon="6.09446">
        <ele>1482</ele>
        <time>2025-02-09T07:54:03Z</time>
      </trkpt>
      <trkpt lat="45.17125" lon="6.09446">
        <ele>1484</ele>
        <time>2025-02-09T07:54:13Z</time>
      </trkpt>
      <trkpt lat="45.17127" lon="6.09433">
        <ele>1484</ele>
        <time>2025-02-09T07:54:16Z</time>
      </trkpt>
      <trkpt lat="45.17127" lon="6.09433">
        <ele>1485</ele>
        <time>2025-02-09T07:54:23Z</time>
      </trkpt>
      <trkpt lat="45.17127" lon="6.09433">
        <ele>1487</ele>
        <time>2025-02-09T07:54:33Z</time>
      </trkpt>
      <trkpt lat="45.1713" lon="6.09422">
        <ele>1487</ele>
        <time>2025-02-09T07:54:35Z</time>
      </trkpt>
      <trkpt lat="45.1713" lon="6.09422">
        <ele>1489</ele>
        <time>2025-02-09T07:54:43Z</time>
      </trkpt>
      <trkpt lat="45.1713" lon="6.09422">
        <ele>1491</ele>
        <time>2025-02-09T07:54:53Z</time>
      </trkpt>
      <trkpt lat="45.1714" lon="6.09424">
        <ele>1491</ele>
        <time>2025-02-09T07:54:56Z</time>
      </trkpt>
      <trkpt lat="45.1714" lon="6.09424">
        <ele>1493</ele>
        <time>2025-02-09T07:55:03Z</time>
      </trkpt>
      <trkpt lat="45.1714" lon="6.09424">
        <ele>1494</ele>
        <time>2025-02-09T07:55:13Z</time>
      </trkpt>
      <trkpt lat="45.17147" lon="6.09416">
        <ele>1494</ele>
        <time>2025-02-09T07:55:14Z</time>
      </trkpt>
      <trkpt lat="45.17147" lon="6.09416">
        <ele>1496</ele>
        <time>2025-02-09T07:55:23Z</time>
      </trkpt>
      <trkpt lat="45.17147" lon="6.09416">
        <ele>1497</ele>
        <time>2025-02-09T07:55:33Z</time>
      </trkpt>
      <trkpt lat="45.17152" lon="6.09405">
        <ele>1497</ele>
        <time>2025-02-09T07:55:35Z</time>
      </trkpt>
      <trkpt lat="45.17152" lon="6.09405">
        <ele>1498</ele>
        <time>2025-02-09T07:55:43Z</time>
      </trkpt>
      <trkpt lat="45.17148" lon="6.09393">
        <ele>1498</ele>
        <time>2025-02-09T07:55:51Z</time>
      </trkpt>
      <trkpt lat="45.17148" lon="6.09393">
        <ele>1499</ele>
        <time>2025-02-09T07:55:53Z</time>
      </trkpt>
      <trkpt lat="45.17148" lon="6.09393">
        <ele>1500</ele>
        <time>2025-02-09T07:56:03Z</time>
      </trkpt>
      <trkpt lat="45.17153" lon="6.09382">
        <ele>1500</ele>
        <time>2025-02-09T07:56:05Z</time>
      </trkpt>
      <trkpt lat="45.17153" lon="6.09382">
        <ele>1500</ele>
        <time>2025-02-09T07:56:13Z</time>
      </trkpt>
      <trkpt lat="45.17153" lon="6.09382">
        <ele>1500</ele>
        <time>2025-02-09T07:56:23Z</time>
      </trkpt>
      <trkpt lat="45.17153" lon="6.09382">
        <ele>1502</ele>
        <time>2025-02-09T07:56:33Z</time>
      </trkpt>
      <trkpt lat="45.17153" lon="6.09382">
        <ele>1501</ele>
        <time>2025-02-09T07:56:43Z</time>
      </trkpt>
      <trkpt lat="45.17153" lon="6.09382">
        <ele>1500</ele>
        <time>2025-02-09T07:56:53Z</time>
      </trkpt>
      <trkpt lat="45.17153" lon="6.09382">
        <ele>1500</ele>
        <time>2025-02-09T07:57:03Z</time>
      </trkpt>
      <trkpt lat="45.17153" lon="6.09382">
        <ele>1500</ele>
        <time>2025-02-09T07:57:13Z</time>
      </trkpt>
      <trkpt lat="45.17153" lon="6.09382">
        <ele>1500</ele>
        <time>2025-02-09T07:57:23Z</time>
      </trkpt>
      <trkpt lat="45.17153" lon="6.09382">
        <ele>1500</ele>
        <time>2025-02-09T07:57:33Z</time>
      </trkpt>
      <trkpt lat="45.17153" lon="6.09382">
        <ele>1500</ele>
        <time>2025-02-09T07:57:43Z</time>
      </trkpt>
      <trkpt lat="45.17153" lon="6.09382">
        <ele>1500</ele>
        <time>2025-02-09T07:57:53Z</time>
      </trkpt>
      <trkpt lat="45.17153" lon="6.09382">
        <ele>1500</ele>
        <time>2025-02-09T07:58:03Z</time>
      </trkpt>
      <trkpt lat="45.17153" lon="6.09382">
        <ele>1501</ele>
        <time>2025-02-09T07:58:13Z</time>
      </trkpt>
      <trkpt lat="45.17153" lon="6.09382">
        <ele>1500</ele>
        <time>2025-02-09T07:58:23Z</time>
      </trkpt>
      <trkpt lat="45.17153" lon="6.09382">
        <ele>1500</ele>
        <time>2025-02-09T07:58:33Z</time>
      </trkpt>
      <trkpt lat="45.17153" lon="6.09382">
        <ele>1500</ele>
        <time>2025-02-09T07:58:43Z</time>
      </trkpt>
      <trkpt lat="45.17153" lon="6.09382">
        <ele>1501</ele>
        <time>2025-02-09T07:58:53Z</time>
      </trkpt>
      <trkpt lat="45.17156" lon="6.09369">
        <ele>1501</ele>
        <time>2025-02-09T07:59:03Z</time>
      </trkpt>
      <trkpt lat="45.17156" lon="6.09369">
        <ele>1501</ele>
        <time>2025-02-09T07:59:13Z</time>
      </trkpt>
      <trkpt lat="45.17156" lon="6.09369">
        <ele>1503</ele>
        <time>2025-02-09T07:59:23Z</time>
      </trkpt>
      <trkpt lat="45.17156" lon="6.09369">
        <ele>1503</ele>
        <time>2025-02-09T07:59:33Z</time>
      </trkpt>
      <trkpt lat="45.17156" lon="6.09369">
        <ele>1503</ele>
        <time>2025-02-09T07:59:43Z</time>
      </trkpt>
      <trkpt lat="45.17158" lon="6.09357">
        <ele>1503</ele>
        <time>2025-02-09T07:59:51Z</time>
      </trkpt>
      <trkpt lat="45.17158" lon="6.09357">
        <ele>1504</ele>
        <time>2025-02-09T07:59:53Z</time>
      </trkpt>
      <trkpt lat="45.17158" lon="6.09357">
        <ele>1506</ele>
        <time>2025-02-09T08:00:03Z</time>
      </trkpt>
      <trkpt lat="45.17156" lon="6.09343">
        <ele>1506</ele>
        <time>2025-02-09T08:00:07Z</time>
      </trkpt>
      <trkpt lat="45.17156" lon="6.09343">
        <ele>1508</ele>
        <time>2025-02-09T08:00:13Z</time>
      </trkpt>
      <trkpt lat="45.1715" lon="6.09333">
        <ele>1510</ele>
        <time>2025-02-09T08:00:23Z</time>
      </trkpt>
      <trkpt lat="45.1715" lon="6.09333">
        <ele>1510</ele>
        <time>2025-02-09T08:00:33Z</time>
      </trkpt>
      <trkpt lat="45.17144" lon="6.09323">
        <ele>1510</ele>
        <time>2025-02-09T08:00:35Z</time>
      </trkpt>
      <trkpt lat="45.17144" lon="6.09323">
        <ele>1511</ele>
        <time>2025-02-09T08:00:43Z</time>
      </trkpt>
      <trkpt lat="45.17144" lon="6.09323">
        <ele>1512</ele>
        <time>2025-02-09T08:00:53Z</time>
      </trkpt>
      <trkpt lat="45.17144" lon="6.09323">
        <ele>1513</ele>
        <time>2025-02-09T08:01:03Z</time>
      </trkpt>
      <trkpt lat="45.17137" lon="6.09315">
        <ele>1513</ele>
        <time>2025-02-09T08:01:06Z</time>
      </trkpt>
      <trkpt lat="45.17137" lon="6.09315">
        <ele>1515</ele>
        <time>2025-02-09T08:01:13Z</time>
      </trkpt>
      <trkpt lat="45.17137" lon="6.09315">
        <ele>1516</ele>
        <time>2025-02-09T08:01:23Z</time>
      </trkpt>
      <trkpt lat="45.17133" lon="6.09303">
        <ele>1516</ele>
        <time>2025-02-09T08:01:30Z</time>
      </trkpt>
      <trkpt lat="45.17133" lon="6.09303">
        <ele>1518</ele>
        <time>2025-02-09T08:01:33Z</time>
      </trkpt>
      <trkpt lat="45.17133" lon="6.09303">
        <ele>1519</ele>
        <time>2025-02-09T08:01:43Z</time>
      </trkpt>
      <trkpt lat="45.17143" lon="6.09305">
        <ele>1519</ele>
        <time>2025-02-09T08:01:46Z</time>
      </trkpt>
      <trkpt lat="45.17143" lon="6.09305">
        <ele>1520</ele>
        <time>2025-02-09T08:01:53Z</time>
      </trkpt>
      <trkpt lat="45.17152" lon="6.09307">
        <ele>1520</ele>
        <time>2025-02-09T08:01:59Z</time>
      </trkpt>
      <trkpt lat="45.17152" lon="6.09307">
        <ele>1520</ele>
        <time>2025-02-09T08:02:03Z</time>
      </trkpt>
      <trkpt lat="45.1716" lon="6.09313">
        <ele>1520</ele>
        <time>2025-02-09T08:02:09Z</time>
      </trkpt>
      <trkpt lat="45.1716" lon="6.09313">
        <ele>1521</ele>
        <time>2025-02-09T08:02:13Z</time>
      </trkpt>
      <trkpt lat="45.17167" lon="6.09322">
        <ele>1521</ele>
        <time>2025-02-09T08:02:20Z</time>
      </trkpt>
      <trkpt lat="45.17167" lon="6.09322">
        <ele>1523</ele>
        <time>2025-02-09T08:02:23Z</time>
      </trkpt>
      <trkpt lat="45.17175" lon="6.09326">
        <ele>1523</ele>
        <time>2025-02-09T08:02:32Z</time>
      </trkpt>
      <trkpt lat="45.17175" lon="6.09326">
        <ele>1523</ele>
        <time>2025-02-09T08:02:33Z</time>
      </trkpt>
      <trkpt lat="45.17175" lon="6.09326">
        <ele>1524</ele>
        <time>2025-02-09T08:02:43Z</time>
      </trkpt>
      <trkpt lat="45.17184" lon="6.09332">
        <ele>1524</ele>
        <time>2025-02-09T08:02:44Z</time>
      </trkpt>
      <trkpt lat="45.17184" lon="6.09332">
        <ele>1526</ele>
        <time>2025-02-09T08:02:53Z</time>
      </trkpt>
      <trkpt lat="45.17193" lon="6.09334">
        <ele>1526</ele>
        <time>2025-02-09T08:02:56Z</time>
      </trkpt>
      <trkpt lat="45.17193" lon="6.09334">
        <ele>1526</ele>
        <time>2025-02-09T08:03:03Z</time>
      </trkpt>
      <trkpt lat="45.17201" lon="6.09339">
        <ele>1526</ele>
        <time>2025-02-09T08:03:07Z</time>
      </trkpt>
      <trkpt lat="45.17201" lon="6.09339">
        <ele>1527</ele>
        <time>2025-02-09T08:03:13Z</time>
      </trkpt>
      <trkpt lat="45.1721" lon="6.09344">
        <ele>1527</ele>
        <time>2025-02-09T08:03:19Z</time>
      </trkpt>
      <trkpt lat="45.1721" lon="6.09344">
        <ele>1528</ele>
        <time>2025-02-09T08:03:23Z</time>
      </trkpt>
      <trkpt lat="45.17218" lon="6.09354">
        <ele>1529</ele>
        <time>2025-02-09T08:03:33Z</time>
      </trkpt>
      <trkpt lat="45.17218" lon="6.09354">
        <ele>1531</ele>
        <time>2025-02-09T08:03:43Z</time>
      </trkpt>
      <trkpt lat="45.17225" lon="6.09361">
        <ele>1531</ele>
        <time>2025-02-09T08:03:44Z</time>
      </trkpt>
      <trkpt lat="45.17225" lon="6.09361">
        <ele>1532</ele>
        <time>2025-02-09T08:03:53Z</time>
      </trkpt>
      <trkpt lat="45.17235" lon="6.09361">
        <ele>1532</ele>
        <time>2025-02-09T08:03:58Z</time>
      </trkpt>
      <trkpt lat="45.17235" lon="6.09361">
        <ele>1532</ele>
        <time>2025-02-09T08:04:03Z</time>
      </trkpt>
      <trkpt lat="45.17232" lon="6.09349">
        <ele>1532</ele>
        <time>2025-02-09T08:04:11Z</time>
      </trkpt>
      <trkpt lat="45.17232" lon="6.09349">
        <ele>1534</ele>
        <time>2025-02-09T08:04:13Z</time>
      </trkpt>
      <trkpt lat="45.17224" lon="6.09343">
        <ele>1534</ele>
        <time>2025-02-09T08:04:19Z</time>
      </trkpt>
      <trkpt lat="45.17224" lon="6.09343">
        <ele>1534</ele>
        <time>2025-02-09T08:04:23Z</time>
      </trkpt>
      <trkpt lat="45.17216" lon="6.09335">
        <ele>1534</ele>
        <time>2025-02-09T08:04:28Z</time>
      </trkpt>
      <trkpt lat="45.17216" lon="6.09335">
        <ele>1535</ele>
        <time>2025-02-09T08:04:33Z</time>
      </trkpt>
      <trkpt lat="45.1721" lon="6.09324">
        <ele>1535</ele>
        <time>2025-02-09T08:04:39Z</time>
      </trkpt>
      <trkpt lat="45.1721" lon="6.09324">
        <ele>1535</ele>
        <time>2025-02-09T08:04:43Z</time>
      </trkpt>
      <trkpt lat="45.17205" lon="6.09314">
        <ele>1535</ele>
        <time>2025-02-09T08:04:48Z</time>
      </trkpt>
      <trkpt lat="45.17205" lon="6.09314">
        <ele>1537</ele>
        <time>2025-02-09T08:04:53Z</time>
      </trkpt>
      <trkpt lat="45.17199" lon="6.09304">
        <ele>1537</ele>
        <time>2025-02-09T08:04:59Z</time>
      </trkpt>
      <trkpt lat="45.17199" lon="6.09304">
        <ele>1537</ele>
        <time>2025-02-09T08:05:03Z</time>
      </trkpt>
      <trkpt lat="45.17191" lon="6.09295">
        <ele>1537</ele>
        <time>2025-02-09T08:05:10Z</time>
      </trkpt>
      <trkpt lat="45.17191" lon="6.09295">
        <ele>1538</ele>
        <time>2025-02-09T08:05:13Z</time>
      </trkpt>
      <trkpt lat="45.17182" lon="6.0929">
        <ele>1538</ele>
        <time>2025-02-09T08:05:21Z</time>
      </trkpt>
      <trkpt lat="45.17182" lon="6.0929">
        <ele>1539</ele>
        <time>2025-02-09T08:05:23Z</time>
      </trkpt>
      <trkpt lat="45.17172" lon="6.09279">
        <ele>1540</ele>
        <time>2025-02-09T08:05:33Z</time>
      </trkpt>
      <trkpt lat="45.17169" lon="6.09276">
        <ele>1540</ele>
        <time>2025-02-09T08:05:42Z</time>
      </trkpt>
      <trkpt lat="45.17167" lon="6.09273">
        <ele>1541</ele>
        <time>2025-02-09T08:05:43Z</time>
      </trkpt>
      <trkpt lat="45.17162" lon="6.09263">
        <ele>1541</ele>
        <time>2025-02-09T08:05:52Z</time>
      </trkpt>
      <trkpt lat="45.17162" lon="6.09263">
        <ele>1542</ele>
        <time>2025-02-09T08:05:53Z</time>
      </trkpt>
      <trkpt lat="45.17159" lon="6.09251">
        <ele>1542</ele>
        <time>2025-02-09T08:06:02Z</time>
      </trkpt>
      <trkpt lat="45.17159" lon="6.09251">
        <ele>1544</ele>
        <time>2025-02-09T08:06:03Z</time>
      </trkpt>
      <trkpt lat="45.17159" lon="6.09251">
        <ele>1545</ele>
        <time>2025-02-09T08:06:13Z</time>
      </trkpt>
      <trkpt lat="45.17161" lon="6.09239">
        <ele>1545</ele>
        <time>2025-02-09T08:06:16Z</time>
      </trkpt>
      <trkpt lat="45.17161" lon="6.09239">
        <ele>1545</ele>
        <time>2025-02-09T08:06:23Z</time>
      </trkpt>
      <trkpt lat="45.17166" lon="6.09228">
        <ele>1545</ele>
        <time>2025-02-09T08:06:29Z</time>
      </trkpt>
      <trkpt lat="45.17166" lon="6.09228">
        <ele>1546</ele>
        <time>2025-02-09T08:06:33Z</time>
      </trkpt>
      <trkpt lat="45.17171" lon="6.09217">
        <ele>1546</ele>
        <time>2025-02-09T08:06:40Z</time>
      </trkpt>
      <trkpt lat="45.17171" lon="6.09217">
        <ele>1547</ele>
        <time>2025-02-09T08:06:43Z</time>
      </trkpt>
      <trkpt lat="45.17178" lon="6.09209">
        <ele>1547</ele>
        <time>2025-02-09T08:06:52Z</time>
      </trkpt>
      <trkpt lat="45.17178" lon="6.09209">
        <ele>1549</ele>
        <time>2025-02-09T08:06:53Z</time>
      </trkpt>
      <trkpt lat="45.17178" lon="6.09209">
        <ele>1550</ele>
        <time>2025-02-09T08:07:03Z</time>
      </trkpt>
      <trkpt lat="45.17178" lon="6.09209">
        <ele>1551</ele>
        <time>2025-02-09T08:07:13Z</time>
      </trkpt>
      <trkpt lat="45.1718" lon="6.09222">
        <ele>1551</ele>
        <time>2025-02-09T08:07:16Z</time>
      </trkpt>
      <trkpt lat="45.1718" lon="6.09222">
        <ele>1552</ele>
        <time>2025-02-09T08:07:23Z</time>
      </trkpt>
      <trkpt lat="45.17178" lon="6.09236">
        <ele>1552</ele>
        <time>2025-02-09T08:07:26Z</time>
      </trkpt>
      <trkpt lat="45.17178" lon="6.09236">
        <ele>1553</ele>
        <time>2025-02-09T08:07:33Z</time>
      </trkpt>
      <trkpt lat="45.1718" lon="6.09249">
        <ele>1553</ele>
        <time>2025-02-09T08:07:37Z</time>
      </trkpt>
      <trkpt lat="45.1718" lon="6.09249">
        <ele>1553</ele>
        <time>2025-02-09T08:07:43Z</time>
      </trkpt>
      <trkpt lat="45.17187" lon="6.09257">
        <ele>1553</ele>
        <time>2025-02-09T08:07:49Z</time>
      </trkpt>
      <trkpt lat="45.17187" lon="6.09257">
        <ele>1554</ele>
        <time>2025-02-09T08:07:53Z</time>
      </trkpt>
      <trkpt lat="45.17196" lon="6.09263">
        <ele>1555</ele>
        <time>2025-02-09T08:08:03Z</time>
      </trkpt>
      <trkpt lat="45.17205" lon="6.09268">
        <ele>1555</ele>
        <time>2025-02-09T08:08:13Z</time>
      </trkpt>
      <trkpt lat="45.17214" lon="6.09272">
        <ele>1557</ele>
        <time>2025-02-09T08:08:23Z</time>
      </trkpt>
      <trkpt lat="45.17214" lon="6.09272">
        <ele>1558</ele>
        <time>2025-02-09T08:08:33Z</time>
      </trkpt>
      <trkpt lat="45.17223" lon="6.09277">
        <ele>1558</ele>
        <time>2025-02-09T08:08:34Z</time>
      </trkpt>
      <trkpt lat="45.17223" lon="6.09277">
        <ele>1558</ele>
        <time>2025-02-09T08:08:43Z</time>
      </trkpt>
      <trkpt lat="45.17231" lon="6.09281">
        <ele>1558</ele>
        <time>2025-02-09T08:08:45Z</time>
      </trkpt>
      <trkpt lat="45.17231" lon="6.09281">
        <ele>1559</ele>
        <time>2025-02-09T08:08:53Z</time>
      </trkpt>
      <trkpt lat="45.17241" lon="6.09286">
        <ele>1559</ele>
        <time>2025-02-09T08:08:59Z</time>
      </trkpt>
      <trkpt lat="45.17241" lon="6.09286">
        <ele>1561</ele>
        <time>2025-02-09T08:09:03Z</time>
      </trkpt>
      <trkpt lat="45.1725" lon="6.09291">
        <ele>1561</ele>
        <time>2025-02-09T08:09:08Z</time>
      </trkpt>
      <trkpt lat="45.1725" lon="6.09291">
        <ele>1563</ele>
        <time>2025-02-09T08:09:13Z</time>
      </trkpt>
      <trkpt lat="45.17258" lon="6.09297">
        <ele>1563</ele>
        <time>2025-02-09T08:09:17Z</time>
      </trkpt>
      <trkpt lat="45.17258" lon="6.09297">
        <ele>1563</ele>
        <time>2025-02-09T08:09:23Z</time>
      </trkpt>
      <trkpt lat="45.17268" lon="6.09296">
        <ele>1563</ele>
        <time>2025-02-09T08:09:30Z</time>
      </trkpt>
      <trkpt lat="45.17268" lon="6.09296">
        <ele>1563</ele>
        <time>2025-02-09T08:09:33Z</time>
      </trkpt>
      <trkpt lat="45.17277" lon="6.09293">
        <ele>1563</ele>
        <time>2025-02-09T08:09:41Z</time>
      </trkpt>
      <trkpt lat="45.17277" lon="6.09293">
        <ele>1565</ele>
        <time>2025-02-09T08:09:43Z</time>
      </trkpt>
      <trkpt lat="45.17286" lon="6.0929">
        <ele>1565</ele>
        <time>2025-02-09T08:09:52Z</time>
      </trkpt>
      <trkpt lat="45.17286" lon="6.0929">
        <ele>1567</ele>
        <time>2025-02-09T08:09:53Z</time>
      </trkpt>
      <trkpt lat="45.17286" lon="6.0929">
        <ele>1567</ele>
        <time>2025-02-09T08:10:03Z</time>
      </trkpt>
      <trkpt lat="45.17294" lon="6.09284">
        <ele>1567</ele>
        <time>2025-02-09T08:10:04Z</time>
      </trkpt>
      <trkpt lat="45.17294" lon="6.09284">
        <ele>1568</ele>
        <time>2025-02-09T08:10:13Z</time>
      </trkpt>
      <trkpt lat="45.17303" lon="6.09277">
        <ele>1568</ele>
        <time>2025-02-09T08:10:15Z</time>
      </trkpt>
      <trkpt lat="45.17303" lon="6.09277">
        <ele>1569</ele>
        <time>2025-02-09T08:10:23Z</time>
      </trkpt>
      <trkpt lat="45.17313" lon="6.09278">
        <ele>1569</ele>
        <time>2025-02-09T08:10:27Z</time>
      </trkpt>
      <trkpt lat="45.17313" lon="6.09278">
        <ele>1570</ele>
        <time>2025-02-09T08:10:33Z</time>
      </trkpt>
      <trkpt lat="45.17322" lon="6.09279">
        <ele>1570</ele>
        <time>2025-02-09T08:10:36Z</time>
      </trkpt>
      <trkpt lat="45.17322" lon="6.09279">
        <ele>1570</ele>
        <time>2025-02-09T08:10:43Z</time>
      </trkpt>
      <trkpt lat="45.17331" lon="6.09282">
        <ele>1570</ele>
        <time>2025-02-09T08:10:50Z</time>
      </trkpt>
      <trkpt lat="45.17331" lon="6.09282">
        <ele>1572</ele>
        <time>2025-02-09T08:10:53Z</time>
      </trkpt>
      <trkpt lat="45.17333" lon="6.09279">
        <ele>1573</ele>
        <time>2025-02-09T08:11:03Z</time>
      </trkpt>
      <trkpt lat="45.17336" lon="6.09276">
        <ele>1574</ele>
        <time>2025-02-09T08:11:13Z</time>
      </trkpt>
      <trkpt lat="45.17338" lon="6.09274">
        <ele>1574</ele>
        <time>2025-02-09T08:11:15Z</time>
      </trkpt>
      <trkpt lat="45.1734" lon="6.09271">
        <ele>1576</ele>
        <time>2025-02-09T08:11:23Z</time>
      </trkpt>
      <trkpt lat="45.17343" lon="6.09268">
        <ele>1578</ele>
        <time>2025-02-09T08:11:33Z</time>
      </trkpt>
      <trkpt lat="45.17345" lon="6.09266">
        <ele>1578</ele>
        <time>2025-02-09T08:11:34Z</time>
      </trkpt>
      <trkpt lat="45.17347" lon="6.09263">
        <ele>1580</ele>
        <time>2025-02-09T08:11:43Z</time>
      </trkpt>
      <trkpt lat="45.17349" lon="6.0926">
        <ele>1580</ele>
        <time>2025-02-09T08:11:46Z</time>
      </trkpt>
      <trkpt lat="45.17352" lon="6.09257">
        <ele>1582</ele>
        <time>2025-02-09T08:11:53Z</time>
      </trkpt>
      <trkpt lat="45.17354" lon="6.09255">
        <ele>1584</ele>
        <time>2025-02-09T08:12:03Z</time>
      </trkpt>
      <trkpt lat="45.17356" lon="6.09252">
        <ele>1584</ele>
        <time>2025-02-09T08:12:12Z</time>
      </trkpt>
      <trkpt lat="45.17358" lon="6.09249">
        <ele>1585</ele>
        <time>2025-02-09T08:12:13Z</time>
      </trkpt>
      <trkpt lat="45.17358" lon="6.09249">
        <ele>1587</ele>
        <time>2025-02-09T08:12:23Z</time>
      </trkpt>
      <trkpt lat="45.17366" lon="6.09255">
        <ele>1587</ele>
        <time>2025-02-09T08:12:29Z</time>
      </trkpt>
      <trkpt lat="45.17366" lon="6.09255">
        <ele>1588</ele>
        <time>2025-02-09T08:12:33Z</time>
      </trkpt>
      <trkpt lat="45.17366" lon="6.09255">
        <ele>1590</ele>
        <time>2025-02-09T08:12:43Z</time>
      </trkpt>
      <trkpt lat="45.17376" lon="6.09258">
        <ele>1590</ele>
        <time>2025-02-09T08:12:45Z</time>
      </trkpt>
      <trkpt lat="45.17376" lon="6.09258">
        <ele>1590</ele>
        <time>2025-02-09T08:12:53Z</time>
      </trkpt>
      <trkpt lat="45.1738" lon="6.09247">
        <ele>1590</ele>
        <time>2025-02-09T08:13:01Z</time>
      </trkpt>
      <trkpt lat="45.1738" lon="6.09247">
        <ele>1590</ele>
        <time>2025-02-09T08:13:03Z</time>
      </trkpt>
      <trkpt lat="45.1738" lon="6.09247">
        <ele>1592</ele>
        <time>2025-02-09T08:13:13Z</time>
      </trkpt>
      <trkpt lat="45.17389" lon="6.09243">
        <ele>1592</ele>
        <time>2025-02-09T08:13:18Z</time>
      </trkpt>
      <trkpt lat="45.17389" lon="6.09243">
        <ele>1593</ele>
        <time>2025-02-09T08:13:23Z</time>
      </trkpt>
      <trkpt lat="45.17389" lon="6.09243">
        <ele>1595</ele>
        <time>2025-02-09T08:13:33Z</time>
      </trkpt>
      <trkpt lat="45.17397" lon="6.09251">
        <ele>1595</ele>
        <time>2025-02-09T08:13:34Z</time>
      </trkpt>
      <trkpt lat="45.17397" lon="6.09251">
        <ele>1596</ele>
        <time>2025-02-09T08:13:43Z</time>
      </trkpt>
      <trkpt lat="45.17397" lon="6.09251">
        <ele>1598</ele>
        <time>2025-02-09T08:13:53Z</time>
      </trkpt>
      <trkpt lat="45.17397" lon="6.09251">
        <ele>1599</ele>
        <time>2025-02-09T08:14:03Z</time>
      </trkpt>
      <trkpt lat="45.17405" lon="6.09245">
        <ele>1599</ele>
        <time>2025-02-09T08:14:04Z</time>
      </trkpt>
      <trkpt lat="45.17405" lon="6.09245">
        <ele>1600</ele>
        <time>2025-02-09T08:14:13Z</time>
      </trkpt>
      <trkpt lat="45.17415" lon="6.09243">
        <ele>1600</ele>
        <time>2025-02-09T08:14:15Z</time>
      </trkpt>
      <trkpt lat="45.17415" lon="6.09243">
        <ele>1602</ele>
        <time>2025-02-09T08:14:23Z</time>
      </trkpt>
      <trkpt lat="45.17424" lon="6.09246">
        <ele>1602</ele>
        <time>2025-02-09T08:14:27Z</time>
      </trkpt>
      <trkpt lat="45.17424" lon="6.09246">
        <ele>1603</ele>
        <time>2025-02-09T08:14:33Z</time>
      </trkpt>
      <trkpt lat="45.17424" lon="6.09246">
        <ele>1604</ele>
        <time>2025-02-09T08:14:43Z</time>
      </trkpt>
      <trkpt lat="45.17432" lon="6.09241">
        <ele>1604</ele>
        <time>2025-02-09T08:14:46Z</time>
      </trkpt>
      <trkpt lat="45.17432" lon="6.09241">
        <ele>1606</ele>
        <time>2025-02-09T08:14:53Z</time>
      </trkpt>
      <trkpt lat="45.17432" lon="6.09241">
        <ele>1608</ele>
        <time>2025-02-09T08:15:03Z</time>
      </trkpt>
      <trkpt lat="45.17432" lon="6.09241">
        <ele>1609</ele>
        <time>2025-02-09T08:15:13Z</time>
      </trkpt>
      <trkpt lat="45.17441" lon="6.09238">
        <ele>1609</ele>
        <time>2025-02-09T08:15:14Z</time>
      </trkpt>
      <trkpt lat="45.17441" lon="6.09238">
        <ele>1611</ele>
        <time>2025-02-09T08:15:23Z</time>
      </trkpt>
      <trkpt lat="45.17451" lon="6.09238">
        <ele>1611</ele>
        <time>2025-02-09T08:15:24Z</time>
      </trkpt>
      <trkpt lat="45.17451" lon="6.09238">
        <ele>1612</ele>
        <time>2025-02-09T08:15:33Z</time>
      </trkpt>
      <trkpt lat="45.17458" lon="6.09246">
        <ele>1614</ele>
        <time>2025-02-09T08:15:43Z</time>
      </trkpt>
      <trkpt lat="45.17458" lon="6.09246">
        <ele>1615</ele>
        <time>2025-02-09T08:15:53Z</time>
      </trkpt>
      <trkpt lat="45.17462" lon="6.09257">
        <ele>1615</ele>
        <time>2025-02-09T08:15:54Z</time>
      </trkpt>
      <trkpt lat="45.17462" lon="6.09257">
        <ele>1617</ele>
        <time>2025-02-09T08:16:03Z</time>
      </trkpt>
      <trkpt lat="45.17458" lon="6.0927">
        <ele>1617</ele>
        <time>2025-02-09T08:16:11Z</time>
      </trkpt>
      <trkpt lat="45.17458" lon="6.0927">
        <ele>1618</ele>
        <time>2025-02-09T08:16:13Z</time>
      </trkpt>
      <trkpt lat="45.17458" lon="6.0927">
        <ele>1620</ele>
        <time>2025-02-09T08:16:23Z</time>
      </trkpt>
      <trkpt lat="45.17458" lon="6.0927">
        <ele>1620</ele>
        <time>2025-02-09T08:16:33Z</time>
      </trkpt>
      <trkpt lat="45.17468" lon="6.09267">
        <ele>1620</ele>
        <time>2025-02-09T08:16:41Z</time>
      </trkpt>
      <trkpt lat="45.17468" lon="6.09267">
        <ele>1621</ele>
        <time>2025-02-09T08:16:43Z</time>
      </trkpt>
      <trkpt lat="45.17468" lon="6.09267">
        <ele>1623</ele>
        <time>2025-02-09T08:16:53Z</time>
      </trkpt>
      <trkpt lat="45.17476" lon="6.09262">
        <ele>1623</ele>
        <time>2025-02-09T08:16:58Z</time>
      </trkpt>
      <trkpt lat="45.17476" lon="6.09262">
        <ele>1624</ele>
        <time>2025-02-09T08:17:03Z</time>
      </trkpt>
      <trkpt lat="45.17485" lon="6.09261">
        <ele>1624</ele>
        <time>2025-02-09T08:17:11Z</time>
      </trkpt>
      <trkpt lat="45.17485" lon="6.09261">
        <ele>1625</ele>
        <time>2025-02-09T08:17:13Z</time>
      </trkpt>
      <trkpt lat="45.17485" lon="6.09261">
        <ele>1626</ele>
        <time>2025-02-09T08:17:23Z</time>
      </trkpt>
      <trkpt lat="45.17495" lon="6.09259">
        <ele>1626</ele>
        <time>2025-02-09T08:17:26Z</time>
      </trkpt>
      <trkpt lat="45.17495" lon="6.09259">
        <ele>1627</ele>
        <time>2025-02-09T08:17:33Z</time>
      </trkpt>
      <trkpt lat="45.17504" lon="6.09256">
        <ele>1627</ele>
        <time>2025-02-09T08:17:39Z</time>
      </trkpt>
      <trkpt lat="45.17504" lon="6.09256">
        <ele>1627</ele>
        <time>2025-02-09T08:17:43Z</time>
      </trkpt>
      <trkpt lat="45.17507" lon="6.09255">
        <ele>1627</ele>
        <time>2025-02-09T08:17:53Z</time>
      </trkpt>
      <trkpt lat="45.1751" lon="6.09254">
        <ele>1627</ele>
        <time>2025-02-09T08:17:57Z</time>
      </trkpt>
      <trkpt lat="45.17514" lon="6.09253">
        <ele>1627</ele>
        <time>2025-02-09T08:18:03Z</time>
      </trkpt>
      <trkpt lat="45.17517" lon="6.09252">
        <ele>1628</ele>
        <time>2025-02-09T08:18:13Z</time>
      </trkpt>
      <trkpt lat="45.1752" lon="6.09251">
        <ele>1630</ele>
        <time>2025-02-09T08:18:23Z</time>
      </trkpt>
      <trkpt lat="45.17523" lon="6.0925">
        <ele>1630</ele>
        <time>2025-02-09T08:18:26Z</time>
      </trkpt>
      <trkpt lat="45.17527" lon="6.09249">
        <ele>1630</ele>
        <time>2025-02-09T08:18:33Z</time>
      </trkpt>
      <trkpt lat="45.1753" lon="6.09248">
        <ele>1632</ele>
        <time>2025-02-09T08:18:43Z</time>
      </trkpt>
      <trkpt lat="45.17533" lon="6.09247">
        <ele>1632</ele>
        <time>2025-02-09T08:18:53Z</time>
      </trkpt>
      <trkpt lat="45.17537" lon="6.09246">
        <ele>1632</ele>
        <time>2025-02-09T08:19:03Z</time>
      </trkpt>
      <trkpt lat="45.1754" lon="6.09245">
        <ele>1632</ele>
        <time>2025-02-09T08:19:07Z</time>
      </trkpt>
      <trkpt lat="45.17543" lon="6.09244">
        <ele>1634</ele>
        <time>2025-02-09T08:19:13Z</time>
      </trkpt>
      <trkpt lat="45.17546" lon="6.09243">
        <ele>1634</ele>
        <time>2025-02-09T08:19:22Z</time>
      </trkpt>
      <trkpt lat="45.1755" lon="6.09242">
        <ele>1635</ele>
        <time>2025-02-09T08:19:23Z</time>
      </trkpt>
      <trkpt lat="45.1755" lon="6.09242">
        <ele>1637</ele>
        <time>2025-02-09T08:19:33Z</time>
      </trkpt>
      <trkpt lat="45.17559" lon="6.09238">
        <ele>1637</ele>
        <time>2025-02-09T08:19:40Z</time>
      </trkpt>
      <trkpt lat="45.17559" lon="6.09238">
        <ele>1638</ele>
        <time>2025-02-09T08:19:43Z</time>
      </trkpt>
      <trkpt lat="45.17561" lon="6.09236">
        <ele>1639</ele>
        <time>2025-02-09T08:19:53Z</time>
      </trkpt>
      <trkpt lat="45.17564" lon="6.09234">
        <ele>1639</ele>
        <time>2025-02-09T08:19:56Z</time>
      </trkpt>
      <trkpt lat="45.17567" lon="6.09232">
        <ele>1641</ele>
        <time>2025-02-09T08:20:03Z</time>
      </trkpt>
      <trkpt lat="45.1757" lon="6.0923">
        <ele>1642</ele>
        <time>2025-02-09T08:20:13Z</time>
      </trkpt>
      <trkpt lat="45.17573" lon="6.09228">
        <ele>1642</ele>
        <time>2025-02-09T08:20:22Z</time>
      </trkpt>
      <trkpt lat="45.17575" lon="6.09226">
        <ele>1644</ele>
        <time>2025-02-09T08:20:23Z</time>
      </trkpt>
      <trkpt lat="45.17575" lon="6.09226">
        <ele>1646</ele>
        <time>2025-02-09T08:20:33Z</time>
      </trkpt>
      <trkpt lat="45.17582" lon="6.09216">
        <ele>1646</ele>
        <time>2025-02-09T08:20:35Z</time>
      </trkpt>
      <trkpt lat="45.17582" lon="6.09216">
        <ele>1647</ele>
        <time>2025-02-09T08:20:43Z</time>
      </trkpt>
      <trkpt lat="45.1759" lon="6.0921">
        <ele>1647</ele>
        <time>2025-02-09T08:20:45Z</time>
      </trkpt>
      <trkpt lat="45.1759" lon="6.0921">
        <ele>1648</ele>
        <time>2025-02-09T08:20:53Z</time>
      </trkpt>
      <trkpt lat="45.17599" lon="6.09207">
        <ele>1648</ele>
        <time>2025-02-09T08:20:59Z</time>
      </trkpt>
      <trkpt lat="45.17599" lon="6.09207">
        <ele>1651</ele>
        <time>2025-02-09T08:21:03Z</time>
      </trkpt>
      <trkpt lat="45.17599" lon="6.09207">
        <ele>1652</ele>
        <time>2025-02-09T08:21:13Z</time>
      </trkpt>
      <trkpt lat="45.17608" lon="6.09204">
        <ele>1652</ele>
        <time>2025-02-09T08:21:21Z</time>
      </trkpt>
      <trkpt lat="45.17608" lon="6.09204">
        <ele>1654</ele>
        <time>2025-02-09T08:21:23Z</time>
      </trkpt>
      <trkpt lat="45.17608" lon="6.09204">
        <ele>1655</ele>
        <time>2025-02-09T08:21:33Z</time>
      </trkpt>
      <trkpt lat="45.17608" lon="6.09204">
        <ele>1655</ele>
        <time>2025-02-09T08:21:43Z</time>
      </trkpt>
      <trkpt lat="45.17617" lon="6.09201">
        <ele>1655</ele>
        <time>2025-02-09T08:21:44Z</time>
      </trkpt>
      <trkpt lat="45.17617" lon="6.09201">
        <ele>1657</ele>
        <time>2025-02-09T08:21:53Z</time>
      </trkpt>
      <trkpt lat="45.17617" lon="6.09201">
        <ele>1660</ele>
        <time>2025-02-09T08:22:03Z</time>
      </trkpt>
      <trkpt lat="45.17626" lon="6.09196">
        <ele>1660</ele>
        <time>2025-02-09T08:22:06Z</time>
      </trkpt>
      <trkpt lat="45.17626" lon="6.09196">
        <ele>1661</ele>
        <time>2025-02-09T08:22:13Z</time>
      </trkpt>
      <trkpt lat="45.17626" lon="6.09196">
        <ele>1663</ele>
        <time>2025-02-09T08:22:23Z</time>
      </trkpt>
      <trkpt lat="45.17635" lon="6.09198">
        <ele>1663</ele>
        <time>2025-02-09T08:22:30Z</time>
      </trkpt>
      <trkpt lat="45.17635" lon="6.09198">
        <ele>1664</ele>
        <time>2025-02-09T08:22:33Z</time>
      </trkpt>
      <trkpt lat="45.17635" lon="6.09198">
        <ele>1665</ele>
        <time>2025-02-09T08:22:43Z</time>
      </trkpt>
      <trkpt lat="45.17644" lon="6.09195">
        <ele>1665</ele>
        <time>2025-02-09T08:22:47Z</time>
      </trkpt>
      <trkpt lat="45.17644" lon="6.09195">
        <ele>1666</ele>
        <time>2025-02-09T08:22:53Z</time>
      </trkpt>
      <trkpt lat="45.17644" lon="6.09195">
        <ele>1668</ele>
        <time>2025-02-09T08:23:03Z</time>
      </trkpt>
      <trkpt lat="45.17654" lon="6.09193">
        <ele>1668</ele>
        <time>2025-02-09T08:23:09Z</time>
      </trkpt>
      <trkpt lat="45.17654" lon="6.09193">
        <ele>1667</ele>
        <time>2025-02-09T08:23:13Z</time>
      </trkpt>
      <trkpt lat="45.17662" lon="6.09189">
        <ele>1667</ele>
        <time>2025-02-09T08:23:21Z</time>
      </trkpt>
      <trkpt lat="45.17662" lon="6.09189">
        <ele>1669</ele>
        <time>2025-02-09T08:23:23Z</time>
      </trkpt>
      <trkpt lat="45.17662" lon="6.09189">
        <ele>1670</ele>
        <time>2025-02-09T08:23:33Z</time>
      </trkpt>
      <trkpt lat="45.17672" lon="6.09188">
        <ele>1670</ele>
        <time>2025-02-09T08:23:40Z</time>
      </trkpt>
      <trkpt lat="45.17672" lon="6.09188">
        <ele>1672</ele>
        <time>2025-02-09T08:23:43Z</time>
      </trkpt>
      <trkpt lat="45.17672" lon="6.09188">
        <ele>1674</ele>
        <time>2025-02-09T08:23:53Z</time>
      </trkpt>
      <trkpt lat="45.17672" lon="6.09188">
        <ele>1676</ele>
        <time>2025-02-09T08:24:03Z</time>
      </trkpt>
      <trkpt lat="45.1768" lon="6.09194">
        <ele>1676</ele>
        <time>2025-02-09T08:24:05Z</time>
      </trkpt>
      <trkpt lat="45.1768" lon="6.09194">
        <ele>1678</ele>
        <time>2025-02-09T08:24:13Z</time>
      </trkpt>
      <trkpt lat="45.17689" lon="6.09198">
        <ele>1678</ele>
        <time>2025-02-09T08:24:16Z</time>
      </trkpt>
      <trkpt lat="45.17689" lon="6.09198">
        <ele>1679</ele>
        <time>2025-02-09T08:24:23Z</time>
      </trkpt>
      <trkpt lat="45.17689" lon="6.09198">
        <ele>1679</ele>
        <time>2025-02-09T08:24:33Z</time>
      </trkpt>
      <trkpt lat="45.17695" lon="6.09208">
        <ele>1680</ele>
        <time>2025-02-09T08:24:43Z</time>
      </trkpt>
      <trkpt lat="45.17695" lon="6.09208">
        <ele>1681</ele>
        <time>2025-02-09T08:24:53Z</time>
      </trkpt>
      <trkpt lat="45.17699" lon="6.0922">
        <ele>1681</ele>
        <time>2025-02-09T08:24:55Z</time>
      </trkpt>
      <trkpt lat="45.17699" lon="6.0922">
        <ele>1682</ele>
        <time>2025-02-09T08:25:03Z</time>
      </trkpt>
      <trkpt lat="45.17702" lon="6.09232">
        <ele>1682</ele>
        <time>2025-02-09T08:25:05Z</time>
      </trkpt>
      <trkpt lat="45.17702" lon="6.09232">
        <ele>1683</ele>
        <time>2025-02-09T08:25:13Z</time>
      </trkpt>
      <trkpt lat="45.17709" lon="6.09241">
        <ele>1683</ele>
        <time>2025-02-09T08:25:16Z</time>
      </trkpt>
      <trkpt lat="45.17709" lon="6.09241">
        <ele>1684</ele>
        <time>2025-02-09T08:25:23Z</time>
      </trkpt>
      <trkpt lat="45.17716" lon="6.09251">
        <ele>1684</ele>
        <time>2025-02-09T08:25:30Z</time>
      </trkpt>
      <trkpt lat="45.17716" lon="6.09251">
        <ele>1684</ele>
        <time>2025-02-09T08:25:33Z</time>
      </trkpt>
      <trkpt lat="45.17726" lon="6.09256">
        <ele>1684</ele>
        <time>2025-02-09T08:25:41Z</time>
      </trkpt>
      <trkpt lat="45.17726" lon="6.09256">
        <ele>1686</ele>
        <time>2025-02-09T08:25:43Z</time>
      </trkpt>
      <trkpt lat="45.17732" lon="6.09265">
        <ele>1686</ele>
        <time>2025-02-09T08:25:53Z</time>
      </trkpt>
      <trkpt lat="45.17732" lon="6.09265">
        <ele>1688</ele>
        <time>2025-02-09T08:26:03Z</time>
      </trkpt>
      <trkpt lat="45.17732" lon="6.09265">
        <ele>1688</ele>
        <time>2025-02-09T08:26:13Z</time>
      </trkpt>
      <trkpt lat="45.17732" lon="6.09265">
        <ele>1689</ele>
        <time>2025-02-09T08:26:23Z</time>
      </trkpt>
      <trkpt lat="45.17732" lon="6.09265">
        <ele>1689</ele>
        <time>2025-02-09T08:26:33Z</time>
      </trkpt>
      <trkpt lat="45.17724" lon="6.09255">
        <ele>1689</ele>
        <time>2025-02-09T08:26:38Z</time>
      </trkpt>
      <trkpt lat="45.17724" lon="6.09255">
        <ele>1687</ele>
        <time>2025-02-09T08:26:43Z</time>
      </trkpt>
      <trkpt lat="45.17721" lon="6.09243">
        <ele>1687</ele>
        <time>2025-02-09T08:26:46Z</time>
      </trkpt>
      <trkpt lat="45.17721" lon="6.09243">
        <ele>1686</ele>
        <time>2025-02-09T08:26:53Z</time>
      </trkpt>
      <trkpt lat="45.17719" lon="6.09229">
        <ele>1686</ele>
        <time>2025-02-09T08:26:56Z</time>
      </trkpt>
      <trkpt lat="45.17719" lon="6.09229">
        <ele>1685</ele>
        <time>2025-02-09T08:27:03Z</time>
      </trkpt>
      <trkpt lat="45.17718" lon="6.09216">
        <ele>1685</ele>
        <time>2025-02-09T08:27:06Z</time>
      </trkpt>
      <trkpt lat="45.17718" lon="6.09216">
        <ele>1686</ele>
        <time>2025-02-09T08:27:13Z</time>
      </trkpt>
      <trkpt lat="45.17716" lon="6.09203">
        <ele>1686</ele>
        <time>2025-02-09T08:27:18Z</time>
      </trkpt>
      <trkpt lat="45.17716" lon="6.09203">
        <ele>1687</ele>
        <time>2025-02-09T08:27:23Z</time>
      </trkpt>
      <trkpt lat="45.17717" lon="6.0919">
        <ele>1689</ele>
        <time>2025-02-09T08:27:33Z</time>
      </trkpt>
      <trkpt lat="45.17717" lon="6.0919">
        <ele>1688</ele>
        <time>2025-02-09T08:27:43Z</time>
      </trkpt>
      <trkpt lat="45.17716" lon="6.09177">
        <ele>1688</ele>
        <time>2025-02-09T08:27:50Z</time>
      </trkpt>
      <trkpt lat="45.17716" lon="6.09177">
        <ele>1689</ele>
        <time>2025-02-09T08:27:53Z</time>
      </trkpt>
      <trkpt lat="45.17716" lon="6.09177">
        <ele>1690</ele>
        <time>2025-02-09T08:28:03Z</time>
      </trkpt>
      <trkpt lat="45.17722" lon="6.09167">
        <ele>1690</ele>
        <time>2025-02-09T08:28:04Z</time>
      </trkpt>
      <trkpt lat="45.17722" lon="6.09167">
        <ele>1692</ele>
        <time>2025-02-09T08:28:13Z</time>
      </trkpt>
      <trkpt lat="45.17722" lon="6.09167">
        <ele>1693</ele>
        <time>2025-02-09T08:28:23Z</time>
      </trkpt>
      <trkpt lat="45.17728" lon="6.09156">
        <ele>1693</ele>
        <time>2025-02-09T08:28:25Z</time>
      </trkpt>
      <trkpt lat="45.17728" lon="6.09156">
        <ele>1695</ele>
        <time>2025-02-09T08:28:33Z</time>
      </trkpt>
      <trkpt lat="45.17728" lon="6.09156">
        <ele>1697</ele>
        <time>2025-02-09T08:28:43Z</time>
      </trkpt>
      <trkpt lat="45.17728" lon="6.09143">
        <ele>1697</ele>
        <time>2025-02-09T08:28:51Z</time>
      </trkpt>
      <trkpt lat="45.17728" lon="6.09143">
        <ele>1698</ele>
        <time>2025-02-09T08:28:53Z</time>
      </trkpt>
      <trkpt lat="45.17728" lon="6.09143">
        <ele>1700</ele>
        <time>2025-02-09T08:29:03Z</time>
      </trkpt>
      <trkpt lat="45.17737" lon="6.09139">
        <ele>1700</ele>
        <time>2025-02-09T08:29:09Z</time>
      </trkpt>
      <trkpt lat="45.17737" lon="6.09139">
        <ele>1700</ele>
        <time>2025-02-09T08:29:13Z</time>
      </trkpt>
      <trkpt lat="45.17739" lon="6.09138">
        <ele>1702</ele>
        <time>2025-02-09T08:29:23Z</time>
      </trkpt>
      <trkpt lat="45.17742" lon="6.09137">
        <ele>1702</ele>
        <time>2025-02-09T08:29:26Z</time>
      </trkpt>
      <trkpt lat="45.17744" lon="6.09137">
        <ele>1703</ele>
        <time>2025-02-09T08:29:33Z</time>
      </trkpt>
      <trkpt lat="45.17747" lon="6.09136">
        <ele>1705</ele>
        <time>2025-02-09T08:29:43Z</time>
      </trkpt>
      <trkpt lat="45.17749" lon="6.09136">
        <ele>1705</ele>
        <time>2025-02-09T08:29:44Z</time>
      </trkpt>
      <trkpt lat="45.17752" lon="6.09135">
        <ele>1707</ele>
        <time>2025-02-09T08:29:53Z</time>
      </trkpt>
      <trkpt lat="45.17755" lon="6.09134">
        <ele>1708</ele>
        <time>2025-02-09T08:30:03Z</time>
      </trkpt>
      <trkpt lat="45.17757" lon="6.09134">
        <ele>1708</ele>
        <time>2025-02-09T08:30:12Z</time>
      </trkpt>
      <trkpt lat="45.1776" lon="6.09133">
        <ele>1709</ele>
        <time>2025-02-09T08:30:13Z</time>
      </trkpt>
      <trkpt lat="45.1776" lon="6.09133">
        <ele>1710</ele>
        <time>2025-02-09T08:30:23Z</time>
      </trkpt>
      <trkpt lat="45.1776" lon="6.09133">
        <ele>1712</ele>
        <time>2025-02-09T08:30:33Z</time>
      </trkpt>
      <trkpt lat="45.17769" lon="6.0913">
        <ele>1712</ele>
        <time>2025-02-09T08:30:35Z</time>
      </trkpt>
      <trkpt lat="45.17769" lon="6.0913">
        <ele>1714</ele>
        <time>2025-02-09T08:30:43Z</time>
      </trkpt>
      <trkpt lat="45.17769" lon="6.0913">
        <ele>1715</ele>
        <time>2025-02-09T08:30:53Z</time>
      </trkpt>
      <trkpt lat="45.17769" lon="6.0913">
        <ele>1717</ele>
        <time>2025-02-09T08:31:03Z</time>
      </trkpt>
      <trkpt lat="45.17778" lon="6.09128">
        <ele>1717</ele>
        <time>2025-02-09T08:31:05Z</time>
      </trkpt>
      <trkpt lat="45.17778" lon="6.09128">
        <ele>1718</ele>
        <time>2025-02-09T08:31:13Z</time>
      </trkpt>
      <trkpt lat="45.17784" lon="6.09137">
        <ele>1718</ele>
        <time>2025-02-09T08:31:16Z</time>
      </trkpt>
      <trkpt lat="45.17784" lon="6.09137">
        <ele>1719</ele>
        <time>2025-02-09T08:31:23Z</time>
      </trkpt>
      <trkpt lat="45.17784" lon="6.09137">
        <ele>1720</ele>
        <time>2025-02-09T08:31:33Z</time>
      </trkpt>
      <trkpt lat="45.17784" lon="6.09137">
        <ele>1721</ele>
        <time>2025-02-09T08:31:43Z</time>
      </trkpt>
      <trkpt lat="45.17784" lon="6.09137">
        <ele>1722</ele>
        <time>2025-02-09T08:31:53Z</time>
      </trkpt>
      <trkpt lat="45.17793" lon="6.09139">
        <ele>1722</ele>
        <time>2025-02-09T08:31:57Z</time>
      </trkpt>
      <trkpt lat="45.17793" lon="6.09139">
        <ele>1723</ele>
        <time>2025-02-09T08:32:03Z</time>
      </trkpt>
      <trkpt lat="45.17793" lon="6.09139">
        <ele>1725</ele>
        <time>2025-02-09T08:32:13Z</time>
      </trkpt>
      <trkpt lat="45.17793" lon="6.09139">
        <ele>1727</ele>
        <time>2025-02-09T08:32:23Z</time>
      </trkpt>
      <trkpt lat="45.17802" lon="6.09141">
        <ele>1727</ele>
        <time>2025-02-09T08:32:29Z</time>
      </trkpt>
      <trkpt lat="45.17802" lon="6.09141">
        <ele>1728</ele>
        <time>2025-02-09T08:32:33Z</time>
      </trkpt>
      <trkpt lat="45.17802" lon="6.09141">
        <ele>1730</ele>
        <time>2025-02-09T08:32:43Z</time>
      </trkpt>
      <trkpt lat="45.17802" lon="6.09141">
        <ele>1731</ele>
        <time>2025-02-09T08:32:53Z</time>
      </trkpt>
      <trkpt lat="45.17809" lon="6.09151">
        <ele>1731</ele>
        <time>2025-02-09T08:32:55Z</time>
      </trkpt>
      <trkpt lat="45.17809" lon="6.09151">
        <ele>1732</ele>
        <time>2025-02-09T08:33:03Z</time>
      </trkpt>
      <trkpt lat="45.17815" lon="6.0916">
        <ele>1732</ele>
        <time>2025-02-09T08:33:07Z</time>
      </trkpt>
      <trkpt lat="45.17815" lon="6.0916">
        <ele>1733</ele>
        <time>2025-02-09T08:33:13Z</time>
      </trkpt>
      <trkpt lat="45.17815" lon="6.0916">
        <ele>1735</ele>
        <time>2025-02-09T08:33:23Z</time>
      </trkpt>
      <trkpt lat="45.17822" lon="6.09169">
        <ele>1735</ele>
        <time>2025-02-09T08:33:30Z</time>
      </trkpt>
      <trkpt lat="45.17822" lon="6.09169">
        <ele>1736</ele>
        <time>2025-02-09T08:33:33Z</time>
      </trkpt>
      <trkpt lat="45.17822" lon="6.09169">
        <ele>1737</ele>
        <time>2025-02-09T08:33:43Z</time>
      </trkpt>
      <trkpt lat="45.1783" lon="6.09177">
        <ele>1737</ele>
        <time>2025-02-09T08:33:44Z</time>
      </trkpt>
      <trkpt lat="45.1783" lon="6.09177">
        <ele>1739</ele>
        <time>2025-02-09T08:33:53Z</time>
      </trkpt>
      <trkpt lat="45.1784" lon="6.09178">
        <ele>1739</ele>
        <time>2025-02-09T08:33:54Z</time>
      </trkpt>
      <trkpt lat="45.1784" lon="6.09178">
        <ele>1740</ele>
        <time>2025-02-09T08:34:03Z</time>
      </trkpt>
      <trkpt lat="45.1784" lon="6.09178">
        <ele>1740</ele>
        <time>2025-02-09T08:34:13Z</time>
      </trkpt>
      <trkpt lat="45.17849" lon="6.09185">
        <ele>1740</ele>
        <time>2025-02-09T08:34:18Z</time>
      </trkpt>
      <trkpt lat="45.17849" lon="6.09185">
        <ele>1739</ele>
        <time>2025-02-09T08:34:23Z</time>
      </trkpt>
      <trkpt lat="45.17849" lon="6.09185">
        <ele>1741</ele>
        <time>2025-02-09T08:34:33Z</time>
      </trkpt>
      <trkpt lat="45.17857" lon="6.0919">
        <ele>1741</ele>
        <time>2025-02-09T08:34:37Z</time>
      </trkpt>
      <trkpt lat="45.17857" lon="6.0919">
        <ele>1742</ele>
        <time>2025-02-09T08:34:43Z</time>
      </trkpt>
      <trkpt lat="45.17866" lon="6.09193">
        <ele>1743</ele>
        <time>2025-02-09T08:34:53Z</time>
      </trkpt>
      <trkpt lat="45.17866" lon="6.09193">
        <ele>1745</ele>
        <time>2025-02-09T08:35:03Z</time>
      </trkpt>
      <trkpt lat="45.17872" lon="6.09183">
        <ele>1745</ele>
        <time>2025-02-09T08:35:11Z</time>
      </trkpt>
      <trkpt lat="45.17872" lon="6.09183">
        <ele>1746</ele>
        <time>2025-02-09T08:35:13Z</time>
      </trkpt>
      <trkpt lat="45.17872" lon="6.09183">
        <ele>1748</ele>
        <time>2025-02-09T08:35:23Z</time>
      </trkpt>
      <trkpt lat="45.17879" lon="6.09174">
        <ele>1748</ele>
        <time>2025-02-09T08:35:29Z</time>
      </trkpt>
      <trkpt lat="45.17879" lon="6.09174">
        <ele>1749</ele>
        <time>2025-02-09T08:35:33Z</time>
      </trkpt>
      <trkpt lat="45.17879" lon="6.09174">
        <ele>1750</ele>
        <time>2025-02-09T08:35:43Z</time>
      </trkpt>
      <trkpt lat="45.17879" lon="6.09174">
        <ele>1752</ele>
        <time>2025-02-09T08:35:53Z</time>
      </trkpt>
      <trkpt lat="45.17888" lon="6.09177">
        <ele>1752</ele>
        <time>2025-02-09T08:35:59Z</time>
      </trkpt>
      <trkpt lat="45.17888" lon="6.09177">
        <ele>1753</ele>
        <time>2025-02-09T08:36:03Z</time>
      </trkpt>
      <trkpt lat="45.17896" lon="6.09168">
        <ele>1753</ele>
        <time>2025-02-09T08:36:12Z</time>
      </trkpt>
      <trkpt lat="45.17896" lon="6.09168">
        <ele>1755</ele>
        <time>2025-02-09T08:36:13Z</time>
      </trkpt>
      <trkpt lat="45.17896" lon="6.09168">
        <ele>1756</ele>
        <time>2025-02-09T08:36:23Z</time>
      </trkpt>
      <trkpt lat="45.17904" lon="6.09161">
        <ele>1756</ele>
        <time>2025-02-09T08:36:25Z</time>
      </trkpt>
      <trkpt lat="45.17904" lon="6.09161">
        <ele>1758</ele>
        <time>2025-02-09T08:36:33Z</time>
      </trkpt>
      <trkpt lat="45.17904" lon="6.09161">
        <ele>1758</ele>
        <time>2025-02-09T08:36:43Z</time>
      </trkpt>
      <trkpt lat="45.1791" lon="6.0917">
        <ele>1760</ele>
        <time>2025-02-09T08:36:53Z</time>
      </trkpt>
      <trkpt lat="45.1791" lon="6.0917">
        <ele>1761</ele>
        <time>2025-02-09T08:37:03Z</time>
      </trkpt>
      <trkpt lat="45.17919" lon="6.09175">
        <ele>1761</ele>
        <time>2025-02-09T08:37:10Z</time>
      </trkpt>
      <trkpt lat="45.17919" lon="6.09175">
        <ele>1763</ele>
        <time>2025-02-09T08:37:13Z</time>
      </trkpt>
      <trkpt lat="45.17926" lon="6.09183">
        <ele>1763</ele>
        <time>2025-02-09T08:37:20Z</time>
      </trkpt>
      <trkpt lat="45.17926" lon="6.09183">
        <ele>1764</ele>
        <time>2025-02-09T08:37:23Z</time>
      </trkpt>
      <trkpt lat="45.17933" lon="6.09192">
        <ele>1764</ele>
        <time>2025-02-09T08:37:30Z</time>
      </trkpt>
      <trkpt lat="45.17933" lon="6.09192">
        <ele>1766</ele>
        <time>2025-02-09T08:37:33Z</time>
      </trkpt>
      <trkpt lat="45.17933" lon="6.09192">
        <ele>1768</ele>
        <time>2025-02-09T08:37:43Z</time>
      </trkpt>
      <trkpt lat="45.17933" lon="6.09192">
        <ele>1769</ele>
        <time>2025-02-09T08:37:53Z</time>
      </trkpt>
      <trkpt lat="45.17939" lon="6.09203">
        <ele>1769</ele>
        <time>2025-02-09T08:37:56Z</time>
      </trkpt>
      <trkpt lat="45.17939" lon="6.09203">
        <ele>1770</ele>
        <time>2025-02-09T08:38:03Z</time>
      </trkpt>
      <trkpt lat="45.17939" lon="6.09203">
        <ele>1772</ele>
        <time>2025-02-09T08:38:13Z</time>
      </trkpt>
      <trkpt lat="45.17948" lon="6.09203">
        <ele>1772</ele>
        <time>2025-02-09T08:38:18Z</time>
      </trkpt>
      <trkpt lat="45.17948" lon="6.09203">
        <ele>1772</ele>
        <time>2025-02-09T08:38:23Z</time>
      </trkpt>
      <trkpt lat="45.17948" lon="6.09203">
        <ele>1773</ele>
        <time>2025-02-09T08:38:33Z</time>
      </trkpt>
      <trkpt lat="45.17953" lon="6.09192">
        <ele>1773</ele>
        <time>2025-02-09T08:38:43Z</time>
      </trkpt>
      <trkpt lat="45.17953" lon="6.09192">
        <ele>1775</ele>
        <time>2025-02-09T08:38:53Z</time>
      </trkpt>
      <trkpt lat="45.17953" lon="6.09192">
        <ele>1777</ele>
        <time>2025-02-09T08:39:03Z</time>
      </trkpt>
      <trkpt lat="45.17959" lon="6.09182">
        <ele>1777</ele>
        <time>2025-02-09T08:39:05Z</time>
      </trkpt>
      <trkpt lat="45.17959" lon="6.09182">
        <ele>1779</ele>
        <time>2025-02-09T08:39:13Z</time>
      </trkpt>
      <trkpt lat="45.17968" lon="6.09187">
        <ele>1779</ele>
        <time>2025-02-09T08:39:21Z</time>
      </trkpt>
      <trkpt lat="45.17968" lon="6.09187">
        <ele>1780</ele>
        <time>2025-02-09T08:39:23Z</time>
      </trkpt>
      <trkpt lat="45.17968" lon="6.09187">
        <ele>1781</ele>
        <time>2025-02-09T08:39:33Z</time>
      </trkpt>
      <trkpt lat="45.17976" lon="6.09193">
        <ele>1781</ele>
        <time>2025-02-09T08:39:40Z</time>
      </trkpt>
      <trkpt lat="45.17976" lon="6.09193">
        <ele>1782</ele>
        <time>2025-02-09T08:39:43Z</time>
      </trkpt>
      <trkpt lat="45.17984" lon="6.09201">
        <ele>1782</ele>
        <time>2025-02-09T08:39:50Z</time>
      </trkpt>
      <trkpt lat="45.17984" lon="6.09201">
        <ele>1783</ele>
        <time>2025-02-09T08:39:53Z</time>
      </trkpt>
      <trkpt lat="45.17984" lon="6.09201">
        <ele>1785</ele>
        <time>2025-02-09T08:40:03Z</time>
      </trkpt>
      <trkpt lat="45.17992" lon="6.09207">
        <ele>1785</ele>
        <time>2025-02-09T08:40:09Z</time>
      </trkpt>
      <trkpt lat="45.17992" lon="6.09207">
        <ele>1786</ele>
        <time>2025-02-09T08:40:13Z</time>
      </trkpt>
      <trkpt lat="45.17992" lon="6.09207">
        <ele>1787</ele>
        <time>2025-02-09T08:40:23Z</time>
      </trkpt>
      <trkpt lat="45.18" lon="6.09212">
        <ele>1787</ele>
        <time>2025-02-09T08:40:25Z</time>
      </trkpt>
      <trkpt lat="45.18" lon="6.09212">
        <ele>1789</ele>
        <time>2025-02-09T08:40:33Z</time>
      </trkpt>
      <trkpt lat="45.18009" lon="6.09214">
        <ele>1789</ele>
        <time>2025-02-09T08:40:40Z</time>
      </trkpt>
      <trkpt lat="45.18009" lon="6.09214">
        <ele>1791</ele>
        <time>2025-02-09T08:40:43Z</time>
      </trkpt>
      <trkpt lat="45.18009" lon="6.09214">
        <ele>1793</ele>
        <time>2025-02-09T08:40:53Z</time>
      </trkpt>
      <trkpt lat="45.18009" lon="6.09214">
        <ele>1793</ele>
        <time>2025-02-09T08:41:03Z</time>
      </trkpt>
      <trkpt lat="45.18009" lon="6.09214">
        <ele>1792</ele>
        <time>2025-02-09T08:41:13Z</time>
      </trkpt>
      <trkpt lat="45.18015" lon="6.09224">
        <ele>1792</ele>
        <time>2025-02-09T08:41:19Z</time>
      </trkpt>
      <trkpt lat="45.18015" lon="6.09224">
        <ele>1794</ele>
        <time>2025-02-09T08:41:23Z</time>
      </trkpt>
      <trkpt lat="45.18015" lon="6.09224">
        <ele>1794</ele>
        <time>2025-02-09T08:41:33Z</time>
      </trkpt>
      <trkpt lat="45.18015" lon="6.09224">
        <ele>1794</ele>
        <time>2025-02-09T08:41:43Z</time>
      </trkpt>
      <trkpt lat="45.18015" lon="6.09238">
        <ele>1795</ele>
        <time>2025-02-09T08:41:53Z</time>
      </trkpt>
      <trkpt lat="45.18015" lon="6.09238">
        <ele>1795</ele>
        <time>2025-02-09T08:42:03Z</time>
      </trkpt>
      <trkpt lat="45.18015" lon="6.09238">
        <ele>1795</ele>
        <time>2025-02-09T08:42:13Z</time>
      </trkpt>
      <trkpt lat="45.18016" lon="6.09251">
        <ele>1795</ele>
        <time>2025-02-09T08:42:19Z</time>
      </trkpt>
      <trkpt lat="45.18016" lon="6.09251">
        <ele>1796</ele>
        <time>2025-02-09T08:42:23Z</time>
      </trkpt>
      <trkpt lat="45.18016" lon="6.09256">
        <ele>1796</ele>
        <time>2025-02-09T08:42:33Z</time>
      </trkpt>
      <trkpt lat="45.18017" lon="6.0926">
        <ele>1797</ele>
        <time>2025-02-09T08:42:43Z</time>
      </trkpt>
      <trkpt lat="45.18018" lon="6.09265">
        <ele>1797</ele>
        <time>2025-02-09T08:42:44Z</time>
      </trkpt>
      <trkpt lat="45.18018" lon="6.0927">
        <ele>1798</ele>
        <time>2025-02-09T08:42:53Z</time>
      </trkpt>
      <trkpt lat="45.18019" lon="6.09275">
        <ele>1798</ele>
        <time>2025-02-09T08:42:56Z</time>
      </trkpt>
      <trkpt lat="45.1802" lon="6.09279">
        <ele>1799</ele>
        <time>2025-02-09T08:43:03Z</time>
      </trkpt>
      <trkpt lat="45.1802" lon="6.09284">
        <ele>1799</ele>
        <time>2025-02-09T08:43:12Z</time>
      </trkpt>
      <trkpt lat="45.18021" lon="6.09289">
        <ele>1799</ele>
        <time>2025-02-09T08:43:13Z</time>
      </trkpt>
      <trkpt lat="45.18021" lon="6.09289">
        <ele>1800</ele>
        <time>2025-02-09T08:43:23Z</time>
      </trkpt>
      <trkpt lat="45.18027" lon="6.09298">
        <ele>1800</ele>
        <time>2025-02-09T08:43:24Z</time>
      </trkpt>
      <trkpt lat="45.18027" lon="6.09298">
        <ele>1801</ele>
        <time>2025-02-09T08:43:33Z</time>
      </trkpt>
      <trkpt lat="45.18035" lon="6.09307">
        <ele>1801</ele>
        <time>2025-02-09T08:43:36Z</time>
      </trkpt>
      <trkpt lat="45.18035" lon="6.09307">
        <ele>1801</ele>
        <time>2025-02-09T08:43:43Z</time>
      </trkpt>
      <trkpt lat="45.18042" lon="6.09316">
        <ele>1801</ele>
        <time>2025-02-09T08:43:47Z</time>
      </trkpt>
      <trkpt lat="45.18042" lon="6.09316">
        <ele>1801</ele>
        <time>2025-02-09T08:43:53Z</time>
      </trkpt>
      <trkpt lat="45.18049" lon="6.09326">
        <ele>1801</ele>
        <time>2025-02-09T08:43:59Z</time>
      </trkpt>
      <trkpt lat="45.18049" lon="6.09326">
        <ele>1802</ele>
        <time>2025-02-09T08:44:03Z</time>
      </trkpt>
      <trkpt lat="45.18052" lon="6.09338">
        <ele>1802</ele>
        <time>2025-02-09T08:44:11Z</time>
      </trkpt>
      <trkpt lat="45.18052" lon="6.09338">
        <ele>1804</ele>
        <time>2025-02-09T08:44:13Z</time>
      </trkpt>
      <trkpt lat="45.18061" lon="6.09344">
        <ele>1804</ele>
        <time>2025-02-09T08:44:23Z</time>
      </trkpt>
      <trkpt lat="45.18061" lon="6.09344">
        <ele>1805</ele>
        <time>2025-02-09T08:44:33Z</time>
      </trkpt>
      <trkpt lat="45.1807" lon="6.09346">
        <ele>1805</ele>
        <time>2025-02-09T08:44:35Z</time>
      </trkpt>
      <trkpt lat="45.1807" lon="6.09346">
        <ele>1807</ele>
        <time>2025-02-09T08:44:43Z</time>
      </trkpt>
      <trkpt lat="45.18079" lon="6.09349">
        <ele>1807</ele>
        <time>2025-02-09T08:44:46Z</time>
      </trkpt>
      <trkpt lat="45.18079" lon="6.09349">
        <ele>1807</ele>
        <time>2025-02-09T08:44:53Z</time>
      </trkpt>
      <trkpt lat="45.18087" lon="6.09355">
        <ele>1807</ele>
        <time>2025-02-09T08:44:58Z</time>
      </trkpt>
      <trkpt lat="45.18087" lon="6.09355">
        <ele>1808</ele>
        <time>2025-02-09T08:45:03Z</time>
      </trkpt>
      <trkpt lat="45.18096" lon="6.09358">
        <ele>1808</ele>
        <time>2025-02-09T08:45:07Z</time>
      </trkpt>
      <trkpt lat="45.18096" lon="6.09358">
        <ele>1808</ele>
        <time>2025-02-09T08:45:13Z</time>
      </trkpt>
      <trkpt lat="45.18105" lon="6.0936">
        <ele>1808</ele>
        <time>2025-02-09T08:45:16Z</time>
      </trkpt>
      <trkpt lat="45.18105" lon="6.0936">
        <ele>1810</ele>
        <time>2025-02-09T08:45:23Z</time>
      </trkpt>
      <trkpt lat="45.18114" lon="6.09363">
        <ele>1810</ele>
        <time>2025-02-09T08:45:26Z</time>
      </trkpt>
      <trkpt lat="45.18114" lon="6.09363">
        <ele>1810</ele>
        <time>2025-02-09T08:45:33Z</time>
      </trkpt>
      <trkpt lat="45.18121" lon="6.09373">
        <ele>1810</ele>
        <time>2025-02-09T08:45:37Z</time>
      </trkpt>
      <trkpt lat="45.18121" lon="6.09373">
        <ele>1811</ele>
        <time>2025-02-09T08:45:43Z</time>
      </trkpt>
      <trkpt lat="45.18128" lon="6.09382">
        <ele>1811</ele>
        <time>2025-02-09T08:45:49Z</time>
      </trkpt>
      <trkpt lat="45.18128" lon="6.09382">
        <ele>1812</ele>
        <time>2025-02-09T08:45:53Z</time>
      </trkpt>
      <trkpt lat="45.18135" lon="6.09389">
        <ele>1812</ele>
        <time>2025-02-09T08:45:59Z</time>
      </trkpt>
      <trkpt lat="45.18135" lon="6.09389">
        <ele>1812</ele>
        <time>2025-02-09T08:46:03Z</time>
      </trkpt>
      <trkpt lat="45.18142" lon="6.094">
        <ele>1812</ele>
        <time>2025-02-09T08:46:10Z</time>
      </trkpt>
      <trkpt lat="45.18142" lon="6.094">
        <ele>1813</ele>
        <time>2025-02-09T08:46:13Z</time>
      </trkpt>
      <trkpt lat="45.18148" lon="6.09408">
        <ele>1813</ele>
        <time>2025-02-09T08:46:21Z</time>
      </trkpt>
      <trkpt lat="45.18148" lon="6.09408">
        <ele>1814</ele>
        <time>2025-02-09T08:46:23Z</time>
      </trkpt>
      <trkpt lat="45.18155" lon="6.09417">
        <ele>1814</ele>
        <time>2025-02-09T08:46:31Z</time>
      </trkpt>
      <trkpt lat="45.18155" lon="6.09417">
        <ele>1815</ele>
        <time>2025-02-09T08:46:33Z</time>
      </trkpt>
      <trkpt lat="45.18164" lon="6.09423">
        <ele>1815</ele>
        <time>2025-02-09T08:46:41Z</time>
      </trkpt>
      <trkpt lat="45.18164" lon="6.09423">
        <ele>1816</ele>
        <time>2025-02-09T08:46:43Z</time>
      </trkpt>
      <trkpt lat="45.1817" lon="6.09433">
        <ele>1816</ele>
        <time>2025-02-09T08:46:52Z</time>
      </trkpt>
      <trkpt lat="45.1817" lon="6.09433">
        <ele>1817</ele>
        <time>2025-02-09T08:46:53Z</time>
      </trkpt>
      <trkpt lat="45.18181" lon="6.09445">
        <ele>1816</ele>
        <time>2025-02-09T08:47:03Z</time>
      </trkpt>
      <trkpt lat="45.18185" lon="6.09449">
        <ele>1817</ele>
        <time>2025-02-09T08:47:13Z</time>
      </trkpt>
      <trkpt lat="45.18189" lon="6.09454">
        <ele>1817</ele>
        <time>2025-02-09T08:47:14Z</time>
      </trkpt>
      <trkpt lat="45.18192" lon="6.09458">
        <ele>1817</ele>
        <time>2025-02-09T08:47:23Z</time>
      </trkpt>
      <trkpt lat="45.18196" lon="6.09462">
        <ele>1817</ele>
        <time>2025-02-09T08:47:32Z</time>
      </trkpt>
      <trkpt lat="45.182" lon="6.09466">
        <ele>1819</ele>
        <time>2025-02-09T08:47:33Z</time>
      </trkpt>
      <trkpt lat="45.18207" lon="6.09472">
        <ele>1819</ele>
        <time>2025-02-09T08:47:43Z</time>
      </trkpt>
      <trkpt lat="45.18207" lon="6.09472">
        <ele>1820</ele>
        <time>2025-02-09T08:47:53Z</time>
      </trkpt>
      <trkpt lat="45.18214" lon="6.09481">
        <ele>1820</ele>
        <time>2025-02-09T08:47:54Z</time>
      </trkpt>
      <trkpt lat="45.18214" lon="6.09481">
        <ele>1821</ele>
        <time>2025-02-09T08:48:03Z</time>
      </trkpt>
      <trkpt lat="45.18222" lon="6.09487">
        <ele>1821</ele>
        <time>2025-02-09T08:48:04Z</time>
      </trkpt>
      <trkpt lat="45.18222" lon="6.09487">
        <ele>1822</ele>
        <time>2025-02-09T08:48:13Z</time>
      </trkpt>
      <trkpt lat="45.18232" lon="6.09491">
        <ele>1822</ele>
        <time>2025-02-09T08:48:14Z</time>
      </trkpt>
      <trkpt lat="45.18232" lon="6.09491">
        <ele>1822</ele>
        <time>2025-02-09T08:48:23Z</time>
      </trkpt>
      <trkpt lat="45.18238" lon="6.09502">
        <ele>1822</ele>
        <time>2025-02-09T08:48:27Z</time>
      </trkpt>
      <trkpt lat="45.18238" lon="6.09502">
        <ele>1823</ele>
        <time>2025-02-09T08:48:33Z</time>
      </trkpt>
      <trkpt lat="45.18245" lon="6.0951">
        <ele>1823</ele>
        <time>2025-02-09T08:48:38Z</time>
      </trkpt>
      <trkpt lat="45.18245" lon="6.0951">
        <ele>1824</ele>
        <time>2025-02-09T08:48:43Z</time>
      </trkpt>
      <trkpt lat="45.1825" lon="6.09521">
        <ele>1824</ele>
        <time>2025-02-09T08:48:49Z</time>
      </trkpt>
      <trkpt lat="45.1825" lon="6.09521">
        <ele>1824</ele>
        <time>2025-02-09T08:48:53Z</time>
      </trkpt>
      <trkpt lat="45.18246" lon="6.09533">
        <ele>1824</ele>
        <time>2025-02-09T08:49:01Z</time>
      </trkpt>
      <trkpt lat="45.18246" lon="6.09533">
        <ele>1826</ele>
        <time>2025-02-09T08:49:03Z</time>
      </trkpt>
      <trkpt lat="45.18242" lon="6.09547">
        <ele>1826</ele>
        <time>2025-02-09T08:49:09Z</time>
      </trkpt>
      <trkpt lat="45.18242" lon="6.09547">
        <ele>1827</ele>
        <time>2025-02-09T08:49:13Z</time>
      </trkpt>
      <trkpt lat="45.18241" lon="6.0956">
        <ele>1827</ele>
        <time>2025-02-09T08:49:20Z</time>
      </trkpt>
      <trkpt lat="45.18241" lon="6.0956">
        <ele>1828</ele>
        <time>2025-02-09T08:49:23Z</time>
      </trkpt>
      <trkpt lat="45.18243" lon="6.09574">
        <ele>1828</ele>
        <time>2025-02-09T08:49:32Z</time>
      </trkpt>
      <trkpt lat="45.18243" lon="6.09574">
        <ele>1828</ele>
        <time>2025-02-09T08:49:33Z</time>
      </trkpt>
      <trkpt lat="45.18243" lon="6.09574">
        <ele>1829</ele>
        <time>2025-02-09T08:49:43Z</time>
      </trkpt>
      <trkpt lat="45.18246" lon="6.09586">
        <ele>1829</ele>
        <time>2025-02-09T08:49:44Z</time>
      </trkpt>
      <trkpt lat="45.18246" lon="6.09586">
        <ele>1829</ele>
        <time>2025-02-09T08:49:53Z</time>
      </trkpt>
      <trkpt lat="45.18247" lon="6.096">
        <ele>1829</ele>
        <time>2025-02-09T08:49:56Z</time>
      </trkpt>
      <trkpt lat="45.18247" lon="6.096">
        <ele>1830</ele>
        <time>2025-02-09T08:50:03Z</time>
      </trkpt>
      <trkpt lat="45.18248" lon="6.09612">
        <ele>1830</ele>
        <time>2025-02-09T08:50:07Z</time>
      </trkpt>
      <trkpt lat="45.18248" lon="6.09612">
        <ele>1831</ele>
        <time>2025-02-09T08:50:13Z</time>
      </trkpt>
      <trkpt lat="45.18245" lon="6.09626">
        <ele>1831</ele>
        <time>2025-02-09T08:50:21Z</time>
      </trkpt>
      <trkpt lat="45.18245" lon="6.09626">
        <ele>1831</ele>
        <time>2025-02-09T08:50:23Z</time>
      </trkpt>
      <trkpt lat="45.18245" lon="6.09626">
        <ele>1831</ele>
        <time>2025-02-09T08:50:33Z</time>
      </trkpt>
      <trkpt lat="45.18241" lon="6.09639">
        <ele>1831</ele>
        <time>2025-02-09T08:50:35Z</time>
      </trkpt>
      <trkpt lat="45.18241" lon="6.09639">
        <ele>1832</ele>
        <time>2025-02-09T08:50:43Z</time>
      </trkpt>
      <trkpt lat="45.18237" lon="6.09651">
        <ele>1832</ele>
        <time>2025-02-09T08:50:46Z</time>
      </trkpt>
      <trkpt lat="45.18237" lon="6.09651">
        <ele>1832</ele>
        <time>2025-02-09T08:50:53Z</time>
      </trkpt>
      <trkpt lat="45.18237" lon="6.09664">
        <ele>1832</ele>
        <time>2025-02-09T08:50:57Z</time>
      </trkpt>
      <trkpt lat="45.18237" lon="6.09664">
        <ele>1834</ele>
        <time>2025-02-09T08:51:03Z</time>
      </trkpt>
      <trkpt lat="45.18237" lon="6.09677">
        <ele>1834</ele>
        <time>2025-02-09T08:51:07Z</time>
      </trkpt>
      <trkpt lat="45.18237" lon="6.09677">
        <ele>1834</ele>
        <time>2025-02-09T08:51:13Z</time>
      </trkpt>
      <trkpt lat="45.18236" lon="6.0969">
        <ele>1834</ele>
        <time>2025-02-09T08:51:19Z</time>
      </trkpt>
      <trkpt lat="45.18236" lon="6.0969">
        <ele>1835</ele>
        <time>2025-02-09T08:51:23Z</time>
      </trkpt>
      <trkpt lat="45.18238" lon="6.09704">
        <ele>1835</ele>
        <time>2025-02-09T08:51:31Z</time>
      </trkpt>
      <trkpt lat="45.18238" lon="6.09704">
        <ele>1835</ele>
        <time>2025-02-09T08:51:33Z</time>
      </trkpt>
      <trkpt lat="45.18238" lon="6.09704">
        <ele>1836</ele>
        <time>2025-02-09T08:51:43Z</time>
      </trkpt>
      <trkpt lat="45.18239" lon="6.09717">
        <ele>1836</ele>
        <time>2025-02-09T08:51:45Z</time>
      </trkpt>
      <trkpt lat="45.18239" lon="6.09717">
        <ele>1837</ele>
        <time>2025-02-09T08:51:53Z</time>
      </trkpt>
      <trkpt lat="45.18239" lon="6.09731">
        <ele>1837</ele>
        <time>2025-02-09T08:51:57Z</time>
      </trkpt>
      <trkpt lat="45.18239" lon="6.09731">
        <ele>1838</ele>
        <time>2025-02-09T08:52:03Z</time>
      </trkpt>
      <trkpt lat="45.18235" lon="6.09743">
        <ele>1838</ele>
        <time>2025-02-09T08:52:08Z</time>
      </trkpt>
      <trkpt lat="45.18235" lon="6.09743">
        <ele>1839</ele>
        <time>2025-02-09T08:52:13Z</time>
      </trkpt>
      <trkpt lat="45.18231" lon="6.09756">
        <ele>1839</ele>
        <time>2025-02-09T08:52:20Z</time>
      </trkpt>
      <trkpt lat="45.18231" lon="6.09756">
        <ele>1839</ele>
        <time>2025-02-09T08:52:23Z</time>
      </trkpt>
      <trkpt lat="45.18229" lon="6.09769">
        <ele>1839</ele>
        <time>2025-02-09T08:52:30Z</time>
      </trkpt>
      <trkpt lat="45.18229" lon="6.09769">
        <ele>1840</ele>
        <time>2025-02-09T08:52:33Z</time>
      </trkpt>
      <trkpt lat="45.18227" lon="6.09782">
        <ele>1840</ele>
        <time>2025-02-09T08:52:42Z</time>
      </trkpt>
      <trkpt lat="45.18227" lon="6.09782">
        <ele>1841</ele>
        <time>2025-02-09T08:52:43Z</time>
      </trkpt>
      <trkpt lat="45.18227" lon="6.09782">
        <ele>1841</ele>
        <time>2025-02-09T08:52:53Z</time>
      </trkpt>
      <trkpt lat="45.18228" lon="6.09796">
        <ele>1841</ele>
        <time>2025-02-09T08:52:55Z</time>
      </trkpt>
      <trkpt lat="45.18228" lon="6.09796">
        <ele>1842</ele>
        <time>2025-02-09T08:53:03Z</time>
      </trkpt>
      <trkpt lat="45.18231" lon="6.09812">
        <ele>1842</ele>
        <time>2025-02-09T08:53:10Z</time>
      </trkpt>
      <trkpt lat="45.18231" lon="6.09812">
        <ele>1842</ele>
        <time>2025-02-09T08:53:13Z</time>
      </trkpt>
      <trkpt lat="45.1823" lon="6.09826">
        <ele>1842</ele>
        <time>2025-02-09T08:53:22Z</time>
      </trkpt>
      <trkpt lat="45.1823" lon="6.09826">
        <ele>1843</ele>
        <time>2025-02-09T08:53:23Z</time>
      </trkpt>
      <trkpt lat="45.18228" lon="6.09839">
        <ele>1843</ele>
        <time>2025-02-09T08:53:32Z</time>
      </trkpt>
      <trkpt lat="45.18228" lon="6.09839">
        <ele>1844</ele>
        <time>2025-02-09T08:53:33Z</time>
      </trkpt>
      <trkpt lat="45.18227" lon="6.09852">
        <ele>1844</ele>
        <time>2025-02-09T08:53:43Z</time>
      </trkpt>
      <trkpt lat="45.18227" lon="6.09852">
        <ele>1845</ele>
        <time>2025-02-09T08:53:53Z</time>
      </trkpt>
      <trkpt lat="45.18219" lon="6.09861">
        <ele>1845</ele>
        <time>2025-02-09T08:53:57Z</time>
      </trkpt>
      <trkpt lat="45.18219" lon="6.09861">
        <ele>1847</ele>
        <time>2025-02-09T08:54:03Z</time>
      </trkpt>
      <trkpt lat="45.1821" lon="6.09859">
        <ele>1847</ele>
        <time>2025-02-09T08:54:09Z</time>
      </trkpt>
      <trkpt lat="45.1821" lon="6.09859">
        <ele>1847</ele>
        <time>2025-02-09T08:54:13Z</time>
      </trkpt>
      <trkpt lat="45.18202" lon="6.09854">
        <ele>1847</ele>
        <time>2025-02-09T08:54:20Z</time>
      </trkpt>
      <trkpt lat="45.18202" lon="6.09854">
        <ele>1849</ele>
        <time>2025-02-09T08:54:23Z</time>
      </trkpt>
      <trkpt lat="45.18192" lon="6.0985">
        <ele>1849</ele>
        <time>2025-02-09T08:54:32Z</time>
      </trkpt>
      <trkpt lat="45.18192" lon="6.0985">
        <ele>1850</ele>
        <time>2025-02-09T08:54:33Z</time>
      </trkpt>
      <trkpt lat="45.18184" lon="6.09845">
        <ele>1850</ele>
        <time>2025-02-09T08:54:42Z</time>
      </trkpt>
      <trkpt lat="45.18184" lon="6.09845">
        <ele>1851</ele>
        <time>2025-02-09T08:54:43Z</time>
      </trkpt>
      <trkpt lat="45.18184" lon="6.09845">
        <ele>1851</ele>
        <time>2025-02-09T08:54:53Z</time>
      </trkpt>
      <trkpt lat="45.18175" lon="6.09841">
        <ele>1851</ele>
        <time>2025-02-09T08:54:59Z</time>
      </trkpt>
      <trkpt lat="45.18175" lon="6.09841">
        <ele>1852</ele>
        <time>2025-02-09T08:55:03Z</time>
      </trkpt>
      <trkpt lat="45.18165" lon="6.09838">
        <ele>1852</ele>
        <time>2025-02-09T08:55:10Z</time>
      </trkpt>
      <trkpt lat="45.18165" lon="6.09838">
        <ele>1852</ele>
        <time>2025-02-09T08:55:13Z</time>
      </trkpt>
      <trkpt lat="45.18165" lon="6.09838">
        <ele>1853</ele>
        <time>2025-02-09T08:55:23Z</time>
      </trkpt>
      <trkpt lat="45.18157" lon="6.09831">
        <ele>1853</ele>
        <time>2025-02-09T08:55:24Z</time>
      </trkpt>
      <trkpt lat="45.18157" lon="6.09831">
        <ele>1855</ele>
        <time>2025-02-09T08:55:33Z</time>
      </trkpt>
      <trkpt lat="45.18147" lon="6.09827">
        <ele>1855</ele>
        <time>2025-02-09T08:55:34Z</time>
      </trkpt>
      <trkpt lat="45.18147" lon="6.09827">
        <ele>1855</ele>
        <time>2025-02-09T08:55:43Z</time>
      </trkpt>
      <trkpt lat="45.18137" lon="6.09823">
        <ele>1855</ele>
        <time>2025-02-09T08:55:47Z</time>
      </trkpt>
      <trkpt lat="45.18137" lon="6.09823">
        <ele>1856</ele>
        <time>2025-02-09T08:55:53Z</time>
      </trkpt>
      <trkpt lat="45.18128" lon="6.0982">
        <ele>1856</ele>
        <time>2025-02-09T08:55:57Z</time>
      </trkpt>
      <trkpt lat="45.18128" lon="6.0982">
        <ele>1857</ele>
        <time>2025-02-09T08:56:03Z</time>
      </trkpt>
      <trkpt lat="45.18118" lon="6.09819">
        <ele>1857</ele>
        <time>2025-02-09T08:56:08Z</time>
      </trkpt>
      <trkpt lat="45.18118" lon="6.09819">
        <ele>1858</ele>
        <time>2025-02-09T08:56:13Z</time>
      </trkpt>
      <trkpt lat="45.18109" lon="6.09816">
        <ele>1858</ele>
        <time>2025-02-09T08:56:22Z</time>
      </trkpt>
      <trkpt lat="45.18109" lon="6.09816">
        <ele>1858</ele>
        <time>2025-02-09T08:56:23Z</time>
      </trkpt>
      <trkpt lat="45.18109" lon="6.09816">
        <ele>1859</ele>
        <time>2025-02-09T08:56:33Z</time>
      </trkpt>
      <trkpt lat="45.181" lon="6.09817">
        <ele>1859</ele>
        <time>2025-02-09T08:56:34Z</time>
      </trkpt>
      <trkpt lat="45.181" lon="6.09817">
        <ele>1859</ele>
        <time>2025-02-09T08:56:43Z</time>
      </trkpt>
      <trkpt lat="45.181" lon="6.09817">
        <ele>1860</ele>
        <time>2025-02-09T08:56:53Z</time>
      </trkpt>
      <trkpt lat="45.1809" lon="6.09817">
        <ele>1860</ele>
        <time>2025-02-09T08:56:57Z</time>
      </trkpt>
      <trkpt lat="45.1809" lon="6.09817">
        <ele>1861</ele>
        <time>2025-02-09T08:57:03Z</time>
      </trkpt>
      <trkpt lat="45.1809" lon="6.09817">
        <ele>1861</ele>
        <time>2025-02-09T08:57:13Z</time>
      </trkpt>
      <trkpt lat="45.1809" lon="6.09817">
        <ele>1862</ele>
        <time>2025-02-09T08:57:23Z</time>
      </trkpt>
      <trkpt lat="45.18093" lon="6.09829">
        <ele>1862</ele>
        <time>2025-02-09T08:57:25Z</time>
      </trkpt>
      <trkpt lat="45.18093" lon="6.09829">
        <ele>1863</ele>
        <time>2025-02-09T08:57:33Z</time>
      </trkpt>
      <trkpt lat="45.18093" lon="6.09829">
        <ele>1865</ele>
        <time>2025-02-09T08:57:43Z</time>
      </trkpt>
      <trkpt lat="45.18101" lon="6.09837">
        <ele>1865</ele>
        <time>2025-02-09T08:57:44Z</time>
      </trkpt>
      <trkpt lat="45.18101" lon="6.09837">
        <ele>1866</ele>
        <time>2025-02-09T08:57:53Z</time>
      </trkpt>
      <trkpt lat="45.1811" lon="6.09842">
        <ele>1866</ele>
        <time>2025-02-09T08:57:57Z</time>
      </trkpt>
      <trkpt lat="45.1811" lon="6.09842">
        <ele>1867</ele>
        <time>2025-02-09T08:58:03Z</time>
      </trkpt>
      <trkpt lat="45.1811" lon="6.09842">
        <ele>1868</ele>
        <time>2025-02-09T08:58:13Z</time>
      </trkpt>
      <trkpt lat="45.18115" lon="6.09852">
        <ele>1868</ele>
        <time>2025-02-09T08:58:18Z</time>
      </trkpt>
      <trkpt lat="45.18115" lon="6.09852">
        <ele>1870</ele>
        <time>2025-02-09T08:58:23Z</time>
      </trkpt>
      <trkpt lat="45.18115" lon="6.09852">
        <ele>1871</ele>
        <time>2025-02-09T08:58:33Z</time>
      </trkpt>
      <trkpt lat="45.1812" lon="6.09863">
        <ele>1871</ele>
        <time>2025-02-09T08:58:35Z</time>
      </trkpt>
      <trkpt lat="45.1812" lon="6.09863">
        <ele>1873</ele>
        <time>2025-02-09T08:58:43Z</time>
      </trkpt>
      <trkpt lat="45.1812" lon="6.09863">
        <ele>1874</ele>
        <time>2025-02-09T08:58:53Z</time>
      </trkpt>
      <trkpt lat="45.18124" lon="6.09875">
        <ele>1874</ele>
        <time>2025-02-09T08:58:54Z</time>
      </trkpt>
      <trkpt lat="45.18124" lon="6.09875">
        <ele>1876</ele>
        <time>2025-02-09T08:59:03Z</time>
      </trkpt>
      <trkpt lat="45.18132" lon="6.09883">
        <ele>1876</ele>
        <time>2025-02-09T08:59:13Z</time>
      </trkpt>
      <trkpt lat="45.18132" lon="6.09883">
        <ele>1878</ele>
        <time>2025-02-09T08:59:23Z</time>
      </trkpt>
      <trkpt lat="45.18141" lon="6.09887">
        <ele>1878</ele>
        <time>2025-02-09T08:59:28Z</time>
      </trkpt>
      <trkpt lat="45.18141" lon="6.09887">
        <ele>1879</ele>
        <time>2025-02-09T08:59:33Z</time>
      </trkpt>
      <trkpt lat="45.18141" lon="6.09887">
        <ele>1881</ele>
        <time>2025-02-09T08:59:43Z</time>
      </trkpt>
      <trkpt lat="45.18147" lon="6.09896">
        <ele>1881</ele>
        <time>2025-02-09T08:59:48Z</time>
      </trkpt>
      <trkpt lat="45.18147" lon="6.09896">
        <ele>1882</ele>
        <time>2025-02-09T08:59:53Z</time>
      </trkpt>
      <trkpt lat="45.18147" lon="6.09896">
        <ele>1884</ele>
        <time>2025-02-09T09:00:03Z</time>
      </trkpt>
      <trkpt lat="45.1815" lon="6.09908">
        <ele>1884</ele>
        <time>2025-02-09T09:00:10Z</time>
      </trkpt>
      <trkpt lat="45.1815" lon="6.09908">
        <ele>1885</ele>
        <time>2025-02-09T09:00:13Z</time>
      </trkpt>
      <trkpt lat="45.1815" lon="6.09908">
        <ele>1887</ele>
        <time>2025-02-09T09:00:23Z</time>
      </trkpt>
      <trkpt lat="45.18153" lon="6.09921">
        <ele>1887</ele>
        <time>2025-02-09T09:00:29Z</time>
      </trkpt>
      <trkpt lat="45.18153" lon="6.09921">
        <ele>1887</ele>
        <time>2025-02-09T09:00:33Z</time>
      </trkpt>
      <trkpt lat="45.18153" lon="6.09921">
        <ele>1888</ele>
        <time>2025-02-09T09:00:43Z</time>
      </trkpt>
      <trkpt lat="45.18158" lon="6.09931">
        <ele>1888</ele>
        <time>2025-02-09T09:00:51Z</time>
      </trkpt>
      <trkpt lat="45.18158" lon="6.09931">
        <ele>1890</ele>
        <time>2025-02-09T09:00:53Z</time>
      </trkpt>
      <trkpt lat="45.18158" lon="6.09931">
        <ele>1890</ele>
        <time>2025-02-09T09:01:03Z</time>
      </trkpt>
      <trkpt lat="45.18163" lon="6.09942">
        <ele>1891</ele>
        <time>2025-02-09T09:01:13Z</time>
      </trkpt>
      <trkpt lat="45.18163" lon="6.09942">
        <ele>1892</ele>
        <time>2025-02-09T09:01:23Z</time>
      </trkpt>
      <trkpt lat="45.18163" lon="6.09942">
        <ele>1892</ele>
        <time>2025-02-09T09:01:33Z</time>
      </trkpt>
      <trkpt lat="45.18163" lon="6.09942">
        <ele>1893</ele>
        <time>2025-02-09T09:01:43Z</time>
      </trkpt>
      <trkpt lat="45.18163" lon="6.09942">
        <ele>1893</ele>
        <time>2025-02-09T09:01:53Z</time>
      </trkpt>
      <trkpt lat="45.18163" lon="6.09942">
        <ele>1894</ele>
        <time>2025-02-09T09:02:03Z</time>
      </trkpt>
      <trkpt lat="45.18154" lon="6.09939">
        <ele>1894</ele>
        <time>2025-02-09T09:02:04Z</time>
      </trkpt>
      <trkpt lat="45.18154" lon="6.09939">
        <ele>1896</ele>
        <time>2025-02-09T09:02:13Z</time>
      </trkpt>
      <trkpt lat="45.18154" lon="6.09939">
        <ele>1896</ele>
        <time>2025-02-09T09:02:23Z</time>
      </trkpt>
      <trkpt lat="45.18144" lon="6.09938">
        <ele>1896</ele>
        <time>2025-02-09T09:02:26Z</time>
      </trkpt>
      <trkpt lat="45.18144" lon="6.09938">
        <ele>1896</ele>
        <time>2025-02-09T09:02:33Z</time>
      </trkpt>
      <trkpt lat="45.18144" lon="6.09938">
        <ele>1897</ele>
        <time>2025-02-09T09:02:43Z</time>
      </trkpt>
      <trkpt lat="45.18144" lon="6.09938">
        <ele>1897</ele>
        <time>2025-02-09T09:02:53Z</time>
      </trkpt>
      <trkpt lat="45.18144" lon="6.09938">
        <ele>1897</ele>
        <time>2025-02-09T09:03:03Z</time>
      </trkpt>
      <trkpt lat="45.18152" lon="6.09946">
        <ele>1897</ele>
        <time>2025-02-09T09:03:05Z</time>
      </trkpt>
      <trkpt lat="45.18152" lon="6.09946">
        <ele>1898</ele>
        <time>2025-02-09T09:03:13Z</time>
      </trkpt>
      <trkpt lat="45.18152" lon="6.09946">
        <ele>1899</ele>
        <time>2025-02-09T09:03:23Z</time>
      </trkpt>
      <trkpt lat="45.18158" lon="6.09957">
        <ele>1899</ele>
        <time>2025-02-09T09:03:28Z</time>
      </trkpt>
      <trkpt lat="45.18158" lon="6.09957">
        <ele>1900</ele>
        <time>2025-02-09T09:03:33Z</time>
      </trkpt>
      <trkpt lat="45.18158" lon="6.09957">
        <ele>1901</ele>
        <time>2025-02-09T09:03:43Z</time>
      </trkpt>
      <trkpt lat="45.18167" lon="6.09962">
        <ele>1901</ele>
        <time>2025-02-09T09:03:47Z</time>
      </trkpt>
      <trkpt lat="45.18167" lon="6.09962">
        <ele>1902</ele>
        <time>2025-02-09T09:03:53Z</time>
      </trkpt>
      <trkpt lat="45.18176" lon="6.09966">
        <ele>1902</ele>
        <time>2025-02-09T09:03:58Z</time>
      </trkpt>
      <trkpt lat="45.18176" lon="6.09966">
        <ele>1903</ele>
        <time>2025-02-09T09:04:03Z</time>
      </trkpt>
      <trkpt lat="45.18186" lon="6.09965">
        <ele>1903</ele>
        <time>2025-02-09T09:04:07Z</time>
      </trkpt>
      <trkpt lat="45.18186" lon="6.09965">
        <ele>1905</ele>
        <time>2025-02-09T09:04:13Z</time>
      </trkpt>
      <trkpt lat="45.18194" lon="6.09972">
        <ele>1905</ele>
        <time>2025-02-09T09:04:19Z</time>
      </trkpt>
      <trkpt lat="45.18194" lon="6.09972">
        <ele>1905</ele>
        <time>2025-02-09T09:04:23Z</time>
      </trkpt>
      <trkpt lat="45.18194" lon="6.09972">
        <ele>1905</ele>
        <time>2025-02-09T09:04:33Z</time>
      </trkpt>
      <trkpt lat="45.182" lon="6.09982">
        <ele>1905</ele>
        <time>2025-02-09T09:04:36Z</time>
      </trkpt>
      <trkpt lat="45.182" lon="6.09982">
        <ele>1906</ele>
        <time>2025-02-09T09:04:43Z</time>
      </trkpt>
      <trkpt lat="45.18207" lon="6.0999">
        <ele>1906</ele>
        <time>2025-02-09T09:04:48Z</time>
      </trkpt>
      <trkpt lat="45.18207" lon="6.0999">
        <ele>1907</ele>
        <time>2025-02-09T09:04:53Z</time>
      </trkpt>
      <trkpt lat="45.18207" lon="6.0999">
        <ele>1908</ele>
        <time>2025-02-09T09:05:03Z</time>
      </trkpt>
      <trkpt lat="45.18215" lon="6.09998">
        <ele>1908</ele>
        <time>2025-02-09T09:05:04Z</time>
      </trkpt>
      <trkpt lat="45.18215" lon="6.09998">
        <ele>1909</ele>
        <time>2025-02-09T09:05:13Z</time>
      </trkpt>
      <trkpt lat="45.18222" lon="6.10006">
        <ele>1909</ele>
        <time>2025-02-09T09:05:14Z</time>
      </trkpt>
      <trkpt lat="45.18222" lon="6.10006">
        <ele>1910</ele>
        <time>2025-02-09T09:05:23Z</time>
      </trkpt>
      <trkpt lat="45.18231" lon="6.10012">
        <ele>1910</ele>
        <time>2025-02-09T09:05:25Z</time>
      </trkpt>
      <trkpt lat="45.18231" lon="6.10012">
        <ele>1910</ele>
        <time>2025-02-09T09:05:33Z</time>
      </trkpt>
      <trkpt lat="45.18239" lon="6.10018">
        <ele>1910</ele>
        <time>2025-02-09T09:05:36Z</time>
      </trkpt>
      <trkpt lat="45.18239" lon="6.10018">
        <ele>1912</ele>
        <time>2025-02-09T09:05:43Z</time>
      </trkpt>
      <trkpt lat="45.18239" lon="6.10031">
        <ele>1912</ele>
        <time>2025-02-09T09:05:49Z</time>
      </trkpt>
      <trkpt lat="45.18239" lon="6.10031">
        <ele>1912</ele>
        <time>2025-02-09T09:05:53Z</time>
      </trkpt>
      <trkpt lat="45.18245" lon="6.10042">
        <ele>1912</ele>
        <time>2025-02-09T09:06:01Z</time>
      </trkpt>
      <trkpt lat="45.18245" lon="6.10042">
        <ele>1914</ele>
        <time>2025-02-09T09:06:03Z</time>
      </trkpt>
      <trkpt lat="45.1825" lon="6.10054">
        <ele>1914</ele>
        <time>2025-02-09T09:06:13Z</time>
      </trkpt>
      <trkpt lat="45.1825" lon="6.10054">
        <ele>1915</ele>
        <time>2025-02-09T09:06:23Z</time>
      </trkpt>
      <trkpt lat="45.18253" lon="6.10066">
        <ele>1915</ele>
        <time>2025-02-09T09:06:26Z</time>
      </trkpt>
      <trkpt lat="45.18253" lon="6.10066">
        <ele>1915</ele>
        <time>2025-02-09T09:06:33Z</time>
      </trkpt>
      <trkpt lat="45.18253" lon="6.10066">
        <ele>1915</ele>
        <time>2025-02-09T09:06:43Z</time>
      </trkpt>
      <trkpt lat="45.18262" lon="6.10066">
        <ele>1915</ele>
        <time>2025-02-09T09:06:47Z</time>
      </trkpt>
      <trkpt lat="45.18262" lon="6.10066">
        <ele>1915</ele>
        <time>2025-02-09T09:06:53Z</time>
      </trkpt>
      <trkpt lat="45.18268" lon="6.10077">
        <ele>1915</ele>
        <time>2025-02-09T09:07:00Z</time>
      </trkpt>
      <trkpt lat="45.18268" lon="6.10077">
        <ele>1917</ele>
        <time>2025-02-09T09:07:03Z</time>
      </trkpt>
      <trkpt lat="45.18275" lon="6.10086">
        <ele>1918</ele>
        <time>2025-02-09T09:07:13Z</time>
      </trkpt>
      <trkpt lat="45.18275" lon="6.10086">
        <ele>1919</ele>
        <time>2025-02-09T09:07:23Z</time>
      </trkpt>
      <trkpt lat="45.1828" lon="6.10098">
        <ele>1919</ele>
        <time>2025-02-09T09:07:26Z</time>
      </trkpt>
      <trkpt lat="45.1828" lon="6.10098">
        <ele>1919</ele>
        <time>2025-02-09T09:07:33Z</time>
      </trkpt>
      <trkpt lat="45.1828" lon="6.10098">
        <ele>1920</ele>
        <time>2025-02-09T09:07:43Z</time>
      </trkpt>
      <trkpt lat="45.18288" lon="6.10105">
        <ele>1920</ele>
        <time>2025-02-09T09:07:44Z</time>
      </trkpt>
      <trkpt lat="45.18288" lon="6.10105">
        <ele>1920</ele>
        <time>2025-02-09T09:07:53Z</time>
      </trkpt>
      <trkpt lat="45.18288" lon="6.10105">
        <ele>1920</ele>
        <time>2025-02-09T09:08:03Z</time>
      </trkpt>
      <trkpt lat="45.18279" lon="6.10107">
        <ele>1920</ele>
        <time>2025-02-09T09:08:07Z</time>
      </trkpt>
      <trkpt lat="45.18279" lon="6.10107">
        <ele>1922</ele>
        <time>2025-02-09T09:08:13Z</time>
      </trkpt>
      <trkpt lat="45.18279" lon="6.10107">
        <ele>1922</ele>
        <time>2025-02-09T09:08:23Z</time>
      </trkpt>
      <trkpt lat="45.1827" lon="6.10102">
        <ele>1922</ele>
        <time>2025-02-09T09:08:24Z</time>
      </trkpt>
      <trkpt lat="45.1827" lon="6.10102">
        <ele>1923</ele>
        <time>2025-02-09T09:08:33Z</time>
      </trkpt>
      <trkpt lat="45.1827" lon="6.10102">
        <ele>1924</ele>
        <time>2025-02-09T09:08:43Z</time>
      </trkpt>
      <trkpt lat="45.18261" lon="6.10104">
        <ele>1924</ele>
        <time>2025-02-09T09:08:46Z</time>
      </trkpt>
      <trkpt lat="45.18261" lon="6.10104">
        <ele>1925</ele>
        <time>2025-02-09T09:08:53Z</time>
      </trkpt>
      <trkpt lat="45.18261" lon="6.10104">
        <ele>1926</ele>
        <time>2025-02-09T09:09:03Z</time>
      </trkpt>
      <trkpt lat="45.18254" lon="6.10096">
        <ele>1926</ele>
        <time>2025-02-09T09:09:04Z</time>
      </trkpt>
      <trkpt lat="45.18254" lon="6.10096">
        <ele>1926</ele>
        <time>2025-02-09T09:09:13Z</time>
      </trkpt>
      <trkpt lat="45.18245" lon="6.10091">
        <ele>1927</ele>
        <time>2025-02-09T09:09:23Z</time>
      </trkpt>
      <trkpt lat="45.18245" lon="6.10091">
        <ele>1929</ele>
        <time>2025-02-09T09:09:33Z</time>
      </trkpt>
      <trkpt lat="45.18237" lon="6.10084">
        <ele>1929</ele>
        <time>2025-02-09T09:09:39Z</time>
      </trkpt>
      <trkpt lat="45.18237" lon="6.10084">
        <ele>1930</ele>
        <time>2025-02-09T09:09:43Z</time>
      </trkpt>
      <trkpt lat="45.18237" lon="6.10084">
        <ele>1930</ele>
        <time>2025-02-09T09:09:53Z</time>
      </trkpt>
      <trkpt lat="45.18228" lon="6.1008">
        <ele>1930</ele>
        <time>2025-02-09T09:10:00Z</time>
      </trkpt>
      <trkpt lat="45.18228" lon="6.1008">
        <ele>1931</ele>
        <time>2025-02-09T09:10:03Z</time>
      </trkpt>
      <trkpt lat="45.18228" lon="6.10083">
        <ele>1932</ele>
        <time>2025-02-09T09:10:13Z</time>
      </trkpt>
      <trkpt lat="45.18228" lon="6.10085">
        <ele>1933</ele>
        <time>2025-02-09T09:10:23Z</time>
      </trkpt>
      <trkpt lat="45.18228" lon="6.10088">
        <ele>1933</ele>
        <time>2025-02-09T09:10:33Z</time>
      </trkpt>
      <trkpt lat="45.18228" lon="6.1009">
        <ele>1933</ele>
        <time>2025-02-09T09:10:43Z</time>
      </trkpt>
      <trkpt lat="45.18227" lon="6.10093">
        <ele>1933</ele>
        <time>2025-02-09T09:10:53Z</time>
      </trkpt>
      <trkpt lat="45.18227" lon="6.10096">
        <ele>1933</ele>
        <time>2025-02-09T09:10:56Z</time>
      </trkpt>
      <trkpt lat="45.18227" lon="6.10098">
        <ele>1935</ele>
        <time>2025-02-09T09:11:03Z</time>
      </trkpt>
      <trkpt lat="45.18227" lon="6.10101">
        <ele>1935</ele>
        <time>2025-02-09T09:11:12Z</time>
      </trkpt>
      <trkpt lat="45.18226" lon="6.10104">
        <ele>1936</ele>
        <time>2025-02-09T09:11:13Z</time>
      </trkpt>
      <trkpt lat="45.18226" lon="6.10104">
        <ele>1937</ele>
        <time>2025-02-09T09:11:23Z</time>
      </trkpt>
      <trkpt lat="45.18229" lon="6.10116">
        <ele>1937</ele>
        <time>2025-02-09T09:11:28Z</time>
      </trkpt>
      <trkpt lat="45.18229" lon="6.10116">
        <ele>1938</ele>
        <time>2025-02-09T09:11:33Z</time>
      </trkpt>
      <trkpt lat="45.18229" lon="6.10116">
        <ele>1939</ele>
        <time>2025-02-09T09:11:43Z</time>
      </trkpt>
      <trkpt lat="45.18232" lon="6.10129">
        <ele>1939</ele>
        <time>2025-02-09T09:11:46Z</time>
      </trkpt>
      <trkpt lat="45.18232" lon="6.10129">
        <ele>1940</ele>
        <time>2025-02-09T09:11:53Z</time>
      </trkpt>
      <trkpt lat="45.18233" lon="6.10142">
        <ele>1940</ele>
        <time>2025-02-09T09:12:00Z</time>
      </trkpt>
      <trkpt lat="45.18233" lon="6.10142">
        <ele>1941</ele>
        <time>2025-02-09T09:12:03Z</time>
      </trkpt>
      <trkpt lat="45.18233" lon="6.10142">
        <ele>1943</ele>
        <time>2025-02-09T09:12:13Z</time>
      </trkpt>
      <trkpt lat="45.18236" lon="6.10154">
        <ele>1943</ele>
        <time>2025-02-09T09:12:20Z</time>
      </trkpt>
      <trkpt lat="45.18236" lon="6.10154">
        <ele>1944</ele>
        <time>2025-02-09T09:12:23Z</time>
      </trkpt>
      <trkpt lat="45.18236" lon="6.10154">
        <ele>1946</ele>
        <time>2025-02-09T09:12:33Z</time>
      </trkpt>
      <trkpt lat="45.18239" lon="6.10167">
        <ele>1946</ele>
        <time>2025-02-09T09:12:39Z</time>
      </trkpt>
      <trkpt lat="45.18239" lon="6.10167">
        <ele>1946</ele>
        <time>2025-02-09T09:12:43Z</time>
      </trkpt>
      <trkpt lat="45.18241" lon="6.1018">
        <ele>1946</ele>
        <time>2025-02-09T09:12:52Z</time>
      </trkpt>
      <trkpt lat="45.18241" lon="6.1018">
        <ele>1947</ele>
        <time>2025-02-09T09:12:53Z</time>
      </trkpt>
      <trkpt lat="45.18242" lon="6.10184">
        <ele>1948</ele>
        <time>2025-02-09T09:13:03Z</time>
      </trkpt>
      <trkpt lat="45.18243" lon="6.10189">
        <ele>1950</ele>
        <time>2025-02-09T09:13:13Z</time>
      </trkpt>
      <trkpt lat="45.18244" lon="6.10194">
        <ele>1950</ele>
        <time>2025-02-09T09:13:23Z</time>
      </trkpt>
      <trkpt lat="45.18245" lon="6.10199">
        <ele>1950</ele>
        <time>2025-02-09T09:13:32Z</time>
      </trkpt>
      <trkpt lat="45.18247" lon="6.10204">
        <ele>1952</ele>
        <time>2025-02-09T09:13:33Z</time>
      </trkpt>
      <trkpt lat="45.18247" lon="6.10204">
        <ele>1954</ele>
        <time>2025-02-09T09:13:43Z</time>
      </trkpt>
      <trkpt lat="45.18248" lon="6.10217">
        <ele>1954</ele>
        <time>2025-02-09T09:13:45Z</time>
      </trkpt>
      <trkpt lat="45.18248" lon="6.10217">
        <ele>1954</ele>
        <time>2025-02-09T09:13:53Z</time>
      </trkpt>
      <trkpt lat="45.1825" lon="6.10231">
        <ele>1954</ele>
        <time>2025-02-09T09:13:58Z</time>
      </trkpt>
      <trkpt lat="45.1825" lon="6.10231">
        <ele>1956</ele>
        <time>2025-02-09T09:14:03Z</time>
      </trkpt>
      <trkpt lat="45.18255" lon="6.10242">
        <ele>1956</ele>
        <time>2025-02-09T09:14:12Z</time>
      </trkpt>
      <trkpt lat="45.18255" lon="6.10242">
        <ele>1957</ele>
        <time>2025-02-09T09:14:13Z</time>
      </trkpt>
      <trkpt lat="45.18255" lon="6.10242">
        <ele>1958</ele>
        <time>2025-02-09T09:14:23Z</time>
      </trkpt>
      <trkpt lat="45.18259" lon="6.10254">
        <ele>1958</ele>
        <time>2025-02-09T09:14:24Z</time>
      </trkpt>
      <trkpt lat="45.18259" lon="6.10254">
        <ele>1960</ele>
        <time>2025-02-09T09:14:33Z</time>
      </trkpt>
      <trkpt lat="45.18259" lon="6.10254">
        <ele>1962</ele>
        <time>2025-02-09T09:14:43Z</time>
      </trkpt>
      <trkpt lat="45.18262" lon="6.10266">
        <ele>1962</ele>
        <time>2025-02-09T09:14:44Z</time>
      </trkpt>
      <trkpt lat="45.18262" lon="6.10266">
        <ele>1964</ele>
        <time>2025-02-09T09:14:53Z</time>
      </trkpt>
      <trkpt lat="45.18269" lon="6.10276">
        <ele>1964</ele>
        <time>2025-02-09T09:14:58Z</time>
      </trkpt>
      <trkpt lat="45.18269" lon="6.10276">
        <ele>1965</ele>
        <time>2025-02-09T09:15:03Z</time>
      </trkpt>
      <trkpt lat="45.18271" lon="6.10289">
        <ele>1965</ele>
        <time>2025-02-09T09:15:10Z</time>
      </trkpt>
      <trkpt lat="45.18271" lon="6.10289">
        <ele>1966</ele>
        <time>2025-02-09T09:15:13Z</time>
      </trkpt>
      <trkpt lat="45.18278" lon="6.10302">
        <ele>1967</ele>
        <time>2025-02-09T09:15:23Z</time>
      </trkpt>
      <trkpt lat="45.18278" lon="6.10305">
        <ele>1969</ele>
        <time>2025-02-09T09:15:33Z</time>
      </trkpt>
      <trkpt lat="45.18279" lon="6.10308">
        <ele>1969</ele>
        <time>2025-02-09T09:15:42Z</time>
      </trkpt>
      <trkpt lat="45.18279" lon="6.10312">
        <ele>1970</ele>
        <time>2025-02-09T09:15:43Z</time>
      </trkpt>
      <trkpt lat="45.18279" lon="6.10312">
        <ele>1972</ele>
        <time>2025-02-09T09:15:53Z</time>
      </trkpt>
      <trkpt lat="45.18288" lon="6.10318">
        <ele>1972</ele>
        <time>2025-02-09T09:16:00Z</time>
      </trkpt>
      <trkpt lat="45.18288" lon="6.10318">
        <ele>1973</ele>
        <time>2025-02-09T09:16:03Z</time>
      </trkpt>
      <trkpt lat="45.18289" lon="6.10321">
        <ele>1975</ele>
        <time>2025-02-09T09:16:13Z</time>
      </trkpt>
      <trkpt lat="45.18291" lon="6.10325">
        <ele>1975</ele>
        <time>2025-02-09T09:16:17Z</time>
      </trkpt>
      <trkpt lat="45.18292" lon="6.10328">
        <ele>1975</ele>
        <time>2025-02-09T09:16:23Z</time>
      </trkpt>
      <trkpt lat="45.18294" lon="6.10332">
        <ele>1975</ele>
        <time>2025-02-09T09:16:32Z</time>
      </trkpt>
      <trkpt lat="45.18295" lon="6.10336">
        <ele>1976</ele>
        <time>2025-02-09T09:16:33Z</time>
      </trkpt>
      <trkpt lat="45.18295" lon="6.10336">
        <ele>1978</ele>
        <time>2025-02-09T09:16:43Z</time>
      </trkpt>
      <trkpt lat="45.18295" lon="6.10336">
        <ele>1980</ele>
        <time>2025-02-09T09:16:53Z</time>
      </trkpt>
      <trkpt lat="45.183" lon="6.10347">
        <ele>1980</ele>
        <time>2025-02-09T09:16:55Z</time>
      </trkpt>
      <trkpt lat="45.183" lon="6.10347">
        <ele>1981</ele>
        <time>2025-02-09T09:17:03Z</time>
      </trkpt>
      <trkpt lat="45.18309" lon="6.10346">
        <ele>1981</ele>
        <time>2025-02-09T09:17:05Z</time>
      </trkpt>
      <trkpt lat="45.18309" lon="6.10346">
        <ele>1981</ele>
        <time>2025-02-09T09:17:13Z</time>
      </trkpt>
      <trkpt lat="45.18318" lon="6.10348">
        <ele>1981</ele>
        <time>2025-02-09T09:17:17Z</time>
      </trkpt>
      <trkpt lat="45.18318" lon="6.10348">
        <ele>1983</ele>
        <time>2025-02-09T09:17:23Z</time>
      </trkpt>
      <trkpt lat="45.18318" lon="6.10348">
        <ele>1984</ele>
        <time>2025-02-09T09:17:33Z</time>
      </trkpt>
      <trkpt lat="45.18316" lon="6.10361">
        <ele>1984</ele>
        <time>2025-02-09T09:17:35Z</time>
      </trkpt>
      <trkpt lat="45.18316" lon="6.10361">
        <ele>1985</ele>
        <time>2025-02-09T09:17:43Z</time>
      </trkpt>
      <trkpt lat="45.18315" lon="6.10375">
        <ele>1985</ele>
        <time>2025-02-09T09:17:53Z</time>
      </trkpt>
      <trkpt lat="45.18315" lon="6.10375">
        <ele>1986</ele>
        <time>2025-02-09T09:18:03Z</time>
      </trkpt>
      <trkpt lat="45.18315" lon="6.10375">
        <ele>1989</ele>
        <time>2025-02-09T09:18:13Z</time>
      </trkpt>
      <trkpt lat="45.18321" lon="6.10385">
        <ele>1989</ele>
        <time>2025-02-09T09:18:14Z</time>
      </trkpt>
      <trkpt lat="45.18321" lon="6.10385">
        <ele>1990</ele>
        <time>2025-02-09T09:18:23Z</time>
      </trkpt>
      <trkpt lat="45.18321" lon="6.10385">
        <ele>1992</ele>
        <time>2025-02-09T09:18:33Z</time>
      </trkpt>
      <trkpt lat="45.1833" lon="6.10388">
        <ele>1992</ele>
        <time>2025-02-09T09:18:34Z</time>
      </trkpt>
      <trkpt lat="45.1833" lon="6.10388">
        <ele>1993</ele>
        <time>2025-02-09T09:18:43Z</time>
      </trkpt>
      <trkpt lat="45.1834" lon="6.1039">
        <ele>1993</ele>
        <time>2025-02-09T09:18:51Z</time>
      </trkpt>
      <trkpt lat="45.1834" lon="6.1039">
        <ele>1995</ele>
        <time>2025-02-09T09:18:53Z</time>
      </trkpt>
      <trkpt lat="45.1834" lon="6.1039">
        <ele>1997</ele>
        <time>2025-02-09T09:19:03Z</time>
      </trkpt>
      <trkpt lat="45.1834" lon="6.1039">
        <ele>1997</ele>
        <time>2025-02-09T09:19:13Z</time>
      </trkpt>
      <trkpt lat="45.1834" lon="6.1039">
        <ele>1997</ele>
        <time>2025-02-09T09:19:23Z</time>
      </trkpt>
      <trkpt lat="45.1834" lon="6.1039">
        <ele>1996</ele>
        <time>2025-02-09T09:19:33Z</time>
      </trkpt>
      <trkpt lat="45.1834" lon="6.1039">
        <ele>1996</ele>
        <time>2025-02-09T09:19:43Z</time>
      </trkpt>
      <trkpt lat="45.18349" lon="6.10389">
        <ele>1996</ele>
        <time>2025-02-09T09:19:49Z</time>
      </trkpt>
      <trkpt lat="45.18349" lon="6.10389">
        <ele>1997</ele>
        <time>2025-02-09T09:19:53Z</time>
      </trkpt>
      <trkpt lat="45.18349" lon="6.10389">
        <ele>1998</ele>
        <time>2025-02-09T09:20:03Z</time>
      </trkpt>
      <trkpt lat="45.18358" lon="6.10384">
        <ele>1998</ele>
        <time>2025-02-09T09:20:08Z</time>
      </trkpt>
      <trkpt lat="45.18358" lon="6.10384">
        <ele>1998</ele>
        <time>2025-02-09T09:20:13Z</time>
      </trkpt>
      <trkpt lat="45.18365" lon="6.10374">
        <ele>1998</ele>
        <time>2025-02-09T09:20:15Z</time>
      </trkpt>
      <trkpt lat="45.18372" lon="6.10366">
        <ele>1999</ele>
        <time>2025-02-09T09:20:23Z</time>
      </trkpt>
      <trkpt lat="45.18372" lon="6.10366">
        <ele>2001</ele>
        <time>2025-02-09T09:20:33Z</time>
      </trkpt>
      <trkpt lat="45.18372" lon="6.10366">
        <ele>2001</ele>
        <time>2025-02-09T09:20:43Z</time>
      </trkpt>
      <trkpt lat="45.18372" lon="6.10366">
        <ele>2001</ele>
        <time>2025-02-09T09:20:53Z</time>
      </trkpt>
      <trkpt lat="45.18381" lon="6.10365">
        <ele>2001</ele>
        <time>2025-02-09T09:20:59Z</time>
      </trkpt>
      <trkpt lat="45.18381" lon="6.10365">
        <ele>2002</ele>
        <time>2025-02-09T09:21:03Z</time>
      </trkpt>
      <trkpt lat="45.18381" lon="6.10365">
        <ele>2002</ele>
        <time>2025-02-09T09:21:13Z</time>
      </trkpt>
      <trkpt lat="45.18381" lon="6.10365">
        <ele>2004</ele>
        <time>2025-02-09T09:21:23Z</time>
      </trkpt>
      <trkpt lat="45.18384" lon="6.10377">
        <ele>2004</ele>
        <time>2025-02-09T09:21:31Z</time>
      </trkpt>
      <trkpt lat="45.18384" lon="6.10377">
        <ele>2004</ele>
        <time>2025-02-09T09:21:33Z</time>
      </trkpt>
      <trkpt lat="45.18384" lon="6.10377">
        <ele>2003</ele>
        <time>2025-02-09T09:21:43Z</time>
      </trkpt>
      <trkpt lat="45.18386" lon="6.1039">
        <ele>2003</ele>
        <time>2025-02-09T09:21:51Z</time>
      </trkpt>
      <trkpt lat="45.18386" lon="6.1039">
        <ele>2005</ele>
        <time>2025-02-09T09:21:53Z</time>
      </trkpt>
      <trkpt lat="45.18386" lon="6.1039">
        <ele>2007</ele>
        <time>2025-02-09T09:22:03Z</time>
      </trkpt>
      <trkpt lat="45.18389" lon="6.10403">
        <ele>2007</ele>
        <time>2025-02-09T09:22:06Z</time>
      </trkpt>
      <trkpt lat="45.18389" lon="6.10403">
        <ele>2008</ele>
        <time>2025-02-09T09:22:13Z</time>
      </trkpt>
      <trkpt lat="45.18389" lon="6.10403">
        <ele>2009</ele>
        <time>2025-02-09T09:22:23Z</time>
      </trkpt>
      <trkpt lat="45.18389" lon="6.10403">
        <ele>2009</ele>
        <time>2025-02-09T09:22:33Z</time>
      </trkpt>
      <trkpt lat="45.18386" lon="6.10415">
        <ele>2009</ele>
        <time>2025-02-09T09:22:36Z</time>
      </trkpt>
      <trkpt lat="45.18386" lon="6.10415">
        <ele>2009</ele>
        <time>2025-02-09T09:22:43Z</time>
      </trkpt>
      <trkpt lat="45.18386" lon="6.10415">
        <ele>2011</ele>
        <time>2025-02-09T09:22:53Z</time>
      </trkpt>
      <trkpt lat="45.18393" lon="6.10424">
        <ele>2011</ele>
        <time>2025-02-09T09:22:59Z</time>
      </trkpt>
      <trkpt lat="45.18393" lon="6.10424">
        <ele>2012</ele>
        <time>2025-02-09T09:23:03Z</time>
      </trkpt>
      <trkpt lat="45.18395" lon="6.10425">
        <ele>2013</ele>
        <time>2025-02-09T09:23:13Z</time>
      </trkpt>
      <trkpt lat="45.18396" lon="6.10426">
        <ele>2015</ele>
        <time>2025-02-09T09:23:23Z</time>
      </trkpt>
      <trkpt lat="45.18398" lon="6.10427">
        <ele>2017</ele>
        <time>2025-02-09T09:23:33Z</time>
      </trkpt>
      <trkpt lat="45.18399" lon="6.10428">
        <ele>2019</ele>
        <time>2025-02-09T09:23:43Z</time>
      </trkpt>
      <trkpt lat="45.184" lon="6.10429">
        <ele>2019</ele>
        <time>2025-02-09T09:23:46Z</time>
      </trkpt>
      <trkpt lat="45.18402" lon="6.1043">
        <ele>2021</ele>
        <time>2025-02-09T09:23:53Z</time>
      </trkpt>
      <trkpt lat="45.18403" lon="6.10431">
        <ele>2023</ele>
        <time>2025-02-09T09:24:03Z</time>
      </trkpt>
      <trkpt lat="45.18405" lon="6.10431">
        <ele>2024</ele>
        <time>2025-02-09T09:24:13Z</time>
      </trkpt>
      <trkpt lat="45.18406" lon="6.10432">
        <ele>2024</ele>
        <time>2025-02-09T09:24:23Z</time>
      </trkpt>
      <trkpt lat="45.18408" lon="6.10433">
        <ele>2024</ele>
        <time>2025-02-09T09:24:25Z</time>
      </trkpt>
      <trkpt lat="45.18409" lon="6.10434">
        <ele>2027</ele>
        <time>2025-02-09T09:24:33Z</time>
      </trkpt>
      <trkpt lat="45.18411" lon="6.10435">
        <ele>2027</ele>
        <time>2025-02-09T09:24:43Z</time>
      </trkpt>
      <trkpt lat="45.18412" lon="6.10436">
        <ele>2028</ele>
        <time>2025-02-09T09:24:53Z</time>
      </trkpt>
      <trkpt lat="45.18414" lon="6.10437">
        <ele>2030</ele>
        <time>2025-02-09T09:25:03Z</time>
      </trkpt>
      <trkpt lat="45.18415" lon="6.10438">
        <ele>2031</ele>
        <time>2025-02-09T09:25:13Z</time>
      </trkpt>
      <trkpt lat="45.18417" lon="6.10439">
        <ele>2033</ele>
        <time>2025-02-09T09:25:23Z</time>
      </trkpt>
      <trkpt lat="45.18418" lon="6.1044">
        <ele>2033</ele>
        <time>2025-02-09T09:25:24Z</time>
      </trkpt>
      <trkpt lat="45.18419" lon="6.10441">
        <ele>2033</ele>
        <time>2025-02-09T09:25:33Z</time>
      </trkpt>
      <trkpt lat="45.18421" lon="6.10442">
        <ele>2034</ele>
        <time>2025-02-09T09:25:43Z</time>
      </trkpt>
      <trkpt lat="45.18422" lon="6.10443">
        <ele>2034</ele>
        <time>2025-02-09T09:25:53Z</time>
      </trkpt>
      <trkpt lat="45.18424" lon="6.10444">
        <ele>2033</ele>
        <time>2025-02-09T09:26:03Z</time>
      </trkpt>
      <trkpt lat="45.18425" lon="6.10445">
        <ele>2035</ele>
        <time>2025-02-09T09:26:13Z</time>
      </trkpt>
      <trkpt lat="45.18427" lon="6.10446">
        <ele>2035</ele>
        <time>2025-02-09T09:26:23Z</time>
      </trkpt>
      <trkpt lat="45.18428" lon="6.10446">
        <ele>2035</ele>
        <time>2025-02-09T09:26:33Z</time>
      </trkpt>
      <trkpt lat="45.1843" lon="6.10447">
        <ele>2035</ele>
        <time>2025-02-09T09:26:43Z</time>
      </trkpt>
      <trkpt lat="45.18431" lon="6.10448">
        <ele>2035</ele>
        <time>2025-02-09T09:26:53Z</time>
      </trkpt>
      <trkpt lat="45.18433" lon="6.10449">
        <ele>2035</ele>
        <time>2025-02-09T09:27:03Z</time>
      </trkpt>
      <trkpt lat="45.18434" lon="6.1045">
        <ele>2035</ele>
        <time>2025-02-09T09:27:12Z</time>
      </trkpt>
      <trkpt lat="45.18436" lon="6.10451">
        <ele>2035</ele>
        <time>2025-02-09T09:27:13Z</time>
      </trkpt>
      <trkpt lat="45.18436" lon="6.10451">
        <ele>2037</ele>
        <time>2025-02-09T09:27:23Z</time>
      </trkpt>
      <trkpt lat="45.18438" lon="6.10464">
        <ele>2037</ele>
        <time>2025-02-09T09:27:27Z</time>
      </trkpt>
      <trkpt lat="45.18438" lon="6.10464">
        <ele>2038</ele>
        <time>2025-02-09T09:27:33Z</time>
      </trkpt>
      <trkpt lat="45.18438" lon="6.10464">
        <ele>2040</ele>
        <time>2025-02-09T09:27:43Z</time>
      </trkpt>
      <trkpt lat="45.1844" lon="6.10477">
        <ele>2040</ele>
        <time>2025-02-09T09:27:48Z</time>
      </trkpt>
      <trkpt lat="45.1844" lon="6.10477">
        <ele>2039</ele>
        <time>2025-02-09T09:27:53Z</time>
      </trkpt>
      <trkpt lat="45.1844" lon="6.10477">
        <ele>2041</ele>
        <time>2025-02-09T09:28:03Z</time>
      </trkpt>
      <trkpt lat="45.18444" lon="6.10489">
        <ele>2041</ele>
        <time>2025-02-09T09:28:07Z</time>
      </trkpt>
      <trkpt lat="45.18444" lon="6.10489">
        <ele>2042</ele>
        <time>2025-02-09T09:28:13Z</time>
      </trkpt>
      <trkpt lat="45.18446" lon="6.10501">
        <ele>2044</ele>
        <time>2025-02-09T09:28:23Z</time>
      </trkpt>
      <trkpt lat="45.18446" lon="6.10501">
        <ele>2045</ele>
        <time>2025-02-09T09:28:33Z</time>
      </trkpt>
      <trkpt lat="45.18448" lon="6.10514">
        <ele>2045</ele>
        <time>2025-02-09T09:28:40Z</time>
      </trkpt>
      <trkpt lat="45.18448" lon="6.10514">
        <ele>2046</ele>
        <time>2025-02-09T09:28:43Z</time>
      </trkpt>
      <trkpt lat="45.18448" lon="6.10514">
        <ele>2046</ele>
        <time>2025-02-09T09:28:53Z</time>
      </trkpt>
      <trkpt lat="45.18456" lon="6.1052">
        <ele>2046</ele>
        <time>2025-02-09T09:29:01Z</time>
      </trkpt>
      <trkpt lat="45.18456" lon="6.1052">
        <ele>2048</ele>
        <time>2025-02-09T09:29:03Z</time>
      </trkpt>
      <trkpt lat="45.18456" lon="6.1052">
        <ele>2049</ele>
        <time>2025-02-09T09:29:13Z</time>
      </trkpt>
      <trkpt lat="45.18463" lon="6.1053">
        <ele>2049</ele>
        <time>2025-02-09T09:29:20Z</time>
      </trkpt>
      <trkpt lat="45.18463" lon="6.1053">
        <ele>2051</ele>
        <time>2025-02-09T09:29:23Z</time>
      </trkpt>
      <trkpt lat="45.18463" lon="6.1053">
        <ele>2052</ele>
        <time>2025-02-09T09:29:33Z</time>
      </trkpt>
      <trkpt lat="45.1847" lon="6.10538">
        <ele>2052</ele>
        <time>2025-02-09T09:29:41Z</time>
      </trkpt>
      <trkpt lat="45.1847" lon="6.10538">
        <ele>2054</ele>
        <time>2025-02-09T09:29:43Z</time>
      </trkpt>
      <trkpt lat="45.1847" lon="6.10538">
        <ele>2055</ele>
        <time>2025-02-09T09:29:53Z</time>
      </trkpt>
      <trkpt lat="45.18479" lon="6.10537">
        <ele>2055</ele>
        <time>2025-02-09T09:30:01Z</time>
      </trkpt>
      <trkpt lat="45.18479" lon="6.10537">
        <ele>2056</ele>
        <time>2025-02-09T09:30:03Z</time>
      </trkpt>
      <trkpt lat="45.18479" lon="6.10537">
        <ele>2057</ele>
        <time>2025-02-09T09:30:13Z</time>
      </trkpt>
      <trkpt lat="45.18479" lon="6.10537">
        <ele>2058</ele>
        <time>2025-02-09T09:30:23Z</time>
      </trkpt>
      <trkpt lat="45.18488" lon="6.10539">
        <ele>2058</ele>
        <time>2025-02-09T09:30:25Z</time>
      </trkpt>
      <trkpt lat="45.18488" lon="6.10539">
        <ele>2060</ele>
        <time>2025-02-09T09:30:33Z</time>
      </trkpt>
      <trkpt lat="45.18488" lon="6.10539">
        <ele>2062</ele>
        <time>2025-02-09T09:30:43Z</time>
      </trkpt>
      <trkpt lat="45.18492" lon="6.10551">
        <ele>2062</ele>
        <time>2025-02-09T09:30:45Z</time>
      </trkpt>
      <trkpt lat="45.18492" lon="6.10551">
        <ele>2062</ele>
        <time>2025-02-09T09:30:53Z</time>
      </trkpt>
      <trkpt lat="45.18493" lon="6.10564">
        <ele>2062</ele>
        <time>2025-02-09T09:31:00Z</time>
      </trkpt>
      <trkpt lat="45.18493" lon="6.10564">
        <ele>2064</ele>
        <time>2025-02-09T09:31:03Z</time>
      </trkpt>
      <trkpt lat="45.18493" lon="6.10564">
        <ele>2064</ele>
        <time>2025-02-09T09:31:13Z</time>
      </trkpt>
      <trkpt lat="45.18496" lon="6.10577">
        <ele>2064</ele>
        <time>2025-02-09T09:31:19Z</time>
      </trkpt>
      <trkpt lat="45.18496" lon="6.10577">
        <ele>2066</ele>
        <time>2025-02-09T09:31:23Z</time>
      </trkpt>
      <trkpt lat="45.18496" lon="6.10577">
        <ele>2067</ele>
        <time>2025-02-09T09:31:33Z</time>
      </trkpt>
      <trkpt lat="45.185" lon="6.10589">
        <ele>2067</ele>
        <time>2025-02-09T09:31:35Z</time>
      </trkpt>
      <trkpt lat="45.185" lon="6.10589">
        <ele>2067</ele>
        <time>2025-02-09T09:31:43Z</time>
      </trkpt>
      <trkpt lat="45.185" lon="6.10589">
        <ele>2069</ele>
        <time>2025-02-09T09:31:53Z</time>
      </trkpt>
      <trkpt lat="45.18504" lon="6.10601">
        <ele>2069</ele>
        <time>2025-02-09T09:31:58Z</time>
      </trkpt>
      <trkpt lat="45.18504" lon="6.10601">
        <ele>2071</ele>
        <time>2025-02-09T09:32:03Z</time>
      </trkpt>
      <trkpt lat="45.1851" lon="6.10611">
        <ele>2071</ele>
        <time>2025-02-09T09:32:08Z</time>
      </trkpt>
      <trkpt lat="45.1851" lon="6.10611">
        <ele>2071</ele>
        <time>2025-02-09T09:32:13Z</time>
      </trkpt>
      <trkpt lat="45.18512" lon="6.10624">
        <ele>2071</ele>
        <time>2025-02-09T09:32:22Z</time>
      </trkpt>
      <trkpt lat="45.18512" lon="6.10624">
        <ele>2073</ele>
        <time>2025-02-09T09:32:23Z</time>
      </trkpt>
      <trkpt lat="45.18512" lon="6.10624">
        <ele>2074</ele>
        <time>2025-02-09T09:32:33Z</time>
      </trkpt>
      <trkpt lat="45.18515" lon="6.10636">
        <ele>2074</ele>
        <time>2025-02-09T09:32:39Z</time>
      </trkpt>
      <trkpt lat="45.18515" lon="6.10636">
        <ele>2076</ele>
        <time>2025-02-09T09:32:43Z</time>
      </trkpt>
      <trkpt lat="45.18515" lon="6.10636">
        <ele>2075</ele>
        <time>2025-02-09T09:32:53Z</time>
      </trkpt>
      <trkpt lat="45.18519" lon="6.10647">
        <ele>2075</ele>
        <time>2025-02-09T09:32:55Z</time>
      </trkpt>
      <trkpt lat="45.18519" lon="6.10647">
        <ele>2077</ele>
        <time>2025-02-09T09:33:03Z</time>
      </trkpt>
      <trkpt lat="45.18519" lon="6.10647">
        <ele>2078</ele>
        <time>2025-02-09T09:33:13Z</time>
      </trkpt>
      <trkpt lat="45.18525" lon="6.10658">
        <ele>2078</ele>
        <time>2025-02-09T09:33:16Z</time>
      </trkpt>
      <trkpt lat="45.18525" lon="6.10658">
        <ele>2079</ele>
        <time>2025-02-09T09:33:23Z</time>
      </trkpt>
      <trkpt lat="45.18525" lon="6.10658">
        <ele>2080</ele>
        <time>2025-02-09T09:33:33Z</time>
      </trkpt>
      <trkpt lat="45.18532" lon="6.10667">
        <ele>2080</ele>
        <time>2025-02-09T09:33:35Z</time>
      </trkpt>
      <trkpt lat="45.18532" lon="6.10667">
        <ele>2082</ele>
        <time>2025-02-09T09:33:43Z</time>
      </trkpt>
      <trkpt lat="45.18532" lon="6.10667">
        <ele>2085</ele>
        <time>2025-02-09T09:33:53Z</time>
      </trkpt>
      <trkpt lat="45.18537" lon="6.10678">
        <ele>2085</ele>
        <time>2025-02-09T09:33:58Z</time>
      </trkpt>
      <trkpt lat="45.18537" lon="6.10678">
        <ele>2085</ele>
        <time>2025-02-09T09:34:03Z</time>
      </trkpt>
      <trkpt lat="45.18537" lon="6.10678">
        <ele>2086</ele>
        <time>2025-02-09T09:34:13Z</time>
      </trkpt>
      <trkpt lat="45.18539" lon="6.10691">
        <ele>2086</ele>
        <time>2025-02-09T09:34:16Z</time>
      </trkpt>
      <trkpt lat="45.18539" lon="6.10691">
        <ele>2088</ele>
        <time>2025-02-09T09:34:23Z</time>
      </trkpt>
      <trkpt lat="45.18539" lon="6.10691">
        <ele>2089</ele>
        <time>2025-02-09T09:34:33Z</time>
      </trkpt>
      <trkpt lat="45.18547" lon="6.10699">
        <ele>2089</ele>
        <time>2025-02-09T09:34:36Z</time>
      </trkpt>
      <trkpt lat="45.18547" lon="6.10699">
        <ele>2091</ele>
        <time>2025-02-09T09:34:43Z</time>
      </trkpt>
      <trkpt lat="45.18547" lon="6.10699">
        <ele>2092</ele>
        <time>2025-02-09T09:34:53Z</time>
      </trkpt>
      <trkpt lat="45.18553" lon="6.10708">
        <ele>2092</ele>
        <time>2025-02-09T09:34:58Z</time>
      </trkpt>
      <trkpt lat="45.18553" lon="6.10708">
        <ele>2094</ele>
        <time>2025-02-09T09:35:03Z</time>
      </trkpt>
      <trkpt lat="45.18553" lon="6.10708">
        <ele>2095</ele>
        <time>2025-02-09T09:35:13Z</time>
      </trkpt>
      <trkpt lat="45.18561" lon="6.10713">
        <ele>2095</ele>
        <time>2025-02-09T09:35:15Z</time>
      </trkpt>
      <trkpt lat="45.18561" lon="6.10713">
        <ele>2096</ele>
        <time>2025-02-09T09:35:23Z</time>
      </trkpt>
      <trkpt lat="45.18561" lon="6.10713">
        <ele>2097</ele>
        <time>2025-02-09T09:35:33Z</time>
      </trkpt>
      <trkpt lat="45.18569" lon="6.1072">
        <ele>2097</ele>
        <time>2025-02-09T09:35:38Z</time>
      </trkpt>
      <trkpt lat="45.18569" lon="6.1072">
        <ele>2099</ele>
        <time>2025-02-09T09:35:43Z</time>
      </trkpt>
      <trkpt lat="45.18569" lon="6.1072">
        <ele>2100</ele>
        <time>2025-02-09T09:35:53Z</time>
      </trkpt>
      <trkpt lat="45.18575" lon="6.1073">
        <ele>2100</ele>
        <time>2025-02-09T09:35:54Z</time>
      </trkpt>
      <trkpt lat="45.18575" lon="6.1073">
        <ele>2100</ele>
        <time>2025-02-09T09:36:03Z</time>
      </trkpt>
      <trkpt lat="45.18582" lon="6.10737">
        <ele>2100</ele>
        <time>2025-02-09T09:36:04Z</time>
      </trkpt>
      <trkpt lat="45.18582" lon="6.10737">
        <ele>2102</ele>
        <time>2025-02-09T09:36:13Z</time>
      </trkpt>
      <trkpt lat="45.18582" lon="6.10737">
        <ele>2104</ele>
        <time>2025-02-09T09:36:23Z</time>
      </trkpt>
      <trkpt lat="45.18589" lon="6.10746">
        <ele>2104</ele>
        <time>2025-02-09T09:36:25Z</time>
      </trkpt>
      <trkpt lat="45.18589" lon="6.10746">
        <ele>2105</ele>
        <time>2025-02-09T09:36:33Z</time>
      </trkpt>
      <trkpt lat="45.18599" lon="6.10749">
        <ele>2105</ele>
        <time>2025-02-09T09:36:37Z</time>
      </trkpt>
      <trkpt lat="45.18599" lon="6.10749">
        <ele>2107</ele>
        <time>2025-02-09T09:36:43Z</time>
      </trkpt>
      <trkpt lat="45.18599" lon="6.10749">
        <ele>2108</ele>
        <time>2025-02-09T09:36:53Z</time>
      </trkpt>
      <trkpt lat="45.18599" lon="6.10749">
        <ele>2109</ele>
        <time>2025-02-09T09:37:03Z</time>
      </trkpt>
      <trkpt lat="45.18608" lon="6.10751">
        <ele>2109</ele>
        <time>2025-02-09T09:37:04Z</time>
      </trkpt>
      <trkpt lat="45.18608" lon="6.10751">
        <ele>2109</ele>
        <time>2025-02-09T09:37:13Z</time>
      </trkpt>
      <trkpt lat="45.18617" lon="6.10757">
        <ele>2109</ele>
        <time>2025-02-09T09:37:17Z</time>
      </trkpt>
      <trkpt lat="45.18617" lon="6.10757">
        <ele>2110</ele>
        <time>2025-02-09T09:37:23Z</time>
      </trkpt>
      <trkpt lat="45.18617" lon="6.10757">
        <ele>2110</ele>
        <time>2025-02-09T09:37:33Z</time>
      </trkpt>
      <trkpt lat="45.18625" lon="6.10762">
        <ele>2110</ele>
        <time>2025-02-09T09:37:39Z</time>
      </trkpt>
      <trkpt lat="45.18625" lon="6.10762">
        <ele>2111</ele>
        <time>2025-02-09T09:37:43Z</time>
      </trkpt>
      <trkpt lat="45.18629" lon="6.10764">
        <ele>2112</ele>
        <time>2025-02-09T09:37:53Z</time>
      </trkpt>
      <trkpt lat="45.18633" lon="6.10767">
        <ele>2112</ele>
        <time>2025-02-09T09:37:55Z</time>
      </trkpt>
      <trkpt lat="45.18636" lon="6.10769">
        <ele>2114</ele>
        <time>2025-02-09T09:38:03Z</time>
      </trkpt>
      <trkpt lat="45.1864" lon="6.10771">
        <ele>2114</ele>
        <time>2025-02-09T09:38:13Z</time>
      </trkpt>
      <trkpt lat="45.18644" lon="6.10773">
        <ele>2116</ele>
        <time>2025-02-09T09:38:23Z</time>
      </trkpt>
      <trkpt lat="45.18647" lon="6.10775">
        <ele>2116</ele>
        <time>2025-02-09T09:38:32Z</time>
      </trkpt>
      <trkpt lat="45.18651" lon="6.10777">
        <ele>2116</ele>
        <time>2025-02-09T09:38:33Z</time>
      </trkpt>
      <trkpt lat="45.18653" lon="6.10779">
        <ele>2118</ele>
        <time>2025-02-09T09:38:43Z</time>
      </trkpt>
      <trkpt lat="45.18656" lon="6.10782">
        <ele>2118</ele>
        <time>2025-02-09T09:38:53Z</time>
      </trkpt>
      <trkpt lat="45.18658" lon="6.10785">
        <ele>2118</ele>
        <time>2025-02-09T09:38:54Z</time>
      </trkpt>
      <trkpt lat="45.18661" lon="6.10787">
        <ele>2120</ele>
        <time>2025-02-09T09:39:03Z</time>
      </trkpt>
      <trkpt lat="45.18663" lon="6.1079">
        <ele>2120</ele>
        <time>2025-02-09T09:39:12Z</time>
      </trkpt>
      <trkpt lat="45.18666" lon="6.10793">
        <ele>2121</ele>
        <time>2025-02-09T09:39:13Z</time>
      </trkpt>
      <trkpt lat="45.18666" lon="6.10793">
        <ele>2122</ele>
        <time>2025-02-09T09:39:23Z</time>
      </trkpt>
      <trkpt lat="45.18673" lon="6.10802">
        <ele>2122</ele>
        <time>2025-02-09T09:39:29Z</time>
      </trkpt>
      <trkpt lat="45.18673" lon="6.10802">
        <ele>2124</ele>
        <time>2025-02-09T09:39:33Z</time>
      </trkpt>
      <trkpt lat="45.18675" lon="6.10806">
        <ele>2125</ele>
        <time>2025-02-09T09:39:43Z</time>
      </trkpt>
      <trkpt lat="45.18678" lon="6.10809">
        <ele>2125</ele>
        <time>2025-02-09T09:39:46Z</time>
      </trkpt>
      <trkpt lat="45.1868" lon="6.10813">
        <ele>2126</ele>
        <time>2025-02-09T09:39:53Z</time>
      </trkpt>
      <trkpt lat="45.18683" lon="6.10817">
        <ele>2128</ele>
        <time>2025-02-09T09:40:03Z</time>
      </trkpt>
      <trkpt lat="45.18685" lon="6.1082">
        <ele>2128</ele>
        <time>2025-02-09T09:40:06Z</time>
      </trkpt>
      <trkpt lat="45.18688" lon="6.10824">
        <ele>2128</ele>
        <time>2025-02-09T09:40:13Z</time>
      </trkpt>
      <trkpt lat="45.1869" lon="6.10828">
        <ele>2130</ele>
        <time>2025-02-09T09:40:23Z</time>
      </trkpt>
      <trkpt lat="45.18693" lon="6.10831">
        <ele>2130</ele>
        <time>2025-02-09T09:40:26Z</time>
      </trkpt>
      <trkpt lat="45.18696" lon="6.10835">
        <ele>2130</ele>
        <time>2025-02-09T09:40:33Z</time>
      </trkpt>
      <trkpt lat="45.18698" lon="6.10839">
        <ele>2130</ele>
        <time>2025-02-09T09:40:37Z</time>
      </trkpt>
      <trkpt lat="45.18701" lon="6.10843">
        <ele>2131</ele>
        <time>2025-02-09T09:40:43Z</time>
      </trkpt>
      <trkpt lat="45.18703" lon="6.10846">
        <ele>2133</ele>
        <time>2025-02-09T09:40:53Z</time>
      </trkpt>
      <trkpt lat="45.18706" lon="6.1085">
        <ele>2135</ele>
        <time>2025-02-09T09:41:03Z</time>
      </trkpt>
      <trkpt lat="45.18708" lon="6.10854">
        <ele>2135</ele>
        <time>2025-02-09T09:41:12Z</time>
      </trkpt>
      <trkpt lat="45.18711" lon="6.10857">
        <ele>2137</ele>
        <time>2025-02-09T09:41:13Z</time>
      </trkpt>
      <trkpt lat="45.18711" lon="6.10857">
        <ele>2138</ele>
        <time>2025-02-09T09:41:23Z</time>
      </trkpt>
      <trkpt lat="45.18711" lon="6.10857">
        <ele>2140</ele>
        <time>2025-02-09T09:41:33Z</time>
      </trkpt>
      <trkpt lat="45.18719" lon="6.10864">
        <ele>2140</ele>
        <time>2025-02-09T09:41:38Z</time>
      </trkpt>
      <trkpt lat="45.18719" lon="6.10864">
        <ele>2141</ele>
        <time>2025-02-09T09:41:43Z</time>
      </trkpt>
      <trkpt lat="45.18719" lon="6.10864">
        <ele>2143</ele>
        <time>2025-02-09T09:41:53Z</time>
      </trkpt>
      <trkpt lat="45.18728" lon="6.1087">
        <ele>2143</ele>
        <time>2025-02-09T09:41:56Z</time>
      </trkpt>
      <trkpt lat="45.18728" lon="6.1087">
        <ele>2142</ele>
        <time>2025-02-09T09:42:03Z</time>
      </trkpt>
      <trkpt lat="45.18728" lon="6.1087">
        <ele>2144</ele>
        <time>2025-02-09T09:42:13Z</time>
      </trkpt>
      <trkpt lat="45.18735" lon="6.10878">
        <ele>2144</ele>
        <time>2025-02-09T09:42:16Z</time>
      </trkpt>
      <trkpt lat="45.18735" lon="6.10878">
        <ele>2145</ele>
        <time>2025-02-09T09:42:23Z</time>
      </trkpt>
      <trkpt lat="45.18744" lon="6.10881">
        <ele>2145</ele>
        <time>2025-02-09T09:42:30Z</time>
      </trkpt>
      <trkpt lat="45.18744" lon="6.10881">
        <ele>2146</ele>
        <time>2025-02-09T09:42:33Z</time>
      </trkpt>
      <trkpt lat="45.18744" lon="6.10881">
        <ele>2148</ele>
        <time>2025-02-09T09:42:43Z</time>
      </trkpt>
      <trkpt lat="45.18744" lon="6.10881">
        <ele>2148</ele>
        <time>2025-02-09T09:42:53Z</time>
      </trkpt>
      <trkpt lat="45.18751" lon="6.10889">
        <ele>2148</ele>
        <time>2025-02-09T09:42:55Z</time>
      </trkpt>
      <trkpt lat="45.18751" lon="6.10889">
        <ele>2149</ele>
        <time>2025-02-09T09:43:03Z</time>
      </trkpt>
      <trkpt lat="45.18759" lon="6.10897">
        <ele>2149</ele>
        <time>2025-02-09T09:43:06Z</time>
      </trkpt>
      <trkpt lat="45.18759" lon="6.10897">
        <ele>2150</ele>
        <time>2025-02-09T09:43:13Z</time>
      </trkpt>
      <trkpt lat="45.18765" lon="6.10907">
        <ele>2150</ele>
        <time>2025-02-09T09:43:20Z</time>
      </trkpt>
      <trkpt lat="45.18765" lon="6.10907">
        <ele>2150</ele>
        <time>2025-02-09T09:43:23Z</time>
      </trkpt>
      <trkpt lat="45.18765" lon="6.10907">
        <ele>2150</ele>
        <time>2025-02-09T09:43:33Z</time>
      </trkpt>
      <trkpt lat="45.18765" lon="6.10907">
        <ele>2150</ele>
        <time>2025-02-09T09:43:43Z</time>
      </trkpt>
      <trkpt lat="45.18765" lon="6.10907">
        <ele>2150</ele>
        <time>2025-02-09T09:43:53Z</time>
      </trkpt>
      <trkpt lat="45.18765" lon="6.10907">
        <ele>2151</ele>
        <time>2025-02-09T09:44:03Z</time>
      </trkpt>
      <trkpt lat="45.18765" lon="6.10907">
        <ele>2152</ele>
        <time>2025-02-09T09:44:13Z</time>
      </trkpt>
      <trkpt lat="45.18765" lon="6.10907">
        <ele>2152</ele>
        <time>2025-02-09T09:44:23Z</time>
      </trkpt>
      <trkpt lat="45.18765" lon="6.10907">
        <ele>2151</ele>
        <time>2025-02-09T09:44:33Z</time>
      </trkpt>
      <trkpt lat="45.18765" lon="6.10907">
        <ele>2152</ele>
        <time>2025-02-09T09:44:43Z</time>
      </trkpt>
      <trkpt lat="45.18772" lon="6.10917">
        <ele>2152</ele>
        <time>2025-02-09T09:44:53Z</time>
      </trkpt>
      <trkpt lat="45.18779" lon="6.10926">
        <ele>2152</ele>
        <time>2025-02-09T09:45:03Z</time>
      </trkpt>
      <trkpt lat="45.18779" lon="6.10926">
        <ele>2153</ele>
        <time>2025-02-09T09:45:13Z</time>
      </trkpt>
      <trkpt lat="45.18786" lon="6.10936">
        <ele>2153</ele>
        <time>2025-02-09T09:45:15Z</time>
      </trkpt>
      <trkpt lat="45.18786" lon="6.10936">
        <ele>2153</ele>
        <time>2025-02-09T09:45:23Z</time>
      </trkpt>
      <trkpt lat="45.18795" lon="6.10942">
        <ele>2153</ele>
        <time>2025-02-09T09:45:31Z</time>
      </trkpt>
      <trkpt lat="45.18795" lon="6.10942">
        <ele>2155</ele>
        <time>2025-02-09T09:45:33Z</time>
      </trkpt>
      <trkpt lat="45.18795" lon="6.10942">
        <ele>2156</ele>
        <time>2025-02-09T09:45:43Z</time>
      </trkpt>
      <trkpt lat="45.18802" lon="6.10952">
        <ele>2156</ele>
        <time>2025-02-09T09:45:47Z</time>
      </trkpt>
      <trkpt lat="45.18802" lon="6.10952">
        <ele>2157</ele>
        <time>2025-02-09T09:45:53Z</time>
      </trkpt>
      <trkpt lat="45.18807" lon="6.10963">
        <ele>2157</ele>
        <time>2025-02-09T09:46:01Z</time>
      </trkpt>
      <trkpt lat="45.18807" lon="6.10963">
        <ele>2159</ele>
        <time>2025-02-09T09:46:03Z</time>
      </trkpt>
      <trkpt lat="45.18816" lon="6.10976">
        <ele>2159</ele>
        <time>2025-02-09T09:46:13Z</time>
      </trkpt>
      <trkpt lat="45.18818" lon="6.1098">
        <ele>2159</ele>
        <time>2025-02-09T09:46:23Z</time>
      </trkpt>
      <trkpt lat="45.1882" lon="6.10983">
        <ele>2159</ele>
        <time>2025-02-09T09:46:24Z</time>
      </trkpt>
      <trkpt lat="45.18823" lon="6.10987">
        <ele>2159</ele>
        <time>2025-02-09T09:46:33Z</time>
      </trkpt>
      <trkpt lat="45.18825" lon="6.1099">
        <ele>2159</ele>
        <time>2025-02-09T09:46:43Z</time>
      </trkpt>
      <trkpt lat="45.18828" lon="6.10994">
        <ele>2159</ele>
        <time>2025-02-09T09:46:53Z</time>
      </trkpt>
      <trkpt lat="45.1883" lon="6.10998">
        <ele>2159</ele>
        <time>2025-02-09T09:47:02Z</time>
      </trkpt>
      <trkpt lat="45.18833" lon="6.11001">
        <ele>2159</ele>
        <time>2025-02-09T09:47:03Z</time>
      </trkpt>
      <trkpt lat="45.18837" lon="6.11013">
        <ele>2159</ele>
        <time>2025-02-09T09:47:11Z</time>
      </trkpt>
      <trkpt lat="45.18837" lon="6.11013">
        <ele>2159</ele>
        <time>2025-02-09T09:47:13Z</time>
      </trkpt>
      <trkpt lat="45.18841" lon="6.11025">
        <ele>2159</ele>
        <time>2025-02-09T09:47:21Z</time>
      </trkpt>
      <trkpt lat="45.18841" lon="6.11025">
        <ele>2159</ele>
        <time>2025-02-09T09:47:23Z</time>
      </trkpt>
      <trkpt lat="45.18844" lon="6.11032">
        <ele>2159</ele>
        <time>2025-02-09T09:47:33Z</time>
      </trkpt>
      <trkpt lat="45.18847" lon="6.11039">
        <ele>2159</ele>
        <time>2025-02-09T09:47:34Z</time>
      </trkpt>
      <trkpt lat="45.18849" lon="6.11045">
        <ele>2159</ele>
        <time>2025-02-09T09:47:43Z</time>
      </trkpt>
      <trkpt lat="45.18852" lon="6.11052">
        <ele>2159</ele>
        <time>2025-02-09T09:47:45Z</time>
      </trkpt>
      <trkpt lat="45.18854" lon="6.11059">
        <ele>2159</ele>
        <time>2025-02-09T09:47:53Z</time>
      </trkpt>
      <trkpt lat="45.18857" lon="6.11065">
        <ele>2159</ele>
        <time>2025-02-09T09:48:02Z</time>
      </trkpt>
      <trkpt lat="45.1886" lon="6.11072">
        <ele>2159</ele>
        <time>2025-02-09T09:48:03Z</time>
      </trkpt>
      <trkpt lat="45.18862" lon="6.11083">
        <ele>2159</ele>
        <time>2025-02-09T09:48:13Z</time>
      </trkpt>
      <trkpt lat="45.18862" lon="6.11083">
        <ele>2159</ele>
        <time>2025-02-09T09:48:23Z</time>
      </trkpt>
      <trkpt lat="45.18867" lon="6.11094">
        <ele>2159</ele>
        <time>2025-02-09T09:48:30Z</time>
      </trkpt>
      <trkpt lat="45.18867" lon="6.11094">
        <ele>2159</ele>
        <time>2025-02-09T09:48:33Z</time>
      </trkpt>
      <trkpt lat="45.18872" lon="6.11106">
        <ele>2159</ele>
        <time>2025-02-09T09:48:42Z</time>
      </trkpt>
      <trkpt lat="45.18872" lon="6.11106">
        <ele>2159</ele>
        <time>2025-02-09T09:48:43Z</time>
      </trkpt>
      <trkpt lat="45.18872" lon="6.11106">
        <ele>2160</ele>
        <time>2025-02-09T09:48:53Z</time>
      </trkpt>
      <trkpt lat="45.18877" lon="6.11118">
        <ele>2160</ele>
        <time>2025-02-09T09:48:59Z</time>
      </trkpt>
      <trkpt lat="45.18877" lon="6.11118">
        <ele>2162</ele>
        <time>2025-02-09T09:49:03Z</time>
      </trkpt>
      <trkpt lat="45.18884" lon="6.11127">
        <ele>2162</ele>
        <time>2025-02-09T09:49:10Z</time>
      </trkpt>
      <trkpt lat="45.18884" lon="6.11127">
        <ele>2162</ele>
        <time>2025-02-09T09:49:13Z</time>
      </trkpt>
      <trkpt lat="45.18884" lon="6.11127">
        <ele>2163</ele>
        <time>2025-02-09T09:49:23Z</time>
      </trkpt>
      <trkpt lat="45.1889" lon="6.11136">
        <ele>2163</ele>
        <time>2025-02-09T09:49:25Z</time>
      </trkpt>
      <trkpt lat="45.1889" lon="6.11136">
        <ele>2164</ele>
        <time>2025-02-09T09:49:33Z</time>
      </trkpt>
      <trkpt lat="45.18897" lon="6.11145">
        <ele>2164</ele>
        <time>2025-02-09T09:49:37Z</time>
      </trkpt>
      <trkpt lat="45.18897" lon="6.11145">
        <ele>2164</ele>
        <time>2025-02-09T09:49:43Z</time>
      </trkpt>
      <trkpt lat="45.18901" lon="6.11157">
        <ele>2164</ele>
        <time>2025-02-09T09:49:51Z</time>
      </trkpt>
      <trkpt lat="45.18901" lon="6.11157">
        <ele>2165</ele>
        <time>2025-02-09T09:49:53Z</time>
      </trkpt>
      <trkpt lat="45.18906" lon="6.11168">
        <ele>2165</ele>
        <time>2025-02-09T09:50:02Z</time>
      </trkpt>
      <trkpt lat="45.18906" lon="6.11168">
        <ele>2166</ele>
        <time>2025-02-09T09:50:03Z</time>
      </trkpt>
      <trkpt lat="45.18911" lon="6.11179">
        <ele>2167</ele>
        <time>2025-02-09T09:50:13Z</time>
      </trkpt>
      <trkpt lat="45.18911" lon="6.11179">
        <ele>2168</ele>
        <time>2025-02-09T09:50:23Z</time>
      </trkpt>
      <trkpt lat="45.18917" lon="6.1119">
        <ele>2168</ele>
        <time>2025-02-09T09:50:25Z</time>
      </trkpt>
      <trkpt lat="45.18917" lon="6.1119">
        <ele>2168</ele>
        <time>2025-02-09T09:50:33Z</time>
      </trkpt>
      <trkpt lat="45.18923" lon="6.112">
        <ele>2168</ele>
        <time>2025-02-09T09:50:35Z</time>
      </trkpt>
      <trkpt lat="45.18923" lon="6.112">
        <ele>2170</ele>
        <time>2025-02-09T09:50:43Z</time>
      </trkpt>
      <trkpt lat="45.18928" lon="6.11212">
        <ele>2170</ele>
        <time>2025-02-09T09:50:47Z</time>
      </trkpt>
      <trkpt lat="45.18928" lon="6.11212">
        <ele>2169</ele>
        <time>2025-02-09T09:50:53Z</time>
      </trkpt>
      <trkpt lat="45.18936" lon="6.11218">
        <ele>2169</ele>
        <time>2025-02-09T09:50:59Z</time>
      </trkpt>
      <trkpt lat="45.18936" lon="6.11218">
        <ele>2169</ele>
        <time>2025-02-09T09:51:03Z</time>
      </trkpt>
      <trkpt lat="45.18945" lon="6.11222">
        <ele>2169</ele>
        <time>2025-02-09T09:51:09Z</time>
      </trkpt>
      <trkpt lat="45.18945" lon="6.11222">
        <ele>2168</ele>
        <time>2025-02-09T09:51:13Z</time>
      </trkpt>
      <trkpt lat="45.18945" lon="6.11222">
        <ele>2167</ele>
        <time>2025-02-09T09:51:23Z</time>
      </trkpt>
      <trkpt lat="45.18945" lon="6.11222">
        <ele>2167</ele>
        <time>2025-02-09T09:51:33Z</time>
      </trkpt>
      <trkpt lat="45.18953" lon="6.11229">
        <ele>2167</ele>
        <time>2025-02-09T09:51:36Z</time>
      </trkpt>
      <trkpt lat="45.18953" lon="6.11229">
        <ele>2168</ele>
        <time>2025-02-09T09:51:43Z</time>
      </trkpt>
      <trkpt lat="45.18953" lon="6.11229">
        <ele>2168</ele>
        <time>2025-02-09T09:51:53Z</time>
      </trkpt>
      <trkpt lat="45.18943" lon="6.11225">
        <ele>2168</ele>
        <time>2025-02-09T09:51:56Z</time>
      </trkpt>
      <trkpt lat="45.18943" lon="6.11225">
        <ele>2167</ele>
        <time>2025-02-09T09:52:03Z</time>
      </trkpt>
      <trkpt lat="45.18943" lon="6.11225">
        <ele>2168</ele>
        <time>2025-02-09T09:52:13Z</time>
      </trkpt>
      <trkpt lat="45.18943" lon="6.11225">
        <ele>2168</ele>
        <time>2025-02-09T09:52:23Z</time>
      </trkpt>
      <trkpt lat="45.18943" lon="6.11225">
        <ele>2168</ele>
        <time>2025-02-09T09:52:33Z</time>
      </trkpt>
      <trkpt lat="45.18943" lon="6.11225">
        <ele>2167</ele>
        <time>2025-02-09T09:52:43Z</time>
      </trkpt>
      <trkpt lat="45.1895" lon="6.11234">
        <ele>2167</ele>
        <time>2025-02-09T09:52:48Z</time>
      </trkpt>
      <trkpt lat="45.1895" lon="6.11234">
        <ele>2167</ele>
        <time>2025-02-09T09:52:53Z</time>
      </trkpt>
      <trkpt lat="45.1895" lon="6.11234">
        <ele>2168</ele>
        <time>2025-02-09T09:53:03Z</time>
      </trkpt>
      <trkpt lat="45.1895" lon="6.11234">
        <ele>2169</ele>
        <time>2025-02-09T09:53:13Z</time>
      </trkpt>
      <trkpt lat="45.1895" lon="6.11234">
        <ele>2168</ele>
        <time>2025-02-09T09:53:23Z</time>
      </trkpt>
      <trkpt lat="45.1895" lon="6.11234">
        <ele>2168</ele>
        <time>2025-02-09T09:53:33Z</time>
      </trkpt>
      <trkpt lat="45.1895" lon="6.11234">
        <ele>2168</ele>
        <time>2025-02-09T09:53:43Z</time>
      </trkpt>
      <trkpt lat="45.1895" lon="6.11234">
        <ele>2168</ele>
        <time>2025-02-09T09:53:53Z</time>
      </trkpt>
      <trkpt lat="45.1895" lon="6.11234">
        <ele>2168</ele>
        <time>2025-02-09T09:54:03Z</time>
      </trkpt>
      <trkpt lat="45.1895" lon="6.11234">
        <ele>2168</ele>
        <time>2025-02-09T09:54:13Z</time>
      </trkpt>
      <trkpt lat="45.1895" lon="6.11234">
        <ele>2168</ele>
        <time>2025-02-09T09:54:23Z</time>
      </trkpt>
      <trkpt lat="45.1895" lon="6.11234">
        <ele>2168</ele>
        <time>2025-02-09T09:54:33Z</time>
      </trkpt>
      <trkpt lat="45.1895" lon="6.11234">
        <ele>2168</ele>
        <time>2025-02-09T09:54:43Z</time>
      </trkpt>
      <trkpt lat="45.1895" lon="6.11234">
        <ele>2168</ele>
        <time>2025-02-09T09:54:53Z</time>
      </trkpt>
      <trkpt lat="45.1895" lon="6.11234">
        <ele>2168</ele>
        <time>2025-02-09T09:55:03Z</time>
      </trkpt>
      <trkpt lat="45.1895" lon="6.11234">
        <ele>2168</ele>
        <time>2025-02-09T09:55:13Z</time>
      </trkpt>
      <trkpt lat="45.1895" lon="6.11234">
        <ele>2169</ele>
        <time>2025-02-09T09:55:23Z</time>
      </trkpt>
      <trkpt lat="45.1895" lon="6.11234">
        <ele>2169</ele>
        <time>2025-02-09T09:55:33Z</time>
      </trkpt>
      <trkpt lat="45.1895" lon="6.11234">
        <ele>2169</ele>
        <time>2025-02-09T09:55:43Z</time>
      </trkpt>
      <trkpt lat="45.1895" lon="6.11234">
        <ele>2169</ele>
        <time>2025-02-09T09:55:53Z</time>
      </trkpt>
      <trkpt lat="45.1895" lon="6.11234">
        <ele>2169</ele>
        <time>2025-02-09T09:56:03Z</time>
      </trkpt>
      <trkpt lat="45.1895" lon="6.11234">
        <ele>2169</ele>
        <time>2025-02-09T09:56:13Z</time>
      </trkpt>
      <trkpt lat="45.1895" lon="6.11234">
        <ele>2169</ele>
        <time>2025-02-09T09:56:23Z</time>
      </trkpt>
      <trkpt lat="45.1895" lon="6.11234">
        <ele>2169</ele>
        <time>2025-02-09T09:56:33Z</time>
      </trkpt>
      <trkpt lat="45.1895" lon="6.11234">
        <ele>2168</ele>
        <time>2025-02-09T09:56:43Z</time>
      </trkpt>
      <trkpt lat="45.1895" lon="6.11234">
        <ele>2168</ele>
        <time>2025-02-09T09:56:53Z</time>
      </trkpt>
      <trkpt lat="45.1896" lon="6.11234">
        <ele>2168</ele>
        <time>2025-02-09T09:56:54Z</time>
      </trkpt>
      <trkpt lat="45.1896" lon="6.11234">
        <ele>2168</ele>
        <time>2025-02-09T09:57:03Z</time>
      </trkpt>
      <trkpt lat="45.1895" lon="6.11231">
        <ele>2168</ele>
        <time>2025-02-09T09:57:11Z</time>
      </trkpt>
      <trkpt lat="45.1895" lon="6.11231">
        <ele>2169</ele>
        <time>2025-02-09T09:57:13Z</time>
      </trkpt>
      <trkpt lat="45.1895" lon="6.11231">
        <ele>2170</ele>
        <time>2025-02-09T09:57:23Z</time>
      </trkpt>
      <trkpt lat="45.1895" lon="6.11231">
        <ele>2169</ele>
        <time>2025-02-09T09:57:33Z</time>
      </trkpt>
      <trkpt lat="45.1895" lon="6.11231">
        <ele>2168</ele>
        <time>2025-02-09T09:57:43Z</time>
      </trkpt>
      <trkpt lat="45.1895" lon="6.11231">
        <ele>2168</ele>
        <time>2025-02-09T09:57:53Z</time>
      </trkpt>
      <trkpt lat="45.1895" lon="6.11231">
        <ele>2168</ele>
        <time>2025-02-09T09:58:03Z</time>
      </trkpt>
      <trkpt lat="45.1895" lon="6.11231">
        <ele>2168</ele>
        <time>2025-02-09T09:58:13Z</time>
      </trkpt>
      <trkpt lat="45.1895" lon="6.11231">
        <ele>2168</ele>
        <time>2025-02-09T09:58:23Z</time>
      </trkpt>
      <trkpt lat="45.1896" lon="6.11231">
        <ele>2168</ele>
        <time>2025-02-09T09:58:26Z</time>
      </trkpt>
      <trkpt lat="45.1896" lon="6.11231">
        <ele>2168</ele>
        <time>2025-02-09T09:58:33Z</time>
      </trkpt>
      <trkpt lat="45.1896" lon="6.11231">
        <ele>2170</ele>
        <time>2025-02-09T09:58:43Z</time>
      </trkpt>
      <trkpt lat="45.1895" lon="6.11229">
        <ele>2170</ele>
        <time>2025-02-09T09:58:48Z</time>
      </trkpt>
      <trkpt lat="45.1895" lon="6.11229">
        <ele>2169</ele>
        <time>2025-02-09T09:58:53Z</time>
      </trkpt>
      <trkpt lat="45.1895" lon="6.11229">
        <ele>2169</ele>
        <time>2025-02-09T09:59:03Z</time>
      </trkpt>
      <trkpt lat="45.1895" lon="6.11229">
        <ele>2169</ele>
        <time>2025-02-09T09:59:13Z</time>
      </trkpt>
      <trkpt lat="45.18949" lon="6.11229">
        <ele>2169</ele>
        <time>2025-02-09T09:59:23Z</time>
      </trkpt>
      <trkpt lat="45.18949" lon="6.11229">
        <ele>2169</ele>
        <time>2025-02-09T09:59:33Z</time>
      </trkpt>
      <trkpt lat="45.18949" lon="6.11229">
        <ele>2169</ele>
        <time>2025-02-09T09:59:43Z</time>
      </trkpt>
      <trkpt lat="45.18949" lon="6.11228">
        <ele>2170</ele>
        <time>2025-02-09T09:59:53Z</time>
      </trkpt>
      <trkpt lat="45.18948" lon="6.11228">
        <ele>2168</ele>
        <time>2025-02-09T10:00:03Z</time>
      </trkpt>
      <trkpt lat="45.18948" lon="6.11228">
        <ele>2169</ele>
        <time>2025-02-09T10:00:13Z</time>
      </trkpt>
      <trkpt lat="45.18948" lon="6.11228">
        <ele>2169</ele>
        <time>2025-02-09T10:00:23Z</time>
      </trkpt>
      <trkpt lat="45.18947" lon="6.11228">
        <ele>2168</ele>
        <time>2025-02-09T10:00:33Z</time>
      </trkpt>
      <trkpt lat="45.18947" lon="6.11228">
        <ele>2169</ele>
        <time>2025-02-09T10:00:43Z</time>
      </trkpt>
      <trkpt lat="45.18947" lon="6.11228">
        <ele>2169</ele>
        <time>2025-02-09T10:00:53Z</time>
      </trkpt>
      <trkpt lat="45.18947" lon="6.11228">
        <ele>2168</ele>
        <time>2025-02-09T10:01:03Z</time>
      </trkpt>
      <trkpt lat="45.18946" lon="6.11228">
        <ele>2168</ele>
        <time>2025-02-09T10:01:13Z</time>
      </trkpt>
      <trkpt lat="45.18946" lon="6.11228">
        <ele>2170</ele>
        <time>2025-02-09T10:01:23Z</time>
      </trkpt>
      <trkpt lat="45.18946" lon="6.11228">
        <ele>2170</ele>
        <time>2025-02-09T10:01:33Z</time>
      </trkpt>
      <trkpt lat="45.18945" lon="6.11228">
        <ele>2169</ele>
        <time>2025-02-09T10:01:43Z</time>
      </trkpt>
      <trkpt lat="45.18945" lon="6.11228">
        <ele>2169</ele>
        <time>2025-02-09T10:01:53Z</time>
      </trkpt>
      <trkpt lat="45.18945" lon="6.11228">
        <ele>2170</ele>
        <time>2025-02-09T10:02:03Z</time>
      </trkpt>
      <trkpt lat="45.18944" lon="6.11228">
        <ele>2171</ele>
        <time>2025-02-09T10:02:13Z</time>
      </trkpt>
      <trkpt lat="45.18944" lon="6.11228">
        <ele>2170</ele>
        <time>2025-02-09T10:02:23Z</time>
      </trkpt>
      <trkpt lat="45.18944" lon="6.11228">
        <ele>2169</ele>
        <time>2025-02-09T10:02:33Z</time>
      </trkpt>
      <trkpt lat="45.18944" lon="6.11228">
        <ele>2169</ele>
        <time>2025-02-09T10:02:43Z</time>
      </trkpt>
      <trkpt lat="45.18943" lon="6.11228">
        <ele>2169</ele>
        <time>2025-02-09T10:02:53Z</time>
      </trkpt>
      <trkpt lat="45.18943" lon="6.11228">
        <ele>2169</ele>
        <time>2025-02-09T10:03:03Z</time>
      </trkpt>
      <trkpt lat="45.18943" lon="6.11228">
        <ele>2169</ele>
        <time>2025-02-09T10:03:13Z</time>
      </trkpt>
      <trkpt lat="45.18942" lon="6.11228">
        <ele>2169</ele>
        <time>2025-02-09T10:03:23Z</time>
      </trkpt>
      <trkpt lat="45.18942" lon="6.11228">
        <ele>2169</ele>
        <time>2025-02-09T10:03:33Z</time>
      </trkpt>
      <trkpt lat="45.18942" lon="6.11228">
        <ele>2169</ele>
        <time>2025-02-09T10:03:43Z</time>
      </trkpt>
      <trkpt lat="45.18942" lon="6.11228">
        <ele>2169</ele>
        <time>2025-02-09T10:03:53Z</time>
      </trkpt>
      <trkpt lat="45.18941" lon="6.11228">
        <ele>2169</ele>
        <time>2025-02-09T10:04:03Z</time>
      </trkpt>
      <trkpt lat="45.18941" lon="6.11228">
        <ele>2169</ele>
        <time>2025-02-09T10:04:13Z</time>
      </trkpt>
      <trkpt lat="45.18941" lon="6.11228">
        <ele>2169</ele>
        <time>2025-02-09T10:04:22Z</time>
      </trkpt>
      <trkpt lat="45.1894" lon="6.11228">
        <ele>2170</ele>
        <time>2025-02-09T10:04:23Z</time>
      </trkpt>
      <trkpt lat="45.1894" lon="6.11228">
        <ele>2170</ele>
        <time>2025-02-09T10:04:33Z</time>
      </trkpt>
      <trkpt lat="45.18933" lon="6.1122">
        <ele>2170</ele>
        <time>2025-02-09T10:04:40Z</time>
      </trkpt>
      <trkpt lat="45.18933" lon="6.1122">
        <ele>2170</ele>
        <time>2025-02-09T10:04:43Z</time>
      </trkpt>
      <trkpt lat="45.18925" lon="6.11212">
        <ele>2171</ele>
        <time>2025-02-09T10:04:53Z</time>
      </trkpt>
      <trkpt lat="45.18925" lon="6.11212">
        <ele>2170</ele>
        <time>2025-02-09T10:05:03Z</time>
      </trkpt>
      <trkpt lat="45.18917" lon="6.11204">
        <ele>2170</ele>
        <time>2025-02-09T10:05:05Z</time>
      </trkpt>
      <trkpt lat="45.18917" lon="6.11204">
        <ele>2170</ele>
        <time>2025-02-09T10:05:13Z</time>
      </trkpt>
      <trkpt lat="45.18909" lon="6.11199">
        <ele>2170</ele>
        <time>2025-02-09T10:05:15Z</time>
      </trkpt>
      <trkpt lat="45.18909" lon="6.11199">
        <ele>2170</ele>
        <time>2025-02-09T10:05:23Z</time>
      </trkpt>
      <trkpt lat="45.189" lon="6.11198">
        <ele>2170</ele>
        <time>2025-02-09T10:05:30Z</time>
      </trkpt>
      <trkpt lat="45.189" lon="6.11198">
        <ele>2169</ele>
        <time>2025-02-09T10:05:33Z</time>
      </trkpt>
      <trkpt lat="45.18892" lon="6.11206">
        <ele>2169</ele>
        <time>2025-02-09T10:05:43Z</time>
      </trkpt>
      <trkpt lat="45.18892" lon="6.11206">
        <ele>2169</ele>
        <time>2025-02-09T10:05:53Z</time>
      </trkpt>
      <trkpt lat="45.18885" lon="6.11216">
        <ele>2169</ele>
        <time>2025-02-09T10:05:59Z</time>
      </trkpt>
      <trkpt lat="45.18885" lon="6.11216">
        <ele>2171</ele>
        <time>2025-02-09T10:06:03Z</time>
      </trkpt>
      <trkpt lat="45.1888" lon="6.11226">
        <ele>2171</ele>
        <time>2025-02-09T10:06:13Z</time>
      </trkpt>
      <trkpt lat="45.1888" lon="6.11226">
        <ele>2172</ele>
        <time>2025-02-09T10:06:23Z</time>
      </trkpt>
      <trkpt lat="45.18873" lon="6.11235">
        <ele>2172</ele>
        <time>2025-02-09T10:06:31Z</time>
      </trkpt>
      <trkpt lat="45.18873" lon="6.11235">
        <ele>2172</ele>
        <time>2025-02-09T10:06:33Z</time>
      </trkpt>
      <trkpt lat="45.18873" lon="6.11235">
        <ele>2173</ele>
        <time>2025-02-09T10:06:43Z</time>
      </trkpt>
      <trkpt lat="45.18869" lon="6.11247">
        <ele>2173</ele>
        <time>2025-02-09T10:06:44Z</time>
      </trkpt>
      <trkpt lat="45.18869" lon="6.11247">
        <ele>2175</ele>
        <time>2025-02-09T10:06:53Z</time>
      </trkpt>
      <trkpt lat="45.18869" lon="6.11247">
        <ele>2174</ele>
        <time>2025-02-09T10:07:03Z</time>
      </trkpt>
      <trkpt lat="45.18866" lon="6.11259">
        <ele>2174</ele>
        <time>2025-02-09T10:07:06Z</time>
      </trkpt>
      <trkpt lat="45.18866" lon="6.11259">
        <ele>2176</ele>
        <time>2025-02-09T10:07:13Z</time>
      </trkpt>
      <trkpt lat="45.18862" lon="6.11271">
        <ele>2176</ele>
        <time>2025-02-09T10:07:17Z</time>
      </trkpt>
      <trkpt lat="45.18862" lon="6.11271">
        <ele>2176</ele>
        <time>2025-02-09T10:07:23Z</time>
      </trkpt>
      <trkpt lat="45.18859" lon="6.11283">
        <ele>2176</ele>
        <time>2025-02-09T10:07:31Z</time>
      </trkpt>
      <trkpt lat="45.18859" lon="6.11283">
        <ele>2177</ele>
        <time>2025-02-09T10:07:33Z</time>
      </trkpt>
      <trkpt lat="45.18859" lon="6.11283">
        <ele>2178</ele>
        <time>2025-02-09T10:07:43Z</time>
      </trkpt>
      <trkpt lat="45.18857" lon="6.11296">
        <ele>2180</ele>
        <time>2025-02-09T10:07:53Z</time>
      </trkpt>
      <trkpt lat="45.18857" lon="6.11296">
        <ele>2180</ele>
        <time>2025-02-09T10:08:03Z</time>
      </trkpt>
      <trkpt lat="45.18854" lon="6.11309">
        <ele>2180</ele>
        <time>2025-02-09T10:08:13Z</time>
      </trkpt>
      <trkpt lat="45.18854" lon="6.11309">
        <ele>2181</ele>
        <time>2025-02-09T10:08:23Z</time>
      </trkpt>
      <trkpt lat="45.18852" lon="6.11321">
        <ele>2181</ele>
        <time>2025-02-09T10:08:28Z</time>
      </trkpt>
      <trkpt lat="45.18852" lon="6.11321">
        <ele>2182</ele>
        <time>2025-02-09T10:08:33Z</time>
      </trkpt>
      <trkpt lat="45.18852" lon="6.11321">
        <ele>2183</ele>
        <time>2025-02-09T10:08:43Z</time>
      </trkpt>
      <trkpt lat="45.1885" lon="6.11334">
        <ele>2183</ele>
        <time>2025-02-09T10:08:45Z</time>
      </trkpt>
      <trkpt lat="45.1885" lon="6.11334">
        <ele>2184</ele>
        <time>2025-02-09T10:08:53Z</time>
      </trkpt>
      <trkpt lat="45.18845" lon="6.11346">
        <ele>2184</ele>
        <time>2025-02-09T10:09:00Z</time>
      </trkpt>
      <trkpt lat="45.18845" lon="6.11346">
        <ele>2185</ele>
        <time>2025-02-09T10:09:03Z</time>
      </trkpt>
      <trkpt lat="45.18845" lon="6.11346">
        <ele>2185</ele>
        <time>2025-02-09T10:09:13Z</time>
      </trkpt>
      <trkpt lat="45.18841" lon="6.11357">
        <ele>2185</ele>
        <time>2025-02-09T10:09:21Z</time>
      </trkpt>
      <trkpt lat="45.18841" lon="6.11357">
        <ele>2185</ele>
        <time>2025-02-09T10:09:23Z</time>
      </trkpt>
      <trkpt lat="45.18839" lon="6.11362">
        <ele>2188</ele>
        <time>2025-02-09T10:09:33Z</time>
      </trkpt>
      <trkpt lat="45.18837" lon="6.11367">
        <ele>2188</ele>
        <time>2025-02-09T10:09:35Z</time>
      </trkpt>
      <trkpt lat="45.18835" lon="6.11372">
        <ele>2188</ele>
        <time>2025-02-09T10:09:43Z</time>
      </trkpt>
      <trkpt lat="45.18833" lon="6.11377">
        <ele>2188</ele>
        <time>2025-02-09T10:09:47Z</time>
      </trkpt>
      <trkpt lat="45.18831" lon="6.11382">
        <ele>2189</ele>
        <time>2025-02-09T10:09:53Z</time>
      </trkpt>
      <trkpt lat="45.18829" lon="6.11387">
        <ele>2189</ele>
        <time>2025-02-09T10:10:02Z</time>
      </trkpt>
      <trkpt lat="45.18827" lon="6.11392">
        <ele>2190</ele>
        <time>2025-02-09T10:10:03Z</time>
      </trkpt>
      <trkpt lat="45.18827" lon="6.11392">
        <ele>2190</ele>
        <time>2025-02-09T10:10:13Z</time>
      </trkpt>
      <trkpt lat="45.1882" lon="6.114">
        <ele>2190</ele>
        <time>2025-02-09T10:10:21Z</time>
      </trkpt>
      <trkpt lat="45.1882" lon="6.114">
        <ele>2190</ele>
        <time>2025-02-09T10:10:23Z</time>
      </trkpt>
      <trkpt lat="45.1882" lon="6.114">
        <ele>2191</ele>
        <time>2025-02-09T10:10:33Z</time>
      </trkpt>
      <trkpt lat="45.18815" lon="6.11411">
        <ele>2191</ele>
        <time>2025-02-09T10:10:34Z</time>
      </trkpt>
      <trkpt lat="45.18815" lon="6.11411">
        <ele>2191</ele>
        <time>2025-02-09T10:10:43Z</time>
      </trkpt>
      <trkpt lat="45.18811" lon="6.11423">
        <ele>2191</ele>
        <time>2025-02-09T10:10:48Z</time>
      </trkpt>
      <trkpt lat="45.18811" lon="6.11423">
        <ele>2192</ele>
        <time>2025-02-09T10:10:53Z</time>
      </trkpt>
      <trkpt lat="45.18811" lon="6.11423">
        <ele>2191</ele>
        <time>2025-02-09T10:11:03Z</time>
      </trkpt>
      <trkpt lat="45.18811" lon="6.11423">
        <ele>2190</ele>
        <time>2025-02-09T10:11:13Z</time>
      </trkpt>
      <trkpt lat="45.1881" lon="6.11436">
        <ele>2190</ele>
        <time>2025-02-09T10:11:20Z</time>
      </trkpt>
      <trkpt lat="45.1881" lon="6.11436">
        <ele>2190</ele>
        <time>2025-02-09T10:11:23Z</time>
      </trkpt>
      <trkpt lat="45.1881" lon="6.11449">
        <ele>2190</ele>
        <time>2025-02-09T10:11:32Z</time>
      </trkpt>
      <trkpt lat="45.1881" lon="6.11449">
        <ele>2191</ele>
        <time>2025-02-09T10:11:33Z</time>
      </trkpt>
      <trkpt lat="45.18809" lon="6.11462">
        <ele>2191</ele>
        <time>2025-02-09T10:11:42Z</time>
      </trkpt>
      <trkpt lat="45.18809" lon="6.11462">
        <ele>2191</ele>
        <time>2025-02-09T10:11:43Z</time>
      </trkpt>
      <trkpt lat="45.18809" lon="6.11462">
        <ele>2191</ele>
        <time>2025-02-09T10:11:53Z</time>
      </trkpt>
      <trkpt lat="45.18808" lon="6.11476">
        <ele>2194</ele>
        <time>2025-02-09T10:12:03Z</time>
      </trkpt>
      <trkpt lat="45.18808" lon="6.11476">
        <ele>2194</ele>
        <time>2025-02-09T10:12:13Z</time>
      </trkpt>
      <trkpt lat="45.18805" lon="6.11489">
        <ele>2194</ele>
        <time>2025-02-09T10:12:17Z</time>
      </trkpt>
      <trkpt lat="45.18805" lon="6.11489">
        <ele>2195</ele>
        <time>2025-02-09T10:12:23Z</time>
      </trkpt>
      <trkpt lat="45.18805" lon="6.11489">
        <ele>2196</ele>
        <time>2025-02-09T10:12:33Z</time>
      </trkpt>
      <trkpt lat="45.18805" lon="6.11501">
        <ele>2196</ele>
        <time>2025-02-09T10:12:34Z</time>
      </trkpt>
      <trkpt lat="45.18805" lon="6.11501">
        <ele>2196</ele>
        <time>2025-02-09T10:12:43Z</time>
      </trkpt>
      <trkpt lat="45.18802" lon="6.11514">
        <ele>2196</ele>
        <time>2025-02-09T10:12:47Z</time>
      </trkpt>
      <trkpt lat="45.18802" lon="6.11514">
        <ele>2197</ele>
        <time>2025-02-09T10:12:53Z</time>
      </trkpt>
      <trkpt lat="45.18802" lon="6.11514">
        <ele>2198</ele>
        <time>2025-02-09T10:13:03Z</time>
      </trkpt>
      <trkpt lat="45.18801" lon="6.11528">
        <ele>2198</ele>
        <time>2025-02-09T10:13:08Z</time>
      </trkpt>
      <trkpt lat="45.18801" lon="6.11528">
        <ele>2199</ele>
        <time>2025-02-09T10:13:13Z</time>
      </trkpt>
      <trkpt lat="45.18801" lon="6.11528">
        <ele>2198</ele>
        <time>2025-02-09T10:13:23Z</time>
      </trkpt>
      <trkpt lat="45.18803" lon="6.1154">
        <ele>2198</ele>
        <time>2025-02-09T10:13:25Z</time>
      </trkpt>
      <trkpt lat="45.18803" lon="6.1154">
        <ele>2198</ele>
        <time>2025-02-09T10:13:33Z</time>
      </trkpt>
      <trkpt lat="45.18803" lon="6.1154">
        <ele>2200</ele>
        <time>2025-02-09T10:13:43Z</time>
      </trkpt>
      <trkpt lat="45.18803" lon="6.1154">
        <ele>2200</ele>
        <time>2025-02-09T10:13:53Z</time>
      </trkpt>
      <trkpt lat="45.18804" lon="6.11553">
        <ele>2200</ele>
        <time>2025-02-09T10:13:54Z</time>
      </trkpt>
      <trkpt lat="45.18804" lon="6.11553">
        <ele>2198</ele>
        <time>2025-02-09T10:14:03Z</time>
      </trkpt>
      <trkpt lat="45.18802" lon="6.11566">
        <ele>2198</ele>
        <time>2025-02-09T10:14:11Z</time>
      </trkpt>
      <trkpt lat="45.18802" lon="6.11566">
        <ele>2200</ele>
        <time>2025-02-09T10:14:13Z</time>
      </trkpt>
      <trkpt lat="45.18802" lon="6.11566">
        <ele>2201</ele>
        <time>2025-02-09T10:14:23Z</time>
      </trkpt>
      <trkpt lat="45.18805" lon="6.11579">
        <ele>2201</ele>
        <time>2025-02-09T10:14:25Z</time>
      </trkpt>
      <trkpt lat="45.18805" lon="6.11579">
        <ele>2202</ele>
        <time>2025-02-09T10:14:33Z</time>
      </trkpt>
      <trkpt lat="45.18808" lon="6.11592">
        <ele>2202</ele>
        <time>2025-02-09T10:14:40Z</time>
      </trkpt>
      <trkpt lat="45.18808" lon="6.11592">
        <ele>2202</ele>
        <time>2025-02-09T10:14:43Z</time>
      </trkpt>
      <trkpt lat="45.18808" lon="6.11592">
        <ele>2203</ele>
        <time>2025-02-09T10:14:53Z</time>
      </trkpt>
      <trkpt lat="45.18807" lon="6.11605">
        <ele>2204</ele>
        <time>2025-02-09T10:15:03Z</time>
      </trkpt>
      <trkpt lat="45.18807" lon="6.11605">
        <ele>2206</ele>
        <time>2025-02-09T10:15:13Z</time>
      </trkpt>
      <trkpt lat="45.18807" lon="6.11605">
        <ele>2206</ele>
        <time>2025-02-09T10:15:23Z</time>
      </trkpt>
      <trkpt lat="45.18807" lon="6.11605">
        <ele>2206</ele>
        <time>2025-02-09T10:15:33Z</time>
      </trkpt>
      <trkpt lat="45.18807" lon="6.11605">
        <ele>2206</ele>
        <time>2025-02-09T10:15:43Z</time>
      </trkpt>
      <trkpt lat="45.18807" lon="6.11605">
        <ele>2207</ele>
        <time>2025-02-09T10:15:53Z</time>
      </trkpt>
      <trkpt lat="45.18807" lon="6.11605">
        <ele>2207</ele>
        <time>2025-02-09T10:16:03Z</time>
      </trkpt>
      <trkpt lat="45.18807" lon="6.11605">
        <ele>2207</ele>
        <time>2025-02-09T10:16:13Z</time>
      </trkpt>
      <trkpt lat="45.188" lon="6.11597">
        <ele>2207</ele>
        <time>2025-02-09T10:16:20Z</time>
      </trkpt>
      <trkpt lat="45.188" lon="6.11597">
        <ele>2208</ele>
        <time>2025-02-09T10:16:23Z</time>
      </trkpt>
      <trkpt lat="45.18791" lon="6.11588">
        <ele>2208</ele>
        <time>2025-02-09T10:16:32Z</time>
      </trkpt>
      <trkpt lat="45.18791" lon="6.11588">
        <ele>2209</ele>
        <time>2025-02-09T10:16:33Z</time>
      </trkpt>
      <trkpt lat="45.18791" lon="6.11588">
        <ele>2209</ele>
        <time>2025-02-09T10:16:43Z</time>
      </trkpt>
      <trkpt lat="45.18785" lon="6.11577">
        <ele>2209</ele>
        <time>2025-02-09T10:16:46Z</time>
      </trkpt>
      <trkpt lat="45.18785" lon="6.11577">
        <ele>2209</ele>
        <time>2025-02-09T10:16:53Z</time>
      </trkpt>
      <trkpt lat="45.18779" lon="6.11567">
        <ele>2209</ele>
        <time>2025-02-09T10:16:57Z</time>
      </trkpt>
      <trkpt lat="45.18779" lon="6.11567">
        <ele>2209</ele>
        <time>2025-02-09T10:17:03Z</time>
      </trkpt>
      <trkpt lat="45.18772" lon="6.11556">
        <ele>2209</ele>
        <time>2025-02-09T10:17:11Z</time>
      </trkpt>
      <trkpt lat="45.18772" lon="6.11556">
        <ele>2209</ele>
        <time>2025-02-09T10:17:13Z</time>
      </trkpt>
      <trkpt lat="45.18772" lon="6.11556">
        <ele>2209</ele>
        <time>2025-02-09T10:17:23Z</time>
      </trkpt>
      <trkpt lat="45.18765" lon="6.11548">
        <ele>2209</ele>
        <time>2025-02-09T10:17:24Z</time>
      </trkpt>
      <trkpt lat="45.18765" lon="6.11548">
        <ele>2210</ele>
        <time>2025-02-09T10:17:33Z</time>
      </trkpt>
      <trkpt lat="45.18758" lon="6.11538">
        <ele>2210</ele>
        <time>2025-02-09T10:17:39Z</time>
      </trkpt>
      <trkpt lat="45.18758" lon="6.11538">
        <ele>2212</ele>
        <time>2025-02-09T10:17:43Z</time>
      </trkpt>
      <trkpt lat="45.18751" lon="6.11529">
        <ele>2214</ele>
        <time>2025-02-09T10:17:53Z</time>
      </trkpt>
      <trkpt lat="45.18751" lon="6.11529">
        <ele>2215</ele>
        <time>2025-02-09T10:18:03Z</time>
      </trkpt>
      <trkpt lat="45.18744" lon="6.11522">
        <ele>2215</ele>
        <time>2025-02-09T10:18:09Z</time>
      </trkpt>
      <trkpt lat="45.18744" lon="6.11522">
        <ele>2216</ele>
        <time>2025-02-09T10:18:13Z</time>
      </trkpt>
      <trkpt lat="45.18739" lon="6.11509">
        <ele>2216</ele>
        <time>2025-02-09T10:18:22Z</time>
      </trkpt>
      <trkpt lat="45.18739" lon="6.11509">
        <ele>2217</ele>
        <time>2025-02-09T10:18:23Z</time>
      </trkpt>
      <trkpt lat="45.18739" lon="6.11509">
        <ele>2218</ele>
        <time>2025-02-09T10:18:33Z</time>
      </trkpt>
      <trkpt lat="45.18731" lon="6.11501">
        <ele>2218</ele>
        <time>2025-02-09T10:18:35Z</time>
      </trkpt>
      <trkpt lat="45.18731" lon="6.11501">
        <ele>2218</ele>
        <time>2025-02-09T10:18:43Z</time>
      </trkpt>
      <trkpt lat="45.18724" lon="6.11493">
        <ele>2218</ele>
        <time>2025-02-09T10:18:49Z</time>
      </trkpt>
      <trkpt lat="45.18724" lon="6.11493">
        <ele>2219</ele>
        <time>2025-02-09T10:18:53Z</time>
      </trkpt>
      <trkpt lat="45.18724" lon="6.11493">
        <ele>2220</ele>
        <time>2025-02-09T10:19:03Z</time>
      </trkpt>
      <trkpt lat="45.18715" lon="6.11487">
        <ele>2220</ele>
        <time>2025-02-09T10:19:05Z</time>
      </trkpt>
      <trkpt lat="45.18715" lon="6.11487">
        <ele>2221</ele>
        <time>2025-02-09T10:19:13Z</time>
      </trkpt>
      <trkpt lat="45.18706" lon="6.11484">
        <ele>2221</ele>
        <time>2025-02-09T10:19:20Z</time>
      </trkpt>
      <trkpt lat="45.18706" lon="6.11484">
        <ele>2223</ele>
        <time>2025-02-09T10:19:23Z</time>
      </trkpt>
      <trkpt lat="45.18706" lon="6.11484">
        <ele>2225</ele>
        <time>2025-02-09T10:19:33Z</time>
      </trkpt>
      <trkpt lat="45.18701" lon="6.11473">
        <ele>2225</ele>
        <time>2025-02-09T10:19:41Z</time>
      </trkpt>
      <trkpt lat="45.18701" lon="6.11473">
        <ele>2226</ele>
        <time>2025-02-09T10:19:43Z</time>
      </trkpt>
      <trkpt lat="45.18698" lon="6.1147">
        <ele>2227</ele>
        <time>2025-02-09T10:19:53Z</time>
      </trkpt>
      <trkpt lat="45.18695" lon="6.11468">
        <ele>2227</ele>
        <time>2025-02-09T10:19:57Z</time>
      </trkpt>
      <trkpt lat="45.18691" lon="6.11465">
        <ele>2229</ele>
        <time>2025-02-09T10:20:03Z</time>
      </trkpt>
      <trkpt lat="45.18688" lon="6.11463">
        <ele>2229</ele>
        <time>2025-02-09T10:20:12Z</time>
      </trkpt>
      <trkpt lat="45.18685" lon="6.1146">
        <ele>2230</ele>
        <time>2025-02-09T10:20:13Z</time>
      </trkpt>
      <trkpt lat="45.18685" lon="6.1146">
        <ele>2231</ele>
        <time>2025-02-09T10:20:23Z</time>
      </trkpt>
      <trkpt lat="45.18676" lon="6.11457">
        <ele>2231</ele>
        <time>2025-02-09T10:20:27Z</time>
      </trkpt>
      <trkpt lat="45.18676" lon="6.11457">
        <ele>2233</ele>
        <time>2025-02-09T10:20:33Z</time>
      </trkpt>
      <trkpt lat="45.18676" lon="6.11457">
        <ele>2234</ele>
        <time>2025-02-09T10:20:43Z</time>
      </trkpt>
      <trkpt lat="45.18667" lon="6.11455">
        <ele>2234</ele>
        <time>2025-02-09T10:20:47Z</time>
      </trkpt>
      <trkpt lat="45.18667" lon="6.11455">
        <ele>2236</ele>
        <time>2025-02-09T10:20:53Z</time>
      </trkpt>
      <trkpt lat="45.18667" lon="6.11455">
        <ele>2237</ele>
        <time>2025-02-09T10:21:03Z</time>
      </trkpt>
      <trkpt lat="45.18658" lon="6.11451">
        <ele>2237</ele>
        <time>2025-02-09T10:21:04Z</time>
      </trkpt>
      <trkpt lat="45.18658" lon="6.11451">
        <ele>2239</ele>
        <time>2025-02-09T10:21:13Z</time>
      </trkpt>
      <trkpt lat="45.18658" lon="6.11451">
        <ele>2240</ele>
        <time>2025-02-09T10:21:23Z</time>
      </trkpt>
      <trkpt lat="45.1865" lon="6.11444">
        <ele>2240</ele>
        <time>2025-02-09T10:21:26Z</time>
      </trkpt>
      <trkpt lat="45.1865" lon="6.11444">
        <ele>2241</ele>
        <time>2025-02-09T10:21:33Z</time>
      </trkpt>
      <trkpt lat="45.1865" lon="6.11444">
        <ele>2242</ele>
        <time>2025-02-09T10:21:43Z</time>
      </trkpt>
      <trkpt lat="45.18643" lon="6.11435">
        <ele>2242</ele>
        <time>2025-02-09T10:21:44Z</time>
      </trkpt>
      <trkpt lat="45.18643" lon="6.11435">
        <ele>2244</ele>
        <time>2025-02-09T10:21:53Z</time>
      </trkpt>
      <trkpt lat="45.18643" lon="6.11435">
        <ele>2246</ele>
        <time>2025-02-09T10:22:03Z</time>
      </trkpt>
      <trkpt lat="45.18637" lon="6.11425">
        <ele>2246</ele>
        <time>2025-02-09T10:22:04Z</time>
      </trkpt>
      <trkpt lat="45.18637" lon="6.11425">
        <ele>2247</ele>
        <time>2025-02-09T10:22:13Z</time>
      </trkpt>
      <trkpt lat="45.18637" lon="6.11425">
        <ele>2248</ele>
        <time>2025-02-09T10:22:23Z</time>
      </trkpt>
      <trkpt lat="45.18629" lon="6.11419">
        <ele>2248</ele>
        <time>2025-02-09T10:22:30Z</time>
      </trkpt>
      <trkpt lat="45.18629" lon="6.11419">
        <ele>2250</ele>
        <time>2025-02-09T10:22:33Z</time>
      </trkpt>
      <trkpt lat="45.18629" lon="6.11419">
        <ele>2251</ele>
        <time>2025-02-09T10:22:43Z</time>
      </trkpt>
      <trkpt lat="45.18622" lon="6.1141">
        <ele>2251</ele>
        <time>2025-02-09T10:22:48Z</time>
      </trkpt>
      <trkpt lat="45.18622" lon="6.1141">
        <ele>2252</ele>
        <time>2025-02-09T10:22:53Z</time>
      </trkpt>
      <trkpt lat="45.18622" lon="6.1141">
        <ele>2254</ele>
        <time>2025-02-09T10:23:03Z</time>
      </trkpt>
      <trkpt lat="45.18614" lon="6.11417">
        <ele>2254</ele>
        <time>2025-02-09T10:23:10Z</time>
      </trkpt>
      <trkpt lat="45.18614" lon="6.11417">
        <ele>2256</ele>
        <time>2025-02-09T10:23:13Z</time>
      </trkpt>
      <trkpt lat="45.18614" lon="6.11417">
        <ele>2256</ele>
        <time>2025-02-09T10:23:23Z</time>
      </trkpt>
      <trkpt lat="45.18614" lon="6.11417">
        <ele>2257</ele>
        <time>2025-02-09T10:23:33Z</time>
      </trkpt>
      <trkpt lat="45.18614" lon="6.11417">
        <ele>2258</ele>
        <time>2025-02-09T10:23:43Z</time>
      </trkpt>
      <trkpt lat="45.18606" lon="6.11412">
        <ele>2258</ele>
        <time>2025-02-09T10:23:45Z</time>
      </trkpt>
      <trkpt lat="45.18606" lon="6.11412">
        <ele>2259</ele>
        <time>2025-02-09T10:23:53Z</time>
      </trkpt>
      <trkpt lat="45.18606" lon="6.11412">
        <ele>2260</ele>
        <time>2025-02-09T10:24:03Z</time>
      </trkpt>
      <trkpt lat="45.18606" lon="6.11412">
        <ele>2261</ele>
        <time>2025-02-09T10:24:13Z</time>
      </trkpt>
      <trkpt lat="45.18606" lon="6.11412">
        <ele>2262</ele>
        <time>2025-02-09T10:24:23Z</time>
      </trkpt>
      <trkpt lat="45.18606" lon="6.11412">
        <ele>2263</ele>
        <time>2025-02-09T10:24:33Z</time>
      </trkpt>
      <trkpt lat="45.18606" lon="6.11412">
        <ele>2265</ele>
        <time>2025-02-09T10:24:43Z</time>
      </trkpt>
      <trkpt lat="45.18597" lon="6.11408">
        <ele>2265</ele>
        <time>2025-02-09T10:24:47Z</time>
      </trkpt>
      <trkpt lat="45.18597" lon="6.11408">
        <ele>2266</ele>
        <time>2025-02-09T10:24:53Z</time>
      </trkpt>
      <trkpt lat="45.18591" lon="6.11398">
        <ele>2266</ele>
        <time>2025-02-09T10:25:00Z</time>
      </trkpt>
      <trkpt lat="45.18591" lon="6.11398">
        <ele>2268</ele>
        <time>2025-02-09T10:25:03Z</time>
      </trkpt>
      <trkpt lat="45.18591" lon="6.11398">
        <ele>2270</ele>
        <time>2025-02-09T10:25:13Z</time>
      </trkpt>
      <trkpt lat="45.18589" lon="6.11386">
        <ele>2270</ele>
        <time>2025-02-09T10:25:19Z</time>
      </trkpt>
      <trkpt lat="45.18589" lon="6.11386">
        <ele>2271</ele>
        <time>2025-02-09T10:25:23Z</time>
      </trkpt>
      <trkpt lat="45.18589" lon="6.11381">
        <ele>2272</ele>
        <time>2025-02-09T10:25:33Z</time>
      </trkpt>
      <trkpt lat="45.18589" lon="6.11377">
        <ele>2272</ele>
        <time>2025-02-09T10:25:42Z</time>
      </trkpt>
      <trkpt lat="45.18588" lon="6.11373">
        <ele>2273</ele>
        <time>2025-02-09T10:25:43Z</time>
      </trkpt>
      <trkpt lat="45.18588" lon="6.11373">
        <ele>2275</ele>
        <time>2025-02-09T10:25:53Z</time>
      </trkpt>
      <trkpt lat="45.18588" lon="6.11373">
        <ele>2276</ele>
        <time>2025-02-09T10:26:03Z</time>
      </trkpt>
      <trkpt lat="45.18584" lon="6.11361">
        <ele>2276</ele>
        <time>2025-02-09T10:26:04Z</time>
      </trkpt>
      <trkpt lat="45.18584" lon="6.11361">
        <ele>2278</ele>
        <time>2025-02-09T10:26:13Z</time>
      </trkpt>
      <trkpt lat="45.18581" lon="6.11348">
        <ele>2279</ele>
        <time>2025-02-09T10:26:23Z</time>
      </trkpt>
      <trkpt lat="45.18581" lon="6.11348">
        <ele>2280</ele>
        <time>2025-02-09T10:26:33Z</time>
      </trkpt>
      <trkpt lat="45.18582" lon="6.11335">
        <ele>2280</ele>
        <time>2025-02-09T10:26:36Z</time>
      </trkpt>
      <trkpt lat="45.18582" lon="6.11335">
        <ele>2282</ele>
        <time>2025-02-09T10:26:43Z</time>
      </trkpt>
      <trkpt lat="45.18582" lon="6.11335">
        <ele>2282</ele>
        <time>2025-02-09T10:26:53Z</time>
      </trkpt>
      <trkpt lat="45.18585" lon="6.11324">
        <ele>2282</ele>
        <time>2025-02-09T10:26:57Z</time>
      </trkpt>
      <trkpt lat="45.18585" lon="6.11324">
        <ele>2284</ele>
        <time>2025-02-09T10:27:03Z</time>
      </trkpt>
      <trkpt lat="45.18585" lon="6.11324">
        <ele>2285</ele>
        <time>2025-02-09T10:27:13Z</time>
      </trkpt>
      <trkpt lat="45.18585" lon="6.11324">
        <ele>2286</ele>
        <time>2025-02-09T10:27:23Z</time>
      </trkpt>
      <trkpt lat="45.18585" lon="6.11324">
        <ele>2286</ele>
        <time>2025-02-09T10:27:33Z</time>
      </trkpt>
      <trkpt lat="45.18585" lon="6.11324">
        <ele>2287</ele>
        <time>2025-02-09T10:27:43Z</time>
      </trkpt>
      <trkpt lat="45.18577" lon="6.11319">
        <ele>2287</ele>
        <time>2025-02-09T10:27:48Z</time>
      </trkpt>
      <trkpt lat="45.18577" lon="6.11319">
        <ele>2288</ele>
        <time>2025-02-09T10:27:53Z</time>
      </trkpt>
      <trkpt lat="45.18574" lon="6.11322">
        <ele>2290</ele>
        <time>2025-02-09T10:28:03Z</time>
      </trkpt>
      <trkpt lat="45.18571" lon="6.11325">
        <ele>2290</ele>
        <time>2025-02-09T10:28:06Z</time>
      </trkpt>
      <trkpt lat="45.18569" lon="6.11328">
        <ele>2291</ele>
        <time>2025-02-09T10:28:13Z</time>
      </trkpt>
      <trkpt lat="45.18566" lon="6.11331">
        <ele>2291</ele>
        <time>2025-02-09T10:28:22Z</time>
      </trkpt>
      <trkpt lat="45.18563" lon="6.11335">
        <ele>2292</ele>
        <time>2025-02-09T10:28:23Z</time>
      </trkpt>
      <trkpt lat="45.18563" lon="6.11335">
        <ele>2293</ele>
        <time>2025-02-09T10:28:33Z</time>
      </trkpt>
      <trkpt lat="45.18555" lon="6.11343">
        <ele>2293</ele>
        <time>2025-02-09T10:28:40Z</time>
      </trkpt>
      <trkpt lat="45.18555" lon="6.11343">
        <ele>2294</ele>
        <time>2025-02-09T10:28:43Z</time>
      </trkpt>
      <trkpt lat="45.18555" lon="6.11343">
        <ele>2295</ele>
        <time>2025-02-09T10:28:53Z</time>
      </trkpt>
      <trkpt lat="45.18549" lon="6.11353">
        <ele>2295</ele>
        <time>2025-02-09T10:28:57Z</time>
      </trkpt>
      <trkpt lat="45.18549" lon="6.11353">
        <ele>2297</ele>
        <time>2025-02-09T10:29:03Z</time>
      </trkpt>
      <trkpt lat="45.18544" lon="6.11364">
        <ele>2297</ele>
        <time>2025-02-09T10:29:09Z</time>
      </trkpt>
      <trkpt lat="45.18544" lon="6.11364">
        <ele>2298</ele>
        <time>2025-02-09T10:29:13Z</time>
      </trkpt>
      <trkpt lat="45.18544" lon="6.11364">
        <ele>2299</ele>
        <time>2025-02-09T10:29:23Z</time>
      </trkpt>
      <trkpt lat="45.18537" lon="6.11374">
        <ele>2299</ele>
        <time>2025-02-09T10:29:30Z</time>
      </trkpt>
      <trkpt lat="45.18537" lon="6.11374">
        <ele>2301</ele>
        <time>2025-02-09T10:29:33Z</time>
      </trkpt>
      <trkpt lat="45.18537" lon="6.11374">
        <ele>2302</ele>
        <time>2025-02-09T10:29:43Z</time>
      </trkpt>
      <trkpt lat="45.18534" lon="6.11386">
        <ele>2302</ele>
        <time>2025-02-09T10:29:51Z</time>
      </trkpt>
      <trkpt lat="45.18534" lon="6.11386">
        <ele>2302</ele>
        <time>2025-02-09T10:29:53Z</time>
      </trkpt>
      <trkpt lat="45.18534" lon="6.11386">
        <ele>2304</ele>
        <time>2025-02-09T10:30:03Z</time>
      </trkpt>
      <trkpt lat="45.18529" lon="6.11397">
        <ele>2304</ele>
        <time>2025-02-09T10:30:07Z</time>
      </trkpt>
      <trkpt lat="45.18529" lon="6.11397">
        <ele>2305</ele>
        <time>2025-02-09T10:30:13Z</time>
      </trkpt>
      <trkpt lat="45.18529" lon="6.11397">
        <ele>2305</ele>
        <time>2025-02-09T10:30:23Z</time>
      </trkpt>
      <trkpt lat="45.18529" lon="6.11397">
        <ele>2305</ele>
        <time>2025-02-09T10:30:33Z</time>
      </trkpt>
      <trkpt lat="45.18529" lon="6.11397">
        <ele>2305</ele>
        <time>2025-02-09T10:30:43Z</time>
      </trkpt>
      <trkpt lat="45.18529" lon="6.11397">
        <ele>2305</ele>
        <time>2025-02-09T10:30:53Z</time>
      </trkpt>
      <trkpt lat="45.18529" lon="6.11397">
        <ele>2305</ele>
        <time>2025-02-09T10:31:03Z</time>
      </trkpt>
      <trkpt lat="45.18529" lon="6.11397">
        <ele>2305</ele>
        <time>2025-02-09T10:31:13Z</time>
      </trkpt>
      <trkpt lat="45.18529" lon="6.11397">
        <ele>2307</ele>
        <time>2025-02-09T10:31:23Z</time>
      </trkpt>
      <trkpt lat="45.18529" lon="6.11397">
        <ele>2305</ele>
        <time>2025-02-09T10:31:33Z</time>
      </trkpt>
      <trkpt lat="45.18529" lon="6.11397">
        <ele>2305</ele>
        <time>2025-02-09T10:31:43Z</time>
      </trkpt>
      <trkpt lat="45.18529" lon="6.11397">
        <ele>2306</ele>
        <time>2025-02-09T10:31:53Z</time>
      </trkpt>
      <trkpt lat="45.18529" lon="6.11397">
        <ele>2306</ele>
        <time>2025-02-09T10:32:03Z</time>
      </trkpt>
      <trkpt lat="45.18529" lon="6.11397">
        <ele>2306</ele>
        <time>2025-02-09T10:32:13Z</time>
      </trkpt>
      <trkpt lat="45.18529" lon="6.11397">
        <ele>2306</ele>
        <time>2025-02-09T10:32:23Z</time>
      </trkpt>
      <trkpt lat="45.18529" lon="6.11397">
        <ele>2305</ele>
        <time>2025-02-09T10:32:33Z</time>
      </trkpt>
      <trkpt lat="45.18529" lon="6.11397">
        <ele>2305</ele>
        <time>2025-02-09T10:32:43Z</time>
      </trkpt>
      <trkpt lat="45.18529" lon="6.11397">
        <ele>2306</ele>
        <time>2025-02-09T10:32:53Z</time>
      </trkpt>
      <trkpt lat="45.18529" lon="6.11397">
        <ele>2305</ele>
        <time>2025-02-09T10:33:03Z</time>
      </trkpt>
      <trkpt lat="45.18529" lon="6.11397">
        <ele>2305</ele>
        <time>2025-02-09T10:33:13Z</time>
      </trkpt>
      <trkpt lat="45.18529" lon="6.11397">
        <ele>2305</ele>
        <time>2025-02-09T10:33:23Z</time>
      </trkpt>
      <trkpt lat="45.18529" lon="6.11397">
        <ele>2306</ele>
        <time>2025-02-09T10:33:33Z</time>
      </trkpt>
      <trkpt lat="45.18524" lon="6.11408">
        <ele>2306</ele>
        <time>2025-02-09T10:33:40Z</time>
      </trkpt>
      <trkpt lat="45.18524" lon="6.11408">
        <ele>2306</ele>
        <time>2025-02-09T10:33:43Z</time>
      </trkpt>
      <trkpt lat="45.18518" lon="6.11418">
        <ele>2306</ele>
        <time>2025-02-09T10:33:53Z</time>
      </trkpt>
      <trkpt lat="45.18518" lon="6.11418">
        <ele>2308</ele>
        <time>2025-02-09T10:34:03Z</time>
      </trkpt>
      <trkpt lat="45.18514" lon="6.1143">
        <ele>2308</ele>
        <time>2025-02-09T10:34:11Z</time>
      </trkpt>
      <trkpt lat="45.18514" lon="6.1143">
        <ele>2308</ele>
        <time>2025-02-09T10:34:13Z</time>
      </trkpt>
      <trkpt lat="45.18514" lon="6.1143">
        <ele>2310</ele>
        <time>2025-02-09T10:34:23Z</time>
      </trkpt>
      <trkpt lat="45.18514" lon="6.1143">
        <ele>2312</ele>
        <time>2025-02-09T10:34:33Z</time>
      </trkpt>
      <trkpt lat="45.18514" lon="6.1143">
        <ele>2312</ele>
        <time>2025-02-09T10:34:43Z</time>
      </trkpt>
      <trkpt lat="45.18505" lon="6.11428">
        <ele>2312</ele>
        <time>2025-02-09T10:34:50Z</time>
      </trkpt>
      <trkpt lat="45.18505" lon="6.11428">
        <ele>2314</ele>
        <time>2025-02-09T10:34:53Z</time>
      </trkpt>
      <trkpt lat="45.18505" lon="6.11428">
        <ele>2315</ele>
        <time>2025-02-09T10:35:03Z</time>
      </trkpt>
      <trkpt lat="45.18505" lon="6.11428">
        <ele>2315</ele>
        <time>2025-02-09T10:35:13Z</time>
      </trkpt>
      <trkpt lat="45.18501" lon="6.11417">
        <ele>2315</ele>
        <time>2025-02-09T10:35:14Z</time>
      </trkpt>
      <trkpt lat="45.18501" lon="6.11417">
        <ele>2317</ele>
        <time>2025-02-09T10:35:23Z</time>
      </trkpt>
      <trkpt lat="45.18497" lon="6.11404">
        <ele>2318</ele>
        <time>2025-02-09T10:35:33Z</time>
      </trkpt>
      <trkpt lat="45.18497" lon="6.11404">
        <ele>2320</ele>
        <time>2025-02-09T10:35:43Z</time>
      </trkpt>
      <trkpt lat="45.18497" lon="6.11404">
        <ele>2321</ele>
        <time>2025-02-09T10:35:53Z</time>
      </trkpt>
      <trkpt lat="45.18492" lon="6.11416">
        <ele>2321</ele>
        <time>2025-02-09T10:35:55Z</time>
      </trkpt>
      <trkpt lat="45.18492" lon="6.11416">
        <ele>2322</ele>
        <time>2025-02-09T10:36:03Z</time>
      </trkpt>
      <trkpt lat="45.1849" lon="6.11429">
        <ele>2322</ele>
        <time>2025-02-09T10:36:11Z</time>
      </trkpt>
      <trkpt lat="45.1849" lon="6.11429">
        <ele>2323</ele>
        <time>2025-02-09T10:36:13Z</time>
      </trkpt>
      <trkpt lat="45.1849" lon="6.11429">
        <ele>2324</ele>
        <time>2025-02-09T10:36:23Z</time>
      </trkpt>
      <trkpt lat="45.18493" lon="6.11441">
        <ele>2324</ele>
        <time>2025-02-09T10:36:28Z</time>
      </trkpt>
      <trkpt lat="45.18493" lon="6.11441">
        <ele>2326</ele>
        <time>2025-02-09T10:36:33Z</time>
      </trkpt>
      <trkpt lat="45.18492" lon="6.11454">
        <ele>2326</ele>
        <time>2025-02-09T10:36:41Z</time>
      </trkpt>
      <trkpt lat="45.18492" lon="6.11454">
        <ele>2327</ele>
        <time>2025-02-09T10:36:43Z</time>
      </trkpt>
      <trkpt lat="45.18492" lon="6.11454">
        <ele>2328</ele>
        <time>2025-02-09T10:36:53Z</time>
      </trkpt>
      <trkpt lat="45.18488" lon="6.11466">
        <ele>2328</ele>
        <time>2025-02-09T10:37:00Z</time>
      </trkpt>
      <trkpt lat="45.18488" lon="6.11466">
        <ele>2330</ele>
        <time>2025-02-09T10:37:03Z</time>
      </trkpt>
      <trkpt lat="45.18488" lon="6.11466">
        <ele>2331</ele>
        <time>2025-02-09T10:37:13Z</time>
      </trkpt>
      <trkpt lat="45.18486" lon="6.11479">
        <ele>2331</ele>
        <time>2025-02-09T10:37:21Z</time>
      </trkpt>
      <trkpt lat="45.18486" lon="6.11479">
        <ele>2333</ele>
        <time>2025-02-09T10:37:23Z</time>
      </trkpt>
      <trkpt lat="45.18486" lon="6.11479">
        <ele>2334</ele>
        <time>2025-02-09T10:37:33Z</time>
      </trkpt>
      <trkpt lat="45.18486" lon="6.11479">
        <ele>2335</ele>
        <time>2025-02-09T10:37:43Z</time>
      </trkpt>
      <trkpt lat="45.18486" lon="6.11479">
        <ele>2336</ele>
        <time>2025-02-09T10:37:53Z</time>
      </trkpt>
      <trkpt lat="45.18479" lon="6.11471">
        <ele>2337</ele>
        <time>2025-02-09T10:38:03Z</time>
      </trkpt>
      <trkpt lat="45.18479" lon="6.11471">
        <ele>2338</ele>
        <time>2025-02-09T10:38:13Z</time>
      </trkpt>
      <trkpt lat="45.18472" lon="6.11461">
        <ele>2338</ele>
        <time>2025-02-09T10:38:15Z</time>
      </trkpt>
      <trkpt lat="45.18472" lon="6.11461">
        <ele>2340</ele>
        <time>2025-02-09T10:38:23Z</time>
      </trkpt>
      <trkpt lat="45.18468" lon="6.11449">
        <ele>2340</ele>
        <time>2025-02-09T10:38:31Z</time>
      </trkpt>
      <trkpt lat="45.18468" lon="6.11449">
        <ele>2341</ele>
        <time>2025-02-09T10:38:33Z</time>
      </trkpt>
      <trkpt lat="45.18468" lon="6.11449">
        <ele>2343</ele>
        <time>2025-02-09T10:38:43Z</time>
      </trkpt>
      <trkpt lat="45.18468" lon="6.11449">
        <ele>2344</ele>
        <time>2025-02-09T10:38:53Z</time>
      </trkpt>
      <trkpt lat="45.18468" lon="6.11449">
        <ele>2344</ele>
        <time>2025-02-09T10:39:03Z</time>
      </trkpt>
      <trkpt lat="45.18468" lon="6.11449">
        <ele>2345</ele>
        <time>2025-02-09T10:39:13Z</time>
      </trkpt>
      <trkpt lat="45.18459" lon="6.11451">
        <ele>2345</ele>
        <time>2025-02-09T10:39:17Z</time>
      </trkpt>
      <trkpt lat="45.18459" lon="6.11451">
        <ele>2346</ele>
        <time>2025-02-09T10:39:23Z</time>
      </trkpt>
      <trkpt lat="45.18455" lon="6.11463">
        <ele>2347</ele>
        <time>2025-02-09T10:39:33Z</time>
      </trkpt>
      <trkpt lat="45.18455" lon="6.11463">
        <ele>2349</ele>
        <time>2025-02-09T10:39:43Z</time>
      </trkpt>
      <trkpt lat="45.18452" lon="6.11476">
        <ele>2349</ele>
        <time>2025-02-09T10:39:49Z</time>
      </trkpt>
      <trkpt lat="45.18452" lon="6.11476">
        <ele>2349</ele>
        <time>2025-02-09T10:39:53Z</time>
      </trkpt>
      <trkpt lat="45.18452" lon="6.11476">
        <ele>2351</ele>
        <time>2025-02-09T10:40:03Z</time>
      </trkpt>
      <trkpt lat="45.18452" lon="6.11476">
        <ele>2353</ele>
        <time>2025-02-09T10:40:13Z</time>
      </trkpt>
      <trkpt lat="45.18449" lon="6.11488">
        <ele>2353</ele>
        <time>2025-02-09T10:40:14Z</time>
      </trkpt>
      <trkpt lat="45.18449" lon="6.11488">
        <ele>2353</ele>
        <time>2025-02-09T10:40:23Z</time>
      </trkpt>
      <trkpt lat="45.18449" lon="6.11501">
        <ele>2353</ele>
        <time>2025-02-09T10:40:28Z</time>
      </trkpt>
      <trkpt lat="45.18449" lon="6.11501">
        <ele>2355</ele>
        <time>2025-02-09T10:40:33Z</time>
      </trkpt>
      <trkpt lat="45.1845" lon="6.11514">
        <ele>2355</ele>
        <time>2025-02-09T10:40:41Z</time>
      </trkpt>
      <trkpt lat="45.1845" lon="6.11514">
        <ele>2356</ele>
        <time>2025-02-09T10:40:43Z</time>
      </trkpt>
      <trkpt lat="45.1845" lon="6.11517">
        <ele>2359</ele>
        <time>2025-02-09T10:40:53Z</time>
      </trkpt>
      <trkpt lat="45.1845" lon="6.1152">
        <ele>2359</ele>
        <time>2025-02-09T10:40:54Z</time>
      </trkpt>
      <trkpt lat="45.1845" lon="6.11523">
        <ele>2361</ele>
        <time>2025-02-09T10:41:03Z</time>
      </trkpt>
      <trkpt lat="45.1845" lon="6.11525">
        <ele>2361</ele>
        <time>2025-02-09T10:41:05Z</time>
      </trkpt>
      <trkpt lat="45.1845" lon="6.11528">
        <ele>2363</ele>
        <time>2025-02-09T10:41:13Z</time>
      </trkpt>
      <trkpt lat="45.1845" lon="6.11531">
        <ele>2362</ele>
        <time>2025-02-09T10:41:23Z</time>
      </trkpt>
      <trkpt lat="45.1845" lon="6.11534">
        <ele>2362</ele>
        <time>2025-02-09T10:41:33Z</time>
      </trkpt>
      <trkpt lat="45.18449" lon="6.11537">
        <ele>2364</ele>
        <time>2025-02-09T10:41:43Z</time>
      </trkpt>
      <trkpt lat="45.18449" lon="6.1154">
        <ele>2362</ele>
        <time>2025-02-09T10:41:53Z</time>
      </trkpt>
      <trkpt lat="45.18449" lon="6.11542">
        <ele>2361</ele>
        <time>2025-02-09T10:42:03Z</time>
      </trkpt>
      <trkpt lat="45.18449" lon="6.11545">
        <ele>2361</ele>
        <time>2025-02-09T10:42:13Z</time>
      </trkpt>
      <trkpt lat="45.18449" lon="6.11548">
        <ele>2362</ele>
        <time>2025-02-09T10:42:23Z</time>
      </trkpt>
      <trkpt lat="45.18449" lon="6.11551">
        <ele>2362</ele>
        <time>2025-02-09T10:42:32Z</time>
      </trkpt>
      <trkpt lat="45.18449" lon="6.11554">
        <ele>2362</ele>
        <time>2025-02-09T10:42:33Z</time>
      </trkpt>
      <trkpt lat="45.18449" lon="6.11554">
        <ele>2364</ele>
        <time>2025-02-09T10:42:43Z</time>
      </trkpt>
      <trkpt lat="45.18445" lon="6.11566">
        <ele>2364</ele>
        <time>2025-02-09T10:42:44Z</time>
      </trkpt>
      <trkpt lat="45.18445" lon="6.11566">
        <ele>2364</ele>
        <time>2025-02-09T10:42:53Z</time>
      </trkpt>
      <trkpt lat="45.18441" lon="6.11579">
        <ele>2364</ele>
        <time>2025-02-09T10:42:55Z</time>
      </trkpt>
      <trkpt lat="45.18441" lon="6.11579">
        <ele>2366</ele>
        <time>2025-02-09T10:43:03Z</time>
      </trkpt>
      <trkpt lat="45.18436" lon="6.1159">
        <ele>2366</ele>
        <time>2025-02-09T10:43:10Z</time>
      </trkpt>
      <trkpt lat="45.18436" lon="6.1159">
        <ele>2368</ele>
        <time>2025-02-09T10:43:13Z</time>
      </trkpt>
      <trkpt lat="45.18436" lon="6.1159">
        <ele>2369</ele>
        <time>2025-02-09T10:43:23Z</time>
      </trkpt>
      <trkpt lat="45.18433" lon="6.11602">
        <ele>2369</ele>
        <time>2025-02-09T10:43:28Z</time>
      </trkpt>
      <trkpt lat="45.18433" lon="6.11602">
        <ele>2369</ele>
        <time>2025-02-09T10:43:33Z</time>
      </trkpt>
      <trkpt lat="45.18427" lon="6.11613">
        <ele>2369</ele>
        <time>2025-02-09T10:43:42Z</time>
      </trkpt>
      <trkpt lat="45.18427" lon="6.11613">
        <ele>2371</ele>
        <time>2025-02-09T10:43:43Z</time>
      </trkpt>
      <trkpt lat="45.1842" lon="6.11622">
        <ele>2371</ele>
        <time>2025-02-09T10:43:52Z</time>
      </trkpt>
      <trkpt lat="45.1842" lon="6.11622">
        <ele>2371</ele>
        <time>2025-02-09T10:43:53Z</time>
      </trkpt>
      <trkpt lat="45.18412" lon="6.11635">
        <ele>2371</ele>
        <time>2025-02-09T10:44:03Z</time>
      </trkpt>
      <trkpt lat="45.1841" lon="6.11638">
        <ele>2372</ele>
        <time>2025-02-09T10:44:13Z</time>
      </trkpt>
      <trkpt lat="45.18409" lon="6.1164">
        <ele>2372</ele>
        <time>2025-02-09T10:44:14Z</time>
      </trkpt>
      <trkpt lat="45.18407" lon="6.11643">
        <ele>2372</ele>
        <time>2025-02-09T10:44:23Z</time>
      </trkpt>
      <trkpt lat="45.18406" lon="6.11646">
        <ele>2372</ele>
        <time>2025-02-09T10:44:25Z</time>
      </trkpt>
      <trkpt lat="45.18404" lon="6.11648">
        <ele>2373</ele>
        <time>2025-02-09T10:44:33Z</time>
      </trkpt>
      <trkpt lat="45.18403" lon="6.11651">
        <ele>2373</ele>
        <time>2025-02-09T10:44:37Z</time>
      </trkpt>
      <trkpt lat="45.18402" lon="6.11653">
        <ele>2374</ele>
        <time>2025-02-09T10:44:43Z</time>
      </trkpt>
      <trkpt lat="45.184" lon="6.11656">
        <ele>2374</ele>
        <time>2025-02-09T10:44:53Z</time>
      </trkpt>
      <trkpt lat="45.18399" lon="6.11659">
        <ele>2375</ele>
        <time>2025-02-09T10:45:03Z</time>
      </trkpt>
      <trkpt lat="45.18397" lon="6.11661">
        <ele>2376</ele>
        <time>2025-02-09T10:45:13Z</time>
      </trkpt>
      <trkpt lat="45.18396" lon="6.11664">
        <ele>2376</ele>
        <time>2025-02-09T10:45:23Z</time>
      </trkpt>
      <trkpt lat="45.18394" lon="6.11666">
        <ele>2376</ele>
        <time>2025-02-09T10:45:33Z</time>
      </trkpt>
      <trkpt lat="45.18393" lon="6.11669">
        <ele>2374</ele>
        <time>2025-02-09T10:45:43Z</time>
      </trkpt>
      <trkpt lat="45.18391" lon="6.11671">
        <ele>2373</ele>
        <time>2025-02-09T10:45:53Z</time>
      </trkpt>
      <trkpt lat="45.1839" lon="6.11674">
        <ele>2374</ele>
        <time>2025-02-09T10:46:03Z</time>
      </trkpt>
      <trkpt lat="45.18388" lon="6.11677">
        <ele>2374</ele>
        <time>2025-02-09T10:46:13Z</time>
      </trkpt>
      <trkpt lat="45.18387" lon="6.11679">
        <ele>2375</ele>
        <time>2025-02-09T10:46:23Z</time>
      </trkpt>
      <trkpt lat="45.18385" lon="6.11682">
        <ele>2375</ele>
        <time>2025-02-09T10:46:25Z</time>
      </trkpt>
      <trkpt lat="45.18384" lon="6.11684">
        <ele>2375</ele>
        <time>2025-02-09T10:46:33Z</time>
      </trkpt>
      <trkpt lat="45.18382" lon="6.11687">
        <ele>2375</ele>
        <time>2025-02-09T10:46:36Z</time>
      </trkpt>
      <trkpt lat="45.18381" lon="6.1169">
        <ele>2375</ele>
        <time>2025-02-09T10:46:43Z</time>
      </trkpt>
      <trkpt lat="45.18379" lon="6.11692">
        <ele>2375</ele>
        <time>2025-02-09T10:46:52Z</time>
      </trkpt>
      <trkpt lat="45.18378" lon="6.11695">
        <ele>2376</ele>
        <time>2025-02-09T10:46:53Z</time>
      </trkpt>
      <trkpt lat="45.18373" lon="6.11706">
        <ele>2376</ele>
        <time>2025-02-09T10:47:02Z</time>
      </trkpt>
      <trkpt lat="45.18373" lon="6.11706">
        <ele>2377</ele>
        <time>2025-02-09T10:47:03Z</time>
      </trkpt>
      <trkpt lat="45.1837" lon="6.11718">
        <ele>2378</ele>
        <time>2025-02-09T10:47:13Z</time>
      </trkpt>
      <trkpt lat="45.1837" lon="6.11718">
        <ele>2378</ele>
        <time>2025-02-09T10:47:23Z</time>
      </trkpt>
      <trkpt lat="45.18366" lon="6.11731">
        <ele>2378</ele>
        <time>2025-02-09T10:47:26Z</time>
      </trkpt>
      <trkpt lat="45.18366" lon="6.11731">
        <ele>2379</ele>
        <time>2025-02-09T10:47:33Z</time>
      </trkpt>
      <trkpt lat="45.18362" lon="6.11742">
        <ele>2379</ele>
        <time>2025-02-09T10:47:35Z</time>
      </trkpt>
      <trkpt lat="45.18362" lon="6.11742">
        <ele>2379</ele>
        <time>2025-02-09T10:47:43Z</time>
      </trkpt>
      <trkpt lat="45.18361" lon="6.11756">
        <ele>2379</ele>
        <time>2025-02-09T10:47:44Z</time>
      </trkpt>
      <trkpt lat="45.1836" lon="6.1177">
        <ele>2377</ele>
        <time>2025-02-09T10:47:53Z</time>
      </trkpt>
      <trkpt lat="45.18358" lon="6.11782">
        <ele>2377</ele>
        <time>2025-02-09T10:48:00Z</time>
      </trkpt>
      <trkpt lat="45.18358" lon="6.11782">
        <ele>2376</ele>
        <time>2025-02-09T10:48:03Z</time>
      </trkpt>
      <trkpt lat="45.18352" lon="6.11801">
        <ele>2376</ele>
        <time>2025-02-09T10:48:08Z</time>
      </trkpt>
      <trkpt lat="45.1835" lon="6.11804">
        <ele>2376</ele>
        <time>2025-02-09T10:48:12Z</time>
      </trkpt>
      <trkpt lat="45.18348" lon="6.11808">
        <ele>2374</ele>
        <time>2025-02-09T10:48:13Z</time>
      </trkpt>
      <trkpt lat="45.18348" lon="6.11808">
        <ele>2373</ele>
        <time>2025-02-09T10:48:23Z</time>
      </trkpt>
      <trkpt lat="45.18348" lon="6.11808">
        <ele>2374</ele>
        <time>2025-02-09T10:48:33Z</time>
      </trkpt>
      <trkpt lat="45.18348" lon="6.11808">
        <ele>2374</ele>
        <time>2025-02-09T10:48:43Z</time>
      </trkpt>
      <trkpt lat="45.18348" lon="6.11822">
        <ele>2374</ele>
        <time>2025-02-09T10:48:46Z</time>
      </trkpt>
      <trkpt lat="45.18348" lon="6.11822">
        <ele>2375</ele>
        <time>2025-02-09T10:48:53Z</time>
      </trkpt>
      <trkpt lat="45.18348" lon="6.11834">
        <ele>2375</ele>
        <time>2025-02-09T10:48:59Z</time>
      </trkpt>
      <trkpt lat="45.18348" lon="6.11834">
        <ele>2376</ele>
        <time>2025-02-09T10:49:03Z</time>
      </trkpt>
      <trkpt lat="45.18348" lon="6.11834">
        <ele>2378</ele>
        <time>2025-02-09T10:49:13Z</time>
      </trkpt>
      <trkpt lat="45.18349" lon="6.11848">
        <ele>2378</ele>
        <time>2025-02-09T10:49:15Z</time>
      </trkpt>
      <trkpt lat="45.18349" lon="6.11848">
        <ele>2379</ele>
        <time>2025-02-09T10:49:23Z</time>
      </trkpt>
      <trkpt lat="45.18349" lon="6.11848">
        <ele>2380</ele>
        <time>2025-02-09T10:49:33Z</time>
      </trkpt>
      <trkpt lat="45.18354" lon="6.11859">
        <ele>2380</ele>
        <time>2025-02-09T10:49:36Z</time>
      </trkpt>
      <trkpt lat="45.18354" lon="6.11859">
        <ele>2382</ele>
        <time>2025-02-09T10:49:43Z</time>
      </trkpt>
      <trkpt lat="45.18354" lon="6.11859">
        <ele>2383</ele>
        <time>2025-02-09T10:49:53Z</time>
      </trkpt>
      <trkpt lat="45.18358" lon="6.1187">
        <ele>2383</ele>
        <time>2025-02-09T10:49:54Z</time>
      </trkpt>
      <trkpt lat="45.18358" lon="6.1187">
        <ele>2385</ele>
        <time>2025-02-09T10:50:03Z</time>
      </trkpt>
      <trkpt lat="45.18362" lon="6.11882">
        <ele>2385</ele>
        <time>2025-02-09T10:50:10Z</time>
      </trkpt>
      <trkpt lat="45.18362" lon="6.11882">
        <ele>2386</ele>
        <time>2025-02-09T10:50:13Z</time>
      </trkpt>
      <trkpt lat="45.18362" lon="6.11882">
        <ele>2387</ele>
        <time>2025-02-09T10:50:23Z</time>
      </trkpt>
      <trkpt lat="45.18362" lon="6.11882">
        <ele>2388</ele>
        <time>2025-02-09T10:50:33Z</time>
      </trkpt>
      <trkpt lat="45.18365" lon="6.11894">
        <ele>2388</ele>
        <time>2025-02-09T10:50:40Z</time>
      </trkpt>
      <trkpt lat="45.18365" lon="6.11894">
        <ele>2388</ele>
        <time>2025-02-09T10:50:43Z</time>
      </trkpt>
      <trkpt lat="45.18365" lon="6.11894">
        <ele>2389</ele>
        <time>2025-02-09T10:50:53Z</time>
      </trkpt>
      <trkpt lat="45.1837" lon="6.11904">
        <ele>2390</ele>
        <time>2025-02-09T10:51:03Z</time>
      </trkpt>
      <trkpt lat="45.1837" lon="6.11904">
        <ele>2390</ele>
        <time>2025-02-09T10:51:13Z</time>
      </trkpt>
      <trkpt lat="45.1837" lon="6.11904">
        <ele>2391</ele>
        <time>2025-02-09T10:51:23Z</time>
      </trkpt>
      <trkpt lat="45.1837" lon="6.11904">
        <ele>2391</ele>
        <time>2025-02-09T10:51:33Z</time>
      </trkpt>
      <trkpt lat="45.1837" lon="6.11904">
        <ele>2393</ele>
        <time>2025-02-09T10:51:43Z</time>
      </trkpt>
      <trkpt lat="45.1837" lon="6.11904">
        <ele>2393</ele>
        <time>2025-02-09T10:51:53Z</time>
      </trkpt>
      <trkpt lat="45.1837" lon="6.11904">
        <ele>2394</ele>
        <time>2025-02-09T10:52:03Z</time>
      </trkpt>
      <trkpt lat="45.18369" lon="6.11917">
        <ele>2394</ele>
        <time>2025-02-09T10:52:05Z</time>
      </trkpt>
      <trkpt lat="45.18369" lon="6.11917">
        <ele>2396</ele>
        <time>2025-02-09T10:52:13Z</time>
      </trkpt>
      <trkpt lat="45.18369" lon="6.11917">
        <ele>2397</ele>
        <time>2025-02-09T10:52:23Z</time>
      </trkpt>
      <trkpt lat="45.18369" lon="6.11917">
        <ele>2398</ele>
        <time>2025-02-09T10:52:33Z</time>
      </trkpt>
      <trkpt lat="45.1836" lon="6.11916">
        <ele>2398</ele>
        <time>2025-02-09T10:52:39Z</time>
      </trkpt>
      <trkpt lat="45.1836" lon="6.11916">
        <ele>2399</ele>
        <time>2025-02-09T10:52:43Z</time>
      </trkpt>
      <trkpt lat="45.1836" lon="6.11916">
        <ele>2400</ele>
        <time>2025-02-09T10:52:53Z</time>
      </trkpt>
      <trkpt lat="45.1835" lon="6.11916">
        <ele>2400</ele>
        <time>2025-02-09T10:53:01Z</time>
      </trkpt>
      <trkpt lat="45.1835" lon="6.11916">
        <ele>2402</ele>
        <time>2025-02-09T10:53:03Z</time>
      </trkpt>
      <trkpt lat="45.1835" lon="6.11917">
        <ele>2403</ele>
        <time>2025-02-09T10:53:13Z</time>
      </trkpt>
      <trkpt lat="45.18349" lon="6.11919">
        <ele>2403</ele>
        <time>2025-02-09T10:53:16Z</time>
      </trkpt>
      <trkpt lat="45.18349" lon="6.1192">
        <ele>2404</ele>
        <time>2025-02-09T10:53:23Z</time>
      </trkpt>
      <trkpt lat="45.18348" lon="6.11922">
        <ele>2405</ele>
        <time>2025-02-09T10:53:33Z</time>
      </trkpt>
      <trkpt lat="45.18347" lon="6.11923">
        <ele>2405</ele>
        <time>2025-02-09T10:53:42Z</time>
      </trkpt>
      <trkpt lat="45.18347" lon="6.11924">
        <ele>2406</ele>
        <time>2025-02-09T10:53:43Z</time>
      </trkpt>
      <trkpt lat="45.18347" lon="6.11924">
        <ele>2408</ele>
        <time>2025-02-09T10:53:53Z</time>
      </trkpt>
      <trkpt lat="45.18347" lon="6.11924">
        <ele>2409</ele>
        <time>2025-02-09T10:54:03Z</time>
      </trkpt>
      <trkpt lat="45.18351" lon="6.11936">
        <ele>2409</ele>
        <time>2025-02-09T10:54:05Z</time>
      </trkpt>
      <trkpt lat="45.18351" lon="6.11936">
        <ele>2409</ele>
        <time>2025-02-09T10:54:13Z</time>
      </trkpt>
      <trkpt lat="45.18358" lon="6.11946">
        <ele>2409</ele>
        <time>2025-02-09T10:54:20Z</time>
      </trkpt>
      <trkpt lat="45.18358" lon="6.11946">
        <ele>2411</ele>
        <time>2025-02-09T10:54:23Z</time>
      </trkpt>
      <trkpt lat="45.18358" lon="6.11946">
        <ele>2412</ele>
        <time>2025-02-09T10:54:33Z</time>
      </trkpt>
      <trkpt lat="45.18358" lon="6.11946">
        <ele>2413</ele>
        <time>2025-02-09T10:54:43Z</time>
      </trkpt>
      <trkpt lat="45.18358" lon="6.11946">
        <ele>2414</ele>
        <time>2025-02-09T10:54:53Z</time>
      </trkpt>
      <trkpt lat="45.18349" lon="6.11947">
        <ele>2414</ele>
        <time>2025-02-09T10:54:56Z</time>
      </trkpt>
      <trkpt lat="45.18349" lon="6.11947">
        <ele>2416</ele>
        <time>2025-02-09T10:55:03Z</time>
      </trkpt>
      <trkpt lat="45.18349" lon="6.11947">
        <ele>2417</ele>
        <time>2025-02-09T10:55:13Z</time>
      </trkpt>
      <trkpt lat="45.1834" lon="6.11943">
        <ele>2417</ele>
        <time>2025-02-09T10:55:14Z</time>
      </trkpt>
      <trkpt lat="45.1834" lon="6.11943">
        <ele>2420</ele>
        <time>2025-02-09T10:55:23Z</time>
      </trkpt>
      <trkpt lat="45.1834" lon="6.11943">
        <ele>2419</ele>
        <time>2025-02-09T10:55:33Z</time>
      </trkpt>
      <trkpt lat="45.1834" lon="6.11943">
        <ele>2420</ele>
        <time>2025-02-09T10:55:43Z</time>
      </trkpt>
      <trkpt lat="45.18343" lon="6.11956">
        <ele>2420</ele>
        <time>2025-02-09T10:55:50Z</time>
      </trkpt>
      <trkpt lat="45.18343" lon="6.11956">
        <ele>2422</ele>
        <time>2025-02-09T10:55:53Z</time>
      </trkpt>
      <trkpt lat="45.18343" lon="6.11956">
        <ele>2423</ele>
        <time>2025-02-09T10:56:03Z</time>
      </trkpt>
      <trkpt lat="45.18349" lon="6.11967">
        <ele>2423</ele>
        <time>2025-02-09T10:56:07Z</time>
      </trkpt>
      <trkpt lat="45.18349" lon="6.11967">
        <ele>2424</ele>
        <time>2025-02-09T10:56:13Z</time>
      </trkpt>
      <trkpt lat="45.18349" lon="6.11967">
        <ele>2426</ele>
        <time>2025-02-09T10:56:23Z</time>
      </trkpt>
      <trkpt lat="45.18349" lon="6.1198">
        <ele>2426</ele>
        <time>2025-02-09T10:56:31Z</time>
      </trkpt>
      <trkpt lat="45.18349" lon="6.1198">
        <ele>2427</ele>
        <time>2025-02-09T10:56:33Z</time>
      </trkpt>
      <trkpt lat="45.18358" lon="6.11989">
        <ele>2429</ele>
        <time>2025-02-09T10:56:43Z</time>
      </trkpt>
      <trkpt lat="45.1836" lon="6.11991">
        <ele>2430</ele>
        <time>2025-02-09T10:56:53Z</time>
      </trkpt>
      <trkpt lat="45.18362" lon="6.11993">
        <ele>2430</ele>
        <time>2025-02-09T10:57:02Z</time>
      </trkpt>
      <trkpt lat="45.18364" lon="6.11995">
        <ele>2431</ele>
        <time>2025-02-09T10:57:03Z</time>
      </trkpt>
      <trkpt lat="45.18364" lon="6.11995">
        <ele>2433</ele>
        <time>2025-02-09T10:57:13Z</time>
      </trkpt>
      <trkpt lat="45.18369" lon="6.12007">
        <ele>2433</ele>
        <time>2025-02-09T10:57:18Z</time>
      </trkpt>
      <trkpt lat="45.18369" lon="6.12007">
        <ele>2433</ele>
        <time>2025-02-09T10:57:23Z</time>
      </trkpt>
      <trkpt lat="45.18369" lon="6.12007">
        <ele>2434</ele>
        <time>2025-02-09T10:57:33Z</time>
      </trkpt>
      <trkpt lat="45.18371" lon="6.1202">
        <ele>2434</ele>
        <time>2025-02-09T10:57:38Z</time>
      </trkpt>
      <trkpt lat="45.18371" lon="6.1202">
        <ele>2436</ele>
        <time>2025-02-09T10:57:43Z</time>
      </trkpt>
      <trkpt lat="45.18378" lon="6.12029">
        <ele>2436</ele>
        <time>2025-02-09T10:57:48Z</time>
      </trkpt>
      <trkpt lat="45.18378" lon="6.12029">
        <ele>2437</ele>
        <time>2025-02-09T10:57:53Z</time>
      </trkpt>
      <trkpt lat="45.18378" lon="6.12029">
        <ele>2438</ele>
        <time>2025-02-09T10:58:03Z</time>
      </trkpt>
      <trkpt lat="45.18378" lon="6.12029">
        <ele>2440</ele>
        <time>2025-02-09T10:58:13Z</time>
      </trkpt>
      <trkpt lat="45.18381" lon="6.12041">
        <ele>2440</ele>
        <time>2025-02-09T10:58:17Z</time>
      </trkpt>
      <trkpt lat="45.18381" lon="6.12041">
        <ele>2440</ele>
        <time>2025-02-09T10:58:23Z</time>
      </trkpt>
      <trkpt lat="45.18381" lon="6.12041">
        <ele>2440</ele>
        <time>2025-02-09T10:58:33Z</time>
      </trkpt>
      <trkpt lat="45.18381" lon="6.12041">
        <ele>2441</ele>
        <time>2025-02-09T10:58:43Z</time>
      </trkpt>
      <trkpt lat="45.18381" lon="6.12041">
        <ele>2441</ele>
        <time>2025-02-09T10:58:53Z</time>
      </trkpt>
      <trkpt lat="45.18381" lon="6.12041">
        <ele>2441</ele>
        <time>2025-02-09T10:59:03Z</time>
      </trkpt>
      <trkpt lat="45.18381" lon="6.12041">
        <ele>2441</ele>
        <time>2025-02-09T10:59:13Z</time>
      </trkpt>
      <trkpt lat="45.18381" lon="6.12041">
        <ele>2442</ele>
        <time>2025-02-09T10:59:23Z</time>
      </trkpt>
      <trkpt lat="45.18381" lon="6.12041">
        <ele>2442</ele>
        <time>2025-02-09T10:59:33Z</time>
      </trkpt>
      <trkpt lat="45.18373" lon="6.1205">
        <ele>2442</ele>
        <time>2025-02-09T10:59:37Z</time>
      </trkpt>
      <trkpt lat="45.18373" lon="6.1205">
        <ele>2444</ele>
        <time>2025-02-09T10:59:43Z</time>
      </trkpt>
      <trkpt lat="45.18373" lon="6.1205">
        <ele>2444</ele>
        <time>2025-02-09T10:59:53Z</time>
      </trkpt>
      <trkpt lat="45.18373" lon="6.1205">
        <ele>2444</ele>
        <time>2025-02-09T11:00:03Z</time>
      </trkpt>
      <trkpt lat="45.18373" lon="6.1205">
        <ele>2445</ele>
        <time>2025-02-09T11:00:13Z</time>
      </trkpt>
      <trkpt lat="45.18373" lon="6.1205">
        <ele>2445</ele>
        <time>2025-02-09T11:00:23Z</time>
      </trkpt>
      <trkpt lat="45.18373" lon="6.1205">
        <ele>2445</ele>
        <time>2025-02-09T11:00:33Z</time>
      </trkpt>
      <trkpt lat="45.18373" lon="6.1205">
        <ele>2444</ele>
        <time>2025-02-09T11:00:43Z</time>
      </trkpt>
      <trkpt lat="45.18373" lon="6.1205">
        <ele>2445</ele>
        <time>2025-02-09T11:00:53Z</time>
      </trkpt>
      <trkpt lat="45.18373" lon="6.1205">
        <ele>2445</ele>
        <time>2025-02-09T11:01:03Z</time>
      </trkpt>
      <trkpt lat="45.18364" lon="6.1205">
        <ele>2445</ele>
        <time>2025-02-09T11:01:11Z</time>
      </trkpt>
      <trkpt lat="45.18364" lon="6.1205">
        <ele>2446</ele>
        <time>2025-02-09T11:01:13Z</time>
      </trkpt>
      <trkpt lat="45.18364" lon="6.1205">
        <ele>2448</ele>
        <time>2025-02-09T11:01:23Z</time>
      </trkpt>
      <trkpt lat="45.18364" lon="6.1205">
        <ele>2449</ele>
        <time>2025-02-09T11:01:33Z</time>
      </trkpt>
      <trkpt lat="45.18368" lon="6.12062">
        <ele>2449</ele>
        <time>2025-02-09T11:01:41Z</time>
      </trkpt>
      <trkpt lat="45.18368" lon="6.12062">
        <ele>2449</ele>
        <time>2025-02-09T11:01:43Z</time>
      </trkpt>
      <trkpt lat="45.18368" lon="6.12062">
        <ele>2451</ele>
        <time>2025-02-09T11:01:53Z</time>
      </trkpt>
      <trkpt lat="45.18375" lon="6.1207">
        <ele>2451</ele>
        <time>2025-02-09T11:02:00Z</time>
      </trkpt>
      <trkpt lat="45.18375" lon="6.1207">
        <ele>2452</ele>
        <time>2025-02-09T11:02:03Z</time>
      </trkpt>
      <trkpt lat="45.18375" lon="6.1207">
        <ele>2453</ele>
        <time>2025-02-09T11:02:13Z</time>
      </trkpt>
      <trkpt lat="45.18382" lon="6.12077">
        <ele>2453</ele>
        <time>2025-02-09T11:02:18Z</time>
      </trkpt>
      <trkpt lat="45.18382" lon="6.12077">
        <ele>2454</ele>
        <time>2025-02-09T11:02:23Z</time>
      </trkpt>
      <trkpt lat="45.18382" lon="6.12077">
        <ele>2457</ele>
        <time>2025-02-09T11:02:33Z</time>
      </trkpt>
      <trkpt lat="45.1839" lon="6.12085">
        <ele>2457</ele>
        <time>2025-02-09T11:02:37Z</time>
      </trkpt>
      <trkpt lat="45.1839" lon="6.12085">
        <ele>2458</ele>
        <time>2025-02-09T11:02:43Z</time>
      </trkpt>
      <trkpt lat="45.18394" lon="6.12097">
        <ele>2458</ele>
        <time>2025-02-09T11:02:48Z</time>
      </trkpt>
      <trkpt lat="45.18394" lon="6.12097">
        <ele>2459</ele>
        <time>2025-02-09T11:02:53Z</time>
      </trkpt>
      <trkpt lat="45.18396" lon="6.12101">
        <ele>2461</ele>
        <time>2025-02-09T11:03:03Z</time>
      </trkpt>
      <trkpt lat="45.18399" lon="6.12105">
        <ele>2461</ele>
        <time>2025-02-09T11:03:04Z</time>
      </trkpt>
      <trkpt lat="45.18401" lon="6.12109">
        <ele>2462</ele>
        <time>2025-02-09T11:03:13Z</time>
      </trkpt>
      <trkpt lat="45.18403" lon="6.12113">
        <ele>2462</ele>
        <time>2025-02-09T11:03:22Z</time>
      </trkpt>
      <trkpt lat="45.18405" lon="6.12118">
        <ele>2463</ele>
        <time>2025-02-09T11:03:23Z</time>
      </trkpt>
      <trkpt lat="45.18405" lon="6.12118">
        <ele>2465</ele>
        <time>2025-02-09T11:03:33Z</time>
      </trkpt>
      <trkpt lat="45.18409" lon="6.1213">
        <ele>2465</ele>
        <time>2025-02-09T11:03:41Z</time>
      </trkpt>
      <trkpt lat="45.18409" lon="6.1213">
        <ele>2465</ele>
        <time>2025-02-09T11:03:43Z</time>
      </trkpt>
      <trkpt lat="45.18409" lon="6.1213">
        <ele>2467</ele>
        <time>2025-02-09T11:03:53Z</time>
      </trkpt>
      <trkpt lat="45.18412" lon="6.12142">
        <ele>2467</ele>
        <time>2025-02-09T11:04:00Z</time>
      </trkpt>
      <trkpt lat="45.18412" lon="6.12142">
        <ele>2469</ele>
        <time>2025-02-09T11:04:03Z</time>
      </trkpt>
      <trkpt lat="45.18412" lon="6.12145">
        <ele>2470</ele>
        <time>2025-02-09T11:04:13Z</time>
      </trkpt>
      <trkpt lat="45.18411" lon="6.12148">
        <ele>2470</ele>
        <time>2025-02-09T11:04:16Z</time>
      </trkpt>
      <trkpt lat="45.18411" lon="6.12151">
        <ele>2471</ele>
        <time>2025-02-09T11:04:23Z</time>
      </trkpt>
      <trkpt lat="45.18411" lon="6.12154">
        <ele>2472</ele>
        <time>2025-02-09T11:04:33Z</time>
      </trkpt>
      <trkpt lat="45.1841" lon="6.12158">
        <ele>2474</ele>
        <time>2025-02-09T11:04:43Z</time>
      </trkpt>
      <trkpt lat="45.1841" lon="6.12161">
        <ele>2474</ele>
        <time>2025-02-09T11:04:52Z</time>
      </trkpt>
      <trkpt lat="45.1841" lon="6.12164">
        <ele>2476</ele>
        <time>2025-02-09T11:04:53Z</time>
      </trkpt>
      <trkpt lat="45.1841" lon="6.12164">
        <ele>2477</ele>
        <time>2025-02-09T11:05:03Z</time>
      </trkpt>
      <trkpt lat="45.1841" lon="6.12164">
        <ele>2479</ele>
        <time>2025-02-09T11:05:13Z</time>
      </trkpt>
      <trkpt lat="45.18412" lon="6.12177">
        <ele>2479</ele>
        <time>2025-02-09T11:05:18Z</time>
      </trkpt>
      <trkpt lat="45.18412" lon="6.12177">
        <ele>2480</ele>
        <time>2025-02-09T11:05:23Z</time>
      </trkpt>
      <trkpt lat="45.18412" lon="6.12177">
        <ele>2481</ele>
        <time>2025-02-09T11:05:33Z</time>
      </trkpt>
      <trkpt lat="45.18414" lon="6.1219">
        <ele>2481</ele>
        <time>2025-02-09T11:05:36Z</time>
      </trkpt>
      <trkpt lat="45.18414" lon="6.1219">
        <ele>2483</ele>
        <time>2025-02-09T11:05:43Z</time>
      </trkpt>
      <trkpt lat="45.18414" lon="6.1219">
        <ele>2484</ele>
        <time>2025-02-09T11:05:53Z</time>
      </trkpt>
      <trkpt lat="45.18419" lon="6.12201">
        <ele>2484</ele>
        <time>2025-02-09T11:05:58Z</time>
      </trkpt>
      <trkpt lat="45.18419" lon="6.12201">
        <ele>2485</ele>
        <time>2025-02-09T11:06:03Z</time>
      </trkpt>
      <trkpt lat="45.18423" lon="6.12213">
        <ele>2485</ele>
        <time>2025-02-09T11:06:11Z</time>
      </trkpt>
      <trkpt lat="45.18423" lon="6.12213">
        <ele>2486</ele>
        <time>2025-02-09T11:06:13Z</time>
      </trkpt>
      <trkpt lat="45.18423" lon="6.12213">
        <ele>2488</ele>
        <time>2025-02-09T11:06:23Z</time>
      </trkpt>
      <trkpt lat="45.18425" lon="6.12226">
        <ele>2488</ele>
        <time>2025-02-09T11:06:28Z</time>
      </trkpt>
      <trkpt lat="45.18425" lon="6.12226">
        <ele>2490</ele>
        <time>2025-02-09T11:06:33Z</time>
      </trkpt>
      <trkpt lat="45.18423" lon="6.12232">
        <ele>2491</ele>
        <time>2025-02-09T11:06:43Z</time>
      </trkpt>
      <trkpt lat="45.18421" lon="6.12238">
        <ele>2491</ele>
        <time>2025-02-09T11:06:53Z</time>
      </trkpt>
      <trkpt lat="45.18419" lon="6.12244">
        <ele>2491</ele>
        <time>2025-02-09T11:07:02Z</time>
      </trkpt>
      <trkpt lat="45.18417" lon="6.12251">
        <ele>2493</ele>
        <time>2025-02-09T11:07:03Z</time>
      </trkpt>
      <trkpt lat="45.18412" lon="6.12261">
        <ele>2493</ele>
        <time>2025-02-09T11:07:11Z</time>
      </trkpt>
      <trkpt lat="45.18412" lon="6.12261">
        <ele>2494</ele>
        <time>2025-02-09T11:07:13Z</time>
      </trkpt>
      <trkpt lat="45.18412" lon="6.12261">
        <ele>2495</ele>
        <time>2025-02-09T11:07:23Z</time>
      </trkpt>
      <trkpt lat="45.18412" lon="6.12261">
        <ele>2496</ele>
        <time>2025-02-09T11:07:33Z</time>
      </trkpt>
      <trkpt lat="45.18411" lon="6.12274">
        <ele>2496</ele>
        <time>2025-02-09T11:07:37Z</time>
      </trkpt>
      <trkpt lat="45.18411" lon="6.12274">
        <ele>2498</ele>
        <time>2025-02-09T11:07:43Z</time>
      </trkpt>
      <trkpt lat="45.18411" lon="6.12274">
        <ele>2500</ele>
        <time>2025-02-09T11:07:53Z</time>
      </trkpt>
      <trkpt lat="45.18409" lon="6.12287">
        <ele>2500</ele>
        <time>2025-02-09T11:07:56Z</time>
      </trkpt>
      <trkpt lat="45.18409" lon="6.12287">
        <ele>2500</ele>
        <time>2025-02-09T11:08:03Z</time>
      </trkpt>
      <trkpt lat="45.18407" lon="6.123">
        <ele>2500</ele>
        <time>2025-02-09T11:08:11Z</time>
      </trkpt>
      <trkpt lat="45.18407" lon="6.123">
        <ele>2502</ele>
        <time>2025-02-09T11:08:13Z</time>
      </trkpt>
      <trkpt lat="45.18407" lon="6.12304">
        <ele>2503</ele>
        <time>2025-02-09T11:08:23Z</time>
      </trkpt>
      <trkpt lat="45.18406" lon="6.12308">
        <ele>2503</ele>
        <time>2025-02-09T11:08:32Z</time>
      </trkpt>
      <trkpt lat="45.18405" lon="6.12313">
        <ele>2504</ele>
        <time>2025-02-09T11:08:33Z</time>
      </trkpt>
      <trkpt lat="45.18405" lon="6.12313">
        <ele>2506</ele>
        <time>2025-02-09T11:08:43Z</time>
      </trkpt>
      <trkpt lat="45.18408" lon="6.12325">
        <ele>2506</ele>
        <time>2025-02-09T11:08:49Z</time>
      </trkpt>
      <trkpt lat="45.18408" lon="6.12325">
        <ele>2508</ele>
        <time>2025-02-09T11:08:53Z</time>
      </trkpt>
      <trkpt lat="45.18408" lon="6.12325">
        <ele>2509</ele>
        <time>2025-02-09T11:09:03Z</time>
      </trkpt>
      <trkpt lat="45.18409" lon="6.12338">
        <ele>2509</ele>
        <time>2025-02-09T11:09:08Z</time>
      </trkpt>
      <trkpt lat="45.18409" lon="6.12338">
        <ele>2509</ele>
        <time>2025-02-09T11:09:13Z</time>
      </trkpt>
      <trkpt lat="45.1841" lon="6.12344">
        <ele>2511</ele>
        <time>2025-02-09T11:09:23Z</time>
      </trkpt>
      <trkpt lat="45.18411" lon="6.1235">
        <ele>2511</ele>
        <time>2025-02-09T11:09:25Z</time>
      </trkpt>
      <trkpt lat="45.18411" lon="6.12356">
        <ele>2513</ele>
        <time>2025-02-09T11:09:33Z</time>
      </trkpt>
      <trkpt lat="45.18412" lon="6.12361">
        <ele>2514</ele>
        <time>2025-02-09T11:09:43Z</time>
      </trkpt>
      <trkpt lat="45.18413" lon="6.12367">
        <ele>2515</ele>
        <time>2025-02-09T11:09:53Z</time>
      </trkpt>
      <trkpt lat="45.18413" lon="6.12373">
        <ele>2516</ele>
        <time>2025-02-09T11:10:03Z</time>
      </trkpt>
      <trkpt lat="45.18414" lon="6.12379">
        <ele>2518</ele>
        <time>2025-02-09T11:10:13Z</time>
      </trkpt>
      <trkpt lat="45.18414" lon="6.12385">
        <ele>2519</ele>
        <time>2025-02-09T11:10:23Z</time>
      </trkpt>
      <trkpt lat="45.18415" lon="6.12391">
        <ele>2520</ele>
        <time>2025-02-09T11:10:33Z</time>
      </trkpt>
      <trkpt lat="45.18416" lon="6.12396">
        <ele>2520</ele>
        <time>2025-02-09T11:10:42Z</time>
      </trkpt>
      <trkpt lat="45.18416" lon="6.12402">
        <ele>2522</ele>
        <time>2025-02-09T11:10:43Z</time>
      </trkpt>
      <trkpt lat="45.18416" lon="6.12402">
        <ele>2523</ele>
        <time>2025-02-09T11:10:53Z</time>
      </trkpt>
      <trkpt lat="45.18416" lon="6.12402">
        <ele>2524</ele>
        <time>2025-02-09T11:11:03Z</time>
      </trkpt>
      <trkpt lat="45.18418" lon="6.12415">
        <ele>2524</ele>
        <time>2025-02-09T11:11:04Z</time>
      </trkpt>
      <trkpt lat="45.18418" lon="6.12415">
        <ele>2526</ele>
        <time>2025-02-09T11:11:13Z</time>
      </trkpt>
      <trkpt lat="45.18417" lon="6.12428">
        <ele>2526</ele>
        <time>2025-02-09T11:11:20Z</time>
      </trkpt>
      <trkpt lat="45.18417" lon="6.12428">
        <ele>2527</ele>
        <time>2025-02-09T11:11:23Z</time>
      </trkpt>
      <trkpt lat="45.18417" lon="6.12428">
        <ele>2529</ele>
        <time>2025-02-09T11:11:33Z</time>
      </trkpt>
      <trkpt lat="45.18419" lon="6.1244">
        <ele>2529</ele>
        <time>2025-02-09T11:11:36Z</time>
      </trkpt>
      <trkpt lat="45.18419" lon="6.1244">
        <ele>2530</ele>
        <time>2025-02-09T11:11:43Z</time>
      </trkpt>
      <trkpt lat="45.18419" lon="6.1244">
        <ele>2532</ele>
        <time>2025-02-09T11:11:53Z</time>
      </trkpt>
      <trkpt lat="45.18421" lon="6.12453">
        <ele>2532</ele>
        <time>2025-02-09T11:11:56Z</time>
      </trkpt>
      <trkpt lat="45.18421" lon="6.12453">
        <ele>2534</ele>
        <time>2025-02-09T11:12:03Z</time>
      </trkpt>
      <trkpt lat="45.18421" lon="6.12453">
        <ele>2535</ele>
        <time>2025-02-09T11:12:13Z</time>
      </trkpt>
      <trkpt lat="45.18412" lon="6.12451">
        <ele>2535</ele>
        <time>2025-02-09T11:12:17Z</time>
      </trkpt>
      <trkpt lat="45.18412" lon="6.12451">
        <ele>2535</ele>
        <time>2025-02-09T11:12:23Z</time>
      </trkpt>
      <trkpt lat="45.18403" lon="6.12448">
        <ele>2537</ele>
        <time>2025-02-09T11:12:33Z</time>
      </trkpt>
      <trkpt lat="45.18403" lon="6.12448">
        <ele>2538</ele>
        <time>2025-02-09T11:12:43Z</time>
      </trkpt>
      <trkpt lat="45.18394" lon="6.12446">
        <ele>2538</ele>
        <time>2025-02-09T11:12:51Z</time>
      </trkpt>
      <trkpt lat="45.18394" lon="6.12446">
        <ele>2540</ele>
        <time>2025-02-09T11:12:53Z</time>
      </trkpt>
      <trkpt lat="45.18394" lon="6.12446">
        <ele>2542</ele>
        <time>2025-02-09T11:13:03Z</time>
      </trkpt>
      <trkpt lat="45.18385" lon="6.12446">
        <ele>2542</ele>
        <time>2025-02-09T11:13:09Z</time>
      </trkpt>
      <trkpt lat="45.18385" lon="6.12446">
        <ele>2543</ele>
        <time>2025-02-09T11:13:13Z</time>
      </trkpt>
      <trkpt lat="45.18385" lon="6.12446">
        <ele>2545</ele>
        <time>2025-02-09T11:13:23Z</time>
      </trkpt>
      <trkpt lat="45.18376" lon="6.12446">
        <ele>2545</ele>
        <time>2025-02-09T11:13:27Z</time>
      </trkpt>
      <trkpt lat="45.18376" lon="6.12446">
        <ele>2545</ele>
        <time>2025-02-09T11:13:33Z</time>
      </trkpt>
      <trkpt lat="45.18376" lon="6.12446">
        <ele>2547</ele>
        <time>2025-02-09T11:13:43Z</time>
      </trkpt>
      <trkpt lat="45.18367" lon="6.12451">
        <ele>2547</ele>
        <time>2025-02-09T11:13:49Z</time>
      </trkpt>
      <trkpt lat="45.18367" lon="6.12451">
        <ele>2549</ele>
        <time>2025-02-09T11:13:53Z</time>
      </trkpt>
      <trkpt lat="45.18365" lon="6.12463">
        <ele>2549</ele>
        <time>2025-02-09T11:14:01Z</time>
      </trkpt>
      <trkpt lat="45.18365" lon="6.12463">
        <ele>2551</ele>
        <time>2025-02-09T11:14:03Z</time>
      </trkpt>
      <trkpt lat="45.18362" lon="6.12476">
        <ele>2551</ele>
        <time>2025-02-09T11:14:13Z</time>
      </trkpt>
      <trkpt lat="45.18362" lon="6.12476">
        <ele>2552</ele>
        <time>2025-02-09T11:14:23Z</time>
      </trkpt>
      <trkpt lat="45.18361" lon="6.1249">
        <ele>2552</ele>
        <time>2025-02-09T11:14:27Z</time>
      </trkpt>
      <trkpt lat="45.18361" lon="6.1249">
        <ele>2553</ele>
        <time>2025-02-09T11:14:33Z</time>
      </trkpt>
      <trkpt lat="45.18361" lon="6.1249">
        <ele>2555</ele>
        <time>2025-02-09T11:14:43Z</time>
      </trkpt>
      <trkpt lat="45.18361" lon="6.1249">
        <ele>2555</ele>
        <time>2025-02-09T11:14:53Z</time>
      </trkpt>
      <trkpt lat="45.18361" lon="6.1249">
        <ele>2554</ele>
        <time>2025-02-09T11:15:03Z</time>
      </trkpt>
      <trkpt lat="45.18361" lon="6.1249">
        <ele>2554</ele>
        <time>2025-02-09T11:15:13Z</time>
      </trkpt>
      <trkpt lat="45.18361" lon="6.1249">
        <ele>2553</ele>
        <time>2025-02-09T11:15:23Z</time>
      </trkpt>
      <trkpt lat="45.18361" lon="6.1249">
        <ele>2553</ele>
        <time>2025-02-09T11:15:33Z</time>
      </trkpt>
      <trkpt lat="45.18361" lon="6.1249">
        <ele>2554</ele>
        <time>2025-02-09T11:15:43Z</time>
      </trkpt>
      <trkpt lat="45.18361" lon="6.1249">
        <ele>2553</ele>
        <time>2025-02-09T11:15:53Z</time>
      </trkpt>
      <trkpt lat="45.18361" lon="6.1249">
        <ele>2552</ele>
        <time>2025-02-09T11:16:03Z</time>
      </trkpt>
      <trkpt lat="45.18361" lon="6.1249">
        <ele>2553</ele>
        <time>2025-02-09T11:16:13Z</time>
      </trkpt>
      <trkpt lat="45.18361" lon="6.1249">
        <ele>2553</ele>
        <time>2025-02-09T11:16:23Z</time>
      </trkpt>
      <trkpt lat="45.18361" lon="6.1249">
        <ele>2553</ele>
        <time>2025-02-09T11:16:33Z</time>
      </trkpt>
      <trkpt lat="45.18361" lon="6.1249">
        <ele>2554</ele>
        <time>2025-02-09T11:16:43Z</time>
      </trkpt>
      <trkpt lat="45.18361" lon="6.1249">
        <ele>2554</ele>
        <time>2025-02-09T11:16:53Z</time>
      </trkpt>
      <trkpt lat="45.18361" lon="6.1249">
        <ele>2553</ele>
        <time>2025-02-09T11:17:03Z</time>
      </trkpt>
      <trkpt lat="45.18361" lon="6.1249">
        <ele>2553</ele>
        <time>2025-02-09T11:17:13Z</time>
      </trkpt>
      <trkpt lat="45.18361" lon="6.1249">
        <ele>2552</ele>
        <time>2025-02-09T11:17:23Z</time>
      </trkpt>
      <trkpt lat="45.18361" lon="6.1249">
        <ele>2552</ele>
        <time>2025-02-09T11:17:33Z</time>
      </trkpt>
      <trkpt lat="45.18361" lon="6.1249">
        <ele>2552</ele>
        <time>2025-02-09T11:17:43Z</time>
      </trkpt>
      <trkpt lat="45.18361" lon="6.1249">
        <ele>2553</ele>
        <time>2025-02-09T11:17:53Z</time>
      </trkpt>
      <trkpt lat="45.18361" lon="6.1249">
        <ele>2553</ele>
        <time>2025-02-09T11:18:03Z</time>
      </trkpt>
      <trkpt lat="45.18361" lon="6.1249">
        <ele>2553</ele>
        <time>2025-02-09T11:18:13Z</time>
      </trkpt>
      <trkpt lat="45.18361" lon="6.1249">
        <ele>2554</ele>
        <time>2025-02-09T11:18:23Z</time>
      </trkpt>
      <trkpt lat="45.18361" lon="6.1249">
        <ele>2553</ele>
        <time>2025-02-09T11:18:33Z</time>
      </trkpt>
      <trkpt lat="45.18361" lon="6.1249">
        <ele>2553</ele>
        <time>2025-02-09T11:18:43Z</time>
      </trkpt>
      <trkpt lat="45.18361" lon="6.1249">
        <ele>2553</ele>
        <time>2025-02-09T11:18:53Z</time>
      </trkpt>
      <trkpt lat="45.18361" lon="6.1249">
        <ele>2553</ele>
        <time>2025-02-09T11:19:03Z</time>
      </trkpt>
      <trkpt lat="45.18361" lon="6.1249">
        <ele>2553</ele>
        <time>2025-02-09T11:19:13Z</time>
      </trkpt>
      <trkpt lat="45.18361" lon="6.1249">
        <ele>2554</ele>
        <time>2025-02-09T11:19:23Z</time>
      </trkpt>
      <trkpt lat="45.18361" lon="6.1249">
        <ele>2554</ele>
        <time>2025-02-09T11:19:33Z</time>
      </trkpt>
      <trkpt lat="45.18361" lon="6.1249">
        <ele>2554</ele>
        <time>2025-02-09T11:19:43Z</time>
      </trkpt>
      <trkpt lat="45.18361" lon="6.1249">
        <ele>2554</ele>
        <time>2025-02-09T11:19:53Z</time>
      </trkpt>
      <trkpt lat="45.18361" lon="6.1249">
        <ele>2554</ele>
        <time>2025-02-09T11:20:03Z</time>
      </trkpt>
      <trkpt lat="45.18361" lon="6.1249">
        <ele>2554</ele>
        <time>2025-02-09T11:20:13Z</time>
      </trkpt>
      <trkpt lat="45.18361" lon="6.1249">
        <ele>2555</ele>
        <time>2025-02-09T11:20:23Z</time>
      </trkpt>
      <trkpt lat="45.18361" lon="6.1249">
        <ele>2555</ele>
        <time>2025-02-09T11:20:33Z</time>
      </trkpt>
      <trkpt lat="45.18361" lon="6.1249">
        <ele>2554</ele>
        <time>2025-02-09T11:20:43Z</time>
      </trkpt>
      <trkpt lat="45.18361" lon="6.1249">
        <ele>2554</ele>
        <time>2025-02-09T11:20:53Z</time>
      </trkpt>
      <trkpt lat="45.18361" lon="6.1249">
        <ele>2554</ele>
        <time>2025-02-09T11:21:03Z</time>
      </trkpt>
      <trkpt lat="45.18361" lon="6.1249">
        <ele>2554</ele>
        <time>2025-02-09T11:21:13Z</time>
      </trkpt>
      <trkpt lat="45.18361" lon="6.1249">
        <ele>2554</ele>
        <time>2025-02-09T11:21:23Z</time>
      </trkpt>
      <trkpt lat="45.18361" lon="6.1249">
        <ele>2554</ele>
        <time>2025-02-09T11:21:33Z</time>
      </trkpt>
      <trkpt lat="45.18361" lon="6.1249">
        <ele>2553</ele>
        <time>2025-02-09T11:21:43Z</time>
      </trkpt>
      <trkpt lat="45.18361" lon="6.1249">
        <ele>2555</ele>
        <time>2025-02-09T11:21:53Z</time>
      </trkpt>
      <trkpt lat="45.18361" lon="6.1249">
        <ele>2553</ele>
        <time>2025-02-09T11:22:03Z</time>
      </trkpt>
      <trkpt lat="45.18361" lon="6.1249">
        <ele>2555</ele>
        <time>2025-02-09T11:22:13Z</time>
      </trkpt>
      <trkpt lat="45.18361" lon="6.1249">
        <ele>2554</ele>
        <time>2025-02-09T11:22:23Z</time>
      </trkpt>
      <trkpt lat="45.18361" lon="6.1249">
        <ele>2554</ele>
        <time>2025-02-09T11:22:33Z</time>
      </trkpt>
      <trkpt lat="45.18361" lon="6.1249">
        <ele>2554</ele>
        <time>2025-02-09T11:22:43Z</time>
      </trkpt>
      <trkpt lat="45.18361" lon="6.1249">
        <ele>2553</ele>
        <time>2025-02-09T11:22:53Z</time>
      </trkpt>
      <trkpt lat="45.18361" lon="6.1249">
        <ele>2553</ele>
        <time>2025-02-09T11:23:03Z</time>
      </trkpt>
      <trkpt lat="45.18361" lon="6.1249">
        <ele>2554</ele>
        <time>2025-02-09T11:23:13Z</time>
      </trkpt>
      <trkpt lat="45.18361" lon="6.1249">
        <ele>2554</ele>
        <time>2025-02-09T11:23:23Z</time>
      </trkpt>
      <trkpt lat="45.18361" lon="6.1249">
        <ele>2554</ele>
        <time>2025-02-09T11:23:33Z</time>
      </trkpt>
      <trkpt lat="45.18361" lon="6.1249">
        <ele>2554</ele>
        <time>2025-02-09T11:23:43Z</time>
      </trkpt>
      <trkpt lat="45.18361" lon="6.1249">
        <ele>2554</ele>
        <time>2025-02-09T11:23:53Z</time>
      </trkpt>
      <trkpt lat="45.18361" lon="6.1249">
        <ele>2553</ele>
        <time>2025-02-09T11:24:03Z</time>
      </trkpt>
      <trkpt lat="45.18361" lon="6.1249">
        <ele>2553</ele>
        <time>2025-02-09T11:24:13Z</time>
      </trkpt>
      <trkpt lat="45.18361" lon="6.1249">
        <ele>2553</ele>
        <time>2025-02-09T11:24:23Z</time>
      </trkpt>
      <trkpt lat="45.18361" lon="6.1249">
        <ele>2553</ele>
        <time>2025-02-09T11:24:33Z</time>
      </trkpt>
      <trkpt lat="45.18361" lon="6.1249">
        <ele>2553</ele>
        <time>2025-02-09T11:24:43Z</time>
      </trkpt>
      <trkpt lat="45.18361" lon="6.1249">
        <ele>2554</ele>
        <time>2025-02-09T11:24:53Z</time>
      </trkpt>
      <trkpt lat="45.18361" lon="6.1249">
        <ele>2554</ele>
        <time>2025-02-09T11:25:03Z</time>
      </trkpt>
      <trkpt lat="45.18361" lon="6.1249">
        <ele>2554</ele>
        <time>2025-02-09T11:25:13Z</time>
      </trkpt>
      <trkpt lat="45.18361" lon="6.1249">
        <ele>2554</ele>
        <time>2025-02-09T11:25:23Z</time>
      </trkpt>
      <trkpt lat="45.18361" lon="6.1249">
        <ele>2554</ele>
        <time>2025-02-09T11:25:33Z</time>
      </trkpt>
      <trkpt lat="45.18361" lon="6.1249">
        <ele>2554</ele>
        <time>2025-02-09T11:25:43Z</time>
      </trkpt>
      <trkpt lat="45.18361" lon="6.1249">
        <ele>2554</ele>
        <time>2025-02-09T11:25:53Z</time>
      </trkpt>
      <trkpt lat="45.18361" lon="6.1249">
        <ele>2553</ele>
        <time>2025-02-09T11:26:03Z</time>
      </trkpt>
      <trkpt lat="45.18361" lon="6.1249">
        <ele>2553</ele>
        <time>2025-02-09T11:26:13Z</time>
      </trkpt>
      <trkpt lat="45.18361" lon="6.1249">
        <ele>2554</ele>
        <time>2025-02-09T11:26:23Z</time>
      </trkpt>
      <trkpt lat="45.18361" lon="6.1249">
        <ele>2554</ele>
        <time>2025-02-09T11:26:33Z</time>
      </trkpt>
      <trkpt lat="45.18361" lon="6.1249">
        <ele>2554</ele>
        <time>2025-02-09T11:26:43Z</time>
      </trkpt>
      <trkpt lat="45.18361" lon="6.1249">
        <ele>2554</ele>
        <time>2025-02-09T11:26:53Z</time>
      </trkpt>
      <trkpt lat="45.18361" lon="6.1249">
        <ele>2553</ele>
        <time>2025-02-09T11:27:03Z</time>
      </trkpt>
      <trkpt lat="45.18361" lon="6.1249">
        <ele>2553</ele>
        <time>2025-02-09T11:27:13Z</time>
      </trkpt>
      <trkpt lat="45.18361" lon="6.1249">
        <ele>2553</ele>
        <time>2025-02-09T11:27:23Z</time>
      </trkpt>
      <trkpt lat="45.18361" lon="6.1249">
        <ele>2553</ele>
        <time>2025-02-09T11:27:33Z</time>
      </trkpt>
      <trkpt lat="45.18361" lon="6.1249">
        <ele>2553</ele>
        <time>2025-02-09T11:27:43Z</time>
      </trkpt>
      <trkpt lat="45.18361" lon="6.1249">
        <ele>2554</ele>
        <time>2025-02-09T11:27:53Z</time>
      </trkpt>
      <trkpt lat="45.18361" lon="6.1249">
        <ele>2554</ele>
        <time>2025-02-09T11:28:03Z</time>
      </trkpt>
      <trkpt lat="45.18361" lon="6.1249">
        <ele>2554</ele>
        <time>2025-02-09T11:28:13Z</time>
      </trkpt>
      <trkpt lat="45.18361" lon="6.1249">
        <ele>2554</ele>
        <time>2025-02-09T11:28:23Z</time>
      </trkpt>
      <trkpt lat="45.18361" lon="6.1249">
        <ele>2554</ele>
        <time>2025-02-09T11:28:33Z</time>
      </trkpt>
      <trkpt lat="45.18361" lon="6.1249">
        <ele>2554</ele>
        <time>2025-02-09T11:28:43Z</time>
      </trkpt>
      <trkpt lat="45.18361" lon="6.1249">
        <ele>2554</ele>
        <time>2025-02-09T11:28:53Z</time>
      </trkpt>
      <trkpt lat="45.18361" lon="6.1249">
        <ele>2554</ele>
        <time>2025-02-09T11:29:03Z</time>
      </trkpt>
      <trkpt lat="45.18361" lon="6.1249">
        <ele>2554</ele>
        <time>2025-02-09T11:29:13Z</time>
      </trkpt>
      <trkpt lat="45.18361" lon="6.1249">
        <ele>2554</ele>
        <time>2025-02-09T11:29:23Z</time>
      </trkpt>
      <trkpt lat="45.18361" lon="6.1249">
        <ele>2554</ele>
        <time>2025-02-09T11:29:33Z</time>
      </trkpt>
      <trkpt lat="45.18361" lon="6.1249">
        <ele>2554</ele>
        <time>2025-02-09T11:29:43Z</time>
      </trkpt>
      <trkpt lat="45.18361" lon="6.1249">
        <ele>2554</ele>
        <time>2025-02-09T11:29:53Z</time>
      </trkpt>
      <trkpt lat="45.18361" lon="6.1249">
        <ele>2554</ele>
        <time>2025-02-09T11:30:03Z</time>
      </trkpt>
      <trkpt lat="45.18361" lon="6.1249">
        <ele>2554</ele>
        <time>2025-02-09T11:30:13Z</time>
      </trkpt>
      <trkpt lat="45.18361" lon="6.1249">
        <ele>2555</ele>
        <time>2025-02-09T11:30:23Z</time>
      </trkpt>
      <trkpt lat="45.18361" lon="6.1249">
        <ele>2555</ele>
        <time>2025-02-09T11:30:33Z</time>
      </trkpt>
      <trkpt lat="45.18361" lon="6.1249">
        <ele>2554</ele>
        <time>2025-02-09T11:30:43Z</time>
      </trkpt>
      <trkpt lat="45.18361" lon="6.1249">
        <ele>2554</ele>
        <time>2025-02-09T11:30:53Z</time>
      </trkpt>
      <trkpt lat="45.18361" lon="6.1249">
        <ele>2552</ele>
        <time>2025-02-09T11:31:03Z</time>
      </trkpt>
      <trkpt lat="45.18361" lon="6.1249">
        <ele>2553</ele>
        <time>2025-02-09T11:31:13Z</time>
      </trkpt>
      <trkpt lat="45.18361" lon="6.1249">
        <ele>2553</ele>
        <time>2025-02-09T11:31:23Z</time>
      </trkpt>
      <trkpt lat="45.18361" lon="6.1249">
        <ele>2553</ele>
        <time>2025-02-09T11:31:33Z</time>
      </trkpt>
      <trkpt lat="45.18361" lon="6.1249">
        <ele>2554</ele>
        <time>2025-02-09T11:31:43Z</time>
      </trkpt>
      <trkpt lat="45.18361" lon="6.1249">
        <ele>2554</ele>
        <time>2025-02-09T11:31:53Z</time>
      </trkpt>
      <trkpt lat="45.18361" lon="6.1249">
        <ele>2553</ele>
        <time>2025-02-09T11:32:03Z</time>
      </trkpt>
      <trkpt lat="45.18361" lon="6.1249">
        <ele>2553</ele>
        <time>2025-02-09T11:32:13Z</time>
      </trkpt>
      <trkpt lat="45.18361" lon="6.1249">
        <ele>2553</ele>
        <time>2025-02-09T11:32:23Z</time>
      </trkpt>
      <trkpt lat="45.18361" lon="6.1249">
        <ele>2553</ele>
        <time>2025-02-09T11:32:33Z</time>
      </trkpt>
      <trkpt lat="45.18361" lon="6.1249">
        <ele>2553</ele>
        <time>2025-02-09T11:32:43Z</time>
      </trkpt>
      <trkpt lat="45.18361" lon="6.1249">
        <ele>2553</ele>
        <time>2025-02-09T11:32:53Z</time>
      </trkpt>
      <trkpt lat="45.18361" lon="6.1249">
        <ele>2553</ele>
        <time>2025-02-09T11:33:03Z</time>
      </trkpt>
      <trkpt lat="45.18361" lon="6.1249">
        <ele>2553</ele>
        <time>2025-02-09T11:33:13Z</time>
      </trkpt>
      <trkpt lat="45.18361" lon="6.1249">
        <ele>2553</ele>
        <time>2025-02-09T11:33:23Z</time>
      </trkpt>
      <trkpt lat="45.18361" lon="6.1249">
        <ele>2552</ele>
        <time>2025-02-09T11:33:33Z</time>
      </trkpt>
      <trkpt lat="45.18361" lon="6.1249">
        <ele>2552</ele>
        <time>2025-02-09T11:33:43Z</time>
      </trkpt>
      <trkpt lat="45.18361" lon="6.1249">
        <ele>2553</ele>
        <time>2025-02-09T11:33:53Z</time>
      </trkpt>
      <trkpt lat="45.18361" lon="6.1249">
        <ele>2553</ele>
        <time>2025-02-09T11:34:03Z</time>
      </trkpt>
      <trkpt lat="45.18361" lon="6.1249">
        <ele>2553</ele>
        <time>2025-02-09T11:34:13Z</time>
      </trkpt>
      <trkpt lat="45.18361" lon="6.1249">
        <ele>2553</ele>
        <time>2025-02-09T11:34:23Z</time>
      </trkpt>
      <trkpt lat="45.18361" lon="6.1249">
        <ele>2553</ele>
        <time>2025-02-09T11:34:33Z</time>
      </trkpt>
      <trkpt lat="45.18361" lon="6.1249">
        <ele>2553</ele>
        <time>2025-02-09T11:34:43Z</time>
      </trkpt>
      <trkpt lat="45.18361" lon="6.1249">
        <ele>2553</ele>
        <time>2025-02-09T11:34:53Z</time>
      </trkpt>
      <trkpt lat="45.18361" lon="6.1249">
        <ele>2553</ele>
        <time>2025-02-09T11:35:03Z</time>
      </trkpt>
      <trkpt lat="45.18361" lon="6.1249">
        <ele>2554</ele>
        <time>2025-02-09T11:35:13Z</time>
      </trkpt>
      <trkpt lat="45.18361" lon="6.1249">
        <ele>2554</ele>
        <time>2025-02-09T11:35:23Z</time>
      </trkpt>
      <trkpt lat="45.18361" lon="6.1249">
        <ele>2554</ele>
        <time>2025-02-09T11:35:33Z</time>
      </trkpt>
      <trkpt lat="45.18361" lon="6.1249">
        <ele>2553</ele>
        <time>2025-02-09T11:35:43Z</time>
      </trkpt>
      <trkpt lat="45.18361" lon="6.1249">
        <ele>2553</ele>
        <time>2025-02-09T11:35:53Z</time>
      </trkpt>
      <trkpt lat="45.18361" lon="6.1249">
        <ele>2554</ele>
        <time>2025-02-09T11:36:03Z</time>
      </trkpt>
      <trkpt lat="45.18361" lon="6.1249">
        <ele>2553</ele>
        <time>2025-02-09T11:36:13Z</time>
      </trkpt>
      <trkpt lat="45.18361" lon="6.1249">
        <ele>2554</ele>
        <time>2025-02-09T11:36:23Z</time>
      </trkpt>
      <trkpt lat="45.18361" lon="6.1249">
        <ele>2554</ele>
        <time>2025-02-09T11:36:33Z</time>
      </trkpt>
      <trkpt lat="45.18361" lon="6.1249">
        <ele>2554</ele>
        <time>2025-02-09T11:36:43Z</time>
      </trkpt>
      <trkpt lat="45.18361" lon="6.1249">
        <ele>2554</ele>
        <time>2025-02-09T11:36:53Z</time>
      </trkpt>
      <trkpt lat="45.18361" lon="6.1249">
        <ele>2554</ele>
        <time>2025-02-09T11:37:03Z</time>
      </trkpt>
      <trkpt lat="45.18361" lon="6.1249">
        <ele>2554</ele>
        <time>2025-02-09T11:37:13Z</time>
      </trkpt>
      <trkpt lat="45.18361" lon="6.1249">
        <ele>2554</ele>
        <time>2025-02-09T11:37:23Z</time>
      </trkpt>
      <trkpt lat="45.18361" lon="6.1249">
        <ele>2554</ele>
        <time>2025-02-09T11:37:33Z</time>
      </trkpt>
      <trkpt lat="45.18361" lon="6.1249">
        <ele>2554</ele>
        <time>2025-02-09T11:37:43Z</time>
      </trkpt>
      <trkpt lat="45.18361" lon="6.1249">
        <ele>2554</ele>
        <time>2025-02-09T11:37:53Z</time>
      </trkpt>
      <trkpt lat="45.18361" lon="6.1249">
        <ele>2552</ele>
        <time>2025-02-09T11:38:03Z</time>
      </trkpt>
      <trkpt lat="45.18361" lon="6.1249">
        <ele>2553</ele>
        <time>2025-02-09T11:38:13Z</time>
      </trkpt>
      <trkpt lat="45.18361" lon="6.1249">
        <ele>2553</ele>
        <time>2025-02-09T11:38:23Z</time>
      </trkpt>
      <trkpt lat="45.18361" lon="6.1249">
        <ele>2553</ele>
        <time>2025-02-09T11:38:33Z</time>
      </trkpt>
      <trkpt lat="45.18361" lon="6.1249">
        <ele>2553</ele>
        <time>2025-02-09T11:38:43Z</time>
      </trkpt>
      <trkpt lat="45.18361" lon="6.1249">
        <ele>2552</ele>
        <time>2025-02-09T11:38:53Z</time>
      </trkpt>
      <trkpt lat="45.18361" lon="6.1249">
        <ele>2551</ele>
        <time>2025-02-09T11:39:03Z</time>
      </trkpt>
      <trkpt lat="45.18361" lon="6.1249">
        <ele>2552</ele>
        <time>2025-02-09T11:39:13Z</time>
      </trkpt>
      <trkpt lat="45.18361" lon="6.1249">
        <ele>2553</ele>
        <time>2025-02-09T11:39:23Z</time>
      </trkpt>
      <trkpt lat="45.18361" lon="6.1249">
        <ele>2553</ele>
        <time>2025-02-09T11:39:33Z</time>
      </trkpt>
      <trkpt lat="45.18361" lon="6.1249">
        <ele>2553</ele>
        <time>2025-02-09T11:39:43Z</time>
      </trkpt>
      <trkpt lat="45.18361" lon="6.1249">
        <ele>2552</ele>
        <time>2025-02-09T11:39:53Z</time>
      </trkpt>
      <trkpt lat="45.18361" lon="6.1249">
        <ele>2552</ele>
        <time>2025-02-09T11:40:03Z</time>
      </trkpt>
      <trkpt lat="45.18361" lon="6.1249">
        <ele>2553</ele>
        <time>2025-02-09T11:40:13Z</time>
      </trkpt>
      <trkpt lat="45.18361" lon="6.1249">
        <ele>2552</ele>
        <time>2025-02-09T11:40:23Z</time>
      </trkpt>
      <trkpt lat="45.18361" lon="6.1249">
        <ele>2552</ele>
        <time>2025-02-09T11:40:33Z</time>
      </trkpt>
      <trkpt lat="45.18361" lon="6.1249">
        <ele>2552</ele>
        <time>2025-02-09T11:40:43Z</time>
      </trkpt>
      <trkpt lat="45.18361" lon="6.1249">
        <ele>2553</ele>
        <time>2025-02-09T11:40:53Z</time>
      </trkpt>
      <trkpt lat="45.18361" lon="6.1249">
        <ele>2552</ele>
        <time>2025-02-09T11:41:03Z</time>
      </trkpt>
      <trkpt lat="45.18361" lon="6.1249">
        <ele>2553</ele>
        <time>2025-02-09T11:41:13Z</time>
      </trkpt>
      <trkpt lat="45.18361" lon="6.1249">
        <ele>2553</ele>
        <time>2025-02-09T11:41:23Z</time>
      </trkpt>
      <trkpt lat="45.18361" lon="6.1249">
        <ele>2552</ele>
        <time>2025-02-09T11:41:33Z</time>
      </trkpt>
      <trkpt lat="45.18361" lon="6.1249">
        <ele>2553</ele>
        <time>2025-02-09T11:41:43Z</time>
      </trkpt>
      <trkpt lat="45.18361" lon="6.1249">
        <ele>2553</ele>
        <time>2025-02-09T11:41:53Z</time>
      </trkpt>
      <trkpt lat="45.18361" lon="6.1249">
        <ele>2553</ele>
        <time>2025-02-09T11:42:03Z</time>
      </trkpt>
      <trkpt lat="45.18361" lon="6.1249">
        <ele>2553</ele>
        <time>2025-02-09T11:42:13Z</time>
      </trkpt>
      <trkpt lat="45.18361" lon="6.1249">
        <ele>2553</ele>
        <time>2025-02-09T11:42:23Z</time>
      </trkpt>
      <trkpt lat="45.18361" lon="6.1249">
        <ele>2553</ele>
        <time>2025-02-09T11:42:33Z</time>
      </trkpt>
      <trkpt lat="45.18361" lon="6.1249">
        <ele>2553</ele>
        <time>2025-02-09T11:42:43Z</time>
      </trkpt>
      <trkpt lat="45.18361" lon="6.1249">
        <ele>2553</ele>
        <time>2025-02-09T11:42:53Z</time>
      </trkpt>
      <trkpt lat="45.18361" lon="6.1249">
        <ele>2552</ele>
        <time>2025-02-09T11:43:03Z</time>
      </trkpt>
      <trkpt lat="45.18361" lon="6.1249">
        <ele>2554</ele>
        <time>2025-02-09T11:43:13Z</time>
      </trkpt>
      <trkpt lat="45.18361" lon="6.1249">
        <ele>2553</ele>
        <time>2025-02-09T11:43:23Z</time>
      </trkpt>
      <trkpt lat="45.18361" lon="6.1249">
        <ele>2553</ele>
        <time>2025-02-09T11:43:33Z</time>
      </trkpt>
      <trkpt lat="45.18361" lon="6.1249">
        <ele>2553</ele>
        <time>2025-02-09T11:43:43Z</time>
      </trkpt>
      <trkpt lat="45.18361" lon="6.1249">
        <ele>2554</ele>
        <time>2025-02-09T11:43:53Z</time>
      </trkpt>
      <trkpt lat="45.18361" lon="6.1249">
        <ele>2553</ele>
        <time>2025-02-09T11:44:03Z</time>
      </trkpt>
      <trkpt lat="45.18361" lon="6.1249">
        <ele>2554</ele>
        <time>2025-02-09T11:44:13Z</time>
      </trkpt>
      <trkpt lat="45.18361" lon="6.1249">
        <ele>2554</ele>
        <time>2025-02-09T11:44:23Z</time>
      </trkpt>
      <trkpt lat="45.18361" lon="6.1249">
        <ele>2553</ele>
        <time>2025-02-09T11:44:33Z</time>
      </trkpt>
      <trkpt lat="45.18369" lon="6.12479">
        <ele>2553</ele>
        <time>2025-02-09T11:44:36Z</time>
      </trkpt>
      <trkpt lat="45.18369" lon="6.12466">
        <ele>2553</ele>
        <time>2025-02-09T11:44:40Z</time>
      </trkpt>
      <trkpt lat="45.18369" lon="6.12466">
        <ele>2551</ele>
        <time>2025-02-09T11:44:43Z</time>
      </trkpt>
      <trkpt lat="45.18377" lon="6.12457">
        <ele>2551</ele>
        <time>2025-02-09T11:44:49Z</time>
      </trkpt>
      <trkpt lat="45.18377" lon="6.12457">
        <ele>2548</ele>
        <time>2025-02-09T11:44:53Z</time>
      </trkpt>
      <trkpt lat="45.18388" lon="6.12448">
        <ele>2548</ele>
        <time>2025-02-09T11:44:54Z</time>
      </trkpt>
      <trkpt lat="45.18396" lon="6.12441">
        <ele>2548</ele>
        <time>2025-02-09T11:44:56Z</time>
      </trkpt>
      <trkpt lat="45.18404" lon="6.12439">
        <ele>2548</ele>
        <time>2025-02-09T11:45:00Z</time>
      </trkpt>
      <trkpt lat="45.18402" lon="6.12419">
        <ele>2534</ele>
        <time>2025-02-09T11:45:03Z</time>
      </trkpt>
      <trkpt lat="45.18405" lon="6.12405">
        <ele>2534</ele>
        <time>2025-02-09T11:45:06Z</time>
      </trkpt>
      <trkpt lat="45.18408" lon="6.12406">
        <ele>2534</ele>
        <time>2025-02-09T11:45:11Z</time>
      </trkpt>
      <trkpt lat="45.18411" lon="6.12406">
        <ele>2528</ele>
        <time>2025-02-09T11:45:13Z</time>
      </trkpt>
      <trkpt lat="45.18408" lon="6.12391">
        <ele>2528</ele>
        <time>2025-02-09T11:45:16Z</time>
      </trkpt>
      <trkpt lat="45.18412" lon="6.12379">
        <ele>2528</ele>
        <time>2025-02-09T11:45:20Z</time>
      </trkpt>
      <trkpt lat="45.18421" lon="6.12383">
        <ele>2521</ele>
        <time>2025-02-09T11:45:23Z</time>
      </trkpt>
      <trkpt lat="45.1843" lon="6.12369">
        <ele>2521</ele>
        <time>2025-02-09T11:45:27Z</time>
      </trkpt>
      <trkpt lat="45.18431" lon="6.12364">
        <ele>2521</ele>
        <time>2025-02-09T11:45:31Z</time>
      </trkpt>
      <trkpt lat="45.18432" lon="6.12359">
        <ele>2513</ele>
        <time>2025-02-09T11:45:33Z</time>
      </trkpt>
      <trkpt lat="45.18444" lon="6.12352">
        <ele>2513</ele>
        <time>2025-02-09T11:45:35Z</time>
      </trkpt>
      <trkpt lat="45.18445" lon="6.12345">
        <ele>2513</ele>
        <time>2025-02-09T11:45:39Z</time>
      </trkpt>
      <trkpt lat="45.18447" lon="6.12338">
        <ele>2513</ele>
        <time>2025-02-09T11:45:42Z</time>
      </trkpt>
      <trkpt lat="45.18449" lon="6.12331">
        <ele>2503</ele>
        <time>2025-02-09T11:45:43Z</time>
      </trkpt>
      <trkpt lat="45.18453" lon="6.12312">
        <ele>2503</ele>
        <time>2025-02-09T11:45:45Z</time>
      </trkpt>
      <trkpt lat="45.18454" lon="6.123">
        <ele>2503</ele>
        <time>2025-02-09T11:45:48Z</time>
      </trkpt>
      <trkpt lat="45.18456" lon="6.12288">
        <ele>2503</ele>
        <time>2025-02-09T11:45:51Z</time>
      </trkpt>
      <trkpt lat="45.18457" lon="6.12276">
        <ele>2493</ele>
        <time>2025-02-09T11:45:53Z</time>
      </trkpt>
      <trkpt lat="45.18453" lon="6.12256">
        <ele>2493</ele>
        <time>2025-02-09T11:45:54Z</time>
      </trkpt>
      <trkpt lat="45.18451" lon="6.12246">
        <ele>2493</ele>
        <time>2025-02-09T11:45:56Z</time>
      </trkpt>
      <trkpt lat="45.18448" lon="6.12236">
        <ele>2493</ele>
        <time>2025-02-09T11:45:59Z</time>
      </trkpt>
      <trkpt lat="45.18446" lon="6.12226">
        <ele>2493</ele>
        <time>2025-02-09T11:46:03Z</time>
      </trkpt>
      <trkpt lat="45.18444" lon="6.12216">
        <ele>2489</ele>
        <time>2025-02-09T11:46:04Z</time>
      </trkpt>
      <trkpt lat="45.18439" lon="6.12209">
        <ele>2489</ele>
        <time>2025-02-09T11:46:05Z</time>
      </trkpt>
      <trkpt lat="45.18437" lon="6.12208">
        <ele>2485</ele>
        <time>2025-02-09T11:46:13Z</time>
      </trkpt>
      <trkpt lat="45.18435" lon="6.12207">
        <ele>2484</ele>
        <time>2025-02-09T11:46:23Z</time>
      </trkpt>
      <trkpt lat="45.18433" lon="6.12206">
        <ele>2484</ele>
        <time>2025-02-09T11:46:32Z</time>
      </trkpt>
      <trkpt lat="45.18432" lon="6.12205">
        <ele>2484</ele>
        <time>2025-02-09T11:46:33Z</time>
      </trkpt>
      <trkpt lat="45.18432" lon="6.12205">
        <ele>2484</ele>
        <time>2025-02-09T11:46:43Z</time>
      </trkpt>
      <trkpt lat="45.18432" lon="6.12205">
        <ele>2484</ele>
        <time>2025-02-09T11:46:53Z</time>
      </trkpt>
      <trkpt lat="45.18432" lon="6.12205">
        <ele>2482</ele>
        <time>2025-02-09T11:47:03Z</time>
      </trkpt>
      <trkpt lat="45.18432" lon="6.12205">
        <ele>2482</ele>
        <time>2025-02-09T11:47:13Z</time>
      </trkpt>
      <trkpt lat="45.18432" lon="6.12205">
        <ele>2483</ele>
        <time>2025-02-09T11:47:23Z</time>
      </trkpt>
      <trkpt lat="45.18436" lon="6.1219">
        <ele>2483</ele>
        <time>2025-02-09T11:47:31Z</time>
      </trkpt>
      <trkpt lat="45.18436" lon="6.1219">
        <ele>2478</ele>
        <time>2025-02-09T11:47:33Z</time>
      </trkpt>
      <trkpt lat="45.18431" lon="6.12178">
        <ele>2478</ele>
        <time>2025-02-09T11:47:36Z</time>
      </trkpt>
      <trkpt lat="45.18437" lon="6.12166">
        <ele>2470</ele>
        <time>2025-02-09T11:47:43Z</time>
      </trkpt>
      <trkpt lat="45.18431" lon="6.1215">
        <ele>2470</ele>
        <time>2025-02-09T11:47:46Z</time>
      </trkpt>
      <trkpt lat="45.18428" lon="6.12147">
        <ele>2470</ele>
        <time>2025-02-09T11:47:51Z</time>
      </trkpt>
      <trkpt lat="45.18426" lon="6.12143">
        <ele>2464</ele>
        <time>2025-02-09T11:47:53Z</time>
      </trkpt>
      <trkpt lat="45.18426" lon="6.12125">
        <ele>2464</ele>
        <time>2025-02-09T11:47:57Z</time>
      </trkpt>
      <trkpt lat="45.18428" lon="6.1212">
        <ele>2457</ele>
        <time>2025-02-09T11:48:03Z</time>
      </trkpt>
      <trkpt lat="45.1843" lon="6.12114">
        <ele>2457</ele>
        <time>2025-02-09T11:48:07Z</time>
      </trkpt>
      <trkpt lat="45.18432" lon="6.12109">
        <ele>2457</ele>
        <time>2025-02-09T11:48:12Z</time>
      </trkpt>
      <trkpt lat="45.18434" lon="6.12104">
        <ele>2448</ele>
        <time>2025-02-09T11:48:13Z</time>
      </trkpt>
      <trkpt lat="45.18432" lon="6.12094">
        <ele>2448</ele>
        <time>2025-02-09T11:48:16Z</time>
      </trkpt>
      <trkpt lat="45.18426" lon="6.12081">
        <ele>2448</ele>
        <time>2025-02-09T11:48:20Z</time>
      </trkpt>
      <trkpt lat="45.18426" lon="6.12081">
        <ele>2440</ele>
        <time>2025-02-09T11:48:23Z</time>
      </trkpt>
      <trkpt lat="45.18435" lon="6.12075">
        <ele>2440</ele>
        <time>2025-02-09T11:48:26Z</time>
      </trkpt>
      <trkpt lat="45.18435" lon="6.12075">
        <ele>2434</ele>
        <time>2025-02-09T11:48:33Z</time>
      </trkpt>
      <trkpt lat="45.18443" lon="6.12065">
        <ele>2434</ele>
        <time>2025-02-09T11:48:36Z</time>
      </trkpt>
      <trkpt lat="45.18452" lon="6.12064">
        <ele>2434</ele>
        <time>2025-02-09T11:48:40Z</time>
      </trkpt>
      <trkpt lat="45.18452" lon="6.12064">
        <ele>2427</ele>
        <time>2025-02-09T11:48:43Z</time>
      </trkpt>
      <trkpt lat="45.18452" lon="6.1205">
        <ele>2427</ele>
        <time>2025-02-09T11:48:45Z</time>
      </trkpt>
      <trkpt lat="45.18461" lon="6.12049">
        <ele>2427</ele>
        <time>2025-02-09T11:48:50Z</time>
      </trkpt>
      <trkpt lat="45.18461" lon="6.12049">
        <ele>2418</ele>
        <time>2025-02-09T11:48:53Z</time>
      </trkpt>
      <trkpt lat="45.1845" lon="6.12032">
        <ele>2416</ele>
        <time>2025-02-09T11:49:03Z</time>
      </trkpt>
      <trkpt lat="45.18446" lon="6.12024">
        <ele>2416</ele>
        <time>2025-02-09T11:49:06Z</time>
      </trkpt>
      <trkpt lat="45.18442" lon="6.12016">
        <ele>2416</ele>
        <time>2025-02-09T11:49:09Z</time>
      </trkpt>
      <trkpt lat="45.18438" lon="6.12009">
        <ele>2416</ele>
        <time>2025-02-09T11:49:11Z</time>
      </trkpt>
      <trkpt lat="45.18435" lon="6.12001">
        <ele>2405</ele>
        <time>2025-02-09T11:49:13Z</time>
      </trkpt>
      <trkpt lat="45.18428" lon="6.11986">
        <ele>2405</ele>
        <time>2025-02-09T11:49:14Z</time>
      </trkpt>
      <trkpt lat="45.18421" lon="6.11975">
        <ele>2405</ele>
        <time>2025-02-09T11:49:17Z</time>
      </trkpt>
      <trkpt lat="45.18421" lon="6.11975">
        <ele>2401</ele>
        <time>2025-02-09T11:49:23Z</time>
      </trkpt>
      <trkpt lat="45.18422" lon="6.11973">
        <ele>2401</ele>
        <time>2025-02-09T11:49:33Z</time>
      </trkpt>
      <trkpt lat="45.18423" lon="6.11971">
        <ele>2401</ele>
        <time>2025-02-09T11:49:43Z</time>
      </trkpt>
      <trkpt lat="45.18424" lon="6.11969">
        <ele>2399</ele>
        <time>2025-02-09T11:49:53Z</time>
      </trkpt>
      <trkpt lat="45.18425" lon="6.11967">
        <ele>2399</ele>
        <time>2025-02-09T11:50:02Z</time>
      </trkpt>
      <trkpt lat="45.18426" lon="6.11964">
        <ele>2391</ele>
        <time>2025-02-09T11:50:03Z</time>
      </trkpt>
      <trkpt lat="45.18424" lon="6.11948">
        <ele>2391</ele>
        <time>2025-02-09T11:50:10Z</time>
      </trkpt>
      <trkpt lat="45.18424" lon="6.11948">
        <ele>2383</ele>
        <time>2025-02-09T11:50:13Z</time>
      </trkpt>
      <trkpt lat="45.18414" lon="6.11933">
        <ele>2383</ele>
        <time>2025-02-09T11:50:14Z</time>
      </trkpt>
      <trkpt lat="45.18412" lon="6.11929">
        <ele>2383</ele>
        <time>2025-02-09T11:50:21Z</time>
      </trkpt>
      <trkpt lat="45.1841" lon="6.11925">
        <ele>2382</ele>
        <time>2025-02-09T11:50:23Z</time>
      </trkpt>
      <trkpt lat="45.18398" lon="6.11906">
        <ele>2382</ele>
        <time>2025-02-09T11:50:26Z</time>
      </trkpt>
      <trkpt lat="45.18394" lon="6.11899">
        <ele>2382</ele>
        <time>2025-02-09T11:50:29Z</time>
      </trkpt>
      <trkpt lat="45.1839" lon="6.11892">
        <ele>2382</ele>
        <time>2025-02-09T11:50:32Z</time>
      </trkpt>
      <trkpt lat="45.18386" lon="6.11885">
        <ele>2376</ele>
        <time>2025-02-09T11:50:33Z</time>
      </trkpt>
      <trkpt lat="45.18377" lon="6.11871">
        <ele>2376</ele>
        <time>2025-02-09T11:50:35Z</time>
      </trkpt>
      <trkpt lat="45.18374" lon="6.11864">
        <ele>2376</ele>
        <time>2025-02-09T11:50:39Z</time>
      </trkpt>
      <trkpt lat="45.1837" lon="6.11858">
        <ele>2376</ele>
        <time>2025-02-09T11:50:42Z</time>
      </trkpt>
      <trkpt lat="45.18366" lon="6.11852">
        <ele>2374</ele>
        <time>2025-02-09T11:50:43Z</time>
      </trkpt>
      <trkpt lat="45.18361" lon="6.1183">
        <ele>2374</ele>
        <time>2025-02-09T11:50:47Z</time>
      </trkpt>
      <trkpt lat="45.18362" lon="6.1182">
        <ele>2374</ele>
        <time>2025-02-09T11:50:50Z</time>
      </trkpt>
      <trkpt lat="45.18362" lon="6.11809">
        <ele>2374</ele>
        <time>2025-02-09T11:50:52Z</time>
      </trkpt>
      <trkpt lat="45.18363" lon="6.11798">
        <ele>2369</ele>
        <time>2025-02-09T11:50:53Z</time>
      </trkpt>
      <trkpt lat="45.18367" lon="6.11785">
        <ele>2369</ele>
        <time>2025-02-09T11:50:55Z</time>
      </trkpt>
      <trkpt lat="45.18367" lon="6.11781">
        <ele>2368</ele>
        <time>2025-02-09T11:51:03Z</time>
      </trkpt>
      <trkpt lat="45.18368" lon="6.11778">
        <ele>2368</ele>
        <time>2025-02-09T11:51:12Z</time>
      </trkpt>
      <trkpt lat="45.18369" lon="6.11775">
        <ele>2371</ele>
        <time>2025-02-09T11:51:13Z</time>
      </trkpt>
      <trkpt lat="45.18369" lon="6.11775">
        <ele>2371</ele>
        <time>2025-02-09T11:51:23Z</time>
      </trkpt>
      <trkpt lat="45.18369" lon="6.11775">
        <ele>2371</ele>
        <time>2025-02-09T11:51:33Z</time>
      </trkpt>
      <trkpt lat="45.18369" lon="6.11775">
        <ele>2371</ele>
        <time>2025-02-09T11:51:43Z</time>
      </trkpt>
      <trkpt lat="45.18369" lon="6.11775">
        <ele>2371</ele>
        <time>2025-02-09T11:51:53Z</time>
      </trkpt>
      <trkpt lat="45.18369" lon="6.11775">
        <ele>2371</ele>
        <time>2025-02-09T11:52:03Z</time>
      </trkpt>
      <trkpt lat="45.18369" lon="6.11775">
        <ele>2371</ele>
        <time>2025-02-09T11:52:13Z</time>
      </trkpt>
      <trkpt lat="45.1837" lon="6.11762">
        <ele>2371</ele>
        <time>2025-02-09T11:52:20Z</time>
      </trkpt>
      <trkpt lat="45.1837" lon="6.11762">
        <ele>2371</ele>
        <time>2025-02-09T11:52:23Z</time>
      </trkpt>
      <trkpt lat="45.18378" lon="6.11746">
        <ele>2371</ele>
        <time>2025-02-09T11:52:26Z</time>
      </trkpt>
      <trkpt lat="45.1838" lon="6.11742">
        <ele>2371</ele>
        <time>2025-02-09T11:52:31Z</time>
      </trkpt>
      <trkpt lat="45.18382" lon="6.11738">
        <ele>2371</ele>
        <time>2025-02-09T11:52:33Z</time>
      </trkpt>
      <trkpt lat="45.18393" lon="6.11718">
        <ele>2371</ele>
        <time>2025-02-09T11:52:36Z</time>
      </trkpt>
      <trkpt lat="45.18397" lon="6.11708">
        <ele>2371</ele>
        <time>2025-02-09T11:52:39Z</time>
      </trkpt>
      <trkpt lat="45.18401" lon="6.11699">
        <ele>2371</ele>
        <time>2025-02-09T11:52:41Z</time>
      </trkpt>
      <trkpt lat="45.18406" lon="6.11689">
        <ele>2367</ele>
        <time>2025-02-09T11:52:43Z</time>
      </trkpt>
      <trkpt lat="45.18419" lon="6.11666">
        <ele>2367</ele>
        <time>2025-02-09T11:52:45Z</time>
      </trkpt>
      <trkpt lat="45.18426" lon="6.11655">
        <ele>2367</ele>
        <time>2025-02-09T11:52:47Z</time>
      </trkpt>
      <trkpt lat="45.18432" lon="6.11644">
        <ele>2367</ele>
        <time>2025-02-09T11:52:49Z</time>
      </trkpt>
      <trkpt lat="45.18439" lon="6.11634">
        <ele>2367</ele>
        <time>2025-02-09T11:52:51Z</time>
      </trkpt>
      <trkpt lat="45.18446" lon="6.11623">
        <ele>2360</ele>
        <time>2025-02-09T11:52:53Z</time>
      </trkpt>
      <trkpt lat="45.18456" lon="6.11602">
        <ele>2360</ele>
        <time>2025-02-09T11:52:55Z</time>
      </trkpt>
      <trkpt lat="45.18458" lon="6.11594">
        <ele>2360</ele>
        <time>2025-02-09T11:52:57Z</time>
      </trkpt>
      <trkpt lat="45.1846" lon="6.11586">
        <ele>2360</ele>
        <time>2025-02-09T11:52:59Z</time>
      </trkpt>
      <trkpt lat="45.18461" lon="6.11578">
        <ele>2360</ele>
        <time>2025-02-09T11:53:02Z</time>
      </trkpt>
      <trkpt lat="45.18463" lon="6.1157">
        <ele>2356</ele>
        <time>2025-02-09T11:53:03Z</time>
      </trkpt>
      <trkpt lat="45.18463" lon="6.11567">
        <ele>2356</ele>
        <time>2025-02-09T11:53:13Z</time>
      </trkpt>
      <trkpt lat="45.18462" lon="6.11564">
        <ele>2356</ele>
        <time>2025-02-09T11:53:23Z</time>
      </trkpt>
      <trkpt lat="45.18462" lon="6.1156">
        <ele>2355</ele>
        <time>2025-02-09T11:53:33Z</time>
      </trkpt>
      <trkpt lat="45.18461" lon="6.11557">
        <ele>2356</ele>
        <time>2025-02-09T11:53:43Z</time>
      </trkpt>
      <trkpt lat="45.18461" lon="6.11553">
        <ele>2356</ele>
        <time>2025-02-09T11:53:53Z</time>
      </trkpt>
      <trkpt lat="45.18461" lon="6.1155">
        <ele>2356</ele>
        <time>2025-02-09T11:54:03Z</time>
      </trkpt>
      <trkpt lat="45.1846" lon="6.11547">
        <ele>2356</ele>
        <time>2025-02-09T11:54:13Z</time>
      </trkpt>
      <trkpt lat="45.1846" lon="6.11543">
        <ele>2356</ele>
        <time>2025-02-09T11:54:23Z</time>
      </trkpt>
      <trkpt lat="45.18459" lon="6.1154">
        <ele>2355</ele>
        <time>2025-02-09T11:54:33Z</time>
      </trkpt>
      <trkpt lat="45.18459" lon="6.11537">
        <ele>2355</ele>
        <time>2025-02-09T11:54:35Z</time>
      </trkpt>
      <trkpt lat="45.18458" lon="6.11533">
        <ele>2355</ele>
        <time>2025-02-09T11:54:38Z</time>
      </trkpt>
      <trkpt lat="45.18458" lon="6.1153">
        <ele>2355</ele>
        <time>2025-02-09T11:54:41Z</time>
      </trkpt>
      <trkpt lat="45.18457" lon="6.11526">
        <ele>2353</ele>
        <time>2025-02-09T11:54:43Z</time>
      </trkpt>
      <trkpt lat="45.18457" lon="6.115">
        <ele>2353</ele>
        <time>2025-02-09T11:54:45Z</time>
      </trkpt>
      <trkpt lat="45.18457" lon="6.11488">
        <ele>2353</ele>
        <time>2025-02-09T11:54:49Z</time>
      </trkpt>
      <trkpt lat="45.18457" lon="6.11477">
        <ele>2353</ele>
        <time>2025-02-09T11:54:50Z</time>
      </trkpt>
      <trkpt lat="45.18457" lon="6.11465">
        <ele>2353</ele>
        <time>2025-02-09T11:54:52Z</time>
      </trkpt>
      <trkpt lat="45.18457" lon="6.11454">
        <ele>2345</ele>
        <time>2025-02-09T11:54:53Z</time>
      </trkpt>
      <trkpt lat="45.1846" lon="6.11439">
        <ele>2345</ele>
        <time>2025-02-09T11:54:54Z</time>
      </trkpt>
      <trkpt lat="45.18462" lon="6.11432">
        <ele>2345</ele>
        <time>2025-02-09T11:54:56Z</time>
      </trkpt>
      <trkpt lat="45.18463" lon="6.11425">
        <ele>2345</ele>
        <time>2025-02-09T11:55:01Z</time>
      </trkpt>
      <trkpt lat="45.18465" lon="6.11418">
        <ele>2340</ele>
        <time>2025-02-09T11:55:03Z</time>
      </trkpt>
      <trkpt lat="45.18466" lon="6.11397">
        <ele>2340</ele>
        <time>2025-02-09T11:55:04Z</time>
      </trkpt>
      <trkpt lat="45.18467" lon="6.1139">
        <ele>2340</ele>
        <time>2025-02-09T11:55:07Z</time>
      </trkpt>
      <trkpt lat="45.18468" lon="6.11383">
        <ele>2340</ele>
        <time>2025-02-09T11:55:11Z</time>
      </trkpt>
      <trkpt lat="45.18469" lon="6.11376">
        <ele>2333</ele>
        <time>2025-02-09T11:55:13Z</time>
      </trkpt>
      <trkpt lat="45.18484" lon="6.11355">
        <ele>2333</ele>
        <time>2025-02-09T11:55:15Z</time>
      </trkpt>
      <trkpt lat="45.18491" lon="6.11345">
        <ele>2333</ele>
        <time>2025-02-09T11:55:19Z</time>
      </trkpt>
      <trkpt lat="45.18499" lon="6.11336">
        <ele>2333</ele>
        <time>2025-02-09T11:55:21Z</time>
      </trkpt>
      <trkpt lat="45.18506" lon="6.11326">
        <ele>2320</ele>
        <time>2025-02-09T11:55:23Z</time>
      </trkpt>
      <trkpt lat="45.18523" lon="6.11312">
        <ele>2320</ele>
        <time>2025-02-09T11:55:25Z</time>
      </trkpt>
      <trkpt lat="45.18529" lon="6.11309">
        <ele>2320</ele>
        <time>2025-02-09T11:55:27Z</time>
      </trkpt>
      <trkpt lat="45.18536" lon="6.11305">
        <ele>2320</ele>
        <time>2025-02-09T11:55:29Z</time>
      </trkpt>
      <trkpt lat="45.18543" lon="6.11302">
        <ele>2320</ele>
        <time>2025-02-09T11:55:32Z</time>
      </trkpt>
      <trkpt lat="45.18549" lon="6.11298">
        <ele>2312</ele>
        <time>2025-02-09T11:55:33Z</time>
      </trkpt>
      <trkpt lat="45.18558" lon="6.11291">
        <ele>2312</ele>
        <time>2025-02-09T11:55:34Z</time>
      </trkpt>
      <trkpt lat="45.18562" lon="6.11286">
        <ele>2312</ele>
        <time>2025-02-09T11:55:38Z</time>
      </trkpt>
      <trkpt lat="45.18565" lon="6.11281">
        <ele>2312</ele>
        <time>2025-02-09T11:55:41Z</time>
      </trkpt>
      <trkpt lat="45.18569" lon="6.11276">
        <ele>2305</ele>
        <time>2025-02-09T11:55:43Z</time>
      </trkpt>
      <trkpt lat="45.18577" lon="6.11262">
        <ele>2305</ele>
        <time>2025-02-09T11:55:45Z</time>
      </trkpt>
      <trkpt lat="45.18583" lon="6.11251">
        <ele>2305</ele>
        <time>2025-02-09T11:55:49Z</time>
      </trkpt>
      <trkpt lat="45.18583" lon="6.11251">
        <ele>2301</ele>
        <time>2025-02-09T11:55:53Z</time>
      </trkpt>
      <trkpt lat="45.18583" lon="6.11251">
        <ele>2298</ele>
        <time>2025-02-09T11:56:03Z</time>
      </trkpt>
      <trkpt lat="45.18593" lon="6.11255">
        <ele>2298</ele>
        <time>2025-02-09T11:56:04Z</time>
      </trkpt>
      <trkpt lat="45.18599" lon="6.11244">
        <ele>2298</ele>
        <time>2025-02-09T11:56:08Z</time>
      </trkpt>
      <trkpt lat="45.18602" lon="6.11232">
        <ele>2290</ele>
        <time>2025-02-09T11:56:13Z</time>
      </trkpt>
      <trkpt lat="45.1861" lon="6.11224">
        <ele>2290</ele>
        <time>2025-02-09T11:56:16Z</time>
      </trkpt>
      <trkpt lat="45.18619" lon="6.11223">
        <ele>2290</ele>
        <time>2025-02-09T11:56:19Z</time>
      </trkpt>
      <trkpt lat="45.18619" lon="6.11223">
        <ele>2288</ele>
        <time>2025-02-09T11:56:23Z</time>
      </trkpt>
      <trkpt lat="45.18611" lon="6.11213">
        <ele>2288</ele>
        <time>2025-02-09T11:56:31Z</time>
      </trkpt>
      <trkpt lat="45.18611" lon="6.11213">
        <ele>2286</ele>
        <time>2025-02-09T11:56:33Z</time>
      </trkpt>
      <trkpt lat="45.18604" lon="6.11206">
        <ele>2286</ele>
        <time>2025-02-09T11:56:42Z</time>
      </trkpt>
      <trkpt lat="45.18604" lon="6.11206">
        <ele>2285</ele>
        <time>2025-02-09T11:56:43Z</time>
      </trkpt>
      <trkpt lat="45.18604" lon="6.11206">
        <ele>2285</ele>
        <time>2025-02-09T11:56:53Z</time>
      </trkpt>
      <trkpt lat="45.18604" lon="6.11206">
        <ele>2285</ele>
        <time>2025-02-09T11:57:03Z</time>
      </trkpt>
      <trkpt lat="45.18604" lon="6.11206">
        <ele>2285</ele>
        <time>2025-02-09T11:57:13Z</time>
      </trkpt>
      <trkpt lat="45.18604" lon="6.11206">
        <ele>2285</ele>
        <time>2025-02-09T11:57:23Z</time>
      </trkpt>
      <trkpt lat="45.18595" lon="6.112">
        <ele>2285</ele>
        <time>2025-02-09T11:57:24Z</time>
      </trkpt>
      <trkpt lat="45.18595" lon="6.112">
        <ele>2284</ele>
        <time>2025-02-09T11:57:33Z</time>
      </trkpt>
      <trkpt lat="45.18595" lon="6.112">
        <ele>2283</ele>
        <time>2025-02-09T11:57:43Z</time>
      </trkpt>
      <trkpt lat="45.18587" lon="6.11194">
        <ele>2283</ele>
        <time>2025-02-09T11:57:44Z</time>
      </trkpt>
      <trkpt lat="45.18587" lon="6.11194">
        <ele>2283</ele>
        <time>2025-02-09T11:57:53Z</time>
      </trkpt>
      <trkpt lat="45.18587" lon="6.11194">
        <ele>2281</ele>
        <time>2025-02-09T11:58:03Z</time>
      </trkpt>
      <trkpt lat="45.18587" lon="6.11194">
        <ele>2282</ele>
        <time>2025-02-09T11:58:13Z</time>
      </trkpt>
      <trkpt lat="45.18587" lon="6.11194">
        <ele>2282</ele>
        <time>2025-02-09T11:58:23Z</time>
      </trkpt>
      <trkpt lat="45.18587" lon="6.11194">
        <ele>2282</ele>
        <time>2025-02-09T11:58:33Z</time>
      </trkpt>
      <trkpt lat="45.18587" lon="6.11194">
        <ele>2282</ele>
        <time>2025-02-09T11:58:43Z</time>
      </trkpt>
      <trkpt lat="45.18587" lon="6.11194">
        <ele>2281</ele>
        <time>2025-02-09T11:58:53Z</time>
      </trkpt>
      <trkpt lat="45.18587" lon="6.11194">
        <ele>2281</ele>
        <time>2025-02-09T11:59:03Z</time>
      </trkpt>
      <trkpt lat="45.18587" lon="6.11194">
        <ele>2281</ele>
        <time>2025-02-09T11:59:13Z</time>
      </trkpt>
      <trkpt lat="45.18587" lon="6.11194">
        <ele>2281</ele>
        <time>2025-02-09T11:59:23Z</time>
      </trkpt>
      <trkpt lat="45.18587" lon="6.11194">
        <ele>2281</ele>
        <time>2025-02-09T11:59:33Z</time>
      </trkpt>
      <trkpt lat="45.18587" lon="6.11194">
        <ele>2281</ele>
        <time>2025-02-09T11:59:43Z</time>
      </trkpt>
      <trkpt lat="45.18587" lon="6.11194">
        <ele>2281</ele>
        <time>2025-02-09T11:59:53Z</time>
      </trkpt>
      <trkpt lat="45.18596" lon="6.11193">
        <ele>2281</ele>
        <time>2025-02-09T12:00:01Z</time>
      </trkpt>
      <trkpt lat="45.18596" lon="6.11193">
        <ele>2278</ele>
        <time>2025-02-09T12:00:03Z</time>
      </trkpt>
      <trkpt lat="45.18607" lon="6.11193">
        <ele>2278</ele>
        <time>2025-02-09T12:00:04Z</time>
      </trkpt>
      <trkpt lat="45.18618" lon="6.11192">
        <ele>2278</ele>
        <time>2025-02-09T12:00:07Z</time>
      </trkpt>
      <trkpt lat="45.18628" lon="6.11191">
        <ele>2278</ele>
        <time>2025-02-09T12:00:10Z</time>
      </trkpt>
      <trkpt lat="45.18628" lon="6.11191">
        <ele>2273</ele>
        <time>2025-02-09T12:00:13Z</time>
      </trkpt>
      <trkpt lat="45.18628" lon="6.11191">
        <ele>2272</ele>
        <time>2025-02-09T12:00:23Z</time>
      </trkpt>
      <trkpt lat="45.18628" lon="6.11191">
        <ele>2269</ele>
        <time>2025-02-09T12:00:33Z</time>
      </trkpt>
      <trkpt lat="45.18623" lon="6.1118">
        <ele>2269</ele>
        <time>2025-02-09T12:00:35Z</time>
      </trkpt>
      <trkpt lat="45.18623" lon="6.1118">
        <ele>2266</ele>
        <time>2025-02-09T12:00:43Z</time>
      </trkpt>
      <trkpt lat="45.18623" lon="6.1118">
        <ele>2266</ele>
        <time>2025-02-09T12:00:53Z</time>
      </trkpt>
      <trkpt lat="45.18623" lon="6.1118">
        <ele>2265</ele>
        <time>2025-02-09T12:01:03Z</time>
      </trkpt>
      <trkpt lat="45.18623" lon="6.1118">
        <ele>2266</ele>
        <time>2025-02-09T12:01:13Z</time>
      </trkpt>
      <trkpt lat="45.18623" lon="6.1118">
        <ele>2266</ele>
        <time>2025-02-09T12:01:23Z</time>
      </trkpt>
      <trkpt lat="45.18616" lon="6.11171">
        <ele>2266</ele>
        <time>2025-02-09T12:01:29Z</time>
      </trkpt>
      <trkpt lat="45.18616" lon="6.11171">
        <ele>2261</ele>
        <time>2025-02-09T12:01:33Z</time>
      </trkpt>
      <trkpt lat="45.18623" lon="6.11161">
        <ele>2261</ele>
        <time>2025-02-09T12:01:38Z</time>
      </trkpt>
      <trkpt lat="45.18623" lon="6.11161">
        <ele>2253</ele>
        <time>2025-02-09T12:01:43Z</time>
      </trkpt>
      <trkpt lat="45.18618" lon="6.11149">
        <ele>2253</ele>
        <time>2025-02-09T12:01:45Z</time>
      </trkpt>
      <trkpt lat="45.18618" lon="6.11149">
        <ele>2246</ele>
        <time>2025-02-09T12:01:53Z</time>
      </trkpt>
      <trkpt lat="45.18616" lon="6.11136">
        <ele>2246</ele>
        <time>2025-02-09T12:01:54Z</time>
      </trkpt>
      <trkpt lat="45.18618" lon="6.11122">
        <ele>2246</ele>
        <time>2025-02-09T12:02:00Z</time>
      </trkpt>
      <trkpt lat="45.18618" lon="6.11122">
        <ele>2234</ele>
        <time>2025-02-09T12:02:03Z</time>
      </trkpt>
      <trkpt lat="45.18624" lon="6.11107">
        <ele>2234</ele>
        <time>2025-02-09T12:02:06Z</time>
      </trkpt>
      <trkpt lat="45.18624" lon="6.11102">
        <ele>2223</ele>
        <time>2025-02-09T12:02:13Z</time>
      </trkpt>
      <trkpt lat="45.18623" lon="6.11098">
        <ele>2222</ele>
        <time>2025-02-09T12:02:23Z</time>
      </trkpt>
      <trkpt lat="45.18622" lon="6.11094">
        <ele>2222</ele>
        <time>2025-02-09T12:02:24Z</time>
      </trkpt>
      <trkpt lat="45.18621" lon="6.1109">
        <ele>2222</ele>
        <time>2025-02-09T12:02:33Z</time>
      </trkpt>
      <trkpt lat="45.18621" lon="6.11086">
        <ele>2222</ele>
        <time>2025-02-09T12:02:43Z</time>
      </trkpt>
      <trkpt lat="45.1862" lon="6.11082">
        <ele>2219</ele>
        <time>2025-02-09T12:02:53Z</time>
      </trkpt>
      <trkpt lat="45.18619" lon="6.11078">
        <ele>2219</ele>
        <time>2025-02-09T12:02:58Z</time>
      </trkpt>
      <trkpt lat="45.18619" lon="6.11074">
        <ele>2219</ele>
        <time>2025-02-09T12:03:01Z</time>
      </trkpt>
      <trkpt lat="45.18618" lon="6.1107">
        <ele>2204</ele>
        <time>2025-02-09T12:03:03Z</time>
      </trkpt>
      <trkpt lat="45.18626" lon="6.11063">
        <ele>2204</ele>
        <time>2025-02-09T12:03:04Z</time>
      </trkpt>
      <trkpt lat="45.18619" lon="6.11051">
        <ele>2198</ele>
        <time>2025-02-09T12:03:13Z</time>
      </trkpt>
      <trkpt lat="45.1861" lon="6.11044">
        <ele>2198</ele>
        <time>2025-02-09T12:03:15Z</time>
      </trkpt>
      <trkpt lat="45.186" lon="6.11038">
        <ele>2198</ele>
        <time>2025-02-09T12:03:17Z</time>
      </trkpt>
      <trkpt lat="45.18591" lon="6.11033">
        <ele>2198</ele>
        <time>2025-02-09T12:03:20Z</time>
      </trkpt>
      <trkpt lat="45.18591" lon="6.11033">
        <ele>2192</ele>
        <time>2025-02-09T12:03:23Z</time>
      </trkpt>
      <trkpt lat="45.18591" lon="6.11033">
        <ele>2191</ele>
        <time>2025-02-09T12:03:33Z</time>
      </trkpt>
      <trkpt lat="45.18591" lon="6.11033">
        <ele>2191</ele>
        <time>2025-02-09T12:03:43Z</time>
      </trkpt>
      <trkpt lat="45.18591" lon="6.11033">
        <ele>2190</ele>
        <time>2025-02-09T12:03:53Z</time>
      </trkpt>
      <trkpt lat="45.18591" lon="6.11033">
        <ele>2190</ele>
        <time>2025-02-09T12:04:03Z</time>
      </trkpt>
      <trkpt lat="45.18582" lon="6.11038">
        <ele>2190</ele>
        <time>2025-02-09T12:04:10Z</time>
      </trkpt>
      <trkpt lat="45.18582" lon="6.11038">
        <ele>2190</ele>
        <time>2025-02-09T12:04:13Z</time>
      </trkpt>
      <trkpt lat="45.18582" lon="6.11038">
        <ele>2190</ele>
        <time>2025-02-09T12:04:23Z</time>
      </trkpt>
      <trkpt lat="45.18582" lon="6.11038">
        <ele>2190</ele>
        <time>2025-02-09T12:04:33Z</time>
      </trkpt>
      <trkpt lat="45.18582" lon="6.11038">
        <ele>2191</ele>
        <time>2025-02-09T12:04:43Z</time>
      </trkpt>
      <trkpt lat="45.18582" lon="6.11038">
        <ele>2191</ele>
        <time>2025-02-09T12:04:53Z</time>
      </trkpt>
      <trkpt lat="45.18582" lon="6.11038">
        <ele>2191</ele>
        <time>2025-02-09T12:05:03Z</time>
      </trkpt>
      <trkpt lat="45.18578" lon="6.11027">
        <ele>2191</ele>
        <time>2025-02-09T12:05:08Z</time>
      </trkpt>
      <trkpt lat="45.18584" lon="6.11014">
        <ele>2187</ele>
        <time>2025-02-09T12:05:13Z</time>
      </trkpt>
      <trkpt lat="45.18593" lon="6.10993">
        <ele>2187</ele>
        <time>2025-02-09T12:05:16Z</time>
      </trkpt>
      <trkpt lat="45.18596" lon="6.10985">
        <ele>2187</ele>
        <time>2025-02-09T12:05:19Z</time>
      </trkpt>
      <trkpt lat="45.18599" lon="6.10978">
        <ele>2187</ele>
        <time>2025-02-09T12:05:22Z</time>
      </trkpt>
      <trkpt lat="45.18602" lon="6.1097">
        <ele>2161</ele>
        <time>2025-02-09T12:05:23Z</time>
      </trkpt>
      <trkpt lat="45.1861" lon="6.10956">
        <ele>2161</ele>
        <time>2025-02-09T12:05:25Z</time>
      </trkpt>
      <trkpt lat="45.18611" lon="6.10947">
        <ele>2161</ele>
        <time>2025-02-09T12:05:29Z</time>
      </trkpt>
      <trkpt lat="45.18613" lon="6.10938">
        <ele>2161</ele>
        <time>2025-02-09T12:05:32Z</time>
      </trkpt>
      <trkpt lat="45.18615" lon="6.10929">
        <ele>2145</ele>
        <time>2025-02-09T12:05:33Z</time>
      </trkpt>
      <trkpt lat="45.18617" lon="6.10916">
        <ele>2145</ele>
        <time>2025-02-09T12:05:36Z</time>
      </trkpt>
      <trkpt lat="45.18618" lon="6.109">
        <ele>2145</ele>
        <time>2025-02-09T12:05:39Z</time>
      </trkpt>
      <trkpt lat="45.18618" lon="6.10886">
        <ele>2127</ele>
        <time>2025-02-09T12:05:43Z</time>
      </trkpt>
      <trkpt lat="45.1863" lon="6.10879">
        <ele>2127</ele>
        <time>2025-02-09T12:05:47Z</time>
      </trkpt>
      <trkpt lat="45.18633" lon="6.10879">
        <ele>2127</ele>
        <time>2025-02-09T12:05:51Z</time>
      </trkpt>
      <trkpt lat="45.18636" lon="6.10879">
        <ele>2121</ele>
        <time>2025-02-09T12:05:53Z</time>
      </trkpt>
      <trkpt lat="45.18634" lon="6.10875">
        <ele>2121</ele>
        <time>2025-02-09T12:06:03Z</time>
      </trkpt>
      <trkpt lat="45.18631" lon="6.10872">
        <ele>2121</ele>
        <time>2025-02-09T12:06:13Z</time>
      </trkpt>
      <trkpt lat="45.18629" lon="6.10869">
        <ele>2121</ele>
        <time>2025-02-09T12:06:23Z</time>
      </trkpt>
      <trkpt lat="45.18627" lon="6.10866">
        <ele>2121</ele>
        <time>2025-02-09T12:06:33Z</time>
      </trkpt>
      <trkpt lat="45.18624" lon="6.10862">
        <ele>2121</ele>
        <time>2025-02-09T12:06:43Z</time>
      </trkpt>
      <trkpt lat="45.18622" lon="6.10859">
        <ele>2121</ele>
        <time>2025-02-09T12:06:53Z</time>
      </trkpt>
      <trkpt lat="45.18619" lon="6.10856">
        <ele>2121</ele>
        <time>2025-02-09T12:06:54Z</time>
      </trkpt>
      <trkpt lat="45.18617" lon="6.10853">
        <ele>2121</ele>
        <time>2025-02-09T12:06:57Z</time>
      </trkpt>
      <trkpt lat="45.18614" lon="6.10849">
        <ele>2121</ele>
        <time>2025-02-09T12:07:00Z</time>
      </trkpt>
      <trkpt lat="45.18612" lon="6.10846">
        <ele>2108</ele>
        <time>2025-02-09T12:07:03Z</time>
      </trkpt>
      <trkpt lat="45.1863" lon="6.10816">
        <ele>2108</ele>
        <time>2025-02-09T12:07:06Z</time>
      </trkpt>
      <trkpt lat="45.18634" lon="6.10805">
        <ele>2108</ele>
        <time>2025-02-09T12:07:08Z</time>
      </trkpt>
      <trkpt lat="45.18639" lon="6.10793">
        <ele>2108</ele>
        <time>2025-02-09T12:07:10Z</time>
      </trkpt>
      <trkpt lat="45.18643" lon="6.10782">
        <ele>2108</ele>
        <time>2025-02-09T12:07:12Z</time>
      </trkpt>
      <trkpt lat="45.18647" lon="6.10771">
        <ele>2101</ele>
        <time>2025-02-09T12:07:13Z</time>
      </trkpt>
      <trkpt lat="45.18641" lon="6.10755">
        <ele>2101</ele>
        <time>2025-02-09T12:07:14Z</time>
      </trkpt>
      <trkpt lat="45.18636" lon="6.10746">
        <ele>2101</ele>
        <time>2025-02-09T12:07:17Z</time>
      </trkpt>
      <trkpt lat="45.1863" lon="6.10737">
        <ele>2101</ele>
        <time>2025-02-09T12:07:20Z</time>
      </trkpt>
      <trkpt lat="45.18624" lon="6.10728">
        <ele>2098</ele>
        <time>2025-02-09T12:07:23Z</time>
      </trkpt>
      <trkpt lat="45.18611" lon="6.10703">
        <ele>2098</ele>
        <time>2025-02-09T12:07:26Z</time>
      </trkpt>
      <trkpt lat="45.18607" lon="6.10694">
        <ele>2098</ele>
        <time>2025-02-09T12:07:28Z</time>
      </trkpt>
      <trkpt lat="45.18603" lon="6.10685">
        <ele>2098</ele>
        <time>2025-02-09T12:07:30Z</time>
      </trkpt>
      <trkpt lat="45.18599" lon="6.10676">
        <ele>2088</ele>
        <time>2025-02-09T12:07:33Z</time>
      </trkpt>
      <trkpt lat="45.18593" lon="6.10664">
        <ele>2088</ele>
        <time>2025-02-09T12:07:36Z</time>
      </trkpt>
      <trkpt lat="45.18583" lon="6.10654">
        <ele>2088</ele>
        <time>2025-02-09T12:07:40Z</time>
      </trkpt>
      <trkpt lat="45.18574" lon="6.10647">
        <ele>2080</ele>
        <time>2025-02-09T12:07:43Z</time>
      </trkpt>
      <trkpt lat="45.18569" lon="6.10627">
        <ele>2080</ele>
        <time>2025-02-09T12:07:46Z</time>
      </trkpt>
      <trkpt lat="45.1857" lon="6.10621">
        <ele>2080</ele>
        <time>2025-02-09T12:07:48Z</time>
      </trkpt>
      <trkpt lat="45.18572" lon="6.10615">
        <ele>2080</ele>
        <time>2025-02-09T12:07:52Z</time>
      </trkpt>
      <trkpt lat="45.18573" lon="6.10609">
        <ele>2071</ele>
        <time>2025-02-09T12:07:53Z</time>
      </trkpt>
      <trkpt lat="45.18581" lon="6.10615">
        <ele>2071</ele>
        <time>2025-02-09T12:08:03Z</time>
      </trkpt>
      <trkpt lat="45.18581" lon="6.10615">
        <ele>2071</ele>
        <time>2025-02-09T12:08:13Z</time>
      </trkpt>
      <trkpt lat="45.18575" lon="6.10602">
        <ele>2071</ele>
        <time>2025-02-09T12:08:20Z</time>
      </trkpt>
      <trkpt lat="45.18575" lon="6.10602">
        <ele>2069</ele>
        <time>2025-02-09T12:08:23Z</time>
      </trkpt>
      <trkpt lat="45.18572" lon="6.106">
        <ele>2068</ele>
        <time>2025-02-09T12:08:33Z</time>
      </trkpt>
      <trkpt lat="45.18568" lon="6.10599">
        <ele>2068</ele>
        <time>2025-02-09T12:08:43Z</time>
      </trkpt>
      <trkpt lat="45.18565" lon="6.10598">
        <ele>2067</ele>
        <time>2025-02-09T12:08:53Z</time>
      </trkpt>
      <trkpt lat="45.18561" lon="6.10596">
        <ele>2067</ele>
        <time>2025-02-09T12:08:59Z</time>
      </trkpt>
      <trkpt lat="45.18558" lon="6.10595">
        <ele>2067</ele>
        <time>2025-02-09T12:09:02Z</time>
      </trkpt>
      <trkpt lat="45.18555" lon="6.10594">
        <ele>2064</ele>
        <time>2025-02-09T12:09:03Z</time>
      </trkpt>
      <trkpt lat="45.18542" lon="6.10589">
        <ele>2064</ele>
        <time>2025-02-09T12:09:05Z</time>
      </trkpt>
      <trkpt lat="45.18536" lon="6.10582">
        <ele>2064</ele>
        <time>2025-02-09T12:09:07Z</time>
      </trkpt>
      <trkpt lat="45.18531" lon="6.10574">
        <ele>2064</ele>
        <time>2025-02-09T12:09:10Z</time>
      </trkpt>
      <trkpt lat="45.18526" lon="6.10567">
        <ele>2055</ele>
        <time>2025-02-09T12:09:13Z</time>
      </trkpt>
      <trkpt lat="45.1852" lon="6.1055">
        <ele>2055</ele>
        <time>2025-02-09T12:09:16Z</time>
      </trkpt>
      <trkpt lat="45.18516" lon="6.10534">
        <ele>2055</ele>
        <time>2025-02-09T12:09:19Z</time>
      </trkpt>
      <trkpt lat="45.1851" lon="6.10521">
        <ele>2043</ele>
        <time>2025-02-09T12:09:23Z</time>
      </trkpt>
      <trkpt lat="45.18508" lon="6.10518">
        <ele>2043</ele>
        <time>2025-02-09T12:09:33Z</time>
      </trkpt>
      <trkpt lat="45.18506" lon="6.10516">
        <ele>2043</ele>
        <time>2025-02-09T12:09:42Z</time>
      </trkpt>
      <trkpt lat="45.18504" lon="6.10513">
        <ele>2039</ele>
        <time>2025-02-09T12:09:43Z</time>
      </trkpt>
      <trkpt lat="45.1849" lon="6.10498">
        <ele>2037</ele>
        <time>2025-02-09T12:09:53Z</time>
      </trkpt>
      <trkpt lat="45.18483" lon="6.10492">
        <ele>2037</ele>
        <time>2025-02-09T12:09:56Z</time>
      </trkpt>
      <trkpt lat="45.18477" lon="6.10486">
        <ele>2037</ele>
        <time>2025-02-09T12:09:59Z</time>
      </trkpt>
      <trkpt lat="45.18471" lon="6.1048">
        <ele>2037</ele>
        <time>2025-02-09T12:10:02Z</time>
      </trkpt>
      <trkpt lat="45.18465" lon="6.10474">
        <ele>2027</ele>
        <time>2025-02-09T12:10:03Z</time>
      </trkpt>
      <trkpt lat="45.18459" lon="6.10469">
        <ele>2027</ele>
        <time>2025-02-09T12:10:05Z</time>
      </trkpt>
      <trkpt lat="45.18459" lon="6.10469">
        <ele>2021</ele>
        <time>2025-02-09T12:10:13Z</time>
      </trkpt>
      <trkpt lat="45.18459" lon="6.10469">
        <ele>2021</ele>
        <time>2025-02-09T12:10:23Z</time>
      </trkpt>
      <trkpt lat="45.18459" lon="6.10469">
        <ele>2021</ele>
        <time>2025-02-09T12:10:33Z</time>
      </trkpt>
      <trkpt lat="45.18459" lon="6.10469">
        <ele>2021</ele>
        <time>2025-02-09T12:10:43Z</time>
      </trkpt>
      <trkpt lat="45.18449" lon="6.10464">
        <ele>2021</ele>
        <time>2025-02-09T12:10:49Z</time>
      </trkpt>
      <trkpt lat="45.18449" lon="6.10464">
        <ele>2019</ele>
        <time>2025-02-09T12:10:53Z</time>
      </trkpt>
      <trkpt lat="45.1844" lon="6.10474">
        <ele>2019</ele>
        <time>2025-02-09T12:10:54Z</time>
      </trkpt>
      <trkpt lat="45.18429" lon="6.10475">
        <ele>2019</ele>
        <time>2025-02-09T12:10:59Z</time>
      </trkpt>
      <trkpt lat="45.18422" lon="6.10466">
        <ele>2015</ele>
        <time>2025-02-09T12:11:03Z</time>
      </trkpt>
      <trkpt lat="45.18412" lon="6.10459">
        <ele>2015</ele>
        <time>2025-02-09T12:11:06Z</time>
      </trkpt>
      <trkpt lat="45.18403" lon="6.1045">
        <ele>2015</ele>
        <time>2025-02-09T12:11:10Z</time>
      </trkpt>
      <trkpt lat="45.18403" lon="6.1045">
        <ele>2008</ele>
        <time>2025-02-09T12:11:13Z</time>
      </trkpt>
      <trkpt lat="45.18402" lon="6.10446">
        <ele>2008</ele>
        <time>2025-02-09T12:11:23Z</time>
      </trkpt>
      <trkpt lat="45.18402" lon="6.10442">
        <ele>2008</ele>
        <time>2025-02-09T12:11:32Z</time>
      </trkpt>
      <trkpt lat="45.18401" lon="6.10437">
        <ele>2008</ele>
        <time>2025-02-09T12:11:33Z</time>
      </trkpt>
      <trkpt lat="45.18391" lon="6.10432">
        <ele>2008</ele>
        <time>2025-02-09T12:11:36Z</time>
      </trkpt>
      <trkpt lat="45.18382" lon="6.10423">
        <ele>2008</ele>
        <time>2025-02-09T12:11:39Z</time>
      </trkpt>
      <trkpt lat="45.18382" lon="6.10423">
        <ele>1999</ele>
        <time>2025-02-09T12:11:43Z</time>
      </trkpt>
      <trkpt lat="45.18367" lon="6.10416">
        <ele>1999</ele>
        <time>2025-02-09T12:11:44Z</time>
      </trkpt>
      <trkpt lat="45.18362" lon="6.10415">
        <ele>1999</ele>
        <time>2025-02-09T12:11:48Z</time>
      </trkpt>
      <trkpt lat="45.18356" lon="6.10415">
        <ele>1999</ele>
        <time>2025-02-09T12:11:51Z</time>
      </trkpt>
      <trkpt lat="45.1835" lon="6.10414">
        <ele>1993</ele>
        <time>2025-02-09T12:11:53Z</time>
      </trkpt>
      <trkpt lat="45.1834" lon="6.10411">
        <ele>1993</ele>
        <time>2025-02-09T12:11:54Z</time>
      </trkpt>
      <trkpt lat="45.18331" lon="6.1041">
        <ele>1993</ele>
        <time>2025-02-09T12:11:56Z</time>
      </trkpt>
      <trkpt lat="45.18319" lon="6.1041">
        <ele>1993</ele>
        <time>2025-02-09T12:12:00Z</time>
      </trkpt>
      <trkpt lat="45.18311" lon="6.10403">
        <ele>1988</ele>
        <time>2025-02-09T12:12:03Z</time>
      </trkpt>
      <trkpt lat="45.1832" lon="6.10395">
        <ele>1988</ele>
        <time>2025-02-09T12:12:11Z</time>
      </trkpt>
      <trkpt lat="45.1832" lon="6.10395">
        <ele>1984</ele>
        <time>2025-02-09T12:12:13Z</time>
      </trkpt>
      <trkpt lat="45.18313" lon="6.10376">
        <ele>1984</ele>
        <time>2025-02-09T12:12:18Z</time>
      </trkpt>
      <trkpt lat="45.1831" lon="6.10373">
        <ele>1984</ele>
        <time>2025-02-09T12:12:21Z</time>
      </trkpt>
      <trkpt lat="45.18307" lon="6.1037">
        <ele>1974</ele>
        <time>2025-02-09T12:12:23Z</time>
      </trkpt>
      <trkpt lat="45.18297" lon="6.10366">
        <ele>1974</ele>
        <time>2025-02-09T12:12:25Z</time>
      </trkpt>
      <trkpt lat="45.18288" lon="6.1036">
        <ele>1974</ele>
        <time>2025-02-09T12:12:29Z</time>
      </trkpt>
      <trkpt lat="45.18288" lon="6.1036">
        <ele>1969</ele>
        <time>2025-02-09T12:12:33Z</time>
      </trkpt>
      <trkpt lat="45.18295" lon="6.10345">
        <ele>1969</ele>
        <time>2025-02-09T12:12:34Z</time>
      </trkpt>
      <trkpt lat="45.18296" lon="6.10341">
        <ele>1968</ele>
        <time>2025-02-09T12:12:43Z</time>
      </trkpt>
      <trkpt lat="45.18297" lon="6.10337">
        <ele>1968</ele>
        <time>2025-02-09T12:12:44Z</time>
      </trkpt>
      <trkpt lat="45.18298" lon="6.10333">
        <ele>1968</ele>
        <time>2025-02-09T12:12:53Z</time>
      </trkpt>
      <trkpt lat="45.18299" lon="6.10329">
        <ele>1967</ele>
        <time>2025-02-09T12:13:03Z</time>
      </trkpt>
      <trkpt lat="45.183" lon="6.10325">
        <ele>1967</ele>
        <time>2025-02-09T12:13:13Z</time>
      </trkpt>
      <trkpt lat="45.18301" lon="6.10322">
        <ele>1968</ele>
        <time>2025-02-09T12:13:23Z</time>
      </trkpt>
      <trkpt lat="45.18303" lon="6.10318">
        <ele>1964</ele>
        <time>2025-02-09T12:13:33Z</time>
      </trkpt>
      <trkpt lat="45.18304" lon="6.10314">
        <ele>1964</ele>
        <time>2025-02-09T12:13:37Z</time>
      </trkpt>
      <trkpt lat="45.18305" lon="6.1031">
        <ele>1964</ele>
        <time>2025-02-09T12:13:40Z</time>
      </trkpt>
      <trkpt lat="45.18306" lon="6.10306">
        <ele>1964</ele>
        <time>2025-02-09T12:13:42Z</time>
      </trkpt>
      <trkpt lat="45.18307" lon="6.10302">
        <ele>1951</ele>
        <time>2025-02-09T12:13:43Z</time>
      </trkpt>
      <trkpt lat="45.18299" lon="6.10292">
        <ele>1951</ele>
        <time>2025-02-09T12:13:45Z</time>
      </trkpt>
      <trkpt lat="45.18296" lon="6.10286">
        <ele>1951</ele>
        <time>2025-02-09T12:13:48Z</time>
      </trkpt>
      <trkpt lat="45.18293" lon="6.1028">
        <ele>1951</ele>
        <time>2025-02-09T12:13:51Z</time>
      </trkpt>
      <trkpt lat="45.18291" lon="6.10274">
        <ele>1945</ele>
        <time>2025-02-09T12:13:53Z</time>
      </trkpt>
      <trkpt lat="45.18297" lon="6.10245">
        <ele>1945</ele>
        <time>2025-02-09T12:13:54Z</time>
      </trkpt>
      <trkpt lat="45.18301" lon="6.10234">
        <ele>1945</ele>
        <time>2025-02-09T12:13:57Z</time>
      </trkpt>
      <trkpt lat="45.18305" lon="6.10223">
        <ele>1945</ele>
        <time>2025-02-09T12:14:00Z</time>
      </trkpt>
      <trkpt lat="45.18309" lon="6.10212">
        <ele>1940</ele>
        <time>2025-02-09T12:14:03Z</time>
      </trkpt>
      <trkpt lat="45.18315" lon="6.10209">
        <ele>1940</ele>
        <time>2025-02-09T12:14:06Z</time>
      </trkpt>
      <trkpt lat="45.18312" lon="6.10209">
        <ele>1939</ele>
        <time>2025-02-09T12:14:13Z</time>
      </trkpt>
      <trkpt lat="45.18309" lon="6.1021">
        <ele>1939</ele>
        <time>2025-02-09T12:14:15Z</time>
      </trkpt>
      <trkpt lat="45.18306" lon="6.10211">
        <ele>1939</ele>
        <time>2025-02-09T12:14:23Z</time>
      </trkpt>
      <trkpt lat="45.18303" lon="6.10212">
        <ele>1938</ele>
        <time>2025-02-09T12:14:33Z</time>
      </trkpt>
      <trkpt lat="45.18299" lon="6.10212">
        <ele>1938</ele>
        <time>2025-02-09T12:14:43Z</time>
      </trkpt>
      <trkpt lat="45.18296" lon="6.10213">
        <ele>1938</ele>
        <time>2025-02-09T12:14:52Z</time>
      </trkpt>
      <trkpt lat="45.18293" lon="6.10214">
        <ele>1937</ele>
        <time>2025-02-09T12:14:53Z</time>
      </trkpt>
      <trkpt lat="45.18276" lon="6.102">
        <ele>1937</ele>
        <time>2025-02-09T12:14:55Z</time>
      </trkpt>
      <trkpt lat="45.1827" lon="6.10194">
        <ele>1937</ele>
        <time>2025-02-09T12:14:57Z</time>
      </trkpt>
      <trkpt lat="45.18264" lon="6.10188">
        <ele>1937</ele>
        <time>2025-02-09T12:14:59Z</time>
      </trkpt>
      <trkpt lat="45.18257" lon="6.10183">
        <ele>1937</ele>
        <time>2025-02-09T12:15:02Z</time>
      </trkpt>
      <trkpt lat="45.18251" lon="6.10177">
        <ele>1928</ele>
        <time>2025-02-09T12:15:03Z</time>
      </trkpt>
      <trkpt lat="45.18237" lon="6.10167">
        <ele>1928</ele>
        <time>2025-02-09T12:15:06Z</time>
      </trkpt>
      <trkpt lat="45.18233" lon="6.10163">
        <ele>1928</ele>
        <time>2025-02-09T12:15:09Z</time>
      </trkpt>
      <trkpt lat="45.18228" lon="6.10159">
        <ele>1928</ele>
        <time>2025-02-09T12:15:11Z</time>
      </trkpt>
      <trkpt lat="45.18223" lon="6.10155">
        <ele>1927</ele>
        <time>2025-02-09T12:15:13Z</time>
      </trkpt>
      <trkpt lat="45.18208" lon="6.10137">
        <ele>1927</ele>
        <time>2025-02-09T12:15:14Z</time>
      </trkpt>
      <trkpt lat="45.18205" lon="6.10131">
        <ele>1927</ele>
        <time>2025-02-09T12:15:17Z</time>
      </trkpt>
      <trkpt lat="45.18201" lon="6.10126">
        <ele>1927</ele>
        <time>2025-02-09T12:15:20Z</time>
      </trkpt>
      <trkpt lat="45.18197" lon="6.10121">
        <ele>1923</ele>
        <time>2025-02-09T12:15:23Z</time>
      </trkpt>
      <trkpt lat="45.18195" lon="6.10117">
        <ele>1921</ele>
        <time>2025-02-09T12:15:33Z</time>
      </trkpt>
      <trkpt lat="45.18192" lon="6.10113">
        <ele>1921</ele>
        <time>2025-02-09T12:15:43Z</time>
      </trkpt>
      <trkpt lat="45.1819" lon="6.10109">
        <ele>1921</ele>
        <time>2025-02-09T12:15:53Z</time>
      </trkpt>
      <trkpt lat="45.18187" lon="6.10106">
        <ele>1921</ele>
        <time>2025-02-09T12:16:03Z</time>
      </trkpt>
      <trkpt lat="45.18185" lon="6.10102">
        <ele>1921</ele>
        <time>2025-02-09T12:16:13Z</time>
      </trkpt>
      <trkpt lat="45.18182" lon="6.10098">
        <ele>1921</ele>
        <time>2025-02-09T12:16:14Z</time>
      </trkpt>
      <trkpt lat="45.1818" lon="6.10094">
        <ele>1921</ele>
        <time>2025-02-09T12:16:18Z</time>
      </trkpt>
      <trkpt lat="45.18178" lon="6.1009">
        <ele>1921</ele>
        <time>2025-02-09T12:16:21Z</time>
      </trkpt>
      <trkpt lat="45.18175" lon="6.10086">
        <ele>1917</ele>
        <time>2025-02-09T12:16:23Z</time>
      </trkpt>
      <trkpt lat="45.18165" lon="6.10066">
        <ele>1917</ele>
        <time>2025-02-09T12:16:25Z</time>
      </trkpt>
      <trkpt lat="45.18162" lon="6.10059">
        <ele>1917</ele>
        <time>2025-02-09T12:16:28Z</time>
      </trkpt>
      <trkpt lat="45.18159" lon="6.10051">
        <ele>1917</ele>
        <time>2025-02-09T12:16:31Z</time>
      </trkpt>
      <trkpt lat="45.18156" lon="6.10043">
        <ele>1908</ele>
        <time>2025-02-09T12:16:33Z</time>
      </trkpt>
      <trkpt lat="45.18154" lon="6.10028">
        <ele>1908</ele>
        <time>2025-02-09T12:16:34Z</time>
      </trkpt>
      <trkpt lat="45.1816" lon="6.10015">
        <ele>1908</ele>
        <time>2025-02-09T12:16:38Z</time>
      </trkpt>
      <trkpt lat="45.1816" lon="6.10015">
        <ele>1905</ele>
        <time>2025-02-09T12:16:43Z</time>
      </trkpt>
      <trkpt lat="45.18151" lon="6.10003">
        <ele>1902</ele>
        <time>2025-02-09T12:16:53Z</time>
      </trkpt>
      <trkpt lat="45.18145" lon="6.09991">
        <ele>1902</ele>
        <time>2025-02-09T12:16:55Z</time>
      </trkpt>
      <trkpt lat="45.1814" lon="6.09981">
        <ele>1902</ele>
        <time>2025-02-09T12:16:57Z</time>
      </trkpt>
      <trkpt lat="45.1814" lon="6.09981">
        <ele>1894</ele>
        <time>2025-02-09T12:17:03Z</time>
      </trkpt>
      <trkpt lat="45.18127" lon="6.09967">
        <ele>1894</ele>
        <time>2025-02-09T12:17:05Z</time>
      </trkpt>
      <trkpt lat="45.18122" lon="6.09964">
        <ele>1894</ele>
        <time>2025-02-09T12:17:08Z</time>
      </trkpt>
      <trkpt lat="45.18116" lon="6.09961">
        <ele>1894</ele>
        <time>2025-02-09T12:17:11Z</time>
      </trkpt>
      <trkpt lat="45.18111" lon="6.09958">
        <ele>1891</ele>
        <time>2025-02-09T12:17:13Z</time>
      </trkpt>
      <trkpt lat="45.18103" lon="6.09942">
        <ele>1891</ele>
        <time>2025-02-09T12:17:14Z</time>
      </trkpt>
      <trkpt lat="45.18101" lon="6.09938">
        <ele>1884</ele>
        <time>2025-02-09T12:17:23Z</time>
      </trkpt>
      <trkpt lat="45.18099" lon="6.09933">
        <ele>1884</ele>
        <time>2025-02-09T12:17:27Z</time>
      </trkpt>
      <trkpt lat="45.18096" lon="6.09929">
        <ele>1884</ele>
        <time>2025-02-09T12:17:31Z</time>
      </trkpt>
      <trkpt lat="45.18094" lon="6.09924">
        <ele>1884</ele>
        <time>2025-02-09T12:17:33Z</time>
      </trkpt>
      <trkpt lat="45.18084" lon="6.09913">
        <ele>1884</ele>
        <time>2025-02-09T12:17:34Z</time>
      </trkpt>
      <trkpt lat="45.18077" lon="6.09899">
        <ele>1884</ele>
        <time>2025-02-09T12:17:37Z</time>
      </trkpt>
      <trkpt lat="45.18077" lon="6.09899">
        <ele>1875</ele>
        <time>2025-02-09T12:17:43Z</time>
      </trkpt>
      <trkpt lat="45.18067" lon="6.09891">
        <ele>1875</ele>
        <time>2025-02-09T12:17:46Z</time>
      </trkpt>
      <trkpt lat="45.18064" lon="6.09891">
        <ele>1875</ele>
        <time>2025-02-09T12:17:51Z</time>
      </trkpt>
      <trkpt lat="45.18061" lon="6.09892">
        <ele>1876</ele>
        <time>2025-02-09T12:17:53Z</time>
      </trkpt>
      <trkpt lat="45.18066" lon="6.09877">
        <ele>1876</ele>
        <time>2025-02-09T12:18:02Z</time>
      </trkpt>
      <trkpt lat="45.18068" lon="6.09877">
        <ele>1868</ele>
        <time>2025-02-09T12:18:03Z</time>
      </trkpt>
      <trkpt lat="45.18074" lon="6.09875">
        <ele>1868</ele>
        <time>2025-02-09T12:18:06Z</time>
      </trkpt>
      <trkpt lat="45.18074" lon="6.09875">
        <ele>1868</ele>
        <time>2025-02-09T12:18:13Z</time>
      </trkpt>
      <trkpt lat="45.18074" lon="6.09875">
        <ele>1868</ele>
        <time>2025-02-09T12:18:23Z</time>
      </trkpt>
      <trkpt lat="45.18074" lon="6.09875">
        <ele>1868</ele>
        <time>2025-02-09T12:18:33Z</time>
      </trkpt>
      <trkpt lat="45.18064" lon="6.09869">
        <ele>1868</ele>
        <time>2025-02-09T12:18:41Z</time>
      </trkpt>
      <trkpt lat="45.18064" lon="6.09869">
        <ele>1866</ele>
        <time>2025-02-09T12:18:43Z</time>
      </trkpt>
      <trkpt lat="45.18065" lon="6.09857">
        <ele>1866</ele>
        <time>2025-02-09T12:18:48Z</time>
      </trkpt>
      <trkpt lat="45.18056" lon="6.09849">
        <ele>1857</ele>
        <time>2025-02-09T12:18:53Z</time>
      </trkpt>
      <trkpt lat="45.1807" lon="6.09834">
        <ele>1857</ele>
        <time>2025-02-09T12:18:59Z</time>
      </trkpt>
      <trkpt lat="45.18079" lon="6.09832">
        <ele>1857</ele>
        <time>2025-02-09T12:19:01Z</time>
      </trkpt>
      <trkpt lat="45.18089" lon="6.09829">
        <ele>1848</ele>
        <time>2025-02-09T12:19:03Z</time>
      </trkpt>
      <trkpt lat="45.18103" lon="6.09829">
        <ele>1848</ele>
        <time>2025-02-09T12:19:05Z</time>
      </trkpt>
      <trkpt lat="45.18114" lon="6.09827">
        <ele>1848</ele>
        <time>2025-02-09T12:19:07Z</time>
      </trkpt>
      <trkpt lat="45.18114" lon="6.09827">
        <ele>1842</ele>
        <time>2025-02-09T12:19:13Z</time>
      </trkpt>
      <trkpt lat="45.1813" lon="6.09829">
        <ele>1842</ele>
        <time>2025-02-09T12:19:17Z</time>
      </trkpt>
      <trkpt lat="45.18137" lon="6.0983">
        <ele>1842</ele>
        <time>2025-02-09T12:19:23Z</time>
      </trkpt>
      <trkpt lat="45.18143" lon="6.09831">
        <ele>1841</ele>
        <time>2025-02-09T12:19:33Z</time>
      </trkpt>
      <trkpt lat="45.1815" lon="6.09832">
        <ele>1841</ele>
        <time>2025-02-09T12:19:34Z</time>
      </trkpt>
      <trkpt lat="45.18156" lon="6.09833">
        <ele>1841</ele>
        <time>2025-02-09T12:19:38Z</time>
      </trkpt>
      <trkpt lat="45.18163" lon="6.09834">
        <ele>1841</ele>
        <time>2025-02-09T12:19:41Z</time>
      </trkpt>
      <trkpt lat="45.1817" lon="6.09835">
        <ele>1836</ele>
        <time>2025-02-09T12:19:43Z</time>
      </trkpt>
      <trkpt lat="45.18189" lon="6.09844">
        <ele>1836</ele>
        <time>2025-02-09T12:19:45Z</time>
      </trkpt>
      <trkpt lat="45.18196" lon="6.09848">
        <ele>1836</ele>
        <time>2025-02-09T12:19:47Z</time>
      </trkpt>
      <trkpt lat="45.18202" lon="6.09852">
        <ele>1836</ele>
        <time>2025-02-09T12:19:49Z</time>
      </trkpt>
      <trkpt lat="45.18209" lon="6.09857">
        <ele>1836</ele>
        <time>2025-02-09T12:19:51Z</time>
      </trkpt>
      <trkpt lat="45.18216" lon="6.09861">
        <ele>1827</ele>
        <time>2025-02-09T12:19:53Z</time>
      </trkpt>
      <trkpt lat="45.18223" lon="6.0985">
        <ele>1827</ele>
        <time>2025-02-09T12:19:54Z</time>
      </trkpt>
      <trkpt lat="45.18225" lon="6.09838">
        <ele>1827</ele>
        <time>2025-02-09T12:19:57Z</time>
      </trkpt>
      <trkpt lat="45.18227" lon="6.09827">
        <ele>1827</ele>
        <time>2025-02-09T12:19:59Z</time>
      </trkpt>
      <trkpt lat="45.18229" lon="6.09816">
        <ele>1827</ele>
        <time>2025-02-09T12:20:01Z</time>
      </trkpt>
      <trkpt lat="45.18231" lon="6.09804">
        <ele>1822</ele>
        <time>2025-02-09T12:20:03Z</time>
      </trkpt>
      <trkpt lat="45.18232" lon="6.09777">
        <ele>1822</ele>
        <time>2025-02-09T12:20:05Z</time>
      </trkpt>
      <trkpt lat="45.18234" lon="6.09765">
        <ele>1822</ele>
        <time>2025-02-09T12:20:07Z</time>
      </trkpt>
      <trkpt lat="45.18236" lon="6.09753">
        <ele>1822</ele>
        <time>2025-02-09T12:20:10Z</time>
      </trkpt>
      <trkpt lat="45.18238" lon="6.09741">
        <ele>1820</ele>
        <time>2025-02-09T12:20:13Z</time>
      </trkpt>
      <trkpt lat="45.18241" lon="6.09717">
        <ele>1820</ele>
        <time>2025-02-09T12:20:15Z</time>
      </trkpt>
      <trkpt lat="45.18241" lon="6.09705">
        <ele>1820</ele>
        <time>2025-02-09T12:20:17Z</time>
      </trkpt>
      <trkpt lat="45.1824" lon="6.09694">
        <ele>1820</ele>
        <time>2025-02-09T12:20:19Z</time>
      </trkpt>
      <trkpt lat="45.1824" lon="6.09682">
        <ele>1820</ele>
        <time>2025-02-09T12:20:21Z</time>
      </trkpt>
      <trkpt lat="45.18239" lon="6.09671">
        <ele>1816</ele>
        <time>2025-02-09T12:20:23Z</time>
      </trkpt>
      <trkpt lat="45.1824" lon="6.09642">
        <ele>1816</ele>
        <time>2025-02-09T12:20:26Z</time>
      </trkpt>
      <trkpt lat="45.18242" lon="6.09632">
        <ele>1816</ele>
        <time>2025-02-09T12:20:29Z</time>
      </trkpt>
      <trkpt lat="45.18244" lon="6.09621">
        <ele>1816</ele>
        <time>2025-02-09T12:20:32Z</time>
      </trkpt>
      <trkpt lat="45.18246" lon="6.09611">
        <ele>1812</ele>
        <time>2025-02-09T12:20:33Z</time>
      </trkpt>
      <trkpt lat="45.18245" lon="6.09594">
        <ele>1812</ele>
        <time>2025-02-09T12:20:34Z</time>
      </trkpt>
      <trkpt lat="45.18244" lon="6.09584">
        <ele>1812</ele>
        <time>2025-02-09T12:20:36Z</time>
      </trkpt>
      <trkpt lat="45.18243" lon="6.09574">
        <ele>1812</ele>
        <time>2025-02-09T12:20:38Z</time>
      </trkpt>
      <trkpt lat="45.18242" lon="6.09564">
        <ele>1812</ele>
        <time>2025-02-09T12:20:40Z</time>
      </trkpt>
      <trkpt lat="45.18241" lon="6.09554">
        <ele>1812</ele>
        <time>2025-02-09T12:20:42Z</time>
      </trkpt>
      <trkpt lat="45.1824" lon="6.09544">
        <ele>1807</ele>
        <time>2025-02-09T12:20:43Z</time>
      </trkpt>
      <trkpt lat="45.18236" lon="6.09526">
        <ele>1807</ele>
        <time>2025-02-09T12:20:45Z</time>
      </trkpt>
      <trkpt lat="45.18232" lon="6.09517">
        <ele>1807</ele>
        <time>2025-02-09T12:20:47Z</time>
      </trkpt>
      <trkpt lat="45.18228" lon="6.09508">
        <ele>1807</ele>
        <time>2025-02-09T12:20:49Z</time>
      </trkpt>
      <trkpt lat="45.18223" lon="6.095">
        <ele>1807</ele>
        <time>2025-02-09T12:20:51Z</time>
      </trkpt>
      <trkpt lat="45.18219" lon="6.09491">
        <ele>1804</ele>
        <time>2025-02-09T12:20:53Z</time>
      </trkpt>
      <trkpt lat="45.18206" lon="6.09479">
        <ele>1804</ele>
        <time>2025-02-09T12:20:54Z</time>
      </trkpt>
      <trkpt lat="45.18199" lon="6.09472">
        <ele>1804</ele>
        <time>2025-02-09T12:20:56Z</time>
      </trkpt>
      <trkpt lat="45.18193" lon="6.09465">
        <ele>1804</ele>
        <time>2025-02-09T12:20:58Z</time>
      </trkpt>
      <trkpt lat="45.18186" lon="6.09459">
        <ele>1804</ele>
        <time>2025-02-09T12:21:00Z</time>
      </trkpt>
      <trkpt lat="45.18179" lon="6.09452">
        <ele>1804</ele>
        <time>2025-02-09T12:21:02Z</time>
      </trkpt>
      <trkpt lat="45.18173" lon="6.09445">
        <ele>1798</ele>
        <time>2025-02-09T12:21:03Z</time>
      </trkpt>
      <trkpt lat="45.18159" lon="6.09429">
        <ele>1798</ele>
        <time>2025-02-09T12:21:05Z</time>
      </trkpt>
      <trkpt lat="45.18152" lon="6.0942">
        <ele>1798</ele>
        <time>2025-02-09T12:21:07Z</time>
      </trkpt>
      <trkpt lat="45.18145" lon="6.0941">
        <ele>1798</ele>
        <time>2025-02-09T12:21:09Z</time>
      </trkpt>
      <trkpt lat="45.18138" lon="6.09401">
        <ele>1798</ele>
        <time>2025-02-09T12:21:11Z</time>
      </trkpt>
      <trkpt lat="45.1813" lon="6.09392">
        <ele>1795</ele>
        <time>2025-02-09T12:21:13Z</time>
      </trkpt>
      <trkpt lat="45.18112" lon="6.09373">
        <ele>1795</ele>
        <time>2025-02-09T12:21:15Z</time>
      </trkpt>
      <trkpt lat="45.18102" lon="6.09367">
        <ele>1795</ele>
        <time>2025-02-09T12:21:17Z</time>
      </trkpt>
      <trkpt lat="45.18093" lon="6.09361">
        <ele>1795</ele>
        <time>2025-02-09T12:21:19Z</time>
      </trkpt>
      <trkpt lat="45.18083" lon="6.09355">
        <ele>1795</ele>
        <time>2025-02-09T12:21:21Z</time>
      </trkpt>
      <trkpt lat="45.18073" lon="6.09349">
        <ele>1787</ele>
        <time>2025-02-09T12:21:23Z</time>
      </trkpt>
      <trkpt lat="45.18053" lon="6.09336">
        <ele>1787</ele>
        <time>2025-02-09T12:21:25Z</time>
      </trkpt>
      <trkpt lat="45.18046" lon="6.09328">
        <ele>1787</ele>
        <time>2025-02-09T12:21:27Z</time>
      </trkpt>
      <trkpt lat="45.18038" lon="6.09319">
        <ele>1787</ele>
        <time>2025-02-09T12:21:29Z</time>
      </trkpt>
      <trkpt lat="45.18031" lon="6.09311">
        <ele>1787</ele>
        <time>2025-02-09T12:21:31Z</time>
      </trkpt>
      <trkpt lat="45.18023" lon="6.09302">
        <ele>1781</ele>
        <time>2025-02-09T12:21:33Z</time>
      </trkpt>
      <trkpt lat="45.18014" lon="6.09275">
        <ele>1781</ele>
        <time>2025-02-09T12:21:35Z</time>
      </trkpt>
      <trkpt lat="45.18012" lon="6.09262">
        <ele>1781</ele>
        <time>2025-02-09T12:21:37Z</time>
      </trkpt>
      <trkpt lat="45.18009" lon="6.09249">
        <ele>1781</ele>
        <time>2025-02-09T12:21:39Z</time>
      </trkpt>
      <trkpt lat="45.18007" lon="6.09236">
        <ele>1781</ele>
        <time>2025-02-09T12:21:41Z</time>
      </trkpt>
      <trkpt lat="45.18005" lon="6.09223">
        <ele>1776</ele>
        <time>2025-02-09T12:21:43Z</time>
      </trkpt>
      <trkpt lat="45.17998" lon="6.09195">
        <ele>1776</ele>
        <time>2025-02-09T12:21:45Z</time>
      </trkpt>
      <trkpt lat="45.17993" lon="6.09185">
        <ele>1776</ele>
        <time>2025-02-09T12:21:47Z</time>
      </trkpt>
      <trkpt lat="45.17988" lon="6.09174">
        <ele>1776</ele>
        <time>2025-02-09T12:21:49Z</time>
      </trkpt>
      <trkpt lat="45.17983" lon="6.09163">
        <ele>1776</ele>
        <time>2025-02-09T12:21:51Z</time>
      </trkpt>
      <trkpt lat="45.17978" lon="6.09153">
        <ele>1772</ele>
        <time>2025-02-09T12:21:53Z</time>
      </trkpt>
      <trkpt lat="45.17962" lon="6.09134">
        <ele>1772</ele>
        <time>2025-02-09T12:21:55Z</time>
      </trkpt>
      <trkpt lat="45.17954" lon="6.09127">
        <ele>1772</ele>
        <time>2025-02-09T12:21:57Z</time>
      </trkpt>
      <trkpt lat="45.17945" lon="6.09121">
        <ele>1772</ele>
        <time>2025-02-09T12:21:59Z</time>
      </trkpt>
      <trkpt lat="45.17937" lon="6.09115">
        <ele>1772</ele>
        <time>2025-02-09T12:22:01Z</time>
      </trkpt>
      <trkpt lat="45.17929" lon="6.09109">
        <ele>1766</ele>
        <time>2025-02-09T12:22:03Z</time>
      </trkpt>
      <trkpt lat="45.17918" lon="6.09103">
        <ele>1766</ele>
        <time>2025-02-09T12:22:05Z</time>
      </trkpt>
      <trkpt lat="45.1791" lon="6.09097">
        <ele>1766</ele>
        <time>2025-02-09T12:22:07Z</time>
      </trkpt>
      <trkpt lat="45.17901" lon="6.0909">
        <ele>1766</ele>
        <time>2025-02-09T12:22:10Z</time>
      </trkpt>
      <trkpt lat="45.17901" lon="6.0909">
        <ele>1762</ele>
        <time>2025-02-09T12:22:13Z</time>
      </trkpt>
      <trkpt lat="45.17899" lon="6.09088">
        <ele>1761</ele>
        <time>2025-02-09T12:22:23Z</time>
      </trkpt>
      <trkpt lat="45.17897" lon="6.09085">
        <ele>1761</ele>
        <time>2025-02-09T12:22:33Z</time>
      </trkpt>
      <trkpt lat="45.17895" lon="6.09083">
        <ele>1761</ele>
        <time>2025-02-09T12:22:43Z</time>
      </trkpt>
      <trkpt lat="45.17893" lon="6.09081">
        <ele>1761</ele>
        <time>2025-02-09T12:22:53Z</time>
      </trkpt>
      <trkpt lat="45.17891" lon="6.09078">
        <ele>1761</ele>
        <time>2025-02-09T12:22:58Z</time>
      </trkpt>
      <trkpt lat="45.17888" lon="6.09076">
        <ele>1761</ele>
        <time>2025-02-09T12:23:01Z</time>
      </trkpt>
      <trkpt lat="45.17886" lon="6.09074">
        <ele>1759</ele>
        <time>2025-02-09T12:23:03Z</time>
      </trkpt>
      <trkpt lat="45.17877" lon="6.09065">
        <ele>1759</ele>
        <time>2025-02-09T12:23:06Z</time>
      </trkpt>
      <trkpt lat="45.17877" lon="6.09065">
        <ele>1758</ele>
        <time>2025-02-09T12:23:13Z</time>
      </trkpt>
      <trkpt lat="45.17877" lon="6.09065">
        <ele>1757</ele>
        <time>2025-02-09T12:23:23Z</time>
      </trkpt>
      <trkpt lat="45.17869" lon="6.09059">
        <ele>1757</ele>
        <time>2025-02-09T12:23:24Z</time>
      </trkpt>
      <trkpt lat="45.17869" lon="6.09059">
        <ele>1757</ele>
        <time>2025-02-09T12:23:33Z</time>
      </trkpt>
      <trkpt lat="45.17869" lon="6.09059">
        <ele>1757</ele>
        <time>2025-02-09T12:23:43Z</time>
      </trkpt>
      <trkpt lat="45.17872" lon="6.09072">
        <ele>1757</ele>
        <time>2025-02-09T12:23:51Z</time>
      </trkpt>
      <trkpt lat="45.17872" lon="6.09072">
        <ele>1754</ele>
        <time>2025-02-09T12:23:53Z</time>
      </trkpt>
      <trkpt lat="45.17877" lon="6.09085">
        <ele>1754</ele>
        <time>2025-02-09T12:23:54Z</time>
      </trkpt>
      <trkpt lat="45.17884" lon="6.09096">
        <ele>1754</ele>
        <time>2025-02-09T12:23:57Z</time>
      </trkpt>
      <trkpt lat="45.17884" lon="6.09096">
        <ele>1746</ele>
        <time>2025-02-09T12:24:03Z</time>
      </trkpt>
      <trkpt lat="45.17875" lon="6.09103">
        <ele>1746</ele>
        <time>2025-02-09T12:24:04Z</time>
      </trkpt>
      <trkpt lat="45.17876" lon="6.09109">
        <ele>1744</ele>
        <time>2025-02-09T12:24:13Z</time>
      </trkpt>
      <trkpt lat="45.17876" lon="6.09114">
        <ele>1744</ele>
        <time>2025-02-09T12:24:17Z</time>
      </trkpt>
      <trkpt lat="45.17877" lon="6.09119">
        <ele>1744</ele>
        <time>2025-02-09T12:24:21Z</time>
      </trkpt>
      <trkpt lat="45.17877" lon="6.09125">
        <ele>1739</ele>
        <time>2025-02-09T12:24:23Z</time>
      </trkpt>
      <trkpt lat="45.17864" lon="6.09121">
        <ele>1739</ele>
        <time>2025-02-09T12:24:27Z</time>
      </trkpt>
      <trkpt lat="45.1786" lon="6.09119">
        <ele>1739</ele>
        <time>2025-02-09T12:24:31Z</time>
      </trkpt>
      <trkpt lat="45.17857" lon="6.09117">
        <ele>1732</ele>
        <time>2025-02-09T12:24:33Z</time>
      </trkpt>
      <trkpt lat="45.17857" lon="6.09117">
        <ele>1731</ele>
        <time>2025-02-09T12:24:43Z</time>
      </trkpt>
      <trkpt lat="45.17857" lon="6.09117">
        <ele>1731</ele>
        <time>2025-02-09T12:24:53Z</time>
      </trkpt>
      <trkpt lat="45.17849" lon="6.0911">
        <ele>1731</ele>
        <time>2025-02-09T12:24:54Z</time>
      </trkpt>
      <trkpt lat="45.17849" lon="6.0911">
        <ele>1732</ele>
        <time>2025-02-09T12:25:03Z</time>
      </trkpt>
      <trkpt lat="45.17849" lon="6.0911">
        <ele>1731</ele>
        <time>2025-02-09T12:25:13Z</time>
      </trkpt>
      <trkpt lat="45.17849" lon="6.0911">
        <ele>1731</ele>
        <time>2025-02-09T12:25:23Z</time>
      </trkpt>
      <trkpt lat="45.17849" lon="6.0911">
        <ele>1731</ele>
        <time>2025-02-09T12:25:33Z</time>
      </trkpt>
      <trkpt lat="45.17845" lon="6.09098">
        <ele>1731</ele>
        <time>2025-02-09T12:25:38Z</time>
      </trkpt>
      <trkpt lat="45.17845" lon="6.09098">
        <ele>1732</ele>
        <time>2025-02-09T12:25:43Z</time>
      </trkpt>
      <trkpt lat="45.17845" lon="6.09098">
        <ele>1732</ele>
        <time>2025-02-09T12:25:53Z</time>
      </trkpt>
      <trkpt lat="45.17845" lon="6.09098">
        <ele>1731</ele>
        <time>2025-02-09T12:26:03Z</time>
      </trkpt>
      <trkpt lat="45.17845" lon="6.09098">
        <ele>1732</ele>
        <time>2025-02-09T12:26:13Z</time>
      </trkpt>
      <trkpt lat="45.17845" lon="6.09098">
        <ele>1732</ele>
        <time>2025-02-09T12:26:23Z</time>
      </trkpt>
      <trkpt lat="45.17847" lon="6.09114">
        <ele>1729</ele>
        <time>2025-02-09T12:26:33Z</time>
      </trkpt>
      <trkpt lat="45.17851" lon="6.09128">
        <ele>1729</ele>
        <time>2025-02-09T12:26:37Z</time>
      </trkpt>
      <trkpt lat="45.17851" lon="6.09128">
        <ele>1724</ele>
        <time>2025-02-09T12:26:43Z</time>
      </trkpt>
      <trkpt lat="45.17842" lon="6.09127">
        <ele>1724</ele>
        <time>2025-02-09T12:26:47Z</time>
      </trkpt>
      <trkpt lat="45.17833" lon="6.0912">
        <ele>1724</ele>
        <time>2025-02-09T12:26:50Z</time>
      </trkpt>
      <trkpt lat="45.17833" lon="6.0912">
        <ele>1721</ele>
        <time>2025-02-09T12:26:53Z</time>
      </trkpt>
      <trkpt lat="45.17821" lon="6.09113">
        <ele>1721</ele>
        <time>2025-02-09T12:26:58Z</time>
      </trkpt>
      <trkpt lat="45.17819" lon="6.0911">
        <ele>1721</ele>
        <time>2025-02-09T12:27:01Z</time>
      </trkpt>
      <trkpt lat="45.17816" lon="6.09107">
        <ele>1713</ele>
        <time>2025-02-09T12:27:03Z</time>
      </trkpt>
      <trkpt lat="45.17807" lon="6.09111">
        <ele>1713</ele>
        <time>2025-02-09T12:27:06Z</time>
      </trkpt>
      <trkpt lat="45.17802" lon="6.09123">
        <ele>1713</ele>
        <time>2025-02-09T12:27:10Z</time>
      </trkpt>
      <trkpt lat="45.17802" lon="6.09123">
        <ele>1709</ele>
        <time>2025-02-09T12:27:13Z</time>
      </trkpt>
      <trkpt lat="45.17802" lon="6.09123">
        <ele>1707</ele>
        <time>2025-02-09T12:27:23Z</time>
      </trkpt>
      <trkpt lat="45.17793" lon="6.09121">
        <ele>1707</ele>
        <time>2025-02-09T12:27:27Z</time>
      </trkpt>
      <trkpt lat="45.17793" lon="6.09121">
        <ele>1704</ele>
        <time>2025-02-09T12:27:33Z</time>
      </trkpt>
      <trkpt lat="45.17784" lon="6.09124">
        <ele>1704</ele>
        <time>2025-02-09T12:27:40Z</time>
      </trkpt>
      <trkpt lat="45.17784" lon="6.09124">
        <ele>1702</ele>
        <time>2025-02-09T12:27:43Z</time>
      </trkpt>
      <trkpt lat="45.17775" lon="6.09117">
        <ele>1702</ele>
        <time>2025-02-09T12:27:45Z</time>
      </trkpt>
      <trkpt lat="45.17766" lon="6.09112">
        <ele>1702</ele>
        <time>2025-02-09T12:27:47Z</time>
      </trkpt>
      <trkpt lat="45.17755" lon="6.0911">
        <ele>1702</ele>
        <time>2025-02-09T12:27:50Z</time>
      </trkpt>
      <trkpt lat="45.17755" lon="6.0911">
        <ele>1698</ele>
        <time>2025-02-09T12:27:53Z</time>
      </trkpt>
      <trkpt lat="45.17746" lon="6.09114">
        <ele>1698</ele>
        <time>2025-02-09T12:28:01Z</time>
      </trkpt>
      <trkpt lat="45.17746" lon="6.09114">
        <ele>1694</ele>
        <time>2025-02-09T12:28:03Z</time>
      </trkpt>
      <trkpt lat="45.17729" lon="6.09119">
        <ele>1694</ele>
        <time>2025-02-09T12:28:06Z</time>
      </trkpt>
      <trkpt lat="45.17723" lon="6.09119">
        <ele>1694</ele>
        <time>2025-02-09T12:28:09Z</time>
      </trkpt>
      <trkpt lat="45.17718" lon="6.0912">
        <ele>1694</ele>
        <time>2025-02-09T12:28:12Z</time>
      </trkpt>
      <trkpt lat="45.17712" lon="6.0912">
        <ele>1686</ele>
        <time>2025-02-09T12:28:13Z</time>
      </trkpt>
      <trkpt lat="45.17703" lon="6.09122">
        <ele>1686</ele>
        <time>2025-02-09T12:28:23Z</time>
      </trkpt>
      <trkpt lat="45.17704" lon="6.09135">
        <ele>1686</ele>
        <time>2025-02-09T12:28:30Z</time>
      </trkpt>
      <trkpt lat="45.17712" lon="6.09138">
        <ele>1683</ele>
        <time>2025-02-09T12:28:33Z</time>
      </trkpt>
      <trkpt lat="45.1772" lon="6.09149">
        <ele>1683</ele>
        <time>2025-02-09T12:28:42Z</time>
      </trkpt>
      <trkpt lat="45.1772" lon="6.09149">
        <ele>1678</ele>
        <time>2025-02-09T12:28:43Z</time>
      </trkpt>
      <trkpt lat="45.1772" lon="6.09149">
        <ele>1677</ele>
        <time>2025-02-09T12:28:53Z</time>
      </trkpt>
      <trkpt lat="45.1771" lon="6.09148">
        <ele>1677</ele>
        <time>2025-02-09T12:28:58Z</time>
      </trkpt>
      <trkpt lat="45.1771" lon="6.09148">
        <ele>1674</ele>
        <time>2025-02-09T12:29:03Z</time>
      </trkpt>
      <trkpt lat="45.177" lon="6.09154">
        <ele>1674</ele>
        <time>2025-02-09T12:29:12Z</time>
      </trkpt>
      <trkpt lat="45.17699" lon="6.09154">
        <ele>1672</ele>
        <time>2025-02-09T12:29:13Z</time>
      </trkpt>
      <trkpt lat="45.17694" lon="6.09145">
        <ele>1672</ele>
        <time>2025-02-09T12:29:23Z</time>
      </trkpt>
      <trkpt lat="45.17694" lon="6.09145">
        <ele>1671</ele>
        <time>2025-02-09T12:29:24Z</time>
      </trkpt>
      <trkpt lat="45.17701" lon="6.09155">
        <ele>1671</ele>
        <time>2025-02-09T12:29:31Z</time>
      </trkpt>
      <trkpt lat="45.17701" lon="6.09155">
        <ele>1670</ele>
        <time>2025-02-09T12:29:33Z</time>
      </trkpt>
      <trkpt lat="45.17706" lon="6.09178">
        <ele>1670</ele>
        <time>2025-02-09T12:29:34Z</time>
      </trkpt>
      <trkpt lat="45.17708" lon="6.0919">
        <ele>1670</ele>
        <time>2025-02-09T12:29:37Z</time>
      </trkpt>
      <trkpt lat="45.17709" lon="6.09202">
        <ele>1670</ele>
        <time>2025-02-09T12:29:40Z</time>
      </trkpt>
      <trkpt lat="45.1771" lon="6.09214">
        <ele>1667</ele>
        <time>2025-02-09T12:29:43Z</time>
      </trkpt>
      <trkpt lat="45.17711" lon="6.09227">
        <ele>1667</ele>
        <time>2025-02-09T12:29:45Z</time>
      </trkpt>
      <trkpt lat="45.17712" lon="6.0924">
        <ele>1667</ele>
        <time>2025-02-09T12:29:48Z</time>
      </trkpt>
      <trkpt lat="45.17712" lon="6.0924">
        <ele>1661</ele>
        <time>2025-02-09T12:29:53Z</time>
      </trkpt>
      <trkpt lat="45.17694" lon="6.09217">
        <ele>1661</ele>
        <time>2025-02-09T12:29:54Z</time>
      </trkpt>
      <trkpt lat="45.17688" lon="6.09207">
        <ele>1661</ele>
        <time>2025-02-09T12:29:56Z</time>
      </trkpt>
      <trkpt lat="45.17681" lon="6.09197">
        <ele>1661</ele>
        <time>2025-02-09T12:29:59Z</time>
      </trkpt>
      <trkpt lat="45.17675" lon="6.09187">
        <ele>1661</ele>
        <time>2025-02-09T12:30:01Z</time>
      </trkpt>
      <trkpt lat="45.17669" lon="6.09177">
        <ele>1658</ele>
        <time>2025-02-09T12:30:03Z</time>
      </trkpt>
      <trkpt lat="45.1765" lon="6.09164">
        <ele>1658</ele>
        <time>2025-02-09T12:30:05Z</time>
      </trkpt>
      <trkpt lat="45.17641" lon="6.09159">
        <ele>1658</ele>
        <time>2025-02-09T12:30:07Z</time>
      </trkpt>
      <trkpt lat="45.17632" lon="6.09153">
        <ele>1658</ele>
        <time>2025-02-09T12:30:09Z</time>
      </trkpt>
      <trkpt lat="45.17623" lon="6.09147">
        <ele>1658</ele>
        <time>2025-02-09T12:30:11Z</time>
      </trkpt>
      <trkpt lat="45.17613" lon="6.09141">
        <ele>1653</ele>
        <time>2025-02-09T12:30:13Z</time>
      </trkpt>
      <trkpt lat="45.17593" lon="6.09129">
        <ele>1653</ele>
        <time>2025-02-09T12:30:15Z</time>
      </trkpt>
      <trkpt lat="45.17585" lon="6.09125">
        <ele>1653</ele>
        <time>2025-02-09T12:30:17Z</time>
      </trkpt>
      <trkpt lat="45.17576" lon="6.0912">
        <ele>1653</ele>
        <time>2025-02-09T12:30:19Z</time>
      </trkpt>
      <trkpt lat="45.17567" lon="6.09116">
        <ele>1653</ele>
        <time>2025-02-09T12:30:21Z</time>
      </trkpt>
      <trkpt lat="45.17559" lon="6.09111">
        <ele>1653</ele>
        <time>2025-02-09T12:30:23Z</time>
      </trkpt>
      <trkpt lat="45.1755" lon="6.09107">
        <ele>1644</ele>
        <time>2025-02-09T12:30:24Z</time>
      </trkpt>
      <trkpt lat="45.17537" lon="6.09099">
        <ele>1644</ele>
        <time>2025-02-09T12:30:25Z</time>
      </trkpt>
      <trkpt lat="45.17529" lon="6.09096">
        <ele>1644</ele>
        <time>2025-02-09T12:30:27Z</time>
      </trkpt>
      <trkpt lat="45.17521" lon="6.09093">
        <ele>1644</ele>
        <time>2025-02-09T12:30:29Z</time>
      </trkpt>
      <trkpt lat="45.17514" lon="6.0909">
        <ele>1644</ele>
        <time>2025-02-09T12:30:31Z</time>
      </trkpt>
      <trkpt lat="45.17506" lon="6.09087">
        <ele>1639</ele>
        <time>2025-02-09T12:30:33Z</time>
      </trkpt>
      <trkpt lat="45.17492" lon="6.09084">
        <ele>1639</ele>
        <time>2025-02-09T12:30:34Z</time>
      </trkpt>
      <trkpt lat="45.17484" lon="6.09084">
        <ele>1639</ele>
        <time>2025-02-09T12:30:37Z</time>
      </trkpt>
      <trkpt lat="45.17475" lon="6.09083">
        <ele>1639</ele>
        <time>2025-02-09T12:30:40Z</time>
      </trkpt>
      <trkpt lat="45.17466" lon="6.09082">
        <ele>1635</ele>
        <time>2025-02-09T12:30:43Z</time>
      </trkpt>
      <trkpt lat="45.17447" lon="6.0909">
        <ele>1635</ele>
        <time>2025-02-09T12:30:45Z</time>
      </trkpt>
      <trkpt lat="45.17438" lon="6.09094">
        <ele>1635</ele>
        <time>2025-02-09T12:30:47Z</time>
      </trkpt>
      <trkpt lat="45.17429" lon="6.09099">
        <ele>1635</ele>
        <time>2025-02-09T12:30:49Z</time>
      </trkpt>
      <trkpt lat="45.17421" lon="6.09103">
        <ele>1635</ele>
        <time>2025-02-09T12:30:51Z</time>
      </trkpt>
      <trkpt lat="45.17412" lon="6.09107">
        <ele>1631</ele>
        <time>2025-02-09T12:30:53Z</time>
      </trkpt>
      <trkpt lat="45.17394" lon="6.09114">
        <ele>1631</ele>
        <time>2025-02-09T12:30:55Z</time>
      </trkpt>
      <trkpt lat="45.17386" lon="6.09116">
        <ele>1631</ele>
        <time>2025-02-09T12:30:58Z</time>
      </trkpt>
      <trkpt lat="45.17378" lon="6.09118">
        <ele>1631</ele>
        <time>2025-02-09T12:31:00Z</time>
      </trkpt>
      <trkpt lat="45.1737" lon="6.0912">
        <ele>1631</ele>
        <time>2025-02-09T12:31:02Z</time>
      </trkpt>
      <trkpt lat="45.17363" lon="6.09122">
        <ele>1624</ele>
        <time>2025-02-09T12:31:03Z</time>
      </trkpt>
      <trkpt lat="45.1735" lon="6.09119">
        <ele>1624</ele>
        <time>2025-02-09T12:31:04Z</time>
      </trkpt>
      <trkpt lat="45.17343" lon="6.09114">
        <ele>1624</ele>
        <time>2025-02-09T12:31:06Z</time>
      </trkpt>
      <trkpt lat="45.17335" lon="6.09109">
        <ele>1624</ele>
        <time>2025-02-09T12:31:08Z</time>
      </trkpt>
      <trkpt lat="45.17328" lon="6.09104">
        <ele>1624</ele>
        <time>2025-02-09T12:31:10Z</time>
      </trkpt>
      <trkpt lat="45.1732" lon="6.09098">
        <ele>1624</ele>
        <time>2025-02-09T12:31:12Z</time>
      </trkpt>
      <trkpt lat="45.17313" lon="6.09093">
        <ele>1617</ele>
        <time>2025-02-09T12:31:13Z</time>
      </trkpt>
      <trkpt lat="45.173" lon="6.09085">
        <ele>1617</ele>
        <time>2025-02-09T12:31:14Z</time>
      </trkpt>
      <trkpt lat="45.17292" lon="6.09081">
        <ele>1617</ele>
        <time>2025-02-09T12:31:16Z</time>
      </trkpt>
      <trkpt lat="45.17284" lon="6.09077">
        <ele>1617</ele>
        <time>2025-02-09T12:31:18Z</time>
      </trkpt>
      <trkpt lat="45.17276" lon="6.09073">
        <ele>1617</ele>
        <time>2025-02-09T12:31:20Z</time>
      </trkpt>
      <trkpt lat="45.17267" lon="6.09069">
        <ele>1617</ele>
        <time>2025-02-09T12:31:22Z</time>
      </trkpt>
      <trkpt lat="45.17259" lon="6.09065">
        <ele>1610</ele>
        <time>2025-02-09T12:31:23Z</time>
      </trkpt>
      <trkpt lat="45.17245" lon="6.09057">
        <ele>1610</ele>
        <time>2025-02-09T12:31:24Z</time>
      </trkpt>
      <trkpt lat="45.17236" lon="6.09051">
        <ele>1610</ele>
        <time>2025-02-09T12:31:26Z</time>
      </trkpt>
      <trkpt lat="45.17227" lon="6.09044">
        <ele>1610</ele>
        <time>2025-02-09T12:31:28Z</time>
      </trkpt>
      <trkpt lat="45.17218" lon="6.09038">
        <ele>1610</ele>
        <time>2025-02-09T12:31:30Z</time>
      </trkpt>
      <trkpt lat="45.17209" lon="6.09031">
        <ele>1604</ele>
        <time>2025-02-09T12:31:33Z</time>
      </trkpt>
      <trkpt lat="45.1722" lon="6.09054">
        <ele>1604</ele>
        <time>2025-02-09T12:31:38Z</time>
      </trkpt>
      <trkpt lat="45.17228" lon="6.0906">
        <ele>1604</ele>
        <time>2025-02-09T12:31:39Z</time>
      </trkpt>
      <trkpt lat="45.17236" lon="6.09067">
        <ele>1604</ele>
        <time>2025-02-09T12:31:41Z</time>
      </trkpt>
      <trkpt lat="45.17244" lon="6.09073">
        <ele>1599</ele>
        <time>2025-02-09T12:31:43Z</time>
      </trkpt>
      <trkpt lat="45.17261" lon="6.09091">
        <ele>1599</ele>
        <time>2025-02-09T12:31:45Z</time>
      </trkpt>
      <trkpt lat="45.17268" lon="6.09101">
        <ele>1599</ele>
        <time>2025-02-09T12:31:47Z</time>
      </trkpt>
      <trkpt lat="45.17276" lon="6.09111">
        <ele>1599</ele>
        <time>2025-02-09T12:31:49Z</time>
      </trkpt>
      <trkpt lat="45.17283" lon="6.09121">
        <ele>1599</ele>
        <time>2025-02-09T12:31:51Z</time>
      </trkpt>
      <trkpt lat="45.1729" lon="6.09131">
        <ele>1594</ele>
        <time>2025-02-09T12:31:53Z</time>
      </trkpt>
      <trkpt lat="45.17291" lon="6.09153">
        <ele>1594</ele>
        <time>2025-02-09T12:31:54Z</time>
      </trkpt>
      <trkpt lat="45.17289" lon="6.09164">
        <ele>1594</ele>
        <time>2025-02-09T12:31:56Z</time>
      </trkpt>
      <trkpt lat="45.17287" lon="6.09175">
        <ele>1594</ele>
        <time>2025-02-09T12:31:58Z</time>
      </trkpt>
      <trkpt lat="45.17285" lon="6.09185">
        <ele>1594</ele>
        <time>2025-02-09T12:32:00Z</time>
      </trkpt>
      <trkpt lat="45.17283" lon="6.09196">
        <ele>1594</ele>
        <time>2025-02-09T12:32:02Z</time>
      </trkpt>
      <trkpt lat="45.17281" lon="6.09207">
        <ele>1585</ele>
        <time>2025-02-09T12:32:03Z</time>
      </trkpt>
      <trkpt lat="45.1729" lon="6.0922">
        <ele>1585</ele>
        <time>2025-02-09T12:32:05Z</time>
      </trkpt>
      <trkpt lat="45.17299" lon="6.09224">
        <ele>1585</ele>
        <time>2025-02-09T12:32:07Z</time>
      </trkpt>
      <trkpt lat="45.17308" lon="6.09228">
        <ele>1585</ele>
        <time>2025-02-09T12:32:09Z</time>
      </trkpt>
      <trkpt lat="45.17316" lon="6.09232">
        <ele>1585</ele>
        <time>2025-02-09T12:32:11Z</time>
      </trkpt>
      <trkpt lat="45.17325" lon="6.09235">
        <ele>1578</ele>
        <time>2025-02-09T12:32:13Z</time>
      </trkpt>
      <trkpt lat="45.17348" lon="6.09238">
        <ele>1578</ele>
        <time>2025-02-09T12:32:15Z</time>
      </trkpt>
      <trkpt lat="45.17355" lon="6.09245">
        <ele>1578</ele>
        <time>2025-02-09T12:32:17Z</time>
      </trkpt>
      <trkpt lat="45.17362" lon="6.09253">
        <ele>1578</ele>
        <time>2025-02-09T12:32:19Z</time>
      </trkpt>
      <trkpt lat="45.17369" lon="6.09261">
        <ele>1578</ele>
        <time>2025-02-09T12:32:21Z</time>
      </trkpt>
      <trkpt lat="45.17376" lon="6.09269">
        <ele>1570</ele>
        <time>2025-02-09T12:32:23Z</time>
      </trkpt>
      <trkpt lat="45.17382" lon="6.093">
        <ele>1570</ele>
        <time>2025-02-09T12:32:25Z</time>
      </trkpt>
      <trkpt lat="45.17385" lon="6.09312">
        <ele>1570</ele>
        <time>2025-02-09T12:32:27Z</time>
      </trkpt>
      <trkpt lat="45.17387" lon="6.09324">
        <ele>1570</ele>
        <time>2025-02-09T12:32:29Z</time>
      </trkpt>
      <trkpt lat="45.17389" lon="6.09336">
        <ele>1570</ele>
        <time>2025-02-09T12:32:31Z</time>
      </trkpt>
      <trkpt lat="45.17392" lon="6.09348">
        <ele>1567</ele>
        <time>2025-02-09T12:32:33Z</time>
      </trkpt>
      <trkpt lat="45.17383" lon="6.09356">
        <ele>1567</ele>
        <time>2025-02-09T12:32:36Z</time>
      </trkpt>
      <trkpt lat="45.17375" lon="6.09348">
        <ele>1567</ele>
        <time>2025-02-09T12:32:38Z</time>
      </trkpt>
      <trkpt lat="45.17366" lon="6.09339">
        <ele>1567</ele>
        <time>2025-02-09T12:32:40Z</time>
      </trkpt>
      <trkpt lat="45.17358" lon="6.09331">
        <ele>1567</ele>
        <time>2025-02-09T12:32:41Z</time>
      </trkpt>
      <trkpt lat="45.17349" lon="6.09322">
        <ele>1556</ele>
        <time>2025-02-09T12:32:43Z</time>
      </trkpt>
      <trkpt lat="45.17329" lon="6.09303">
        <ele>1556</ele>
        <time>2025-02-09T12:32:45Z</time>
      </trkpt>
      <trkpt lat="45.1732" lon="6.09299">
        <ele>1556</ele>
        <time>2025-02-09T12:32:47Z</time>
      </trkpt>
      <trkpt lat="45.17311" lon="6.09294">
        <ele>1556</ele>
        <time>2025-02-09T12:32:49Z</time>
      </trkpt>
      <trkpt lat="45.17303" lon="6.09289">
        <ele>1556</ele>
        <time>2025-02-09T12:32:51Z</time>
      </trkpt>
      <trkpt lat="45.17294" lon="6.09284">
        <ele>1552</ele>
        <time>2025-02-09T12:32:53Z</time>
      </trkpt>
      <trkpt lat="45.1727" lon="6.09281">
        <ele>1552</ele>
        <time>2025-02-09T12:32:55Z</time>
      </trkpt>
      <trkpt lat="45.17258" lon="6.09279">
        <ele>1552</ele>
        <time>2025-02-09T12:32:57Z</time>
      </trkpt>
      <trkpt lat="45.17245" lon="6.09277">
        <ele>1552</ele>
        <time>2025-02-09T12:32:59Z</time>
      </trkpt>
      <trkpt lat="45.17233" lon="6.09274">
        <ele>1552</ele>
        <time>2025-02-09T12:33:01Z</time>
      </trkpt>
      <trkpt lat="45.17221" lon="6.09272">
        <ele>1540</ele>
        <time>2025-02-09T12:33:03Z</time>
      </trkpt>
      <trkpt lat="45.17197" lon="6.09259">
        <ele>1540</ele>
        <time>2025-02-09T12:33:05Z</time>
      </trkpt>
      <trkpt lat="45.17189" lon="6.09252">
        <ele>1540</ele>
        <time>2025-02-09T12:33:07Z</time>
      </trkpt>
      <trkpt lat="45.1718" lon="6.09245">
        <ele>1540</ele>
        <time>2025-02-09T12:33:09Z</time>
      </trkpt>
      <trkpt lat="45.17171" lon="6.09238">
        <ele>1540</ele>
        <time>2025-02-09T12:33:11Z</time>
      </trkpt>
      <trkpt lat="45.17162" lon="6.09231">
        <ele>1532</ele>
        <time>2025-02-09T12:33:13Z</time>
      </trkpt>
      <trkpt lat="45.17157" lon="6.09219">
        <ele>1532</ele>
        <time>2025-02-09T12:33:15Z</time>
      </trkpt>
      <trkpt lat="45.17146" lon="6.09211">
        <ele>1532</ele>
        <time>2025-02-09T12:33:18Z</time>
      </trkpt>
      <trkpt lat="45.17146" lon="6.09211">
        <ele>1528</ele>
        <time>2025-02-09T12:33:23Z</time>
      </trkpt>
      <trkpt lat="45.17155" lon="6.09212">
        <ele>1528</ele>
        <time>2025-02-09T12:33:30Z</time>
      </trkpt>
      <trkpt lat="45.17155" lon="6.09212">
        <ele>1527</ele>
        <time>2025-02-09T12:33:33Z</time>
      </trkpt>
      <trkpt lat="45.17159" lon="6.09229">
        <ele>1527</ele>
        <time>2025-02-09T12:33:38Z</time>
      </trkpt>
      <trkpt lat="45.17157" lon="6.09233">
        <ele>1527</ele>
        <time>2025-02-09T12:33:41Z</time>
      </trkpt>
      <trkpt lat="45.17155" lon="6.09237">
        <ele>1527</ele>
        <time>2025-02-09T12:33:43Z</time>
      </trkpt>
      <trkpt lat="45.17155" lon="6.09261">
        <ele>1527</ele>
        <time>2025-02-09T12:33:45Z</time>
      </trkpt>
      <trkpt lat="45.17159" lon="6.09269">
        <ele>1527</ele>
        <time>2025-02-09T12:33:48Z</time>
      </trkpt>
      <trkpt lat="45.17162" lon="6.09277">
        <ele>1527</ele>
        <time>2025-02-09T12:33:50Z</time>
      </trkpt>
      <trkpt lat="45.17166" lon="6.09285">
        <ele>1527</ele>
        <time>2025-02-09T12:33:52Z</time>
      </trkpt>
      <trkpt lat="45.1717" lon="6.09293">
        <ele>1522</ele>
        <time>2025-02-09T12:33:53Z</time>
      </trkpt>
      <trkpt lat="45.17184" lon="6.09307">
        <ele>1522</ele>
        <time>2025-02-09T12:33:54Z</time>
      </trkpt>
      <trkpt lat="45.17191" lon="6.09316">
        <ele>1522</ele>
        <time>2025-02-09T12:33:56Z</time>
      </trkpt>
      <trkpt lat="45.17198" lon="6.09324">
        <ele>1522</ele>
        <time>2025-02-09T12:33:57Z</time>
      </trkpt>
      <trkpt lat="45.17205" lon="6.09333">
        <ele>1522</ele>
        <time>2025-02-09T12:33:59Z</time>
      </trkpt>
      <trkpt lat="45.17212" lon="6.09341">
        <ele>1522</ele>
        <time>2025-02-09T12:34:01Z</time>
      </trkpt>
      <trkpt lat="45.17218" lon="6.09349">
        <ele>1514</ele>
        <time>2025-02-09T12:34:03Z</time>
      </trkpt>
      <trkpt lat="45.17208" lon="6.09348">
        <ele>1514</ele>
        <time>2025-02-09T12:34:11Z</time>
      </trkpt>
      <trkpt lat="45.17202" lon="6.09345">
        <ele>1514</ele>
        <time>2025-02-09T12:34:12Z</time>
      </trkpt>
      <trkpt lat="45.17196" lon="6.09341">
        <ele>1509</ele>
        <time>2025-02-09T12:34:13Z</time>
      </trkpt>
      <trkpt lat="45.1717" lon="6.09325">
        <ele>1509</ele>
        <time>2025-02-09T12:34:15Z</time>
      </trkpt>
      <trkpt lat="45.17159" lon="6.09319">
        <ele>1509</ele>
        <time>2025-02-09T12:34:17Z</time>
      </trkpt>
      <trkpt lat="45.17148" lon="6.09312">
        <ele>1509</ele>
        <time>2025-02-09T12:34:19Z</time>
      </trkpt>
      <trkpt lat="45.17138" lon="6.09306">
        <ele>1509</ele>
        <time>2025-02-09T12:34:21Z</time>
      </trkpt>
      <trkpt lat="45.17127" lon="6.093">
        <ele>1499</ele>
        <time>2025-02-09T12:34:23Z</time>
      </trkpt>
      <trkpt lat="45.17106" lon="6.09284">
        <ele>1499</ele>
        <time>2025-02-09T12:34:25Z</time>
      </trkpt>
      <trkpt lat="45.17099" lon="6.09275">
        <ele>1499</ele>
        <time>2025-02-09T12:34:27Z</time>
      </trkpt>
      <trkpt lat="45.17091" lon="6.09266">
        <ele>1499</ele>
        <time>2025-02-09T12:34:29Z</time>
      </trkpt>
      <trkpt lat="45.17083" lon="6.09257">
        <ele>1499</ele>
        <time>2025-02-09T12:34:31Z</time>
      </trkpt>
      <trkpt lat="45.17076" lon="6.09248">
        <ele>1492</ele>
        <time>2025-02-09T12:34:33Z</time>
      </trkpt>
      <trkpt lat="45.1706" lon="6.09223">
        <ele>1492</ele>
        <time>2025-02-09T12:34:37Z</time>
      </trkpt>
      <trkpt lat="45.1706" lon="6.09223">
        <ele>1486</ele>
        <time>2025-02-09T12:34:43Z</time>
      </trkpt>
      <trkpt lat="45.17049" lon="6.09219">
        <ele>1486</ele>
        <time>2025-02-09T12:34:46Z</time>
      </trkpt>
      <trkpt lat="45.17038" lon="6.09213">
        <ele>1486</ele>
        <time>2025-02-09T12:34:49Z</time>
      </trkpt>
      <trkpt lat="45.17038" lon="6.09213">
        <ele>1484</ele>
        <time>2025-02-09T12:34:53Z</time>
      </trkpt>
      <trkpt lat="45.17035" lon="6.09201">
        <ele>1484</ele>
        <time>2025-02-09T12:35:00Z</time>
      </trkpt>
      <trkpt lat="45.17035" lon="6.09201">
        <ele>1482</ele>
        <time>2025-02-09T12:35:03Z</time>
      </trkpt>
      <trkpt lat="45.17031" lon="6.0918">
        <ele>1482</ele>
        <time>2025-02-09T12:35:08Z</time>
      </trkpt>
      <trkpt lat="45.17027" lon="6.09172">
        <ele>1482</ele>
        <time>2025-02-09T12:35:11Z</time>
      </trkpt>
      <trkpt lat="45.17022" lon="6.09164">
        <ele>1481</ele>
        <time>2025-02-09T12:35:13Z</time>
      </trkpt>
      <trkpt lat="45.17011" lon="6.09146">
        <ele>1481</ele>
        <time>2025-02-09T12:35:15Z</time>
      </trkpt>
      <trkpt lat="45.17006" lon="6.09139">
        <ele>1481</ele>
        <time>2025-02-09T12:35:17Z</time>
      </trkpt>
      <trkpt lat="45.17002" lon="6.09132">
        <ele>1481</ele>
        <time>2025-02-09T12:35:19Z</time>
      </trkpt>
      <trkpt lat="45.16997" lon="6.09126">
        <ele>1481</ele>
        <time>2025-02-09T12:35:21Z</time>
      </trkpt>
      <trkpt lat="45.16993" lon="6.09119">
        <ele>1476</ele>
        <time>2025-02-09T12:35:23Z</time>
      </trkpt>
      <trkpt lat="45.16992" lon="6.09137">
        <ele>1476</ele>
        <time>2025-02-09T12:35:25Z</time>
      </trkpt>
      <trkpt lat="45.16996" lon="6.09154">
        <ele>1476</ele>
        <time>2025-02-09T12:35:28Z</time>
      </trkpt>
      <trkpt lat="45.17001" lon="6.09171">
        <ele>1476</ele>
        <time>2025-02-09T12:35:32Z</time>
      </trkpt>
      <trkpt lat="45.17005" lon="6.09187">
        <ele>1468</ele>
        <time>2025-02-09T12:35:33Z</time>
      </trkpt>
      <trkpt lat="45.17017" lon="6.09218">
        <ele>1468</ele>
        <time>2025-02-09T12:35:34Z</time>
      </trkpt>
      <trkpt lat="45.17018" lon="6.09231">
        <ele>1468</ele>
        <time>2025-02-09T12:35:36Z</time>
      </trkpt>
      <trkpt lat="45.1702" lon="6.09243">
        <ele>1468</ele>
        <time>2025-02-09T12:35:38Z</time>
      </trkpt>
      <trkpt lat="45.17022" lon="6.09255">
        <ele>1468</ele>
        <time>2025-02-09T12:35:40Z</time>
      </trkpt>
      <trkpt lat="45.17023" lon="6.09268">
        <ele>1468</ele>
        <time>2025-02-09T12:35:42Z</time>
      </trkpt>
      <trkpt lat="45.17025" lon="6.0928">
        <ele>1461</ele>
        <time>2025-02-09T12:35:43Z</time>
      </trkpt>
      <trkpt lat="45.17019" lon="6.093">
        <ele>1461</ele>
        <time>2025-02-09T12:35:44Z</time>
      </trkpt>
      <trkpt lat="45.17016" lon="6.09311">
        <ele>1461</ele>
        <time>2025-02-09T12:35:46Z</time>
      </trkpt>
      <trkpt lat="45.17013" lon="6.09323">
        <ele>1461</ele>
        <time>2025-02-09T12:35:48Z</time>
      </trkpt>
      <trkpt lat="45.1701" lon="6.09334">
        <ele>1461</ele>
        <time>2025-02-09T12:35:50Z</time>
      </trkpt>
      <trkpt lat="45.17008" lon="6.09346">
        <ele>1461</ele>
        <time>2025-02-09T12:35:52Z</time>
      </trkpt>
      <trkpt lat="45.17005" lon="6.09358">
        <ele>1454</ele>
        <time>2025-02-09T12:35:53Z</time>
      </trkpt>
      <trkpt lat="45.17013" lon="6.09372">
        <ele>1454</ele>
        <time>2025-02-09T12:35:54Z</time>
      </trkpt>
      <trkpt lat="45.1702" lon="6.0938">
        <ele>1454</ele>
        <time>2025-02-09T12:35:56Z</time>
      </trkpt>
      <trkpt lat="45.17027" lon="6.09388">
        <ele>1454</ele>
        <time>2025-02-09T12:35:58Z</time>
      </trkpt>
      <trkpt lat="45.17034" lon="6.09397">
        <ele>1454</ele>
        <time>2025-02-09T12:36:00Z</time>
      </trkpt>
      <trkpt lat="45.17041" lon="6.09405">
        <ele>1454</ele>
        <time>2025-02-09T12:36:02Z</time>
      </trkpt>
      <trkpt lat="45.17048" lon="6.09413">
        <ele>1444</ele>
        <time>2025-02-09T12:36:03Z</time>
      </trkpt>
      <trkpt lat="45.17054" lon="6.09431">
        <ele>1444</ele>
        <time>2025-02-09T12:36:04Z</time>
      </trkpt>
      <trkpt lat="45.17057" lon="6.09443">
        <ele>1444</ele>
        <time>2025-02-09T12:36:06Z</time>
      </trkpt>
      <trkpt lat="45.1706" lon="6.09455">
        <ele>1444</ele>
        <time>2025-02-09T12:36:08Z</time>
      </trkpt>
      <trkpt lat="45.17063" lon="6.09467">
        <ele>1444</ele>
        <time>2025-02-09T12:36:10Z</time>
      </trkpt>
      <trkpt lat="45.17066" lon="6.09479">
        <ele>1444</ele>
        <time>2025-02-09T12:36:12Z</time>
      </trkpt>
      <trkpt lat="45.17069" lon="6.09491">
        <ele>1438</ele>
        <time>2025-02-09T12:36:13Z</time>
      </trkpt>
      <trkpt lat="45.17068" lon="6.09512">
        <ele>1438</ele>
        <time>2025-02-09T12:36:14Z</time>
      </trkpt>
      <trkpt lat="45.17067" lon="6.09525">
        <ele>1438</ele>
        <time>2025-02-09T12:36:16Z</time>
      </trkpt>
      <trkpt lat="45.17066" lon="6.09538">
        <ele>1438</ele>
        <time>2025-02-09T12:36:18Z</time>
      </trkpt>
      <trkpt lat="45.17065" lon="6.0955">
        <ele>1438</ele>
        <time>2025-02-09T12:36:20Z</time>
      </trkpt>
      <trkpt lat="45.17065" lon="6.09563">
        <ele>1438</ele>
        <time>2025-02-09T12:36:22Z</time>
      </trkpt>
      <trkpt lat="45.17064" lon="6.09576">
        <ele>1435</ele>
        <time>2025-02-09T12:36:23Z</time>
      </trkpt>
      <trkpt lat="45.17062" lon="6.0959">
        <ele>1435</ele>
        <time>2025-02-09T12:36:24Z</time>
      </trkpt>
      <trkpt lat="45.17059" lon="6.09596">
        <ele>1435</ele>
        <time>2025-02-09T12:36:26Z</time>
      </trkpt>
      <trkpt lat="45.17056" lon="6.09601">
        <ele>1435</ele>
        <time>2025-02-09T12:36:28Z</time>
      </trkpt>
      <trkpt lat="45.17054" lon="6.09607">
        <ele>1435</ele>
        <time>2025-02-09T12:36:31Z</time>
      </trkpt>
      <trkpt lat="45.17051" lon="6.09612">
        <ele>1427</ele>
        <time>2025-02-09T12:36:33Z</time>
      </trkpt>
      <trkpt lat="45.17041" lon="6.09593">
        <ele>1427</ele>
        <time>2025-02-09T12:36:34Z</time>
      </trkpt>
      <trkpt lat="45.17035" lon="6.09581">
        <ele>1427</ele>
        <time>2025-02-09T12:36:35Z</time>
      </trkpt>
      <trkpt lat="45.17029" lon="6.09569">
        <ele>1427</ele>
        <time>2025-02-09T12:36:36Z</time>
      </trkpt>
      <trkpt lat="45.17023" lon="6.09556">
        <ele>1427</ele>
        <time>2025-02-09T12:36:38Z</time>
      </trkpt>
      <trkpt lat="45.17017" lon="6.09544">
        <ele>1427</ele>
        <time>2025-02-09T12:36:40Z</time>
      </trkpt>
      <trkpt lat="45.17011" lon="6.09532">
        <ele>1427</ele>
        <time>2025-02-09T12:36:42Z</time>
      </trkpt>
      <trkpt lat="45.17005" lon="6.09519">
        <ele>1423</ele>
        <time>2025-02-09T12:36:43Z</time>
      </trkpt>
      <trkpt lat="45.16992" lon="6.09507">
        <ele>1423</ele>
        <time>2025-02-09T12:36:44Z</time>
      </trkpt>
      <trkpt lat="45.16983" lon="6.09501">
        <ele>1423</ele>
        <time>2025-02-09T12:36:45Z</time>
      </trkpt>
      <trkpt lat="45.16974" lon="6.09495">
        <ele>1423</ele>
        <time>2025-02-09T12:36:47Z</time>
      </trkpt>
      <trkpt lat="45.16965" lon="6.09488">
        <ele>1423</ele>
        <time>2025-02-09T12:36:49Z</time>
      </trkpt>
      <trkpt lat="45.16956" lon="6.09482">
        <ele>1423</ele>
        <time>2025-02-09T12:36:51Z</time>
      </trkpt>
      <trkpt lat="45.16948" lon="6.09476">
        <ele>1413</ele>
        <time>2025-02-09T12:36:53Z</time>
      </trkpt>
      <trkpt lat="45.16934" lon="6.09469">
        <ele>1413</ele>
        <time>2025-02-09T12:36:54Z</time>
      </trkpt>
      <trkpt lat="45.16925" lon="6.09465">
        <ele>1413</ele>
        <time>2025-02-09T12:36:56Z</time>
      </trkpt>
      <trkpt lat="45.16916" lon="6.09461">
        <ele>1413</ele>
        <time>2025-02-09T12:36:58Z</time>
      </trkpt>
      <trkpt lat="45.16907" lon="6.09457">
        <ele>1413</ele>
        <time>2025-02-09T12:37:00Z</time>
      </trkpt>
      <trkpt lat="45.16898" lon="6.09453">
        <ele>1413</ele>
        <time>2025-02-09T12:37:02Z</time>
      </trkpt>
      <trkpt lat="45.16889" lon="6.09449">
        <ele>1406</ele>
        <time>2025-02-09T12:37:03Z</time>
      </trkpt>
      <trkpt lat="45.16865" lon="6.09437">
        <ele>1406</ele>
        <time>2025-02-09T12:37:05Z</time>
      </trkpt>
      <trkpt lat="45.16857" lon="6.09433">
        <ele>1406</ele>
        <time>2025-02-09T12:37:07Z</time>
      </trkpt>
      <trkpt lat="45.16849" lon="6.0943">
        <ele>1406</ele>
        <time>2025-02-09T12:37:09Z</time>
      </trkpt>
      <trkpt lat="45.16842" lon="6.09426">
        <ele>1406</ele>
        <time>2025-02-09T12:37:11Z</time>
      </trkpt>
      <trkpt lat="45.16834" lon="6.09422">
        <ele>1399</ele>
        <time>2025-02-09T12:37:13Z</time>
      </trkpt>
      <trkpt lat="45.1683" lon="6.0942">
        <ele>1399</ele>
        <time>2025-02-09T12:37:15Z</time>
      </trkpt>
      <trkpt lat="45.16831" lon="6.09421">
        <ele>1397</ele>
        <time>2025-02-09T12:37:23Z</time>
      </trkpt>
      <trkpt lat="45.16832" lon="6.09421">
        <ele>1396</ele>
        <time>2025-02-09T12:37:33Z</time>
      </trkpt>
      <trkpt lat="45.16833" lon="6.09422">
        <ele>1396</ele>
        <time>2025-02-09T12:37:43Z</time>
      </trkpt>
      <trkpt lat="45.16834" lon="6.09423">
        <ele>1396</ele>
        <time>2025-02-09T12:37:53Z</time>
      </trkpt>
      <trkpt lat="45.16835" lon="6.09423">
        <ele>1396</ele>
        <time>2025-02-09T12:38:03Z</time>
      </trkpt>
      <trkpt lat="45.16836" lon="6.09424">
        <ele>1396</ele>
        <time>2025-02-09T12:38:13Z</time>
      </trkpt>
      <trkpt lat="45.16837" lon="6.09425">
        <ele>1396</ele>
        <time>2025-02-09T12:38:22Z</time>
      </trkpt>
      <trkpt lat="45.16838" lon="6.09426">
        <ele>1396</ele>
        <time>2025-02-09T12:38:23Z</time>
      </trkpt>
      <trkpt lat="45.16838" lon="6.09426">
        <ele>1396</ele>
        <time>2025-02-09T12:38:33Z</time>
      </trkpt>
      <trkpt lat="45.16838" lon="6.09439">
        <ele>1396</ele>
        <time>2025-02-09T12:38:38Z</time>
      </trkpt>
      <trkpt lat="45.16838" lon="6.09439">
        <ele>1396</ele>
        <time>2025-02-09T12:38:43Z</time>
      </trkpt>
      <trkpt lat="45.16844" lon="6.0945">
        <ele>1396</ele>
        <time>2025-02-09T12:38:47Z</time>
      </trkpt>
      <trkpt lat="45.16844" lon="6.0945">
        <ele>1395</ele>
        <time>2025-02-09T12:38:53Z</time>
      </trkpt>
      <trkpt lat="45.16848" lon="6.09462">
        <ele>1395</ele>
        <time>2025-02-09T12:38:56Z</time>
      </trkpt>
      <trkpt lat="45.16848" lon="6.09462">
        <ele>1396</ele>
        <time>2025-02-09T12:39:03Z</time>
      </trkpt>
      <trkpt lat="45.16848" lon="6.09462">
        <ele>1396</ele>
        <time>2025-02-09T12:39:13Z</time>
      </trkpt>
      <trkpt lat="45.16856" lon="6.0947">
        <ele>1396</ele>
        <time>2025-02-09T12:39:17Z</time>
      </trkpt>
      <trkpt lat="45.16856" lon="6.0947">
        <ele>1396</ele>
        <time>2025-02-09T12:39:23Z</time>
      </trkpt>
      <trkpt lat="45.16856" lon="6.0947">
        <ele>1396</ele>
        <time>2025-02-09T12:39:25Z</time>
      </trkpt>
    </trkseg>
  </trk>
</gpx>